<?xml version='1.0' encoding='UTF-8'?><gpx version="1.1" creator="JPX - https://github.com/jenetics/jpx" xmlns="http://www.topografix.com/GPX/1/1"><trk><trkseg><trkpt lat="45.6433787" lon="10.998176"><ele>1118.0</ele><time>2026-04-18T14:22:10.72Z</time></trkpt><trkpt lat="45.643355" lon="10.9982601"><ele>1118.0</ele><time>2026-04-18T14:22:13.72Z</time></trkpt><trkpt lat="45.6434174" lon="10.9983275"><ele>1118.0</ele><time>2026-04-18T14:22:15.72Z</time></trkpt><trkpt lat="45.643509" lon="10.9983696"><ele>1118.0</ele><time>2026-04-18T14:22:18.72Z</time></trkpt><trkpt lat="45.6435773" lon="10.9983744"><ele>1118.0</ele><time>2026-04-18T14:22:19.721Z</time></trkpt><trkpt lat="45.6436627" lon="10.99837"><ele>1118.0</ele><time>2026-04-18T14:22:20.72Z</time></trkpt><trkpt lat="45.6437589" lon="10.9983672"><ele>1120.0</ele><time>2026-04-18T14:22:21.72Z</time></trkpt><trkpt lat="45.6438666" lon="10.9983841"><ele>1122.0</ele><time>2026-04-18T14:22:22.72Z</time></trkpt><trkpt lat="45.6439785" lon="10.9984208"><ele>1124.0</ele><time>2026-04-18T14:22:23.72Z</time></trkpt><trkpt lat="45.6440986" lon="10.9984451"><ele>1126.0</ele><time>2026-04-18T14:22:24.72Z</time></trkpt><trkpt lat="45.6442148" lon="10.998454"><ele>1126.0</ele><time>2026-04-18T14:22:25.72Z</time></trkpt><trkpt lat="45.6443297" lon="10.9984146"><ele>1126.0</ele><time>2026-04-18T14:22:26.72Z</time></trkpt><trkpt lat="45.6444399" lon="10.9983664"><ele>1126.0</ele><time>2026-04-18T14:22:27.72Z</time></trkpt><trkpt lat="45.6445448" lon="10.9983045"><ele>1126.0</ele><time>2026-04-18T14:22:28.72Z</time></trkpt><trkpt lat="45.6446403" lon="10.9982416"><ele>1125.0</ele><time>2026-04-18T14:22:29.72Z</time></trkpt><trkpt lat="45.6447345" lon="10.9981778"><ele>1124.0</ele><time>2026-04-18T14:22:30.72Z</time></trkpt><trkpt lat="45.6448245" lon="10.9981196"><ele>1123.0</ele><time>2026-04-18T14:22:31.72Z</time></trkpt><trkpt lat="45.6449097" lon="10.998081"><ele>1122.0</ele><time>2026-04-18T14:22:32.72Z</time></trkpt><trkpt lat="45.6449912" lon="10.998066"><ele>1121.0</ele><time>2026-04-18T14:22:33.72Z</time></trkpt><trkpt lat="45.6450711" lon="10.9980674"><ele>1121.0</ele><time>2026-04-18T14:22:34.721Z</time></trkpt><trkpt lat="45.6451477" lon="10.9980793"><ele>1121.0</ele><time>2026-04-18T14:22:35.72Z</time></trkpt><trkpt lat="45.6452319" lon="10.9981039"><ele>1121.0</ele><time>2026-04-18T14:22:36.72Z</time></trkpt><trkpt lat="45.6453367" lon="10.9981618"><ele>1121.0</ele><time>2026-04-18T14:22:37.721Z</time></trkpt><trkpt lat="45.6454486" lon="10.998236"><ele>1121.0</ele><time>2026-04-18T14:22:38.72Z</time></trkpt><trkpt lat="45.6455577" lon="10.9983196"><ele>1123.5</ele><time>2026-04-18T14:22:39.72Z</time></trkpt><trkpt lat="45.6456737" lon="10.9984296"><ele>1126.0</ele><time>2026-04-18T14:22:40.72Z</time></trkpt><trkpt lat="45.6457772" lon="10.9985487"><ele>1128.5</ele><time>2026-04-18T14:22:41.72Z</time></trkpt><trkpt lat="45.6458727" lon="10.9986519"><ele>1131.0</ele><time>2026-04-18T14:22:42.72Z</time></trkpt><trkpt lat="45.6459728" lon="10.9987331"><ele>1131.0</ele><time>2026-04-18T14:22:43.72Z</time></trkpt><trkpt lat="45.6460965" lon="10.9987561"><ele>1131.0</ele><time>2026-04-18T14:22:44.72Z</time></trkpt><trkpt lat="45.646225" lon="10.9987273"><ele>1131.0</ele><time>2026-04-18T14:22:45.72Z</time></trkpt><trkpt lat="45.6463597" lon="10.9986435"><ele>1131.0</ele><time>2026-04-18T14:22:46.72Z</time></trkpt><trkpt lat="45.6464983" lon="10.9985445"><ele>1132.6666666666667</ele><time>2026-04-18T14:22:47.72Z</time></trkpt><trkpt lat="45.6466631" lon="10.9984303"><ele>1134.3333333333335</ele><time>2026-04-18T14:22:48.72Z</time></trkpt><trkpt lat="45.6467932" lon="10.9983392"><ele>1136.0</ele><time>2026-04-18T14:22:49.72Z</time></trkpt><trkpt lat="45.6469073" lon="10.9982571"><ele>1135.5</ele><time>2026-04-18T14:22:50.72Z</time></trkpt><trkpt lat="45.6470041" lon="10.9981561"><ele>1135.0</ele><time>2026-04-18T14:22:51.72Z</time></trkpt><trkpt lat="45.6470754" lon="10.9980276"><ele>1134.5</ele><time>2026-04-18T14:22:52.72Z</time></trkpt><trkpt lat="45.6471088" lon="10.9978561"><ele>1134.0</ele><time>2026-04-18T14:22:53.72Z</time></trkpt><trkpt lat="45.6471002" lon="10.997657"><ele>1134.0</ele><time>2026-04-18T14:22:54.72Z</time></trkpt><trkpt lat="45.6470625" lon="10.9974712"><ele>1134.0</ele><time>2026-04-18T14:22:55.72Z</time></trkpt><trkpt lat="45.647019" lon="10.9973117"><ele>1134.0</ele><time>2026-04-18T14:22:56.72Z</time></trkpt><trkpt lat="45.6469906" lon="10.9971582"><ele>1134.0</ele><time>2026-04-18T14:22:57.72Z</time></trkpt><trkpt lat="45.6469843" lon="10.9969926"><ele>1134.0</ele><time>2026-04-18T14:22:58.72Z</time></trkpt><trkpt lat="45.6469937" lon="10.9968204"><ele>1134.0</ele><time>2026-04-18T14:22:59.72Z</time></trkpt><trkpt lat="45.6470229" lon="10.9966627"><ele>1134.0</ele><time>2026-04-18T14:23:00.72Z</time></trkpt><trkpt lat="45.6470771" lon="10.9965012"><ele>1134.0</ele><time>2026-04-18T14:23:01.72Z</time></trkpt><trkpt lat="45.6471551" lon="10.9963406"><ele>1132.25</ele><time>2026-04-18T14:23:02.721Z</time></trkpt><trkpt lat="45.6472514" lon="10.9961869"><ele>1130.5</ele><time>2026-04-18T14:23:03.72Z</time></trkpt><trkpt lat="45.6473706" lon="10.9960478"><ele>1128.75</ele><time>2026-04-18T14:23:04.72Z</time></trkpt><trkpt lat="45.6474894" lon="10.9959242"><ele>1127.0</ele><time>2026-04-18T14:23:05.72Z</time></trkpt><trkpt lat="45.6476029" lon="10.9958127"><ele>1126.5</ele><time>2026-04-18T14:23:06.72Z</time></trkpt><trkpt lat="45.6477109" lon="10.9957113"><ele>1126.0</ele><time>2026-04-18T14:23:07.72Z</time></trkpt><trkpt lat="45.6478141" lon="10.9956174"><ele>1125.5</ele><time>2026-04-18T14:23:08.72Z</time></trkpt><trkpt lat="45.6479155" lon="10.995537"><ele>1125.0</ele><time>2026-04-18T14:23:09.72Z</time></trkpt><trkpt lat="45.6480329" lon="10.9954659"><ele>1125.0</ele><time>2026-04-18T14:23:10.72Z</time></trkpt><trkpt lat="45.6481651" lon="10.9954212"><ele>1125.0</ele><time>2026-04-18T14:23:11.72Z</time></trkpt><trkpt lat="45.648296" lon="10.9953971"><ele>1125.0</ele><time>2026-04-18T14:23:12.72Z</time></trkpt><trkpt lat="45.6484367" lon="10.9954002"><ele>1125.0</ele><time>2026-04-18T14:23:13.72Z</time></trkpt><trkpt lat="45.6485746" lon="10.9954275"><ele>1125.25</ele><time>2026-04-18T14:23:14.72Z</time></trkpt><trkpt lat="45.6487066" lon="10.99548"><ele>1125.5</ele><time>2026-04-18T14:23:15.72Z</time></trkpt><trkpt lat="45.6488236" lon="10.9955514"><ele>1125.75</ele><time>2026-04-18T14:23:16.72Z</time></trkpt><trkpt lat="45.6489231" lon="10.9956247"><ele>1126.0</ele><time>2026-04-18T14:23:17.72Z</time></trkpt><trkpt lat="45.6490117" lon="10.99568"><ele>1126.0</ele><time>2026-04-18T14:23:18.72Z</time></trkpt><trkpt lat="45.6491007" lon="10.9956859"><ele>1126.0</ele><time>2026-04-18T14:23:19.72Z</time></trkpt><trkpt lat="45.6491846" lon="10.9956295"><ele>1126.0</ele><time>2026-04-18T14:23:20.72Z</time></trkpt><trkpt lat="45.6492346" lon="10.9955224"><ele>1126.0</ele><time>2026-04-18T14:23:21.72Z</time></trkpt><trkpt lat="45.6492501" lon="10.9953896"><ele>1126.0</ele><time>2026-04-18T14:23:22.72Z</time></trkpt><trkpt lat="45.6492268" lon="10.9952187"><ele>1126.0</ele><time>2026-04-18T14:23:23.72Z</time></trkpt><trkpt lat="45.649177" lon="10.9950311"><ele>1126.0</ele><time>2026-04-18T14:23:24.72Z</time></trkpt><trkpt lat="45.6491223" lon="10.9948382"><ele>1126.0</ele><time>2026-04-18T14:23:25.72Z</time></trkpt><trkpt lat="45.6490716" lon="10.9946504"><ele>1126.0</ele><time>2026-04-18T14:23:26.72Z</time></trkpt><trkpt lat="45.6490293" lon="10.9944605"><ele>1124.5</ele><time>2026-04-18T14:23:27.72Z</time></trkpt><trkpt lat="45.6489923" lon="10.9942841"><ele>1123.0</ele><time>2026-04-18T14:23:28.721Z</time></trkpt><trkpt lat="45.6489617" lon="10.99412"><ele>1121.5</ele><time>2026-04-18T14:23:29.72Z</time></trkpt><trkpt lat="45.648939" lon="10.9939614"><ele>1120.0</ele><time>2026-04-18T14:23:30.72Z</time></trkpt><trkpt lat="45.6489295" lon="10.9938009"><ele>1120.0</ele><time>2026-04-18T14:23:31.72Z</time></trkpt><trkpt lat="45.648928" lon="10.9936246"><ele>1120.0</ele><time>2026-04-18T14:23:32.721Z</time></trkpt><trkpt lat="45.6489376" lon="10.9934381"><ele>1120.0</ele><time>2026-04-18T14:23:33.72Z</time></trkpt><trkpt lat="45.648963" lon="10.993263"><ele>1120.0</ele><time>2026-04-18T14:23:34.72Z</time></trkpt><trkpt lat="45.6489951" lon="10.9931072"><ele>1118.75</ele><time>2026-04-18T14:23:35.72Z</time></trkpt><trkpt lat="45.6490332" lon="10.992962"><ele>1117.5</ele><time>2026-04-18T14:23:36.72Z</time></trkpt><trkpt lat="45.6490915" lon="10.9928143"><ele>1116.25</ele><time>2026-04-18T14:23:37.72Z</time></trkpt><trkpt lat="45.6491601" lon="10.9926644"><ele>1115.0</ele><time>2026-04-18T14:23:38.72Z</time></trkpt><trkpt lat="45.6492288" lon="10.9925127"><ele>1112.75</ele><time>2026-04-18T14:23:39.72Z</time></trkpt><trkpt lat="45.6492939" lon="10.9923736"><ele>1110.5</ele><time>2026-04-18T14:23:40.72Z</time></trkpt><trkpt lat="45.6493668" lon="10.9922461"><ele>1108.25</ele><time>2026-04-18T14:23:41.721Z</time></trkpt><trkpt lat="45.6494676" lon="10.9921294"><ele>1106.0</ele><time>2026-04-18T14:23:42.72Z</time></trkpt><trkpt lat="45.6495949" lon="10.9920256"><ele>1115.0</ele><time>2026-04-18T14:23:43.72Z</time></trkpt><trkpt lat="45.649745" lon="10.9919331"><ele>1124.0</ele><time>2026-04-18T14:23:44.72Z</time></trkpt><trkpt lat="45.6499043" lon="10.9918493"><ele>1133.0</ele><time>2026-04-18T14:23:45.72Z</time></trkpt><trkpt lat="45.6500527" lon="10.991786"><ele>1133.0</ele><time>2026-04-18T14:23:46.72Z</time></trkpt><trkpt lat="45.6501921" lon="10.9917397"><ele>1133.0</ele><time>2026-04-18T14:23:47.72Z</time></trkpt><trkpt lat="45.6503148" lon="10.9916887"><ele>1133.0</ele><time>2026-04-18T14:23:48.72Z</time></trkpt><trkpt lat="45.6504296" lon="10.9915982"><ele>1133.0</ele><time>2026-04-18T14:23:49.72Z</time></trkpt><trkpt lat="45.6505373" lon="10.9914555"><ele>1133.5</ele><time>2026-04-18T14:23:50.72Z</time></trkpt><trkpt lat="45.6506352" lon="10.9913191"><ele>1134.0</ele><time>2026-04-18T14:23:51.72Z</time></trkpt><trkpt lat="45.650714" lon="10.9911858"><ele>1134.5</ele><time>2026-04-18T14:23:52.721Z</time></trkpt><trkpt lat="45.6507617" lon="10.9910346"><ele>1135.0</ele><time>2026-04-18T14:23:53.72Z</time></trkpt><trkpt lat="45.6507636" lon="10.9908724"><ele>1134.25</ele><time>2026-04-18T14:23:54.72Z</time></trkpt><trkpt lat="45.6507173" lon="10.9906979"><ele>1133.5</ele><time>2026-04-18T14:23:55.72Z</time></trkpt><trkpt lat="45.6506528" lon="10.9905273"><ele>1132.75</ele><time>2026-04-18T14:23:56.72Z</time></trkpt><trkpt lat="45.6505921" lon="10.9903787"><ele>1132.0</ele><time>2026-04-18T14:23:57.72Z</time></trkpt><trkpt lat="45.650551" lon="10.9902298"><ele>1132.0</ele><time>2026-04-18T14:23:58.72Z</time></trkpt><trkpt lat="45.6505372" lon="10.9900859"><ele>1132.0</ele><time>2026-04-18T14:23:59.721Z</time></trkpt><trkpt lat="45.6505574" lon="10.9899413"><ele>1132.0</ele><time>2026-04-18T14:24:00.72Z</time></trkpt><trkpt lat="45.6506117" lon="10.989799"><ele>1132.0</ele><time>2026-04-18T14:24:01.72Z</time></trkpt><trkpt lat="45.650702" lon="10.989668"><ele>1132.0</ele><time>2026-04-18T14:24:02.72Z</time></trkpt><trkpt lat="45.6508155" lon="10.9895694"><ele>1132.25</ele><time>2026-04-18T14:24:03.72Z</time></trkpt><trkpt lat="45.6509536" lon="10.9895043"><ele>1132.5</ele><time>2026-04-18T14:24:04.72Z</time></trkpt><trkpt lat="45.6511003" lon="10.9894797"><ele>1132.75</ele><time>2026-04-18T14:24:05.72Z</time></trkpt><trkpt lat="45.6512305" lon="10.9894704"><ele>1133.0</ele><time>2026-04-18T14:24:06.72Z</time></trkpt><trkpt lat="45.6513377" lon="10.9894597"><ele>1135.0</ele><time>2026-04-18T14:24:07.72Z</time></trkpt><trkpt lat="45.6514392" lon="10.9893983"><ele>1137.0</ele><time>2026-04-18T14:24:08.72Z</time></trkpt><trkpt lat="45.6515248" lon="10.9892721"><ele>1139.0</ele><time>2026-04-18T14:24:09.72Z</time></trkpt><trkpt lat="45.6515836" lon="10.9890824"><ele>1141.0</ele><time>2026-04-18T14:24:10.72Z</time></trkpt><trkpt lat="45.6516357" lon="10.9888916"><ele>1141.0</ele><time>2026-04-18T14:24:11.72Z</time></trkpt><trkpt lat="45.6516803" lon="10.9887106"><ele>1141.0</ele><time>2026-04-18T14:24:12.72Z</time></trkpt><trkpt lat="45.6517363" lon="10.9885452"><ele>1141.0</ele><time>2026-04-18T14:24:13.72Z</time></trkpt><trkpt lat="45.6518095" lon="10.9883717"><ele>1141.0</ele><time>2026-04-18T14:24:14.72Z</time></trkpt><trkpt lat="45.6519005" lon="10.9881985"><ele>1147.0</ele><time>2026-04-18T14:24:15.72Z</time></trkpt><trkpt lat="45.6520123" lon="10.9880164"><ele>1153.0</ele><time>2026-04-18T14:24:16.72Z</time></trkpt><trkpt lat="45.6521328" lon="10.9878367"><ele>1159.0</ele><time>2026-04-18T14:24:17.72Z</time></trkpt><trkpt lat="45.6522608" lon="10.9876297"><ele>1154.3333333333333</ele><time>2026-04-18T14:24:18.72Z</time></trkpt><trkpt lat="45.6523838" lon="10.9873982"><ele>1149.6666666666667</ele><time>2026-04-18T14:24:19.72Z</time></trkpt><trkpt lat="45.6524961" lon="10.9871426"><ele>1145.0</ele><time>2026-04-18T14:24:20.721Z</time></trkpt><trkpt lat="45.652609" lon="10.9868757"><ele>1140.6666666666667</ele><time>2026-04-18T14:24:21.72Z</time></trkpt><trkpt lat="45.6527246" lon="10.9866253"><ele>1136.3333333333333</ele><time>2026-04-18T14:24:22.72Z</time></trkpt><trkpt lat="45.6528423" lon="10.9863968"><ele>1132.0</ele><time>2026-04-18T14:24:23.72Z</time></trkpt><trkpt lat="45.6529504" lon="10.9861713"><ele>1137.6666666666665</ele><time>2026-04-18T14:24:24.72Z</time></trkpt><trkpt lat="45.6530417" lon="10.9859547"><ele>1143.3333333333333</ele><time>2026-04-18T14:24:25.72Z</time></trkpt><trkpt lat="45.653128" lon="10.9857389"><ele>1149.0</ele><time>2026-04-18T14:24:26.72Z</time></trkpt><trkpt lat="45.6532306" lon="10.9855141"><ele>1149.0</ele><time>2026-04-18T14:24:27.72Z</time></trkpt><trkpt lat="45.6533551" lon="10.9852868"><ele>1149.0</ele><time>2026-04-18T14:24:28.72Z</time></trkpt><trkpt lat="45.6534783" lon="10.9850724"><ele>1149.0</ele><time>2026-04-18T14:24:29.72Z</time></trkpt><trkpt lat="45.6535944" lon="10.9848707"><ele>1154.6666666666667</ele><time>2026-04-18T14:24:30.72Z</time></trkpt><trkpt lat="45.6537013" lon="10.9846874"><ele>1160.3333333333335</ele><time>2026-04-18T14:24:31.72Z</time></trkpt><trkpt lat="45.6537982" lon="10.9845194"><ele>1166.0</ele><time>2026-04-18T14:24:32.72Z</time></trkpt><trkpt lat="45.6538787" lon="10.9843714"><ele>1166.0</ele><time>2026-04-18T14:24:33.72Z</time></trkpt><trkpt lat="45.6539499" lon="10.9842421"><ele>1166.0</ele><time>2026-04-18T14:24:34.72Z</time></trkpt><trkpt lat="45.6540306" lon="10.9841264"><ele>1166.0</ele><time>2026-04-18T14:24:35.72Z</time></trkpt><trkpt lat="45.6541263" lon="10.9840352"><ele>1166.0</ele><time>2026-04-18T14:24:36.72Z</time></trkpt><trkpt lat="45.6542263" lon="10.9839595"><ele>1167.5</ele><time>2026-04-18T14:24:37.72Z</time></trkpt><trkpt lat="45.6543309" lon="10.9838782"><ele>1169.0</ele><time>2026-04-18T14:24:38.72Z</time></trkpt><trkpt lat="45.6544342" lon="10.9837919"><ele>1170.5</ele><time>2026-04-18T14:24:39.72Z</time></trkpt><trkpt lat="45.6545428" lon="10.9837118"><ele>1172.0</ele><time>2026-04-18T14:24:40.72Z</time></trkpt><trkpt lat="45.6546514" lon="10.9836348"><ele>1172.0</ele><time>2026-04-18T14:24:41.72Z</time></trkpt><trkpt lat="45.6547589" lon="10.983567"><ele>1172.0</ele><time>2026-04-18T14:24:42.721Z</time></trkpt><trkpt lat="45.6548721" lon="10.9835078"><ele>1172.0</ele><time>2026-04-18T14:24:43.72Z</time></trkpt><trkpt lat="45.6549856" lon="10.9834549"><ele>1172.0</ele><time>2026-04-18T14:24:44.72Z</time></trkpt><trkpt lat="45.6551012" lon="10.9834021"><ele>1172.0</ele><time>2026-04-18T14:24:45.72Z</time></trkpt><trkpt lat="45.6552124" lon="10.9833549"><ele>1172.0</ele><time>2026-04-18T14:24:46.72Z</time></trkpt><trkpt lat="45.6553298" lon="10.9833188"><ele>1172.0</ele><time>2026-04-18T14:24:47.72Z</time></trkpt><trkpt lat="45.6554427" lon="10.9833158"><ele>1172.0</ele><time>2026-04-18T14:24:48.72Z</time></trkpt><trkpt lat="45.6555469" lon="10.9833542"><ele>1171.5</ele><time>2026-04-18T14:24:49.72Z</time></trkpt><trkpt lat="45.6556406" lon="10.983438"><ele>1171.0</ele><time>2026-04-18T14:24:50.72Z</time></trkpt><trkpt lat="45.6557284" lon="10.9835517"><ele>1170.5</ele><time>2026-04-18T14:24:51.72Z</time></trkpt><trkpt lat="45.6558043" lon="10.9836808"><ele>1170.0</ele><time>2026-04-18T14:24:52.72Z</time></trkpt><trkpt lat="45.6558795" lon="10.9838169"><ele>1170.0</ele><time>2026-04-18T14:24:53.72Z</time></trkpt><trkpt lat="45.6559669" lon="10.9839613"><ele>1170.0</ele><time>2026-04-18T14:24:54.72Z</time></trkpt><trkpt lat="45.6560613" lon="10.984112"><ele>1170.0</ele><time>2026-04-18T14:24:55.72Z</time></trkpt><trkpt lat="45.6561681" lon="10.9842627"><ele>1170.0</ele><time>2026-04-18T14:24:56.72Z</time></trkpt><trkpt lat="45.6563057" lon="10.9844067"><ele>1174.3333333333333</ele><time>2026-04-18T14:24:57.72Z</time></trkpt><trkpt lat="45.6564648" lon="10.9845159"><ele>1178.6666666666665</ele><time>2026-04-18T14:24:58.72Z</time></trkpt><trkpt lat="45.6566176" lon="10.984605"><ele>1183.0</ele><time>2026-04-18T14:24:59.721Z</time></trkpt><trkpt lat="45.6567672" lon="10.9847045"><ele>1183.0</ele><time>2026-04-18T14:25:00.72Z</time></trkpt><trkpt lat="45.656902" lon="10.9848169"><ele>1183.0</ele><time>2026-04-18T14:25:01.72Z</time></trkpt><trkpt lat="45.6570275" lon="10.9849536"><ele>1183.0</ele><time>2026-04-18T14:25:02.72Z</time></trkpt><trkpt lat="45.6571439" lon="10.9851443"><ele>1181.6666666666665</ele><time>2026-04-18T14:25:03.72Z</time></trkpt><trkpt lat="45.657254" lon="10.9853605"><ele>1180.3333333333333</ele><time>2026-04-18T14:25:04.72Z</time></trkpt><trkpt lat="45.6573782" lon="10.9855681"><ele>1179.0</ele><time>2026-04-18T14:25:05.721Z</time></trkpt><trkpt lat="45.6575345" lon="10.9857492"><ele>1177.6666666666667</ele><time>2026-04-18T14:25:06.72Z</time></trkpt><trkpt lat="45.657678" lon="10.9859187"><ele>1176.3333333333335</ele><time>2026-04-18T14:25:07.72Z</time></trkpt><trkpt lat="45.6578198" lon="10.9860731"><ele>1175.0</ele><time>2026-04-18T14:25:08.72Z</time></trkpt><trkpt lat="45.6579478" lon="10.9862123"><ele>1175.0</ele><time>2026-04-18T14:25:09.72Z</time></trkpt><trkpt lat="45.6580705" lon="10.986347"><ele>1175.0</ele><time>2026-04-18T14:25:10.72Z</time></trkpt><trkpt lat="45.6581797" lon="10.9864888"><ele>1175.0</ele><time>2026-04-18T14:25:11.72Z</time></trkpt><trkpt lat="45.6582747" lon="10.9866504"><ele>1181.25</ele><time>2026-04-18T14:25:12.72Z</time></trkpt><trkpt lat="45.6583585" lon="10.9868042"><ele>1187.5</ele><time>2026-04-18T14:25:13.72Z</time></trkpt><trkpt lat="45.6584608" lon="10.9869295"><ele>1193.75</ele><time>2026-04-18T14:25:14.72Z</time></trkpt><trkpt lat="45.6585918" lon="10.987034"><ele>1200.0</ele><time>2026-04-18T14:25:15.72Z</time></trkpt><trkpt lat="45.6587434" lon="10.9871273"><ele>1200.0</ele><time>2026-04-18T14:25:16.72Z</time></trkpt><trkpt lat="45.6589088" lon="10.9872241"><ele>1200.0</ele><time>2026-04-18T14:25:17.72Z</time></trkpt><trkpt lat="45.6590719" lon="10.9873142"><ele>1200.0</ele><time>2026-04-18T14:25:18.72Z</time></trkpt><trkpt lat="45.6592271" lon="10.9873724"><ele>1200.0</ele><time>2026-04-18T14:25:19.72Z</time></trkpt><trkpt lat="45.6593886" lon="10.9873907"><ele>1200.0</ele><time>2026-04-18T14:25:20.72Z</time></trkpt><trkpt lat="45.6595583" lon="10.9873913"><ele>1200.0</ele><time>2026-04-18T14:25:21.72Z</time></trkpt><trkpt lat="45.6597427" lon="10.9874132"><ele>1195.6666666666667</ele><time>2026-04-18T14:25:22.72Z</time></trkpt><trkpt lat="45.6599397" lon="10.9874661"><ele>1191.3333333333335</ele><time>2026-04-18T14:25:23.72Z</time></trkpt><trkpt lat="45.6601448" lon="10.9875352"><ele>1187.0</ele><time>2026-04-18T14:25:24.72Z</time></trkpt><trkpt lat="45.660344" lon="10.9875954"><ele>1201.0</ele><time>2026-04-18T14:25:25.72Z</time></trkpt><trkpt lat="45.6605274" lon="10.9876546"><ele>1215.0</ele><time>2026-04-18T14:25:26.72Z</time></trkpt><trkpt lat="45.6607106" lon="10.9876894"><ele>1229.0</ele><time>2026-04-18T14:25:27.72Z</time></trkpt><trkpt lat="45.6609045" lon="10.9876917"><ele>1229.0</ele><time>2026-04-18T14:25:28.72Z</time></trkpt><trkpt lat="45.6611103" lon="10.9876562"><ele>1229.0</ele><time>2026-04-18T14:25:29.72Z</time></trkpt><trkpt lat="45.6613044" lon="10.9876024"><ele>1229.0</ele><time>2026-04-18T14:25:30.72Z</time></trkpt><trkpt lat="45.661485" lon="10.9875418"><ele>1229.0</ele><time>2026-04-18T14:25:31.72Z</time></trkpt><trkpt lat="45.6616614" lon="10.9874564"><ele>1229.0</ele><time>2026-04-18T14:25:32.72Z</time></trkpt><trkpt lat="45.6618387" lon="10.9873363"><ele>1229.0</ele><time>2026-04-18T14:25:33.72Z</time></trkpt><trkpt lat="45.6620218" lon="10.987209"><ele>1229.0</ele><time>2026-04-18T14:25:34.72Z</time></trkpt><trkpt lat="45.6621946" lon="10.9870869"><ele>1229.0</ele><time>2026-04-18T14:25:35.72Z</time></trkpt><trkpt lat="45.6623511" lon="10.9869745"><ele>1229.0</ele><time>2026-04-18T14:25:36.72Z</time></trkpt><trkpt lat="45.6624958" lon="10.9868735"><ele>1229.0</ele><time>2026-04-18T14:25:37.72Z</time></trkpt><trkpt lat="45.6626301" lon="10.9867861"><ele>1229.0</ele><time>2026-04-18T14:25:38.72Z</time></trkpt><trkpt lat="45.6627569" lon="10.9867176"><ele>1229.0</ele><time>2026-04-18T14:25:39.72Z</time></trkpt><trkpt lat="45.6628856" lon="10.9866872"><ele>1229.0</ele><time>2026-04-18T14:25:40.72Z</time></trkpt><trkpt lat="45.6630281" lon="10.9866976"><ele>1231.3333333333335</ele><time>2026-04-18T14:25:41.72Z</time></trkpt><trkpt lat="45.6631869" lon="10.9867491"><ele>1233.6666666666667</ele><time>2026-04-18T14:25:42.72Z</time></trkpt><trkpt lat="45.6633577" lon="10.9868267"><ele>1236.0</ele><time>2026-04-18T14:25:43.72Z</time></trkpt><trkpt lat="45.6635223" lon="10.9869053"><ele>1230.3333333333333</ele><time>2026-04-18T14:25:44.72Z</time></trkpt><trkpt lat="45.6636654" lon="10.9869808"><ele>1224.6666666666665</ele><time>2026-04-18T14:25:45.72Z</time></trkpt><trkpt lat="45.6638161" lon="10.9870851"><ele>1219.0</ele><time>2026-04-18T14:25:46.72Z</time></trkpt><trkpt lat="45.6639633" lon="10.9872406"><ele>1219.0</ele><time>2026-04-18T14:25:47.72Z</time></trkpt><trkpt lat="45.6641158" lon="10.9874031"><ele>1219.0</ele><time>2026-04-18T14:25:48.72Z</time></trkpt><trkpt lat="45.6642658" lon="10.9875307"><ele>1219.0</ele><time>2026-04-18T14:25:49.72Z</time></trkpt><trkpt lat="45.6644143" lon="10.9876645"><ele>1223.0</ele><time>2026-04-18T14:25:50.72Z</time></trkpt><trkpt lat="45.664553" lon="10.9878305"><ele>1227.0</ele><time>2026-04-18T14:25:51.72Z</time></trkpt><trkpt lat="45.6646548" lon="10.9880002"><ele>1231.0</ele><time>2026-04-18T14:25:52.72Z</time></trkpt><trkpt lat="45.664746" lon="10.988146"><ele>1231.0</ele><time>2026-04-18T14:25:53.72Z</time></trkpt><trkpt lat="45.6648311" lon="10.9882545"><ele>1231.0</ele><time>2026-04-18T14:25:54.72Z</time></trkpt><trkpt lat="45.6649496" lon="10.9883204"><ele>1231.0</ele><time>2026-04-18T14:25:55.72Z</time></trkpt><trkpt lat="45.6650888" lon="10.988331"><ele>1231.0</ele><time>2026-04-18T14:25:56.72Z</time></trkpt><trkpt lat="45.6652473" lon="10.988311"><ele>1230.0</ele><time>2026-04-18T14:25:57.72Z</time></trkpt><trkpt lat="45.6653887" lon="10.9882913"><ele>1229.0</ele><time>2026-04-18T14:25:58.72Z</time></trkpt><trkpt lat="45.6655365" lon="10.9883037"><ele>1228.0</ele><time>2026-04-18T14:25:59.72Z</time></trkpt><trkpt lat="45.6657056" lon="10.9883583"><ele>1233.6666666666665</ele><time>2026-04-18T14:26:00.72Z</time></trkpt><trkpt lat="45.6658785" lon="10.9884348"><ele>1239.3333333333333</ele><time>2026-04-18T14:26:01.72Z</time></trkpt><trkpt lat="45.6660666" lon="10.988528"><ele>1245.0</ele><time>2026-04-18T14:26:02.72Z</time></trkpt><trkpt lat="45.6662567" lon="10.9886384"><ele>1245.0</ele><time>2026-04-18T14:26:03.72Z</time></trkpt><trkpt lat="45.6664343" lon="10.9887642"><ele>1245.0</ele><time>2026-04-18T14:26:04.72Z</time></trkpt><trkpt lat="45.6665885" lon="10.9888896"><ele>1245.0</ele><time>2026-04-18T14:26:05.72Z</time></trkpt><trkpt lat="45.6667379" lon="10.9890033"><ele>1245.0</ele><time>2026-04-18T14:26:06.72Z</time></trkpt><trkpt lat="45.6668905" lon="10.9891032"><ele>1245.0</ele><time>2026-04-18T14:26:07.72Z</time></trkpt><trkpt lat="45.6670941" lon="10.9891653"><ele>1245.0</ele><time>2026-04-18T14:26:08.72Z</time></trkpt><trkpt lat="45.6673065" lon="10.9891569"><ele>1253.3333333333333</ele><time>2026-04-18T14:26:09.72Z</time></trkpt><trkpt lat="45.6674902" lon="10.9891901"><ele>1261.6666666666665</ele><time>2026-04-18T14:26:10.72Z</time></trkpt><trkpt lat="45.6676869" lon="10.9892332"><ele>1270.0</ele><time>2026-04-18T14:26:11.72Z</time></trkpt><trkpt lat="45.6679014" lon="10.9893025"><ele>1270.0</ele><time>2026-04-18T14:26:12.72Z</time></trkpt><trkpt lat="45.6681276" lon="10.9893892"><ele>1270.0</ele><time>2026-04-18T14:26:13.72Z</time></trkpt><trkpt lat="45.6683508" lon="10.9894791"><ele>1270.0</ele><time>2026-04-18T14:26:14.72Z</time></trkpt><trkpt lat="45.6685676" lon="10.9895731"><ele>1270.0</ele><time>2026-04-18T14:26:15.72Z</time></trkpt><trkpt lat="45.668761" lon="10.9896795"><ele>1270.0</ele><time>2026-04-18T14:26:16.72Z</time></trkpt><trkpt lat="45.6689461" lon="10.9897901"><ele>1266.3333333333333</ele><time>2026-04-18T14:26:17.72Z</time></trkpt><trkpt lat="45.6691173" lon="10.9898993"><ele>1262.6666666666667</ele><time>2026-04-18T14:26:18.72Z</time></trkpt><trkpt lat="45.6693017" lon="10.9899805"><ele>1259.0</ele><time>2026-04-18T14:26:19.72Z</time></trkpt><trkpt lat="45.6695136" lon="10.990033"><ele>1271.0</ele><time>2026-04-18T14:26:20.72Z</time></trkpt><trkpt lat="45.6697345" lon="10.9900539"><ele>1283.0</ele><time>2026-04-18T14:26:21.72Z</time></trkpt><trkpt lat="45.6699607" lon="10.9901095"><ele>1283.0</ele><time>2026-04-18T14:26:22.72Z</time></trkpt><trkpt lat="45.6701678" lon="10.9902003"><ele>1283.0</ele><time>2026-04-18T14:26:23.72Z</time></trkpt><trkpt lat="45.6703845" lon="10.9902582"><ele>1283.0</ele><time>2026-04-18T14:26:24.72Z</time></trkpt><trkpt lat="45.6706198" lon="10.99031"><ele>1284.5</ele><time>2026-04-18T14:26:25.72Z</time></trkpt><trkpt lat="45.670854" lon="10.9903516"><ele>1286.0</ele><time>2026-04-18T14:26:26.72Z</time></trkpt><trkpt lat="45.6710734" lon="10.9903832"><ele>1288.0</ele><time>2026-04-18T14:26:27.721Z</time></trkpt><trkpt lat="45.6712791" lon="10.9904066"><ele>1290.0</ele><time>2026-04-18T14:26:28.72Z</time></trkpt><trkpt lat="45.6714622" lon="10.990426"><ele>1292.0</ele><time>2026-04-18T14:26:29.72Z</time></trkpt><trkpt lat="45.6716373" lon="10.9904273"><ele>1292.0</ele><time>2026-04-18T14:26:30.72Z</time></trkpt><trkpt lat="45.6718082" lon="10.9903585"><ele>1292.0</ele><time>2026-04-18T14:26:31.72Z</time></trkpt><trkpt lat="45.6719826" lon="10.9902711"><ele>1292.0</ele><time>2026-04-18T14:26:32.72Z</time></trkpt><trkpt lat="45.6721337" lon="10.9901911"><ele>1293.75</ele><time>2026-04-18T14:26:33.72Z</time></trkpt><trkpt lat="45.6722719" lon="10.9901161"><ele>1295.5</ele><time>2026-04-18T14:26:34.72Z</time></trkpt><trkpt lat="45.6724099" lon="10.9900794"><ele>1297.25</ele><time>2026-04-18T14:26:35.72Z</time></trkpt><trkpt lat="45.6725626" lon="10.990075"><ele>1299.0</ele><time>2026-04-18T14:26:36.721Z</time></trkpt><trkpt lat="45.6727328" lon="10.9900987"><ele>1302.0</ele><time>2026-04-18T14:26:37.72Z</time></trkpt><trkpt lat="45.6729081" lon="10.9901051"><ele>1305.0</ele><time>2026-04-18T14:26:38.72Z</time></trkpt><trkpt lat="45.6730933" lon="10.9900909"><ele>1308.0</ele><time>2026-04-18T14:26:39.72Z</time></trkpt><trkpt lat="45.6732835" lon="10.9900901"><ele>1308.0</ele><time>2026-04-18T14:26:40.72Z</time></trkpt><trkpt lat="45.6734907" lon="10.9901195"><ele>1308.0</ele><time>2026-04-18T14:26:41.72Z</time></trkpt><trkpt lat="45.6736951" lon="10.9901595"><ele>1308.0</ele><time>2026-04-18T14:26:42.72Z</time></trkpt><trkpt lat="45.673879" lon="10.9902093"><ele>1308.0</ele><time>2026-04-18T14:26:43.72Z</time></trkpt><trkpt lat="45.6740453" lon="10.9902434"><ele>1308.0</ele><time>2026-04-18T14:26:44.72Z</time></trkpt><trkpt lat="45.6741941" lon="10.990269"><ele>1308.0</ele><time>2026-04-18T14:26:45.72Z</time></trkpt><trkpt lat="45.674321" lon="10.9902985"><ele>1308.0</ele><time>2026-04-18T14:26:46.72Z</time></trkpt><trkpt lat="45.6744479" lon="10.9903683"><ele>1309.25</ele><time>2026-04-18T14:26:47.721Z</time></trkpt><trkpt lat="45.6745552" lon="10.9904821"><ele>1310.5</ele><time>2026-04-18T14:26:48.72Z</time></trkpt><trkpt lat="45.674642" lon="10.9906262"><ele>1311.75</ele><time>2026-04-18T14:26:49.72Z</time></trkpt><trkpt lat="45.6747072" lon="10.9908251"><ele>1313.0</ele><time>2026-04-18T14:26:50.72Z</time></trkpt><trkpt lat="45.674754" lon="10.9909996"><ele>1313.0</ele><time>2026-04-18T14:26:51.72Z</time></trkpt><trkpt lat="45.6747885" lon="10.9911439"><ele>1313.0</ele><time>2026-04-18T14:26:52.72Z</time></trkpt><trkpt lat="45.674833" lon="10.9912522"><ele>1313.0</ele><time>2026-04-18T14:26:53.72Z</time></trkpt><trkpt lat="45.6748939" lon="10.9913141"><ele>1313.0</ele><time>2026-04-18T14:26:54.72Z</time></trkpt><trkpt lat="45.6749706" lon="10.9913325"><ele>1313.0</ele><time>2026-04-18T14:26:55.72Z</time></trkpt><trkpt lat="45.6750476" lon="10.9913057"><ele>1313.0</ele><time>2026-04-18T14:26:56.72Z</time></trkpt><trkpt lat="45.6751167" lon="10.9912223"><ele>1313.0</ele><time>2026-04-18T14:26:57.72Z</time></trkpt><trkpt lat="45.6751686" lon="10.9910869"><ele>1313.0</ele><time>2026-04-18T14:26:58.72Z</time></trkpt><trkpt lat="45.6752085" lon="10.9909227"><ele>1313.0</ele><time>2026-04-18T14:26:59.72Z</time></trkpt><trkpt lat="45.6752387" lon="10.9907443"><ele>1313.0</ele><time>2026-04-18T14:27:00.72Z</time></trkpt><trkpt lat="45.6752479" lon="10.9905729"><ele>1314.6000000000001</ele><time>2026-04-18T14:27:01.72Z</time></trkpt><trkpt lat="45.6752557" lon="10.9904208"><ele>1316.2</ele><time>2026-04-18T14:27:02.72Z</time></trkpt><trkpt lat="45.6752756" lon="10.9902929"><ele>1317.8</ele><time>2026-04-18T14:27:03.72Z</time></trkpt><trkpt lat="45.6753325" lon="10.9901931"><ele>1319.4</ele><time>2026-04-18T14:27:04.72Z</time></trkpt><trkpt lat="45.6754308" lon="10.990103"><ele>1321.0</ele><time>2026-04-18T14:27:05.72Z</time></trkpt><trkpt lat="45.6755431" lon="10.9899933"><ele>1316.0</ele><time>2026-04-18T14:27:06.72Z</time></trkpt><trkpt lat="45.6756276" lon="10.9898763"><ele>1311.0</ele><time>2026-04-18T14:27:07.72Z</time></trkpt><trkpt lat="45.6757182" lon="10.9897821"><ele>1306.0</ele><time>2026-04-18T14:27:08.72Z</time></trkpt><trkpt lat="45.6758345" lon="10.9897286"><ele>1301.0</ele><time>2026-04-18T14:27:09.72Z</time></trkpt><trkpt lat="45.6759847" lon="10.9897104"><ele>1304.0</ele><time>2026-04-18T14:27:10.721Z</time></trkpt><trkpt lat="45.6761412" lon="10.9897225"><ele>1307.0</ele><time>2026-04-18T14:27:11.72Z</time></trkpt><trkpt lat="45.6762849" lon="10.9897271"><ele>1310.0</ele><time>2026-04-18T14:27:12.72Z</time></trkpt><trkpt lat="45.6764193" lon="10.9897057"><ele>1313.0</ele><time>2026-04-18T14:27:13.72Z</time></trkpt><trkpt lat="45.6765236" lon="10.9896406"><ele>1313.0</ele><time>2026-04-18T14:27:14.72Z</time></trkpt><trkpt lat="45.6766056" lon="10.9895242"><ele>1313.0</ele><time>2026-04-18T14:27:15.72Z</time></trkpt><trkpt lat="45.6766574" lon="10.989375"><ele>1313.0</ele><time>2026-04-18T14:27:16.72Z</time></trkpt><trkpt lat="45.6766916" lon="10.9892338"><ele>1313.0</ele><time>2026-04-18T14:27:17.72Z</time></trkpt><trkpt lat="45.6767492" lon="10.9891224"><ele>1313.0</ele><time>2026-04-18T14:27:18.72Z</time></trkpt><trkpt lat="45.6768366" lon="10.9890588"><ele>1311.25</ele><time>2026-04-18T14:27:19.72Z</time></trkpt><trkpt lat="45.6769588" lon="10.9890408"><ele>1309.5</ele><time>2026-04-18T14:27:20.72Z</time></trkpt><trkpt lat="45.6771077" lon="10.9890202"><ele>1307.75</ele><time>2026-04-18T14:27:21.72Z</time></trkpt><trkpt lat="45.6772524" lon="10.9889695"><ele>1306.0</ele><time>2026-04-18T14:27:22.721Z</time></trkpt><trkpt lat="45.6773838" lon="10.9889318"><ele>1306.0</ele><time>2026-04-18T14:27:23.72Z</time></trkpt><trkpt lat="45.6775386" lon="10.9889303"><ele>1306.0</ele><time>2026-04-18T14:27:24.72Z</time></trkpt><trkpt lat="45.6776948" lon="10.9889473"><ele>1306.0</ele><time>2026-04-18T14:27:25.721Z</time></trkpt><trkpt lat="45.6778425" lon="10.9889755"><ele>1309.5</ele><time>2026-04-18T14:27:26.72Z</time></trkpt><trkpt lat="45.6779911" lon="10.9889867"><ele>1313.0</ele><time>2026-04-18T14:27:27.72Z</time></trkpt><trkpt lat="45.6781388" lon="10.9889658"><ele>1316.5</ele><time>2026-04-18T14:27:28.72Z</time></trkpt><trkpt lat="45.6782759" lon="10.9888943"><ele>1320.0</ele><time>2026-04-18T14:27:29.72Z</time></trkpt><trkpt lat="45.678394" lon="10.9887762"><ele>1320.0</ele><time>2026-04-18T14:27:30.72Z</time></trkpt><trkpt lat="45.6784912" lon="10.9886518"><ele>1320.0</ele><time>2026-04-18T14:27:31.72Z</time></trkpt><trkpt lat="45.6785866" lon="10.9885334"><ele>1320.0</ele><time>2026-04-18T14:27:32.72Z</time></trkpt><trkpt lat="45.6787047" lon="10.9884304"><ele>1320.0</ele><time>2026-04-18T14:27:33.72Z</time></trkpt><trkpt lat="45.6788499" lon="10.9883571"><ele>1318.6666666666667</ele><time>2026-04-18T14:27:34.72Z</time></trkpt><trkpt lat="45.6790166" lon="10.9883112"><ele>1317.3333333333335</ele><time>2026-04-18T14:27:35.721Z</time></trkpt><trkpt lat="45.6791803" lon="10.9882392"><ele>1316.0</ele><time>2026-04-18T14:27:36.72Z</time></trkpt><trkpt lat="45.6793394" lon="10.9881348"><ele>1321.6666666666667</ele><time>2026-04-18T14:27:37.72Z</time></trkpt><trkpt lat="45.6794869" lon="10.9880228"><ele>1327.3333333333333</ele><time>2026-04-18T14:27:38.72Z</time></trkpt><trkpt lat="45.6796324" lon="10.9879354"><ele>1333.0</ele><time>2026-04-18T14:27:39.72Z</time></trkpt><trkpt lat="45.6797749" lon="10.9878419"><ele>1333.0</ele><time>2026-04-18T14:27:40.72Z</time></trkpt><trkpt lat="45.679903" lon="10.9877206"><ele>1333.0</ele><time>2026-04-18T14:27:41.72Z</time></trkpt><trkpt lat="45.6800273" lon="10.9875824"><ele>1333.0</ele><time>2026-04-18T14:27:42.72Z</time></trkpt><trkpt lat="45.6801514" lon="10.9874582"><ele>1333.6666666666665</ele><time>2026-04-18T14:27:43.72Z</time></trkpt><trkpt lat="45.6802952" lon="10.9873536"><ele>1334.3333333333333</ele><time>2026-04-18T14:27:44.72Z</time></trkpt><trkpt lat="45.680449" lon="10.9872966"><ele>1335.0</ele><time>2026-04-18T14:27:45.72Z</time></trkpt><trkpt lat="45.6805857" lon="10.9872572"><ele>1335.0</ele><time>2026-04-18T14:27:46.72Z</time></trkpt><trkpt lat="45.6807258" lon="10.9872037"><ele>1335.0</ele><time>2026-04-18T14:27:47.72Z</time></trkpt><trkpt lat="45.6808231" lon="10.9870936"><ele>1335.0</ele><time>2026-04-18T14:27:48.72Z</time></trkpt><trkpt lat="45.6809296" lon="10.9870025"><ele>1335.0</ele><time>2026-04-18T14:27:49.72Z</time></trkpt><trkpt lat="45.6810567" lon="10.9869451"><ele>1340.0</ele><time>2026-04-18T14:27:50.72Z</time></trkpt><trkpt lat="45.6812061" lon="10.9869062"><ele>1345.0</ele><time>2026-04-18T14:27:51.72Z</time></trkpt><trkpt lat="45.6813661" lon="10.9869011"><ele>1350.0</ele><time>2026-04-18T14:27:52.72Z</time></trkpt><trkpt lat="45.6815122" lon="10.986891"><ele>1350.0</ele><time>2026-04-18T14:27:53.72Z</time></trkpt><trkpt lat="45.6816442" lon="10.9868816"><ele>1350.0</ele><time>2026-04-18T14:27:54.72Z</time></trkpt><trkpt lat="45.6817666" lon="10.9868555"><ele>1350.0</ele><time>2026-04-18T14:27:55.72Z</time></trkpt><trkpt lat="45.6818741" lon="10.9867975"><ele>1350.0</ele><time>2026-04-18T14:27:56.72Z</time></trkpt><trkpt lat="45.6819678" lon="10.9866886"><ele>1346.0</ele><time>2026-04-18T14:27:57.72Z</time></trkpt><trkpt lat="45.6820411" lon="10.9865464"><ele>1342.0</ele><time>2026-04-18T14:27:58.72Z</time></trkpt><trkpt lat="45.6820873" lon="10.9863798"><ele>1338.0</ele><time>2026-04-18T14:27:59.72Z</time></trkpt><trkpt lat="45.6821094" lon="10.9862164"><ele>1334.0</ele><time>2026-04-18T14:28:00.72Z</time></trkpt><trkpt lat="45.6820954" lon="10.986052"><ele>1334.0</ele><time>2026-04-18T14:28:01.72Z</time></trkpt><trkpt lat="45.6820381" lon="10.9858887"><ele>1334.0</ele><time>2026-04-18T14:28:02.72Z</time></trkpt><trkpt lat="45.681958" lon="10.9857423"><ele>1334.0</ele><time>2026-04-18T14:28:03.72Z</time></trkpt><trkpt lat="45.6818797" lon="10.9856165"><ele>1334.0</ele><time>2026-04-18T14:28:04.72Z</time></trkpt><trkpt lat="45.6818065" lon="10.9854952"><ele>1333.25</ele><time>2026-04-18T14:28:05.72Z</time></trkpt><trkpt lat="45.6817396" lon="10.9853664"><ele>1332.5</ele><time>2026-04-18T14:28:06.72Z</time></trkpt><trkpt lat="45.6816911" lon="10.9852201"><ele>1331.75</ele><time>2026-04-18T14:28:07.72Z</time></trkpt><trkpt lat="45.6816647" lon="10.9850591"><ele>1331.0</ele><time>2026-04-18T14:28:08.72Z</time></trkpt><trkpt lat="45.6816808" lon="10.9848789"><ele>1331.0</ele><time>2026-04-18T14:28:09.72Z</time></trkpt><trkpt lat="45.6817342" lon="10.9846924"><ele>1331.0</ele><time>2026-04-18T14:28:10.72Z</time></trkpt><trkpt lat="45.68182" lon="10.9845103"><ele>1331.0</ele><time>2026-04-18T14:28:11.72Z</time></trkpt><trkpt lat="45.6819009" lon="10.9843513"><ele>1331.0</ele><time>2026-04-18T14:28:12.72Z</time></trkpt><trkpt lat="45.6819619" lon="10.9841568"><ele>1337.6666666666667</ele><time>2026-04-18T14:28:13.72Z</time></trkpt><trkpt lat="45.6819981" lon="10.9839472"><ele>1344.3333333333333</ele><time>2026-04-18T14:28:14.72Z</time></trkpt><trkpt lat="45.6819977" lon="10.9837266"><ele>1351.0</ele><time>2026-04-18T14:28:15.72Z</time></trkpt><trkpt lat="45.6819657" lon="10.9835144"><ele>1347.5</ele><time>2026-04-18T14:28:16.72Z</time></trkpt><trkpt lat="45.6819196" lon="10.9833303"><ele>1344.0</ele><time>2026-04-18T14:28:17.721Z</time></trkpt><trkpt lat="45.6818713" lon="10.9831685"><ele>1340.5</ele><time>2026-04-18T14:28:18.72Z</time></trkpt><trkpt lat="45.6818336" lon="10.9829991"><ele>1337.0</ele><time>2026-04-18T14:28:19.72Z</time></trkpt><trkpt lat="45.6818189" lon="10.9828127"><ele>1337.0</ele><time>2026-04-18T14:28:20.72Z</time></trkpt><trkpt lat="45.6818202" lon="10.9825965"><ele>1337.0</ele><time>2026-04-18T14:28:21.72Z</time></trkpt><trkpt lat="45.6818145" lon="10.9823768"><ele>1337.0</ele><time>2026-04-18T14:28:22.72Z</time></trkpt><trkpt lat="45.6817865" lon="10.982153"><ele>1338.0</ele><time>2026-04-18T14:28:23.72Z</time></trkpt><trkpt lat="45.6817503" lon="10.9819398"><ele>1339.0</ele><time>2026-04-18T14:28:24.72Z</time></trkpt><trkpt lat="45.6817104" lon="10.981735"><ele>1340.0</ele><time>2026-04-18T14:28:25.72Z</time></trkpt><trkpt lat="45.6816681" lon="10.9815474"><ele>1341.0</ele><time>2026-04-18T14:28:26.72Z</time></trkpt><trkpt lat="45.6816144" lon="10.9813735"><ele>1342.0</ele><time>2026-04-18T14:28:27.72Z</time></trkpt><trkpt lat="45.6815277" lon="10.9812207"><ele>1343.0</ele><time>2026-04-18T14:28:28.72Z</time></trkpt><trkpt lat="45.681406" lon="10.9810992"><ele>1344.0</ele><time>2026-04-18T14:28:29.721Z</time></trkpt><trkpt lat="45.6812698" lon="10.9809883"><ele>1345.0</ele><time>2026-04-18T14:28:30.72Z</time></trkpt><trkpt lat="45.6811278" lon="10.9808813"><ele>1346.5</ele><time>2026-04-18T14:28:31.72Z</time></trkpt><trkpt lat="45.6809821" lon="10.980794"><ele>1348.0</ele><time>2026-04-18T14:28:32.72Z</time></trkpt><trkpt lat="45.6808484" lon="10.98071"><ele>1349.5</ele><time>2026-04-18T14:28:33.72Z</time></trkpt><trkpt lat="45.6807186" lon="10.9806278"><ele>1351.0</ele><time>2026-04-18T14:28:34.72Z</time></trkpt><trkpt lat="45.6805965" lon="10.9805572"><ele>1351.0</ele><time>2026-04-18T14:28:35.72Z</time></trkpt><trkpt lat="45.6804895" lon="10.9804974"><ele>1351.0</ele><time>2026-04-18T14:28:36.72Z</time></trkpt><trkpt lat="45.6803991" lon="10.9804497"><ele>1351.0</ele><time>2026-04-18T14:28:37.72Z</time></trkpt><trkpt lat="45.6803259" lon="10.9803888"><ele>1351.0</ele><time>2026-04-18T14:28:38.72Z</time></trkpt><trkpt lat="45.680274" lon="10.9803137"><ele>1351.0</ele><time>2026-04-18T14:28:39.72Z</time></trkpt><trkpt lat="45.6802543" lon="10.9802182"><ele>1351.0</ele><time>2026-04-18T14:28:40.72Z</time></trkpt><trkpt lat="45.680274" lon="10.9801224"><ele>1351.0</ele><time>2026-04-18T14:28:41.72Z</time></trkpt><trkpt lat="45.6803288" lon="10.9800483"><ele>1351.0</ele><time>2026-04-18T14:28:42.721Z</time></trkpt><trkpt lat="45.6804096" lon="10.9800107"><ele>1351.0</ele><time>2026-04-18T14:28:43.72Z</time></trkpt><trkpt lat="45.6805123" lon="10.9800089"><ele>1351.0</ele><time>2026-04-18T14:28:44.72Z</time></trkpt><trkpt lat="45.6806293" lon="10.9800303"><ele>1351.0</ele><time>2026-04-18T14:28:45.72Z</time></trkpt><trkpt lat="45.6807562" lon="10.9800808"><ele>1351.0</ele><time>2026-04-18T14:28:46.72Z</time></trkpt><trkpt lat="45.6808879" lon="10.9801303"><ele>1351.0</ele><time>2026-04-18T14:28:47.72Z</time></trkpt><trkpt lat="45.6810294" lon="10.9801872"><ele>1351.0</ele><time>2026-04-18T14:28:48.72Z</time></trkpt><trkpt lat="45.6811701" lon="10.9802507"><ele>1351.0</ele><time>2026-04-18T14:28:49.72Z</time></trkpt><trkpt lat="45.6812995" lon="10.9803139"><ele>1351.25</ele><time>2026-04-18T14:28:50.72Z</time></trkpt><trkpt lat="45.6814186" lon="10.9803742"><ele>1351.5</ele><time>2026-04-18T14:28:51.72Z</time></trkpt><trkpt lat="45.6815279" lon="10.9804103"><ele>1351.75</ele><time>2026-04-18T14:28:52.72Z</time></trkpt><trkpt lat="45.681639" lon="10.9804154"><ele>1352.0</ele><time>2026-04-18T14:28:53.72Z</time></trkpt><trkpt lat="45.681754" lon="10.9803661"><ele>1352.0</ele><time>2026-04-18T14:28:54.72Z</time></trkpt><trkpt lat="45.6818648" lon="10.9802567"><ele>1352.0</ele><time>2026-04-18T14:28:55.72Z</time></trkpt><trkpt lat="45.6819586" lon="10.9801019"><ele>1352.0</ele><time>2026-04-18T14:28:56.72Z</time></trkpt><trkpt lat="45.682034" lon="10.9799419"><ele>1352.0</ele><time>2026-04-18T14:28:57.72Z</time></trkpt><trkpt lat="45.6820852" lon="10.9797676"><ele>1354.5</ele><time>2026-04-18T14:28:58.72Z</time></trkpt><trkpt lat="45.6821021" lon="10.979585"><ele>1357.0</ele><time>2026-04-18T14:28:59.72Z</time></trkpt><trkpt lat="45.6820903" lon="10.9794214"><ele>1359.5</ele><time>2026-04-18T14:29:00.72Z</time></trkpt><trkpt lat="45.6820735" lon="10.9792633"><ele>1362.0</ele><time>2026-04-18T14:29:01.72Z</time></trkpt><trkpt lat="45.6820852" lon="10.9791226"><ele>1364.0</ele><time>2026-04-18T14:29:02.72Z</time></trkpt><trkpt lat="45.6821271" lon="10.9789942"><ele>1366.0</ele><time>2026-04-18T14:29:03.72Z</time></trkpt><trkpt lat="45.6821945" lon="10.9788971"><ele>1368.0</ele><time>2026-04-18T14:29:04.72Z</time></trkpt><trkpt lat="45.6822825" lon="10.9788448"><ele>1370.0</ele><time>2026-04-18T14:29:05.721Z</time></trkpt><trkpt lat="45.6823705" lon="10.9788504"><ele>1372.0</ele><time>2026-04-18T14:29:06.72Z</time></trkpt><trkpt lat="45.6824599" lon="10.9789035"><ele>1372.0</ele><time>2026-04-18T14:29:07.72Z</time></trkpt><trkpt lat="45.6825527" lon="10.9789757"><ele>1372.0</ele><time>2026-04-18T14:29:08.72Z</time></trkpt><trkpt lat="45.6826317" lon="10.9790384"><ele>1372.0</ele><time>2026-04-18T14:29:09.72Z</time></trkpt><trkpt lat="45.6826925" lon="10.9790947"><ele>1372.0</ele><time>2026-04-18T14:29:10.72Z</time></trkpt><trkpt lat="45.6827732" lon="10.9791593"><ele>1372.0</ele><time>2026-04-18T14:29:12.72Z</time></trkpt><trkpt lat="45.6828418" lon="10.9791826"><ele>1372.0</ele><time>2026-04-18T14:29:15.72Z</time></trkpt><trkpt lat="45.6829201" lon="10.9792264"><ele>1371.75</ele><time>2026-04-18T14:29:17.72Z</time></trkpt><trkpt lat="45.6830387" lon="10.9792136"><ele>1371.5</ele><time>2026-04-18T14:29:19.72Z</time></trkpt><trkpt lat="45.6831437" lon="10.9791926"><ele>1371.25</ele><time>2026-04-18T14:29:21.72Z</time></trkpt><trkpt lat="45.6832597" lon="10.9791896"><ele>1371.0</ele><time>2026-04-18T14:29:23.72Z</time></trkpt><trkpt lat="45.6833816" lon="10.9791794"><ele>1371.5714285714284</ele><time>2026-04-18T14:29:25.72Z</time></trkpt><trkpt lat="45.6834495" lon="10.9791793"><ele>1372.142857142857</ele><time>2026-04-18T14:29:26.72Z</time></trkpt><trkpt lat="45.6835239" lon="10.9791736"><ele>1372.7142857142858</ele><time>2026-04-18T14:29:27.721Z</time></trkpt><trkpt lat="45.6835985" lon="10.9791685"><ele>1373.2857142857142</ele><time>2026-04-18T14:29:28.721Z</time></trkpt><trkpt lat="45.6836741" lon="10.9791622"><ele>1373.857142857143</ele><time>2026-04-18T14:29:29.72Z</time></trkpt><trkpt lat="45.6837499" lon="10.979153"><ele>1374.4285714285713</ele><time>2026-04-18T14:29:30.72Z</time></trkpt><trkpt lat="45.6838176" lon="10.9791425"><ele>1375.0</ele><time>2026-04-18T14:29:31.72Z</time></trkpt><trkpt lat="45.6839053" lon="10.9790892"><ele>1374.9999999999998</ele><time>2026-04-18T14:29:33.72Z</time></trkpt><trkpt lat="45.6839519" lon="10.9790234"><ele>1375.0</ele><time>2026-04-18T14:29:35.72Z</time></trkpt><trkpt lat="45.6839207" lon="10.9789302"><ele>1375.0</ele><time>2026-04-18T14:30:38.722Z</time></trkpt><trkpt lat="45.6838943" lon="10.9790147"><ele>1375.0</ele><time>2026-04-18T14:30:41.724Z</time></trkpt><trkpt lat="45.6839348" lon="10.9790842"><ele>1375.0</ele><time>2026-04-18T14:30:48.723Z</time></trkpt><trkpt lat="45.6840201" lon="10.9791596"><ele>1374.9999999999998</ele><time>2026-04-18T14:30:50.726Z</time></trkpt><trkpt lat="45.6840898" lon="10.9792077"><ele>1375.0</ele><time>2026-04-18T14:30:51.722Z</time></trkpt><trkpt lat="45.6841652" lon="10.9792641"><ele>1375.8</ele><time>2026-04-18T14:30:52.723Z</time></trkpt><trkpt lat="45.6842422" lon="10.9793269"><ele>1376.6</ele><time>2026-04-18T14:30:53.721Z</time></trkpt><trkpt lat="45.6843256" lon="10.979394"><ele>1377.4</ele><time>2026-04-18T14:30:54.723Z</time></trkpt><trkpt lat="45.6844206" lon="10.9794722"><ele>1378.2</ele><time>2026-04-18T14:30:55.724Z</time></trkpt><trkpt lat="45.6845261" lon="10.9795664"><ele>1379.0</ele><time>2026-04-18T14:30:56.724Z</time></trkpt><trkpt lat="45.6846439" lon="10.9796648"><ele>1378.0</ele><time>2026-04-18T14:30:57.724Z</time></trkpt><trkpt lat="45.6847595" lon="10.979765"><ele>1377.0</ele><time>2026-04-18T14:30:58.722Z</time></trkpt><trkpt lat="45.6848742" lon="10.979867"><ele>1376.0</ele><time>2026-04-18T14:30:59.721Z</time></trkpt><trkpt lat="45.6849767" lon="10.9799753"><ele>1375.0</ele><time>2026-04-18T14:31:00.728Z</time></trkpt><trkpt lat="45.6850734" lon="10.9801071"><ele>1375.0</ele><time>2026-04-18T14:31:01.721Z</time></trkpt><trkpt lat="45.6851622" lon="10.9802648"><ele>1375.0</ele><time>2026-04-18T14:31:02.723Z</time></trkpt><trkpt lat="45.685228" lon="10.9804285"><ele>1375.0</ele><time>2026-04-18T14:31:03.724Z</time></trkpt><trkpt lat="45.685284" lon="10.9805939"><ele>1375.0</ele><time>2026-04-18T14:31:04.722Z</time></trkpt><trkpt lat="45.6853331" lon="10.9807414"><ele>1375.0</ele><time>2026-04-18T14:31:05.724Z</time></trkpt><trkpt lat="45.6853931" lon="10.9808691"><ele>1375.0</ele><time>2026-04-18T14:31:06.724Z</time></trkpt><trkpt lat="45.6854777" lon="10.9809718"><ele>1375.0</ele><time>2026-04-18T14:31:07.723Z</time></trkpt><trkpt lat="45.6856" lon="10.9810446"><ele>1375.0</ele><time>2026-04-18T14:31:08.721Z</time></trkpt><trkpt lat="45.6857453" lon="10.9810763"><ele>1375.0</ele><time>2026-04-18T14:31:09.726Z</time></trkpt><trkpt lat="45.6858883" lon="10.981093"><ele>1375.0</ele><time>2026-04-18T14:31:10.722Z</time></trkpt><trkpt lat="45.6860252" lon="10.9810996"><ele>1375.0</ele><time>2026-04-18T14:31:11.726Z</time></trkpt><trkpt lat="45.6861564" lon="10.9811035"><ele>1375.0</ele><time>2026-04-18T14:31:12.724Z</time></trkpt><trkpt lat="45.6862833" lon="10.9811164"><ele>1372.3333333333333</ele><time>2026-04-18T14:31:13.722Z</time></trkpt><trkpt lat="45.686409" lon="10.9811272"><ele>1369.6666666666667</ele><time>2026-04-18T14:31:14.877Z</time></trkpt><trkpt lat="45.6866954" lon="10.9812021"><ele>1367.0</ele><time>2026-04-18T14:31:16.727Z</time></trkpt><trkpt lat="45.686848" lon="10.9812619"><ele>1363.6666666666667</ele><time>2026-04-18T14:31:17.726Z</time></trkpt><trkpt lat="45.6870142" lon="10.9813294"><ele>1360.3333333333333</ele><time>2026-04-18T14:31:18.723Z</time></trkpt><trkpt lat="45.6871881" lon="10.9813939"><ele>1357.0</ele><time>2026-04-18T14:31:19.721Z</time></trkpt><trkpt lat="45.6873689" lon="10.9814608"><ele>1357.0</ele><time>2026-04-18T14:31:20.721Z</time></trkpt><trkpt lat="45.6875555" lon="10.981525"><ele>1357.0</ele><time>2026-04-18T14:31:21.723Z</time></trkpt><trkpt lat="45.6877452" lon="10.9815767"><ele>1357.0</ele><time>2026-04-18T14:31:22.721Z</time></trkpt><trkpt lat="45.6879266" lon="10.9816226"><ele>1359.3333333333333</ele><time>2026-04-18T14:31:23.723Z</time></trkpt><trkpt lat="45.6880983" lon="10.9816604"><ele>1361.6666666666667</ele><time>2026-04-18T14:31:24.723Z</time></trkpt><trkpt lat="45.688266" lon="10.9816864"><ele>1364.0</ele><time>2026-04-18T14:31:25.723Z</time></trkpt><trkpt lat="45.6884243" lon="10.9817054"><ele>1364.0</ele><time>2026-04-18T14:31:26.72Z</time></trkpt><trkpt lat="45.6885704" lon="10.9817265"><ele>1364.0</ele><time>2026-04-18T14:31:27.724Z</time></trkpt><trkpt lat="45.6886982" lon="10.9817444"><ele>1364.0</ele><time>2026-04-18T14:31:28.723Z</time></trkpt><trkpt lat="45.6888171" lon="10.9817567"><ele>1364.0</ele><time>2026-04-18T14:31:29.722Z</time></trkpt><trkpt lat="45.6889214" lon="10.9817769"><ele>1359.8000000000002</ele><time>2026-04-18T14:31:30.724Z</time></trkpt><trkpt lat="45.6890189" lon="10.9818196"><ele>1355.6000000000001</ele><time>2026-04-18T14:31:31.723Z</time></trkpt><trkpt lat="45.6891102" lon="10.9818965"><ele>1351.4</ele><time>2026-04-18T14:31:32.722Z</time></trkpt><trkpt lat="45.6891913" lon="10.9820075"><ele>1347.2</ele><time>2026-04-18T14:31:33.723Z</time></trkpt><trkpt lat="45.6892551" lon="10.9821383"><ele>1343.0</ele><time>2026-04-18T14:31:34.723Z</time></trkpt><trkpt lat="45.6892966" lon="10.9822885"><ele>1343.0</ele><time>2026-04-18T14:31:35.724Z</time></trkpt><trkpt lat="45.6893247" lon="10.9824297"><ele>1343.0</ele><time>2026-04-18T14:31:36.728Z</time></trkpt><trkpt lat="45.6893559" lon="10.98256"><ele>1343.0</ele><time>2026-04-18T14:31:37.727Z</time></trkpt><trkpt lat="45.6894124" lon="10.9826693"><ele>1343.0</ele><time>2026-04-18T14:31:38.725Z</time></trkpt><trkpt lat="45.6894947" lon="10.9827472"><ele>1343.0</ele><time>2026-04-18T14:31:39.72Z</time></trkpt><trkpt lat="45.6895877" lon="10.9827727"><ele>1343.5</ele><time>2026-04-18T14:31:40.723Z</time></trkpt><trkpt lat="45.6896901" lon="10.9827346"><ele>1344.0</ele><time>2026-04-18T14:31:41.721Z</time></trkpt><trkpt lat="45.6897836" lon="10.9826416"><ele>1344.5</ele><time>2026-04-18T14:31:42.722Z</time></trkpt><trkpt lat="45.6898639" lon="10.9824845"><ele>1345.0</ele><time>2026-04-18T14:31:43.723Z</time></trkpt><trkpt lat="45.6899314" lon="10.9823151"><ele>1343.5</ele><time>2026-04-18T14:31:44.726Z</time></trkpt><trkpt lat="45.6899911" lon="10.9821495"><ele>1342.0</ele><time>2026-04-18T14:31:45.722Z</time></trkpt><trkpt lat="45.6900456" lon="10.9819921"><ele>1340.5</ele><time>2026-04-18T14:31:46.727Z</time></trkpt><trkpt lat="45.6900948" lon="10.9818443"><ele>1339.0</ele><time>2026-04-18T14:31:47.722Z</time></trkpt><trkpt lat="45.6901503" lon="10.9817168"><ele>1336.0</ele><time>2026-04-18T14:31:48.723Z</time></trkpt><trkpt lat="45.6902256" lon="10.981602"><ele>1333.0</ele><time>2026-04-18T14:31:49.723Z</time></trkpt><trkpt lat="45.6903255" lon="10.9815034"><ele>1330.0</ele><time>2026-04-18T14:31:50.722Z</time></trkpt><trkpt lat="45.6904358" lon="10.9814371"><ele>1327.0</ele><time>2026-04-18T14:31:51.723Z</time></trkpt><trkpt lat="45.6905433" lon="10.9814042"><ele>1325.5</ele><time>2026-04-18T14:31:52.723Z</time></trkpt><trkpt lat="45.6906573" lon="10.9814103"><ele>1324.0</ele><time>2026-04-18T14:31:53.722Z</time></trkpt><trkpt lat="45.6907795" lon="10.9814682"><ele>1322.5</ele><time>2026-04-18T14:31:54.726Z</time></trkpt><trkpt lat="45.6908986" lon="10.9815688"><ele>1321.0</ele><time>2026-04-18T14:31:55.725Z</time></trkpt><trkpt lat="45.691005" lon="10.9816775"><ele>1317.25</ele><time>2026-04-18T14:31:56.721Z</time></trkpt><trkpt lat="45.6911046" lon="10.981792"><ele>1313.5</ele><time>2026-04-18T14:31:57.731Z</time></trkpt><trkpt lat="45.691192" lon="10.9819202"><ele>1309.75</ele><time>2026-04-18T14:31:58.722Z</time></trkpt><trkpt lat="45.691265" lon="10.9820703"><ele>1306.0</ele><time>2026-04-18T14:31:59.723Z</time></trkpt><trkpt lat="45.6913161" lon="10.9822361"><ele>1306.0</ele><time>2026-04-18T14:32:00.719Z</time></trkpt><trkpt lat="45.6913489" lon="10.982406"><ele>1306.0</ele><time>2026-04-18T14:32:01.726Z</time></trkpt><trkpt lat="45.6913576" lon="10.9825757"><ele>1306.0</ele><time>2026-04-18T14:32:02.722Z</time></trkpt><trkpt lat="45.6913422" lon="10.982751"><ele>1306.0</ele><time>2026-04-18T14:32:03.729Z</time></trkpt><trkpt lat="45.6913014" lon="10.9829263"><ele>1304.5</ele><time>2026-04-18T14:32:04.721Z</time></trkpt><trkpt lat="45.6912353" lon="10.9831039"><ele>1303.0</ele><time>2026-04-18T14:32:05.723Z</time></trkpt><trkpt lat="45.6911504" lon="10.9832618"><ele>1301.5</ele><time>2026-04-18T14:32:06.723Z</time></trkpt><trkpt lat="45.6910703" lon="10.9833947"><ele>1300.0</ele><time>2026-04-18T14:32:07.728Z</time></trkpt><trkpt lat="45.6910033" lon="10.9835103"><ele>1302.8</ele><time>2026-04-18T14:32:08.722Z</time></trkpt><trkpt lat="45.6909535" lon="10.9836375"><ele>1305.6</ele><time>2026-04-18T14:32:09.727Z</time></trkpt><trkpt lat="45.690943" lon="10.9837757"><ele>1308.4</ele><time>2026-04-18T14:32:10.72Z</time></trkpt><trkpt lat="45.6909729" lon="10.9839079"><ele>1311.2</ele><time>2026-04-18T14:32:11.721Z</time></trkpt><trkpt lat="45.6910402" lon="10.9840062"><ele>1314.0</ele><time>2026-04-18T14:32:12.724Z</time></trkpt><trkpt lat="45.6911331" lon="10.9840585"><ele>1314.0</ele><time>2026-04-18T14:32:13.725Z</time></trkpt><trkpt lat="45.6912528" lon="10.9840521"><ele>1314.0</ele><time>2026-04-18T14:32:14.723Z</time></trkpt><trkpt lat="45.691406" lon="10.9840029"><ele>1314.0</ele><time>2026-04-18T14:32:15.725Z</time></trkpt><trkpt lat="45.6915803" lon="10.9839478"><ele>1314.0</ele><time>2026-04-18T14:32:16.724Z</time></trkpt><trkpt lat="45.6917476" lon="10.9838931"><ele>1314.0</ele><time>2026-04-18T14:32:17.722Z</time></trkpt><trkpt lat="45.6919119" lon="10.9838317"><ele>1314.0</ele><time>2026-04-18T14:32:18.727Z</time></trkpt><trkpt lat="45.692065" lon="10.9837554"><ele>1315.3333333333333</ele><time>2026-04-18T14:32:19.721Z</time></trkpt><trkpt lat="45.6922177" lon="10.9836494"><ele>1316.6666666666665</ele><time>2026-04-18T14:32:20.723Z</time></trkpt><trkpt lat="45.6923692" lon="10.983506"><ele>1318.0</ele><time>2026-04-18T14:32:21.723Z</time></trkpt><trkpt lat="45.6925128" lon="10.983334"><ele>1315.6666666666665</ele><time>2026-04-18T14:32:22.724Z</time></trkpt><trkpt lat="45.6926533" lon="10.9831554"><ele>1313.3333333333333</ele><time>2026-04-18T14:32:23.723Z</time></trkpt><trkpt lat="45.6927957" lon="10.9829812"><ele>1311.0</ele><time>2026-04-18T14:32:24.722Z</time></trkpt><trkpt lat="45.6929316" lon="10.9828123"><ele>1311.0</ele><time>2026-04-18T14:32:25.72Z</time></trkpt><trkpt lat="45.6930629" lon="10.9826456"><ele>1311.0</ele><time>2026-04-18T14:32:26.721Z</time></trkpt><trkpt lat="45.6931867" lon="10.9824744"><ele>1311.0</ele><time>2026-04-18T14:32:27.723Z</time></trkpt><trkpt lat="45.6933078" lon="10.9823129"><ele>1307.5</ele><time>2026-04-18T14:32:28.721Z</time></trkpt><trkpt lat="45.6934152" lon="10.9821726"><ele>1304.0</ele><time>2026-04-18T14:32:29.724Z</time></trkpt><trkpt lat="45.6935156" lon="10.982045"><ele>1300.5</ele><time>2026-04-18T14:32:30.721Z</time></trkpt><trkpt lat="45.6936135" lon="10.9819319"><ele>1297.0</ele><time>2026-04-18T14:32:31.722Z</time></trkpt><trkpt lat="45.6937182" lon="10.9818249"><ele>1297.0</ele><time>2026-04-18T14:32:32.721Z</time></trkpt><trkpt lat="45.69384" lon="10.9817471"><ele>1297.0</ele><time>2026-04-18T14:32:33.722Z</time></trkpt><trkpt lat="45.693962" lon="10.9816928"><ele>1297.0</ele><time>2026-04-18T14:32:34.725Z</time></trkpt><trkpt lat="45.6940861" lon="10.9816645"><ele>1297.0</ele><time>2026-04-18T14:32:35.722Z</time></trkpt><trkpt lat="45.6942175" lon="10.981662"><ele>1297.0</ele><time>2026-04-18T14:32:36.722Z</time></trkpt><trkpt lat="45.6943502" lon="10.981692"><ele>1297.0</ele><time>2026-04-18T14:32:37.727Z</time></trkpt><trkpt lat="45.6944716" lon="10.9817469"><ele>1297.0</ele><time>2026-04-18T14:32:38.72Z</time></trkpt><trkpt lat="45.6945847" lon="10.9818073"><ele>1297.0</ele><time>2026-04-18T14:32:39.726Z</time></trkpt><trkpt lat="45.6946848" lon="10.9818605"><ele>1297.5</ele><time>2026-04-18T14:32:40.726Z</time></trkpt><trkpt lat="45.6947805" lon="10.981883"><ele>1298.0</ele><time>2026-04-18T14:32:41.723Z</time></trkpt><trkpt lat="45.6948628" lon="10.9818677"><ele>1298.5</ele><time>2026-04-18T14:32:42.724Z</time></trkpt><trkpt lat="45.6949299" lon="10.9818003"><ele>1299.0</ele><time>2026-04-18T14:32:43.723Z</time></trkpt><trkpt lat="45.6949659" lon="10.9816901"><ele>1299.5</ele><time>2026-04-18T14:32:44.726Z</time></trkpt><trkpt lat="45.6949602" lon="10.9815631"><ele>1300.0</ele><time>2026-04-18T14:32:45.725Z</time></trkpt><trkpt lat="45.6949107" lon="10.9814479"><ele>1295.25</ele><time>2026-04-18T14:32:46.722Z</time></trkpt><trkpt lat="45.694815" lon="10.9813426"><ele>1290.5</ele><time>2026-04-18T14:32:47.724Z</time></trkpt><trkpt lat="45.6946941" lon="10.9812365"><ele>1285.75</ele><time>2026-04-18T14:32:48.723Z</time></trkpt><trkpt lat="45.6945617" lon="10.9811259"><ele>1281.0</ele><time>2026-04-18T14:32:49.722Z</time></trkpt><trkpt lat="45.6944157" lon="10.9810107"><ele>1280.6666666666667</ele><time>2026-04-18T14:32:50.722Z</time></trkpt><trkpt lat="45.6942708" lon="10.9808981"><ele>1280.3333333333335</ele><time>2026-04-18T14:32:51.724Z</time></trkpt><trkpt lat="45.6941337" lon="10.9807882"><ele>1280.0</ele><time>2026-04-18T14:32:52.723Z</time></trkpt><trkpt lat="45.6939973" lon="10.9806856"><ele>1277.75</ele><time>2026-04-18T14:32:53.723Z</time></trkpt><trkpt lat="45.6938679" lon="10.980588"><ele>1275.5</ele><time>2026-04-18T14:32:54.724Z</time></trkpt><trkpt lat="45.6937326" lon="10.9805079"><ele>1273.25</ele><time>2026-04-18T14:32:55.725Z</time></trkpt><trkpt lat="45.6935891" lon="10.9804842"><ele>1271.0</ele><time>2026-04-18T14:32:56.778Z</time></trkpt><trkpt lat="45.6934447" lon="10.9804942"><ele>1268.75</ele><time>2026-04-18T14:32:57.722Z</time></trkpt><trkpt lat="45.6933192" lon="10.9805102"><ele>1266.5</ele><time>2026-04-18T14:32:58.725Z</time></trkpt><trkpt lat="45.693205" lon="10.9805199"><ele>1264.25</ele><time>2026-04-18T14:32:59.723Z</time></trkpt><trkpt lat="45.6930905" lon="10.9804897"><ele>1262.0</ele><time>2026-04-18T14:33:00.724Z</time></trkpt><trkpt lat="45.6929756" lon="10.9804164"><ele>1262.0</ele><time>2026-04-18T14:33:01.722Z</time></trkpt><trkpt lat="45.6928838" lon="10.980305"><ele>1262.0</ele><time>2026-04-18T14:33:02.722Z</time></trkpt><trkpt lat="45.6928199" lon="10.9801541"><ele>1262.0</ele><time>2026-04-18T14:33:03.723Z</time></trkpt><trkpt lat="45.6927833" lon="10.9799666"><ele>1262.0</ele><time>2026-04-18T14:33:04.727Z</time></trkpt><trkpt lat="45.6927788" lon="10.9797788"><ele>1261.5</ele><time>2026-04-18T14:33:05.724Z</time></trkpt><trkpt lat="45.6927953" lon="10.9795851"><ele>1261.0</ele><time>2026-04-18T14:33:06.723Z</time></trkpt><trkpt lat="45.6928147" lon="10.9793958"><ele>1260.5</ele><time>2026-04-18T14:33:07.723Z</time></trkpt><trkpt lat="45.6928339" lon="10.9792105"><ele>1260.0</ele><time>2026-04-18T14:33:08.723Z</time></trkpt><trkpt lat="45.6928507" lon="10.979031"><ele>1260.0</ele><time>2026-04-18T14:33:09.724Z</time></trkpt><trkpt lat="45.6928664" lon="10.9788566"><ele>1260.0</ele><time>2026-04-18T14:33:10.724Z</time></trkpt><trkpt lat="45.6928866" lon="10.9786899"><ele>1260.0</ele><time>2026-04-18T14:33:11.73Z</time></trkpt><trkpt lat="45.6929063" lon="10.9785326"><ele>1260.0</ele><time>2026-04-18T14:33:12.725Z</time></trkpt><trkpt lat="45.6929266" lon="10.9783774"><ele>1259.0</ele><time>2026-04-18T14:33:13.724Z</time></trkpt><trkpt lat="45.6929584" lon="10.9782152"><ele>1258.0</ele><time>2026-04-18T14:33:14.722Z</time></trkpt><trkpt lat="45.693008" lon="10.978057"><ele>1257.0</ele><time>2026-04-18T14:33:15.731Z</time></trkpt><trkpt lat="45.6930719" lon="10.9779096"><ele>1256.0</ele><time>2026-04-18T14:33:16.721Z</time></trkpt><trkpt lat="45.6931457" lon="10.9777724"><ele>1256.0</ele><time>2026-04-18T14:33:17.725Z</time></trkpt><trkpt lat="45.6932291" lon="10.9776428"><ele>1256.0</ele><time>2026-04-18T14:33:18.72Z</time></trkpt><trkpt lat="45.6933223" lon="10.977516"><ele>1256.0</ele><time>2026-04-18T14:33:19.728Z</time></trkpt><trkpt lat="45.6934248" lon="10.9773763"><ele>1256.0</ele><time>2026-04-18T14:33:20.726Z</time></trkpt><trkpt lat="45.6935413" lon="10.9772166"><ele>1258.6666666666667</ele><time>2026-04-18T14:33:21.723Z</time></trkpt><trkpt lat="45.693665" lon="10.9770483"><ele>1261.3333333333333</ele><time>2026-04-18T14:33:22.723Z</time></trkpt><trkpt lat="45.6937917" lon="10.9768762"><ele>1264.0</ele><time>2026-04-18T14:33:23.722Z</time></trkpt><trkpt lat="45.6939156" lon="10.9767132"><ele>1259.6666666666665</ele><time>2026-04-18T14:33:24.722Z</time></trkpt><trkpt lat="45.6940324" lon="10.9765569"><ele>1255.3333333333333</ele><time>2026-04-18T14:33:25.723Z</time></trkpt><trkpt lat="45.6941434" lon="10.9764069"><ele>1251.0</ele><time>2026-04-18T14:33:26.721Z</time></trkpt><trkpt lat="45.6942498" lon="10.9762601"><ele>1251.0</ele><time>2026-04-18T14:33:27.721Z</time></trkpt><trkpt lat="45.6943558" lon="10.9761277"><ele>1251.0</ele><time>2026-04-18T14:33:28.727Z</time></trkpt><trkpt lat="45.6944592" lon="10.9760059"><ele>1251.0</ele><time>2026-04-18T14:33:29.722Z</time></trkpt><trkpt lat="45.6945705" lon="10.9759065"><ele>1251.0</ele><time>2026-04-18T14:33:30.724Z</time></trkpt><trkpt lat="45.6947009" lon="10.9758287"><ele>1248.6666666666667</ele><time>2026-04-18T14:33:31.724Z</time></trkpt><trkpt lat="45.6948572" lon="10.9757704"><ele>1246.3333333333335</ele><time>2026-04-18T14:33:32.724Z</time></trkpt><trkpt lat="45.6950342" lon="10.9757251"><ele>1244.0</ele><time>2026-04-18T14:33:33.723Z</time></trkpt><trkpt lat="45.6952042" lon="10.9756759"><ele>1245.0</ele><time>2026-04-18T14:33:34.725Z</time></trkpt><trkpt lat="45.69537" lon="10.975628"><ele>1246.0</ele><time>2026-04-18T14:33:35.721Z</time></trkpt><trkpt lat="45.6955319" lon="10.9755853"><ele>1247.0</ele><time>2026-04-18T14:33:36.727Z</time></trkpt><trkpt lat="45.6956858" lon="10.9755385"><ele>1247.0</ele><time>2026-04-18T14:33:37.721Z</time></trkpt><trkpt lat="45.6958299" lon="10.975491"><ele>1247.0</ele><time>2026-04-18T14:33:38.722Z</time></trkpt><trkpt lat="45.6959681" lon="10.9754425"><ele>1247.0</ele><time>2026-04-18T14:33:39.728Z</time></trkpt><trkpt lat="45.6960965" lon="10.9753955"><ele>1247.0</ele><time>2026-04-18T14:33:40.72Z</time></trkpt><trkpt lat="45.6962218" lon="10.9753469"><ele>1247.0</ele><time>2026-04-18T14:33:41.722Z</time></trkpt><trkpt lat="45.6963597" lon="10.9752968"><ele>1247.0</ele><time>2026-04-18T14:33:42.722Z</time></trkpt><trkpt lat="45.6965043" lon="10.9752473"><ele>1247.0</ele><time>2026-04-18T14:33:43.724Z</time></trkpt><trkpt lat="45.6966426" lon="10.9752032"><ele>1247.0</ele><time>2026-04-18T14:33:44.72Z</time></trkpt><trkpt lat="45.6967689" lon="10.9751497"><ele>1247.0</ele><time>2026-04-18T14:33:45.729Z</time></trkpt><trkpt lat="45.696888" lon="10.9750752"><ele>1247.0</ele><time>2026-04-18T14:33:46.722Z</time></trkpt><trkpt lat="45.696996" lon="10.9749677"><ele>1247.0</ele><time>2026-04-18T14:33:47.721Z</time></trkpt><trkpt lat="45.6970929" lon="10.9748377"><ele>1247.0</ele><time>2026-04-18T14:33:48.72Z</time></trkpt><trkpt lat="45.6971925" lon="10.9746989"><ele>1244.25</ele><time>2026-04-18T14:33:49.722Z</time></trkpt><trkpt lat="45.6972971" lon="10.9745896"><ele>1241.5</ele><time>2026-04-18T14:33:50.728Z</time></trkpt><trkpt lat="45.6974053" lon="10.9744971"><ele>1238.75</ele><time>2026-04-18T14:33:51.72Z</time></trkpt><trkpt lat="45.697511" lon="10.9744133"><ele>1236.0</ele><time>2026-04-18T14:33:52.726Z</time></trkpt><trkpt lat="45.6976191" lon="10.9743348"><ele>1236.0</ele><time>2026-04-18T14:33:53.727Z</time></trkpt><trkpt lat="45.6977229" lon="10.9742701"><ele>1236.0</ele><time>2026-04-18T14:33:54.725Z</time></trkpt><trkpt lat="45.6978257" lon="10.9742109"><ele>1236.0</ele><time>2026-04-18T14:33:55.722Z</time></trkpt><trkpt lat="45.6979216" lon="10.9741504"><ele>1236.0</ele><time>2026-04-18T14:33:56.723Z</time></trkpt><trkpt lat="45.6980144" lon="10.974101"><ele>1236.0</ele><time>2026-04-18T14:33:57.724Z</time></trkpt><trkpt lat="45.6981279" lon="10.9740578"><ele>1235.25</ele><time>2026-04-18T14:33:58.725Z</time></trkpt><trkpt lat="45.698243" lon="10.974015"><ele>1234.5</ele><time>2026-04-18T14:33:59.722Z</time></trkpt><trkpt lat="45.698361" lon="10.9739796"><ele>1233.75</ele><time>2026-04-18T14:34:00.723Z</time></trkpt><trkpt lat="45.69848" lon="10.9739442"><ele>1233.0</ele><time>2026-04-18T14:34:01.722Z</time></trkpt><trkpt lat="45.6986081" lon="10.9739092"><ele>1233.0</ele><time>2026-04-18T14:34:02.724Z</time></trkpt><trkpt lat="45.698741" lon="10.9738685"><ele>1233.0</ele><time>2026-04-18T14:34:03.728Z</time></trkpt><trkpt lat="45.6988744" lon="10.9738286"><ele>1233.0</ele><time>2026-04-18T14:34:04.721Z</time></trkpt><trkpt lat="45.6990184" lon="10.9737954"><ele>1233.0</ele><time>2026-04-18T14:34:05.721Z</time></trkpt><trkpt lat="45.6991615" lon="10.973764"><ele>1233.0</ele><time>2026-04-18T14:34:06.724Z</time></trkpt><trkpt lat="45.6993034" lon="10.9737286"><ele>1233.0</ele><time>2026-04-18T14:34:07.722Z</time></trkpt><trkpt lat="45.6994452" lon="10.9736781"><ele>1233.0</ele><time>2026-04-18T14:34:08.723Z</time></trkpt><trkpt lat="45.6995848" lon="10.9736264"><ele>1233.0</ele><time>2026-04-18T14:34:09.722Z</time></trkpt><trkpt lat="45.6997246" lon="10.973567"><ele>1233.75</ele><time>2026-04-18T14:34:10.722Z</time></trkpt><trkpt lat="45.6998683" lon="10.973503"><ele>1234.5</ele><time>2026-04-18T14:34:11.725Z</time></trkpt><trkpt lat="45.7000098" lon="10.9734413"><ele>1235.25</ele><time>2026-04-18T14:34:12.721Z</time></trkpt><trkpt lat="45.7001498" lon="10.9733781"><ele>1236.0</ele><time>2026-04-18T14:34:13.723Z</time></trkpt><trkpt lat="45.7002856" lon="10.9733183"><ele>1231.5</ele><time>2026-04-18T14:34:14.722Z</time></trkpt><trkpt lat="45.7004188" lon="10.9732583"><ele>1227.0</ele><time>2026-04-18T14:34:15.724Z</time></trkpt><trkpt lat="45.7005507" lon="10.9732009"><ele>1222.5</ele><time>2026-04-18T14:34:16.724Z</time></trkpt><trkpt lat="45.7006806" lon="10.973141"><ele>1218.0</ele><time>2026-04-18T14:34:17.725Z</time></trkpt><trkpt lat="45.7008176" lon="10.9730813"><ele>1218.0</ele><time>2026-04-18T14:34:18.72Z</time></trkpt><trkpt lat="45.7009701" lon="10.9730285"><ele>1218.0</ele><time>2026-04-18T14:34:19.725Z</time></trkpt><trkpt lat="45.7011332" lon="10.9729747"><ele>1218.0</ele><time>2026-04-18T14:34:20.722Z</time></trkpt><trkpt lat="45.7013032" lon="10.9729242"><ele>1217.0</ele><time>2026-04-18T14:34:21.722Z</time></trkpt><trkpt lat="45.7014685" lon="10.972877"><ele>1216.0</ele><time>2026-04-18T14:34:22.722Z</time></trkpt><trkpt lat="45.7016329" lon="10.9728291"><ele>1215.0</ele><time>2026-04-18T14:34:23.721Z</time></trkpt><trkpt lat="45.7017935" lon="10.9727744"><ele>1215.3333333333333</ele><time>2026-04-18T14:34:24.722Z</time></trkpt><trkpt lat="45.7019506" lon="10.9727258"><ele>1215.6666666666665</ele><time>2026-04-18T14:34:25.722Z</time></trkpt><trkpt lat="45.7021011" lon="10.9726841"><ele>1216.0</ele><time>2026-04-18T14:34:26.724Z</time></trkpt><trkpt lat="45.7022449" lon="10.9726397"><ele>1216.0</ele><time>2026-04-18T14:34:27.723Z</time></trkpt><trkpt lat="45.7023861" lon="10.9725973"><ele>1216.0</ele><time>2026-04-18T14:34:28.724Z</time></trkpt><trkpt lat="45.702516" lon="10.9725544"><ele>1216.0</ele><time>2026-04-18T14:34:29.723Z</time></trkpt><trkpt lat="45.7026374" lon="10.9725129"><ele>1216.0</ele><time>2026-04-18T14:34:30.722Z</time></trkpt><trkpt lat="45.7027493" lon="10.9724778"><ele>1212.25</ele><time>2026-04-18T14:34:31.726Z</time></trkpt><trkpt lat="45.7028559" lon="10.9724625"><ele>1208.5</ele><time>2026-04-18T14:34:32.723Z</time></trkpt><trkpt lat="45.7029683" lon="10.9724845"><ele>1204.75</ele><time>2026-04-18T14:34:33.723Z</time></trkpt><trkpt lat="45.7030811" lon="10.9725423"><ele>1201.0</ele><time>2026-04-18T14:34:34.721Z</time></trkpt><trkpt lat="45.7032013" lon="10.9726223"><ele>1201.0</ele><time>2026-04-18T14:34:35.727Z</time></trkpt><trkpt lat="45.7033294" lon="10.9727076"><ele>1201.0</ele><time>2026-04-18T14:34:36.723Z</time></trkpt><trkpt lat="45.7034585" lon="10.9727943"><ele>1201.0</ele><time>2026-04-18T14:34:37.723Z</time></trkpt><trkpt lat="45.7035899" lon="10.9728819"><ele>1201.0</ele><time>2026-04-18T14:34:38.723Z</time></trkpt><trkpt lat="45.7037181" lon="10.9729671"><ele>1197.75</ele><time>2026-04-18T14:34:39.724Z</time></trkpt><trkpt lat="45.7038395" lon="10.9730504"><ele>1194.5</ele><time>2026-04-18T14:34:40.723Z</time></trkpt><trkpt lat="45.7039514" lon="10.9731306"><ele>1191.25</ele><time>2026-04-18T14:34:41.722Z</time></trkpt><trkpt lat="45.7040642" lon="10.9732023"><ele>1188.0</ele><time>2026-04-18T14:34:42.724Z</time></trkpt><trkpt lat="45.7041825" lon="10.9732487"><ele>1188.0</ele><time>2026-04-18T14:34:43.724Z</time></trkpt><trkpt lat="45.704303" lon="10.9732538"><ele>1188.0</ele><time>2026-04-18T14:34:44.723Z</time></trkpt><trkpt lat="45.7044244" lon="10.9731917"><ele>1188.0</ele><time>2026-04-18T14:34:45.724Z</time></trkpt><trkpt lat="45.7045234" lon="10.9730989"><ele>1188.0</ele><time>2026-04-18T14:34:46.724Z</time></trkpt><trkpt lat="45.7046023" lon="10.972978"><ele>1188.5</ele><time>2026-04-18T14:34:47.724Z</time></trkpt><trkpt lat="45.7046988" lon="10.9728709"><ele>1189.0</ele><time>2026-04-18T14:34:48.725Z</time></trkpt><trkpt lat="45.7048215" lon="10.9727864"><ele>1189.5</ele><time>2026-04-18T14:34:49.725Z</time></trkpt><trkpt lat="45.7049454" lon="10.9726952"><ele>1190.0</ele><time>2026-04-18T14:34:50.724Z</time></trkpt><trkpt lat="45.7050793" lon="10.9726127"><ele>1190.0</ele><time>2026-04-18T14:34:51.728Z</time></trkpt><trkpt lat="45.7052176" lon="10.9725636"><ele>1190.0</ele><time>2026-04-18T14:34:52.724Z</time></trkpt><trkpt lat="45.7053602" lon="10.9725399"><ele>1190.0</ele><time>2026-04-18T14:34:53.723Z</time></trkpt><trkpt lat="45.7054981" lon="10.9725347"><ele>1190.0</ele><time>2026-04-18T14:34:54.722Z</time></trkpt><trkpt lat="45.7056288" lon="10.9725272"><ele>1188.25</ele><time>2026-04-18T14:34:55.728Z</time></trkpt><trkpt lat="45.7057499" lon="10.9725437"><ele>1186.5</ele><time>2026-04-18T14:34:56.724Z</time></trkpt><trkpt lat="45.7058658" lon="10.9725909"><ele>1184.75</ele><time>2026-04-18T14:34:57.724Z</time></trkpt><trkpt lat="45.7059703" lon="10.9726874"><ele>1183.0</ele><time>2026-04-18T14:34:58.725Z</time></trkpt><trkpt lat="45.7060666" lon="10.9728048"><ele>1180.75</ele><time>2026-04-18T14:34:59.726Z</time></trkpt><trkpt lat="45.7061704" lon="10.9729175"><ele>1178.5</ele><time>2026-04-18T14:35:00.725Z</time></trkpt><trkpt lat="45.7062818" lon="10.9730165"><ele>1176.25</ele><time>2026-04-18T14:35:01.723Z</time></trkpt><trkpt lat="45.7063939" lon="10.9731156"><ele>1174.0</ele><time>2026-04-18T14:35:02.724Z</time></trkpt><trkpt lat="45.7065203" lon="10.9732031"><ele>1174.0</ele><time>2026-04-18T14:35:03.731Z</time></trkpt><trkpt lat="45.7066738" lon="10.9732041"><ele>1174.0</ele><time>2026-04-18T14:35:04.723Z</time></trkpt><trkpt lat="45.7068117" lon="10.9732581"><ele>1174.0</ele><time>2026-04-18T14:35:05.73Z</time></trkpt><trkpt lat="45.7069491" lon="10.9732772"><ele>1174.0</ele><time>2026-04-18T14:35:06.727Z</time></trkpt><trkpt lat="45.7070779" lon="10.973301"><ele>1170.25</ele><time>2026-04-18T14:35:07.723Z</time></trkpt><trkpt lat="45.7071992" lon="10.9733166"><ele>1166.5</ele><time>2026-04-18T14:35:08.731Z</time></trkpt><trkpt lat="45.707317" lon="10.9733085"><ele>1162.75</ele><time>2026-04-18T14:35:09.731Z</time></trkpt><trkpt lat="45.7074366" lon="10.9732596"><ele>1159.0</ele><time>2026-04-18T14:35:10.729Z</time></trkpt><trkpt lat="45.7075629" lon="10.9731697"><ele>1159.0</ele><time>2026-04-18T14:35:11.733Z</time></trkpt><trkpt lat="45.7076896" lon="10.9730758"><ele>1159.0</ele><time>2026-04-18T14:35:12.723Z</time></trkpt><trkpt lat="45.7078302" lon="10.9729988"><ele>1159.0</ele><time>2026-04-18T14:35:13.729Z</time></trkpt><trkpt lat="45.7079665" lon="10.9729253"><ele>1159.0</ele><time>2026-04-18T14:35:14.724Z</time></trkpt><trkpt lat="45.7080952" lon="10.9728416"><ele>1157.25</ele><time>2026-04-18T14:35:15.723Z</time></trkpt><trkpt lat="45.7082249" lon="10.9727655"><ele>1155.5</ele><time>2026-04-18T14:35:16.726Z</time></trkpt><trkpt lat="45.7083599" lon="10.9727323"><ele>1153.75</ele><time>2026-04-18T14:35:17.72Z</time></trkpt><trkpt lat="45.7084871" lon="10.972672"><ele>1152.0</ele><time>2026-04-18T14:35:18.721Z</time></trkpt><trkpt lat="45.7086065" lon="10.9725896"><ele>1149.25</ele><time>2026-04-18T14:35:19.727Z</time></trkpt><trkpt lat="45.7087372" lon="10.9725119"><ele>1146.5</ele><time>2026-04-18T14:35:20.73Z</time></trkpt><trkpt lat="45.7088579" lon="10.9724306"><ele>1143.75</ele><time>2026-04-18T14:35:21.724Z</time></trkpt><trkpt lat="45.7089844" lon="10.9723584"><ele>1141.0</ele><time>2026-04-18T14:35:22.723Z</time></trkpt><trkpt lat="45.7091082" lon="10.9722775"><ele>1141.0</ele><time>2026-04-18T14:35:23.724Z</time></trkpt><trkpt lat="45.7092205" lon="10.9721862"><ele>1141.0</ele><time>2026-04-18T14:35:24.729Z</time></trkpt><trkpt lat="45.7093359" lon="10.9720833"><ele>1141.0</ele><time>2026-04-18T14:35:25.723Z</time></trkpt><trkpt lat="45.7094442" lon="10.971969"><ele>1141.0</ele><time>2026-04-18T14:35:26.724Z</time></trkpt><trkpt lat="45.7095537" lon="10.9718381"><ele>1142.0</ele><time>2026-04-18T14:35:27.723Z</time></trkpt><trkpt lat="45.7096561" lon="10.97171"><ele>1143.0</ele><time>2026-04-18T14:35:28.733Z</time></trkpt><trkpt lat="45.7097678" lon="10.9715779"><ele>1144.0</ele><time>2026-04-18T14:35:29.725Z</time></trkpt><trkpt lat="45.709882" lon="10.9714528"><ele>1145.0</ele><time>2026-04-18T14:35:30.727Z</time></trkpt><trkpt lat="45.7099851" lon="10.9713327"><ele>1141.75</ele><time>2026-04-18T14:35:31.725Z</time></trkpt><trkpt lat="45.7100964" lon="10.9712169"><ele>1138.5</ele><time>2026-04-18T14:35:32.725Z</time></trkpt><trkpt lat="45.7102223" lon="10.9711227"><ele>1135.25</ele><time>2026-04-18T14:35:33.728Z</time></trkpt><trkpt lat="45.7103653" lon="10.9710331"><ele>1132.0</ele><time>2026-04-18T14:35:34.729Z</time></trkpt><trkpt lat="45.7105087" lon="10.970936"><ele>1127.0</ele><time>2026-04-18T14:35:35.729Z</time></trkpt><trkpt lat="45.7106561" lon="10.9708567"><ele>1122.0</ele><time>2026-04-18T14:35:36.724Z</time></trkpt><trkpt lat="45.7108096" lon="10.9707908"><ele>1117.0</ele><time>2026-04-18T14:35:37.724Z</time></trkpt><trkpt lat="45.7109643" lon="10.9707241"><ele>1113.0</ele><time>2026-04-18T14:35:38.726Z</time></trkpt><trkpt lat="45.7111091" lon="10.9706558"><ele>1109.0</ele><time>2026-04-18T14:35:39.724Z</time></trkpt><trkpt lat="45.7112609" lon="10.9705735"><ele>1105.0</ele><time>2026-04-18T14:35:40.725Z</time></trkpt><trkpt lat="45.7114024" lon="10.9704903"><ele>1105.0</ele><time>2026-04-18T14:35:41.724Z</time></trkpt><trkpt lat="45.7115474" lon="10.9704018"><ele>1105.0</ele><time>2026-04-18T14:35:42.723Z</time></trkpt><trkpt lat="45.7117025" lon="10.9703204"><ele>1105.0</ele><time>2026-04-18T14:35:43.721Z</time></trkpt><trkpt lat="45.7118491" lon="10.9702331"><ele>1101.6666666666665</ele><time>2026-04-18T14:35:44.72Z</time></trkpt><trkpt lat="45.7119931" lon="10.9701464"><ele>1098.3333333333333</ele><time>2026-04-18T14:35:45.727Z</time></trkpt><trkpt lat="45.7121409" lon="10.9700702"><ele>1095.0</ele><time>2026-04-18T14:35:46.727Z</time></trkpt><trkpt lat="45.7122918" lon="10.9700159"><ele>1094.0</ele><time>2026-04-18T14:35:47.722Z</time></trkpt><trkpt lat="45.7124504" lon="10.9699778"><ele>1093.0</ele><time>2026-04-18T14:35:48.728Z</time></trkpt><trkpt lat="45.7126136" lon="10.9699437"><ele>1092.0</ele><time>2026-04-18T14:35:49.732Z</time></trkpt><trkpt lat="45.7127849" lon="10.9699034"><ele>1086.6666666666667</ele><time>2026-04-18T14:35:50.72Z</time></trkpt><trkpt lat="45.7129601" lon="10.9698491"><ele>1081.3333333333335</ele><time>2026-04-18T14:35:51.724Z</time></trkpt><trkpt lat="45.7131344" lon="10.9697898"><ele>1076.0</ele><time>2026-04-18T14:35:52.721Z</time></trkpt><trkpt lat="45.7133048" lon="10.9697281"><ele>1076.0</ele><time>2026-04-18T14:35:53.728Z</time></trkpt><trkpt lat="45.7134684" lon="10.969676"><ele>1076.0</ele><time>2026-04-18T14:35:54.726Z</time></trkpt><trkpt lat="45.7136181" lon="10.969627"><ele>1076.0</ele><time>2026-04-18T14:35:55.721Z</time></trkpt><trkpt lat="45.7137608" lon="10.9695872"><ele>1073.0</ele><time>2026-04-18T14:35:56.725Z</time></trkpt><trkpt lat="45.713898" lon="10.96956"><ele>1070.0</ele><time>2026-04-18T14:35:57.721Z</time></trkpt><trkpt lat="45.7140381" lon="10.9695583"><ele>1067.0</ele><time>2026-04-18T14:35:58.718Z</time></trkpt><trkpt lat="45.7141835" lon="10.9695723"><ele>1064.0</ele><time>2026-04-18T14:35:59.728Z</time></trkpt><trkpt lat="45.7143217" lon="10.9695775"><ele>1056.75</ele><time>2026-04-18T14:36:00.726Z</time></trkpt><trkpt lat="45.7144606" lon="10.9695642"><ele>1049.5</ele><time>2026-04-18T14:36:01.727Z</time></trkpt><trkpt lat="45.7145996" lon="10.9695371"><ele>1042.25</ele><time>2026-04-18T14:36:02.726Z</time></trkpt><trkpt lat="45.7147326" lon="10.9694986"><ele>1035.0</ele><time>2026-04-18T14:36:03.722Z</time></trkpt><trkpt lat="45.7148647" lon="10.9694418"><ele>1035.0</ele><time>2026-04-18T14:36:04.727Z</time></trkpt><trkpt lat="45.7149922" lon="10.9693708"><ele>1035.0</ele><time>2026-04-18T14:36:05.726Z</time></trkpt><trkpt lat="45.7151117" lon="10.9692907"><ele>1035.0</ele><time>2026-04-18T14:36:06.72Z</time></trkpt><trkpt lat="45.7152228" lon="10.9692026"><ele>1035.0</ele><time>2026-04-18T14:36:07.723Z</time></trkpt><trkpt lat="45.7153193" lon="10.9691226"><ele>1035.0</ele><time>2026-04-18T14:36:08.727Z</time></trkpt><trkpt lat="45.7154028" lon="10.9690533"><ele>1035.0</ele><time>2026-04-18T14:36:09.721Z</time></trkpt><trkpt lat="45.7154757" lon="10.9689978"><ele>1035.0</ele><time>2026-04-18T14:36:10.723Z</time></trkpt><trkpt lat="45.7155547" lon="10.9689556"><ele>1035.0</ele><time>2026-04-18T14:36:11.718Z</time></trkpt><trkpt lat="45.7156398" lon="10.9689359"><ele>1035.0</ele><time>2026-04-18T14:36:12.719Z</time></trkpt><trkpt lat="45.7157246" lon="10.9689137"><ele>1035.0</ele><time>2026-04-18T14:36:13.726Z</time></trkpt><trkpt lat="45.7158039" lon="10.9688568"><ele>1035.0</ele><time>2026-04-18T14:36:14.728Z</time></trkpt><trkpt lat="45.7158786" lon="10.9687632"><ele>1035.0</ele><time>2026-04-18T14:36:15.718Z</time></trkpt><trkpt lat="45.7159589" lon="10.9686543"><ele>1035.0</ele><time>2026-04-18T14:36:16.72Z</time></trkpt><trkpt lat="45.7160309" lon="10.968541"><ele>1035.0</ele><time>2026-04-18T14:36:17.717Z</time></trkpt><trkpt lat="45.7160892" lon="10.9684122"><ele>1035.0</ele><time>2026-04-18T14:36:18.722Z</time></trkpt><trkpt lat="45.716144" lon="10.9682919"><ele>1030.4</ele><time>2026-04-18T14:36:19.725Z</time></trkpt><trkpt lat="45.716199" lon="10.9681894"><ele>1025.8</ele><time>2026-04-18T14:36:20.723Z</time></trkpt><trkpt lat="45.7162644" lon="10.968097"><ele>1021.2</ele><time>2026-04-18T14:36:21.726Z</time></trkpt><trkpt lat="45.7163169" lon="10.9679893"><ele>1016.6</ele><time>2026-04-18T14:36:22.723Z</time></trkpt><trkpt lat="45.7163409" lon="10.9678651"><ele>1012.0</ele><time>2026-04-18T14:36:23.726Z</time></trkpt><trkpt lat="45.7163735" lon="10.9677354"><ele>1012.0</ele><time>2026-04-18T14:36:24.722Z</time></trkpt><trkpt lat="45.716415" lon="10.9676062"><ele>1012.0</ele><time>2026-04-18T14:36:25.726Z</time></trkpt><trkpt lat="45.7164529" lon="10.9674724"><ele>1012.0</ele><time>2026-04-18T14:36:26.724Z</time></trkpt><trkpt lat="45.7164902" lon="10.9673405"><ele>1012.0</ele><time>2026-04-18T14:36:27.723Z</time></trkpt><trkpt lat="45.7165181" lon="10.967229"><ele>1012.0</ele><time>2026-04-18T14:36:28.723Z</time></trkpt><trkpt lat="45.716579" lon="10.9671276"><ele>1010.6</ele><time>2026-04-18T14:36:29.719Z</time></trkpt><trkpt lat="45.7166577" lon="10.9670478"><ele>1009.2</ele><time>2026-04-18T14:36:30.719Z</time></trkpt><trkpt lat="45.7167479" lon="10.9669934"><ele>1007.8</ele><time>2026-04-18T14:36:31.719Z</time></trkpt><trkpt lat="45.7168387" lon="10.9669328"><ele>1006.4</ele><time>2026-04-18T14:36:32.719Z</time></trkpt><trkpt lat="45.7169264" lon="10.9668801"><ele>1005.0</ele><time>2026-04-18T14:36:33.719Z</time></trkpt><trkpt lat="45.7170003" lon="10.9668343"><ele>1005.0</ele><time>2026-04-18T14:36:34.72Z</time></trkpt><trkpt lat="45.7170634" lon="10.9667908"><ele>1005.0</ele><time>2026-04-18T14:36:35.718Z</time></trkpt><trkpt lat="45.7171647" lon="10.9667876"><ele>1005.0</ele><time>2026-04-18T14:36:37.723Z</time></trkpt><trkpt lat="45.7171693" lon="10.9669011"><ele>1005.0</ele><time>2026-04-18T14:36:39.722Z</time></trkpt><trkpt lat="45.7171176" lon="10.9669567"><ele>1005.0</ele><time>2026-04-18T14:36:40.726Z</time></trkpt><trkpt lat="45.7170586" lon="10.9670259"><ele>1005.0</ele><time>2026-04-18T14:36:41.719Z</time></trkpt><trkpt lat="45.7169681" lon="10.9671052"><ele>1011.5</ele><time>2026-04-18T14:36:42.716Z</time></trkpt><trkpt lat="45.7168911" lon="10.9671828"><ele>1018.0</ele><time>2026-04-18T14:36:43.717Z</time></trkpt><trkpt lat="45.7168232" lon="10.9672491"><ele>1024.5</ele><time>2026-04-18T14:36:44.717Z</time></trkpt><trkpt lat="45.7167661" lon="10.9673078"><ele>1031.0</ele><time>2026-04-18T14:36:45.717Z</time></trkpt><trkpt lat="45.716725" lon="10.9673774"><ele>1037.5</ele><time>2026-04-18T14:36:46.72Z</time></trkpt><trkpt lat="45.7167469" lon="10.9675048"><ele>1044.0</ele><time>2026-04-18T14:36:48.723Z</time></trkpt><trkpt lat="45.7168543" lon="10.967471"><ele>1036.2</ele><time>2026-04-18T14:36:50.723Z</time></trkpt><trkpt lat="45.7169227" lon="10.9674099"><ele>1028.4</ele><time>2026-04-18T14:36:51.715Z</time></trkpt><trkpt lat="45.7170114" lon="10.96736"><ele>1020.6</ele><time>2026-04-18T14:36:52.718Z</time></trkpt><trkpt lat="45.7171116" lon="10.9673242"><ele>1012.8</ele><time>2026-04-18T14:36:53.725Z</time></trkpt><trkpt lat="45.7172116" lon="10.9672857"><ele>1005.0</ele><time>2026-04-18T14:36:54.717Z</time></trkpt><trkpt lat="45.7173173" lon="10.9672362"><ele>1005.0</ele><time>2026-04-18T14:36:55.718Z</time></trkpt><trkpt lat="45.7174265" lon="10.9671692"><ele>1005.0</ele><time>2026-04-18T14:36:56.724Z</time></trkpt><trkpt lat="45.7175392" lon="10.9670943"><ele>1005.0</ele><time>2026-04-18T14:36:57.717Z</time></trkpt><trkpt lat="45.7176552" lon="10.9670125"><ele>1005.0</ele><time>2026-04-18T14:36:58.724Z</time></trkpt><trkpt lat="45.7177541" lon="10.9669188"><ele>1004.75</ele><time>2026-04-18T14:36:59.72Z</time></trkpt><trkpt lat="45.7178538" lon="10.9668004"><ele>1004.5</ele><time>2026-04-18T14:37:00.719Z</time></trkpt><trkpt lat="45.7179547" lon="10.96666"><ele>1004.25</ele><time>2026-04-18T14:37:01.726Z</time></trkpt><trkpt lat="45.7180465" lon="10.9665286"><ele>1004.0</ele><time>2026-04-18T14:37:02.72Z</time></trkpt><trkpt lat="45.7181317" lon="10.9664038"><ele>1004.0</ele><time>2026-04-18T14:37:03.723Z</time></trkpt><trkpt lat="45.7182101" lon="10.9663024"><ele>1004.0000000000001</ele><time>2026-04-18T14:37:04.725Z</time></trkpt><trkpt lat="45.7183014" lon="10.9662339"><ele>1004.0000000000001</ele><time>2026-04-18T14:37:05.72Z</time></trkpt><trkpt lat="45.7184065" lon="10.9661841"><ele>1004.0</ele><time>2026-04-18T14:37:06.723Z</time></trkpt><trkpt lat="45.7185136" lon="10.9661675"><ele>1004.0</ele><time>2026-04-18T14:37:07.719Z</time></trkpt><trkpt lat="45.7186143" lon="10.9661667"><ele>1001.0</ele><time>2026-04-18T14:37:08.724Z</time></trkpt><trkpt lat="45.7187147" lon="10.9661561"><ele>998.0000000000001</ele><time>2026-04-18T14:37:09.723Z</time></trkpt><trkpt lat="45.7188109" lon="10.9661462"><ele>995.0000000000001</ele><time>2026-04-18T14:37:10.724Z</time></trkpt><trkpt lat="45.7189026" lon="10.9661363"><ele>992.0</ele><time>2026-04-18T14:37:11.726Z</time></trkpt><trkpt lat="45.7190038" lon="10.9660575"><ele>989.0</ele><time>2026-04-18T14:37:13.718Z</time></trkpt><trkpt lat="45.719018" lon="10.9659611"><ele>991.0</ele><time>2026-04-18T14:37:14.724Z</time></trkpt><trkpt lat="45.7190068" lon="10.9658503"><ele>993.0000000000001</ele><time>2026-04-18T14:37:15.722Z</time></trkpt><trkpt lat="45.7189858" lon="10.9657158"><ele>995.0000000000001</ele><time>2026-04-18T14:37:16.728Z</time></trkpt><trkpt lat="45.7189698" lon="10.9655805"><ele>997.0</ele><time>2026-04-18T14:37:17.724Z</time></trkpt><trkpt lat="45.7189463" lon="10.9654429"><ele>999.0</ele><time>2026-04-18T14:37:18.719Z</time></trkpt><trkpt lat="45.7189514" lon="10.9653033"><ele>999.0</ele><time>2026-04-18T14:37:19.721Z</time></trkpt><trkpt lat="45.7189608" lon="10.9651606"><ele>999.0000000000001</ele><time>2026-04-18T14:37:20.715Z</time></trkpt><trkpt lat="45.7190043" lon="10.965032"><ele>999.0000000000001</ele><time>2026-04-18T14:37:21.718Z</time></trkpt><trkpt lat="45.7190514" lon="10.9649149"><ele>999.0</ele><time>2026-04-18T14:37:22.719Z</time></trkpt><trkpt lat="45.7191064" lon="10.9648149"><ele>999.0</ele><time>2026-04-18T14:37:23.72Z</time></trkpt><trkpt lat="45.7192016" lon="10.9647848"><ele>999.0</ele><time>2026-04-18T14:37:24.72Z</time></trkpt><trkpt lat="45.7192808" lon="10.9647481"><ele>999.0</ele><time>2026-04-18T14:37:25.721Z</time></trkpt><trkpt lat="45.7193421" lon="10.9647266"><ele>999.0</ele><time>2026-04-18T14:37:26.718Z</time></trkpt><trkpt lat="45.7194057" lon="10.9646986"><ele>999.0</ele><time>2026-04-18T14:37:27.725Z</time></trkpt><trkpt lat="45.7194145" lon="10.964822"><ele>999.0</ele><time>2026-04-18T14:37:29.719Z</time></trkpt><trkpt lat="45.7193394" lon="10.9649568"><ele>999.0</ele><time>2026-04-18T14:37:31.718Z</time></trkpt><trkpt lat="45.7193065" lon="10.9650613"><ele>999.0</ele><time>2026-04-18T14:37:32.718Z</time></trkpt><trkpt lat="45.7193077" lon="10.9651778"><ele>999.0000000000001</ele><time>2026-04-18T14:37:33.719Z</time></trkpt><trkpt lat="45.7193622" lon="10.965296"><ele>999.0000000000001</ele><time>2026-04-18T14:37:34.72Z</time></trkpt><trkpt lat="45.7194026" lon="10.9653827"><ele>999.0</ele><time>2026-04-18T14:37:35.72Z</time></trkpt><trkpt lat="45.7195279" lon="10.965462"><ele>999.0</ele><time>2026-04-18T14:37:36.718Z</time></trkpt><trkpt lat="45.7196195" lon="10.9655238"><ele>993.6</ele><time>2026-04-18T14:37:37.732Z</time></trkpt><trkpt lat="45.7197266" lon="10.9655876"><ele>988.2</ele><time>2026-04-18T14:37:38.724Z</time></trkpt><trkpt lat="45.7198343" lon="10.9656163"><ele>982.8000000000001</ele><time>2026-04-18T14:37:39.719Z</time></trkpt><trkpt lat="45.7199083" lon="10.9656566"><ele>977.4000000000001</ele><time>2026-04-18T14:37:40.726Z</time></trkpt><trkpt lat="45.7199825" lon="10.9656922"><ele>972.0</ele><time>2026-04-18T14:37:41.725Z</time></trkpt><trkpt lat="45.7200833" lon="10.9656941"><ele>972.0</ele><time>2026-04-18T14:37:43.723Z</time></trkpt><trkpt lat="45.7201365" lon="10.9655887"><ele>972.0</ele><time>2026-04-18T14:37:45.724Z</time></trkpt><trkpt lat="45.7201281" lon="10.9654796"><ele>972.0</ele><time>2026-04-18T14:37:46.72Z</time></trkpt><trkpt lat="45.7201429" lon="10.9653142"><ele>972.0</ele><time>2026-04-18T14:37:48.718Z</time></trkpt><trkpt lat="45.7201978" lon="10.9652491"><ele>972.0</ele><time>2026-04-18T14:37:49.725Z</time></trkpt><trkpt lat="45.720261" lon="10.9652121"><ele>972.0</ele><time>2026-04-18T14:37:50.717Z</time></trkpt><trkpt lat="45.7203552" lon="10.9651929"><ele>966.6</ele><time>2026-04-18T14:37:51.723Z</time></trkpt><trkpt lat="45.7204298" lon="10.9651764"><ele>961.2</ele><time>2026-04-18T14:37:52.719Z</time></trkpt><trkpt lat="45.7205876" lon="10.9651358"><ele>955.8</ele><time>2026-04-18T14:37:54.724Z</time></trkpt><trkpt lat="45.7206824" lon="10.9651085"><ele>950.4</ele><time>2026-04-18T14:37:55.718Z</time></trkpt><trkpt lat="45.720767" lon="10.9650865"><ele>945.0</ele><time>2026-04-18T14:37:56.727Z</time></trkpt><trkpt lat="45.7208396" lon="10.9650663"><ele>945.0</ele><time>2026-04-18T14:37:57.728Z</time></trkpt><trkpt lat="45.7209513" lon="10.9650771"><ele>945.0</ele><time>2026-04-18T14:37:59.718Z</time></trkpt><trkpt lat="45.7210055" lon="10.9652147"><ele>945.0</ele><time>2026-04-18T14:38:01.72Z</time></trkpt><trkpt lat="45.7209834" lon="10.9653064"><ele>945.0</ele><time>2026-04-18T14:38:02.72Z</time></trkpt><trkpt lat="45.7209506" lon="10.9654081"><ele>945.0</ele><time>2026-04-18T14:38:03.72Z</time></trkpt><trkpt lat="45.7209339" lon="10.9655362"><ele>945.0</ele><time>2026-04-18T14:38:04.717Z</time></trkpt><trkpt lat="45.7209531" lon="10.9656575"><ele>945.0</ele><time>2026-04-18T14:38:05.72Z</time></trkpt><trkpt lat="45.7209889" lon="10.9657816"><ele>945.0</ele><time>2026-04-18T14:38:06.726Z</time></trkpt><trkpt lat="45.7210279" lon="10.9659108"><ele>945.0</ele><time>2026-04-18T14:38:07.721Z</time></trkpt><trkpt lat="45.7210413" lon="10.9660356"><ele>945.0</ele><time>2026-04-18T14:38:08.725Z</time></trkpt><trkpt lat="45.7210621" lon="10.9661334"><ele>945.0</ele><time>2026-04-18T14:38:09.728Z</time></trkpt><trkpt lat="45.7211021" lon="10.9662104"><ele>939.3333333333334</ele><time>2026-04-18T14:38:10.726Z</time></trkpt><trkpt lat="45.7211947" lon="10.9662172"><ele>933.6666666666667</ele><time>2026-04-18T14:38:12.72Z</time></trkpt><trkpt lat="45.7212331" lon="10.9660639"><ele>928.0</ele><time>2026-04-18T14:38:14.718Z</time></trkpt><trkpt lat="45.7212532" lon="10.9659703"><ele>922.3333333333334</ele><time>2026-04-18T14:38:15.724Z</time></trkpt><trkpt lat="45.7212719" lon="10.9658496"><ele>916.6666666666667</ele><time>2026-04-18T14:38:16.718Z</time></trkpt><trkpt lat="45.7213157" lon="10.965746"><ele>911.0</ele><time>2026-04-18T14:38:17.72Z</time></trkpt><trkpt lat="45.7213825" lon="10.9656437"><ele>911.0</ele><time>2026-04-18T14:38:18.722Z</time></trkpt><trkpt lat="45.7214738" lon="10.9655785"><ele>910.9999999999999</ele><time>2026-04-18T14:38:19.725Z</time></trkpt><trkpt lat="45.7215689" lon="10.9655217"><ele>910.9999999999999</ele><time>2026-04-18T14:38:20.726Z</time></trkpt><trkpt lat="45.7216551" lon="10.965475"><ele>911.0</ele><time>2026-04-18T14:38:21.723Z</time></trkpt><trkpt lat="45.7217442" lon="10.9654355"><ele>911.0</ele><time>2026-04-18T14:38:22.719Z</time></trkpt><trkpt lat="45.7218394" lon="10.9654177"><ele>904.75</ele><time>2026-04-18T14:38:23.726Z</time></trkpt><trkpt lat="45.7219458" lon="10.9654179"><ele>898.5</ele><time>2026-04-18T14:38:24.721Z</time></trkpt><trkpt lat="45.7220583" lon="10.9654362"><ele>892.25</ele><time>2026-04-18T14:38:25.72Z</time></trkpt><trkpt lat="45.7221635" lon="10.965483"><ele>886.0</ele><time>2026-04-18T14:38:26.719Z</time></trkpt><trkpt lat="45.7222909" lon="10.9655153"><ele>886.0</ele><time>2026-04-18T14:38:27.718Z</time></trkpt><trkpt lat="45.7224267" lon="10.9655372"><ele>886.0</ele><time>2026-04-18T14:38:28.719Z</time></trkpt><trkpt lat="45.7225553" lon="10.9655643"><ele>886.0</ele><time>2026-04-18T14:38:29.718Z</time></trkpt><trkpt lat="45.7226809" lon="10.9655913"><ele>886.0</ele><time>2026-04-18T14:38:30.72Z</time></trkpt><trkpt lat="45.722816" lon="10.9656116"><ele>882.0</ele><time>2026-04-18T14:38:31.718Z</time></trkpt><trkpt lat="45.7229493" lon="10.9656371"><ele>878.0</ele><time>2026-04-18T14:38:32.719Z</time></trkpt><trkpt lat="45.7230869" lon="10.9656568"><ele>874.0</ele><time>2026-04-18T14:38:33.723Z</time></trkpt><trkpt lat="45.723215" lon="10.9656759"><ele>870.0</ele><time>2026-04-18T14:38:34.719Z</time></trkpt><trkpt lat="45.7233283" lon="10.9657023"><ele>870.0</ele><time>2026-04-18T14:38:35.717Z</time></trkpt><trkpt lat="45.7234373" lon="10.9657279"><ele>870.0</ele><time>2026-04-18T14:38:36.722Z</time></trkpt><trkpt lat="45.7235431" lon="10.9657386"><ele>870.0</ele><time>2026-04-18T14:38:37.716Z</time></trkpt><trkpt lat="45.7236549" lon="10.9657305"><ele>870.0</ele><time>2026-04-18T14:38:38.722Z</time></trkpt><trkpt lat="45.7237585" lon="10.9657006"><ele>870.0</ele><time>2026-04-18T14:38:39.716Z</time></trkpt><trkpt lat="45.7238506" lon="10.965658"><ele>865.5</ele><time>2026-04-18T14:38:40.719Z</time></trkpt><trkpt lat="45.7239268" lon="10.9655945"><ele>861.0</ele><time>2026-04-18T14:38:41.713Z</time></trkpt><trkpt lat="45.723982" lon="10.9655225"><ele>856.5</ele><time>2026-04-18T14:38:42.719Z</time></trkpt><trkpt lat="45.7240219" lon="10.96545"><ele>852.0</ele><time>2026-04-18T14:38:43.721Z</time></trkpt><trkpt lat="45.7241031" lon="10.9654267"><ele>847.5</ele><time>2026-04-18T14:38:45.73Z</time></trkpt><trkpt lat="45.7241205" lon="10.9655449"><ele>843.0</ele><time>2026-04-18T14:38:47.72Z</time></trkpt><trkpt lat="45.724085" lon="10.9656347"><ele>843.0</ele><time>2026-04-18T14:38:48.713Z</time></trkpt><trkpt lat="45.7240197" lon="10.9657294"><ele>843.0</ele><time>2026-04-18T14:38:49.715Z</time></trkpt><trkpt lat="45.7239462" lon="10.9658296"><ele>843.0</ele><time>2026-04-18T14:38:50.717Z</time></trkpt><trkpt lat="45.7238748" lon="10.9659161"><ele>843.0</ele><time>2026-04-18T14:38:51.721Z</time></trkpt><trkpt lat="45.723805" lon="10.9659992"><ele>843.0</ele><time>2026-04-18T14:38:52.719Z</time></trkpt><trkpt lat="45.7237308" lon="10.9660683"><ele>840.4</ele><time>2026-04-18T14:38:53.724Z</time></trkpt><trkpt lat="45.7236492" lon="10.9661151"><ele>837.8</ele><time>2026-04-18T14:38:54.724Z</time></trkpt><trkpt lat="45.7235678" lon="10.9661507"><ele>835.2</ele><time>2026-04-18T14:38:55.718Z</time></trkpt><trkpt lat="45.723473" lon="10.9660921"><ele>832.6</ele><time>2026-04-18T14:38:56.717Z</time></trkpt><trkpt lat="45.7233857" lon="10.9660883"><ele>830.0</ele><time>2026-04-18T14:38:57.713Z</time></trkpt><trkpt lat="45.7232733" lon="10.9661148"><ele>830.0</ele><time>2026-04-18T14:38:58.714Z</time></trkpt><trkpt lat="45.7231592" lon="10.9661724"><ele>830.0</ele><time>2026-04-18T14:38:59.716Z</time></trkpt><trkpt lat="45.7230587" lon="10.9662529"><ele>830.0</ele><time>2026-04-18T14:39:00.715Z</time></trkpt><trkpt lat="45.722968" lon="10.9663366"><ele>830.0</ele><time>2026-04-18T14:39:01.72Z</time></trkpt><trkpt lat="45.7228949" lon="10.9664203"><ele>830.0</ele><time>2026-04-18T14:39:02.714Z</time></trkpt><trkpt lat="45.7228137" lon="10.9664797"><ele>830.0000000000001</ele><time>2026-04-18T14:39:03.72Z</time></trkpt><trkpt lat="45.7227332" lon="10.9665071"><ele>830.0</ele><time>2026-04-18T14:39:04.716Z</time></trkpt><trkpt lat="45.7226631" lon="10.9665119"><ele>830.0</ele><time>2026-04-18T14:39:05.716Z</time></trkpt><trkpt lat="45.7225837" lon="10.9666106"><ele>830.0</ele><time>2026-04-18T14:39:07.719Z</time></trkpt><trkpt lat="45.7226565" lon="10.9667296"><ele>830.0000000000001</ele><time>2026-04-18T14:39:09.717Z</time></trkpt><trkpt lat="45.7227349" lon="10.9667438"><ele>830.0</ele><time>2026-04-18T14:39:10.722Z</time></trkpt><trkpt lat="45.7228162" lon="10.9667638"><ele>830.0000000000001</ele><time>2026-04-18T14:39:11.722Z</time></trkpt><trkpt lat="45.722911" lon="10.9666842"><ele>830.0</ele><time>2026-04-18T14:39:12.718Z</time></trkpt><trkpt lat="45.7229871" lon="10.9666261"><ele>830.0</ele><time>2026-04-18T14:39:13.719Z</time></trkpt><trkpt lat="45.7230704" lon="10.9665719"><ele>830.0</ele><time>2026-04-18T14:39:14.72Z</time></trkpt><trkpt lat="45.7231379" lon="10.9665363"><ele>830.0000000000001</ele><time>2026-04-18T14:39:15.717Z</time></trkpt><trkpt lat="45.723211" lon="10.9665224"><ele>830.0</ele><time>2026-04-18T14:39:16.719Z</time></trkpt><trkpt lat="45.7232893" lon="10.9665427"><ele>830.0</ele><time>2026-04-18T14:39:17.718Z</time></trkpt><trkpt lat="45.7233582" lon="10.9666105"><ele>830.0</ele><time>2026-04-18T14:39:18.719Z</time></trkpt><trkpt lat="45.7234234" lon="10.9667115"><ele>830.0</ele><time>2026-04-18T14:39:19.726Z</time></trkpt><trkpt lat="45.7235049" lon="10.9667839"><ele>830.0</ele><time>2026-04-18T14:39:20.725Z</time></trkpt><trkpt lat="45.7236109" lon="10.9668217"><ele>830.0</ele><time>2026-04-18T14:39:21.718Z</time></trkpt><trkpt lat="45.7237256" lon="10.9668412"><ele>818.5</ele><time>2026-04-18T14:39:22.719Z</time></trkpt><trkpt lat="45.7238524" lon="10.9668285"><ele>807.0</ele><time>2026-04-18T14:39:23.719Z</time></trkpt><trkpt lat="45.7239937" lon="10.9667994"><ele>795.5</ele><time>2026-04-18T14:39:24.73Z</time></trkpt><trkpt lat="45.7241423" lon="10.9667649"><ele>784.0</ele><time>2026-04-18T14:39:25.726Z</time></trkpt><trkpt lat="45.7242909" lon="10.9667219"><ele>790.0</ele><time>2026-04-18T14:39:26.718Z</time></trkpt><trkpt lat="45.7244239" lon="10.9666837"><ele>796.0</ele><time>2026-04-18T14:39:27.717Z</time></trkpt><trkpt lat="45.7245604" lon="10.966659"><ele>802.0</ele><time>2026-04-18T14:39:28.718Z</time></trkpt><trkpt lat="45.7246966" lon="10.9666405"><ele>808.0</ele><time>2026-04-18T14:39:29.721Z</time></trkpt><trkpt lat="45.7248354" lon="10.9666519"><ele>808.0</ele><time>2026-04-18T14:39:30.714Z</time></trkpt><trkpt lat="45.7249741" lon="10.9666805"><ele>808.0</ele><time>2026-04-18T14:39:31.725Z</time></trkpt><trkpt lat="45.7251036" lon="10.9667151"><ele>808.0</ele><time>2026-04-18T14:39:32.723Z</time></trkpt><trkpt lat="45.7252238" lon="10.9667499"><ele>808.0</ele><time>2026-04-18T14:39:33.717Z</time></trkpt><trkpt lat="45.7253425" lon="10.9667703"><ele>805.75</ele><time>2026-04-18T14:39:34.719Z</time></trkpt><trkpt lat="45.7254658" lon="10.9667968"><ele>803.5</ele><time>2026-04-18T14:39:35.721Z</time></trkpt><trkpt lat="45.7255905" lon="10.9668215"><ele>801.25</ele><time>2026-04-18T14:39:36.722Z</time></trkpt><trkpt lat="45.7257173" lon="10.9668453"><ele>799.0</ele><time>2026-04-18T14:39:37.723Z</time></trkpt><trkpt lat="45.7258482" lon="10.9668738"><ele>799.0</ele><time>2026-04-18T14:39:38.718Z</time></trkpt><trkpt lat="45.7259775" lon="10.9669154"><ele>799.0</ele><time>2026-04-18T14:39:39.719Z</time></trkpt><trkpt lat="45.726103" lon="10.9669708"><ele>799.0</ele><time>2026-04-18T14:39:40.726Z</time></trkpt><trkpt lat="45.7262264" lon="10.9670411"><ele>799.0</ele><time>2026-04-18T14:39:41.719Z</time></trkpt><trkpt lat="45.7263485" lon="10.9671261"><ele>799.5</ele><time>2026-04-18T14:39:42.724Z</time></trkpt><trkpt lat="45.7264657" lon="10.9672109"><ele>800.0</ele><time>2026-04-18T14:39:43.721Z</time></trkpt><trkpt lat="45.7265731" lon="10.9673129"><ele>800.5</ele><time>2026-04-18T14:39:44.721Z</time></trkpt><trkpt lat="45.7266709" lon="10.9674434"><ele>801.0</ele><time>2026-04-18T14:39:45.719Z</time></trkpt><trkpt lat="45.7267661" lon="10.9675653"><ele>801.0</ele><time>2026-04-18T14:39:46.726Z</time></trkpt><trkpt lat="45.7268668" lon="10.9676587"><ele>801.0</ele><time>2026-04-18T14:39:47.721Z</time></trkpt><trkpt lat="45.7269868" lon="10.9677061"><ele>801.0</ele><time>2026-04-18T14:39:48.725Z</time></trkpt><trkpt lat="45.7271255" lon="10.967699"><ele>801.0</ele><time>2026-04-18T14:39:49.725Z</time></trkpt><trkpt lat="45.7272818" lon="10.9676427"><ele>800.0</ele><time>2026-04-18T14:39:50.718Z</time></trkpt><trkpt lat="45.7274293" lon="10.9675871"><ele>799.0</ele><time>2026-04-18T14:39:51.72Z</time></trkpt><trkpt lat="45.7275698" lon="10.9675311"><ele>798.0</ele><time>2026-04-18T14:39:52.717Z</time></trkpt><trkpt lat="45.7276968" lon="10.9674637"><ele>797.0</ele><time>2026-04-18T14:39:53.72Z</time></trkpt><trkpt lat="45.7278152" lon="10.9673562"><ele>793.25</ele><time>2026-04-18T14:39:54.723Z</time></trkpt><trkpt lat="45.727923" lon="10.9672106"><ele>789.5</ele><time>2026-04-18T14:39:55.726Z</time></trkpt><trkpt lat="45.7280121" lon="10.9670647"><ele>785.75</ele><time>2026-04-18T14:39:56.719Z</time></trkpt><trkpt lat="45.7280822" lon="10.9669108"><ele>782.0</ele><time>2026-04-18T14:39:57.72Z</time></trkpt><trkpt lat="45.7281242" lon="10.9667329"><ele>784.25</ele><time>2026-04-18T14:39:58.72Z</time></trkpt><trkpt lat="45.7281291" lon="10.9665405"><ele>786.5</ele><time>2026-04-18T14:39:59.715Z</time></trkpt><trkpt lat="45.7281113" lon="10.9663639"><ele>788.75</ele><time>2026-04-18T14:40:00.724Z</time></trkpt><trkpt lat="45.7280503" lon="10.9661952"><ele>791.0</ele><time>2026-04-18T14:40:01.715Z</time></trkpt><trkpt lat="45.727955" lon="10.9660432"><ele>791.0</ele><time>2026-04-18T14:40:02.714Z</time></trkpt><trkpt lat="45.7278552" lon="10.9659084"><ele>791.0</ele><time>2026-04-18T14:40:03.724Z</time></trkpt><trkpt lat="45.7277757" lon="10.9657874"><ele>791.0</ele><time>2026-04-18T14:40:04.713Z</time></trkpt><trkpt lat="45.7277132" lon="10.9656669"><ele>791.0</ele><time>2026-04-18T14:40:05.724Z</time></trkpt><trkpt lat="45.7276615" lon="10.9655738"><ele>791.0</ele><time>2026-04-18T14:40:06.715Z</time></trkpt><trkpt lat="45.7276316" lon="10.9654938"><ele>788.5999999999999</ele><time>2026-04-18T14:40:07.715Z</time></trkpt><trkpt lat="45.7276592" lon="10.9653722"><ele>786.2</ele><time>2026-04-18T14:40:09.722Z</time></trkpt><trkpt lat="45.7277593" lon="10.9654316"><ele>783.8</ele><time>2026-04-18T14:40:11.721Z</time></trkpt><trkpt lat="45.7278172" lon="10.9655367"><ele>781.4000000000001</ele><time>2026-04-18T14:40:12.718Z</time></trkpt><trkpt lat="45.7278806" lon="10.9656368"><ele>779.0</ele><time>2026-04-18T14:40:13.724Z</time></trkpt><trkpt lat="45.7279451" lon="10.9657409"><ele>779.0</ele><time>2026-04-18T14:40:14.713Z</time></trkpt><trkpt lat="45.7280221" lon="10.9658168"><ele>779.0</ele><time>2026-04-18T14:40:15.714Z</time></trkpt><trkpt lat="45.7280839" lon="10.9658675"><ele>779.0</ele><time>2026-04-18T14:40:16.714Z</time></trkpt><trkpt lat="45.7281946" lon="10.965887"><ele>779.0</ele><time>2026-04-18T14:40:18.719Z</time></trkpt><trkpt lat="45.7282099" lon="10.9657321"><ele>779.0</ele><time>2026-04-18T14:40:20.719Z</time></trkpt><trkpt lat="45.7281859" lon="10.965623"><ele>779.0</ele><time>2026-04-18T14:40:21.718Z</time></trkpt><trkpt lat="45.7281683" lon="10.9654973"><ele>779.0</ele><time>2026-04-18T14:40:22.715Z</time></trkpt><trkpt lat="45.7281574" lon="10.9653604"><ele>779.0</ele><time>2026-04-18T14:40:23.716Z</time></trkpt><trkpt lat="45.7281261" lon="10.9652209"><ele>779.0</ele><time>2026-04-18T14:40:24.719Z</time></trkpt><trkpt lat="45.7280721" lon="10.9650784"><ele>779.0</ele><time>2026-04-18T14:40:25.718Z</time></trkpt><trkpt lat="45.728013" lon="10.9649415"><ele>774.4000000000001</ele><time>2026-04-18T14:40:26.725Z</time></trkpt><trkpt lat="45.7279558" lon="10.9647991"><ele>769.8</ele><time>2026-04-18T14:40:27.718Z</time></trkpt><trkpt lat="45.7279016" lon="10.964665"><ele>765.2</ele><time>2026-04-18T14:40:28.726Z</time></trkpt><trkpt lat="45.7278535" lon="10.9645371"><ele>760.5999999999999</ele><time>2026-04-18T14:40:29.725Z</time></trkpt><trkpt lat="45.7278215" lon="10.9644267"><ele>756.0</ele><time>2026-04-18T14:40:30.714Z</time></trkpt><trkpt lat="45.7278082" lon="10.9643027"><ele>752.0</ele><time>2026-04-18T14:40:31.714Z</time></trkpt><trkpt lat="45.7277943" lon="10.9641833"><ele>748.0</ele><time>2026-04-18T14:40:32.716Z</time></trkpt><trkpt lat="45.7277936" lon="10.9640422"><ele>744.0</ele><time>2026-04-18T14:40:33.718Z</time></trkpt><trkpt lat="45.7278" lon="10.9639237"><ele>740.0</ele><time>2026-04-18T14:40:34.715Z</time></trkpt><trkpt lat="45.7277481" lon="10.9638272"><ele>736.0</ele><time>2026-04-18T14:40:35.715Z</time></trkpt><trkpt lat="45.7277023" lon="10.9637252"><ele>732.0</ele><time>2026-04-18T14:40:36.72Z</time></trkpt><trkpt lat="45.7276649" lon="10.9636098"><ele>732.0</ele><time>2026-04-18T14:40:37.717Z</time></trkpt><trkpt lat="45.7276263" lon="10.9635261"><ele>732.0</ele><time>2026-04-18T14:40:38.715Z</time></trkpt><trkpt lat="45.7275948" lon="10.9634471"><ele>732.0</ele><time>2026-04-18T14:40:39.725Z</time></trkpt><trkpt lat="45.7276095" lon="10.963329"><ele>732.0</ele><time>2026-04-18T14:40:41.713Z</time></trkpt><trkpt lat="45.7276924" lon="10.9633364"><ele>732.0</ele><time>2026-04-18T14:40:43.716Z</time></trkpt><trkpt lat="45.7277306" lon="10.9634181"><ele>732.0</ele><time>2026-04-18T14:40:44.729Z</time></trkpt><trkpt lat="45.7277807" lon="10.9635574"><ele>732.0</ele><time>2026-04-18T14:40:45.715Z</time></trkpt><trkpt lat="45.7278416" lon="10.9636931"><ele>732.0</ele><time>2026-04-18T14:40:46.714Z</time></trkpt><trkpt lat="45.7279152" lon="10.9638456"><ele>732.0</ele><time>2026-04-18T14:40:47.713Z</time></trkpt><trkpt lat="45.727961" lon="10.9640057"><ele>732.0</ele><time>2026-04-18T14:40:48.726Z</time></trkpt><trkpt lat="45.7280282" lon="10.9641654"><ele>738.0</ele><time>2026-04-18T14:40:49.717Z</time></trkpt><trkpt lat="45.7281011" lon="10.9643218"><ele>744.0</ele><time>2026-04-18T14:40:50.718Z</time></trkpt><trkpt lat="45.7281718" lon="10.9644698"><ele>750.0</ele><time>2026-04-18T14:40:51.717Z</time></trkpt><trkpt lat="45.7282489" lon="10.9645959"><ele>756.0</ele><time>2026-04-18T14:40:52.72Z</time></trkpt><trkpt lat="45.7283266" lon="10.9646996"><ele>756.0</ele><time>2026-04-18T14:40:53.716Z</time></trkpt><trkpt lat="45.7284087" lon="10.9648083"><ele>756.0</ele><time>2026-04-18T14:40:54.722Z</time></trkpt><trkpt lat="45.7284722" lon="10.9649637"><ele>756.0</ele><time>2026-04-18T14:40:55.716Z</time></trkpt><trkpt lat="45.7285307" lon="10.9651231"><ele>756.0</ele><time>2026-04-18T14:40:56.72Z</time></trkpt><trkpt lat="45.7285825" lon="10.9652652"><ele>748.8</ele><time>2026-04-18T14:40:57.712Z</time></trkpt><trkpt lat="45.7286516" lon="10.9653824"><ele>741.5999999999999</ele><time>2026-04-18T14:40:58.713Z</time></trkpt><trkpt lat="45.7287379" lon="10.9654805"><ele>734.4</ele><time>2026-04-18T14:40:59.721Z</time></trkpt><trkpt lat="45.7288281" lon="10.965569"><ele>727.2</ele><time>2026-04-18T14:41:00.72Z</time></trkpt><trkpt lat="45.7289122" lon="10.9656562"><ele>720.0</ele><time>2026-04-18T14:41:01.718Z</time></trkpt><trkpt lat="45.7289879" lon="10.9657559"><ele>720.0</ele><time>2026-04-18T14:41:02.72Z</time></trkpt><trkpt lat="45.729057" lon="10.9658577"><ele>720.0</ele><time>2026-04-18T14:41:03.713Z</time></trkpt><trkpt lat="45.7291244" lon="10.9659729"><ele>720.0</ele><time>2026-04-18T14:41:04.718Z</time></trkpt><trkpt lat="45.7291848" lon="10.9660934"><ele>720.0</ele><time>2026-04-18T14:41:05.715Z</time></trkpt><trkpt lat="45.7292207" lon="10.9662316"><ele>720.0</ele><time>2026-04-18T14:41:06.713Z</time></trkpt><trkpt lat="45.7292399" lon="10.9663804"><ele>720.0</ele><time>2026-04-18T14:41:07.713Z</time></trkpt><trkpt lat="45.7292406" lon="10.9665357"><ele>720.0</ele><time>2026-04-18T14:41:08.718Z</time></trkpt><trkpt lat="45.7292373" lon="10.9666915"><ele>720.0</ele><time>2026-04-18T14:41:09.717Z</time></trkpt><trkpt lat="45.7292207" lon="10.9668618"><ele>720.0</ele><time>2026-04-18T14:41:10.715Z</time></trkpt><trkpt lat="45.729196" lon="10.967039"><ele>716.0</ele><time>2026-04-18T14:41:11.716Z</time></trkpt><trkpt lat="45.729169" lon="10.9672127"><ele>712.0</ele><time>2026-04-18T14:41:12.721Z</time></trkpt><trkpt lat="45.7291434" lon="10.9673828"><ele>708.0</ele><time>2026-04-18T14:41:13.715Z</time></trkpt><trkpt lat="45.7291239" lon="10.9675261"><ele>704.0</ele><time>2026-04-18T14:41:14.717Z</time></trkpt><trkpt lat="45.7290965" lon="10.9676545"><ele>700.0</ele><time>2026-04-18T14:41:15.721Z</time></trkpt><trkpt lat="45.7290508" lon="10.9677597"><ele>694.8</ele><time>2026-04-18T14:41:16.714Z</time></trkpt><trkpt lat="45.7289824" lon="10.9678489"><ele>689.6</ele><time>2026-04-18T14:41:17.725Z</time></trkpt><trkpt lat="45.7289077" lon="10.9679025"><ele>684.4000000000001</ele><time>2026-04-18T14:41:18.722Z</time></trkpt><trkpt lat="45.7288429" lon="10.9679546"><ele>679.2</ele><time>2026-04-18T14:41:19.717Z</time></trkpt><trkpt lat="45.728814" lon="10.9680943"><ele>674.0</ele><time>2026-04-18T14:41:21.716Z</time></trkpt><trkpt lat="45.7289165" lon="10.9681482"><ele>674.0</ele><time>2026-04-18T14:41:23.736Z</time></trkpt><trkpt lat="45.7289978" lon="10.9680919"><ele>674.0</ele><time>2026-04-18T14:41:24.726Z</time></trkpt><trkpt lat="45.7290932" lon="10.9680182"><ele>674.0</ele><time>2026-04-18T14:41:25.722Z</time></trkpt><trkpt lat="45.7291768" lon="10.9679283"><ele>674.0</ele><time>2026-04-18T14:41:26.726Z</time></trkpt><trkpt lat="45.7292492" lon="10.9678123"><ele>674.0</ele><time>2026-04-18T14:41:27.72Z</time></trkpt><trkpt lat="45.7293129" lon="10.9677005"><ele>674.0</ele><time>2026-04-18T14:41:28.723Z</time></trkpt><trkpt lat="45.7293867" lon="10.9676039"><ele>674.0</ele><time>2026-04-18T14:41:29.716Z</time></trkpt><trkpt lat="45.7294767" lon="10.9675341"><ele>674.0</ele><time>2026-04-18T14:41:30.735Z</time></trkpt><trkpt lat="45.7295824" lon="10.9674975"><ele>674.0</ele><time>2026-04-18T14:41:31.717Z</time></trkpt><trkpt lat="45.7297051" lon="10.9675118"><ele>674.0</ele><time>2026-04-18T14:41:32.718Z</time></trkpt><trkpt lat="45.7298264" lon="10.9675693"><ele>672.25</ele><time>2026-04-18T14:41:33.723Z</time></trkpt><trkpt lat="45.729945" lon="10.9676387"><ele>670.5</ele><time>2026-04-18T14:41:34.719Z</time></trkpt><trkpt lat="45.7300612" lon="10.967701"><ele>668.75</ele><time>2026-04-18T14:41:35.714Z</time></trkpt><trkpt lat="45.730175" lon="10.9677667"><ele>667.0</ele><time>2026-04-18T14:41:36.714Z</time></trkpt><trkpt lat="45.7302823" lon="10.967829"><ele>664.2</ele><time>2026-04-18T14:41:37.719Z</time></trkpt><trkpt lat="45.7303889" lon="10.9678665"><ele>661.4000000000001</ele><time>2026-04-18T14:41:38.719Z</time></trkpt><trkpt lat="45.7304958" lon="10.9678709"><ele>658.5999999999999</ele><time>2026-04-18T14:41:39.726Z</time></trkpt><trkpt lat="45.7305969" lon="10.9678425"><ele>655.8</ele><time>2026-04-18T14:41:40.719Z</time></trkpt><trkpt lat="45.7306822" lon="10.9677991"><ele>653.0</ele><time>2026-04-18T14:41:41.72Z</time></trkpt><trkpt lat="45.7307544" lon="10.9677696"><ele>653.0</ele><time>2026-04-18T14:41:42.72Z</time></trkpt><trkpt lat="45.7308225" lon="10.9677842"><ele>653.0</ele><time>2026-04-18T14:41:43.723Z</time></trkpt><trkpt lat="45.7308746" lon="10.9679382"><ele>653.0</ele><time>2026-04-18T14:41:45.719Z</time></trkpt><trkpt lat="45.7308382" lon="10.9680648"><ele>653.0</ele><time>2026-04-18T14:41:46.721Z</time></trkpt><trkpt lat="45.7307772" lon="10.9681864"><ele>653.0</ele><time>2026-04-18T14:41:47.72Z</time></trkpt><trkpt lat="45.7306871" lon="10.9682891"><ele>647.75</ele><time>2026-04-18T14:41:48.719Z</time></trkpt><trkpt lat="45.7305708" lon="10.968366"><ele>642.5</ele><time>2026-04-18T14:41:49.724Z</time></trkpt><trkpt lat="45.7304444" lon="10.9684221"><ele>637.25</ele><time>2026-04-18T14:41:50.72Z</time></trkpt><trkpt lat="45.7303192" lon="10.9684823"><ele>632.0</ele><time>2026-04-18T14:41:51.718Z</time></trkpt><trkpt lat="45.7301943" lon="10.9685447"><ele>632.0</ele><time>2026-04-18T14:41:52.717Z</time></trkpt><trkpt lat="45.730075" lon="10.96861"><ele>632.0</ele><time>2026-04-18T14:41:53.722Z</time></trkpt><trkpt lat="45.729962" lon="10.968672"><ele>632.0</ele><time>2026-04-18T14:41:54.717Z</time></trkpt><trkpt lat="45.7298488" lon="10.9687125"><ele>632.0</ele><time>2026-04-18T14:41:55.715Z</time></trkpt><trkpt lat="45.7297356" lon="10.9687143"><ele>632.0</ele><time>2026-04-18T14:41:56.723Z</time></trkpt><trkpt lat="45.7296243" lon="10.9686829"><ele>632.0</ele><time>2026-04-18T14:41:57.718Z</time></trkpt><trkpt lat="45.7295299" lon="10.9686489"><ele>632.0</ele><time>2026-04-18T14:41:58.718Z</time></trkpt><trkpt lat="45.7294536" lon="10.9686225"><ele>632.0</ele><time>2026-04-18T14:41:59.715Z</time></trkpt><trkpt lat="45.729382" lon="10.9686299"><ele>632.0</ele><time>2026-04-18T14:42:00.722Z</time></trkpt><trkpt lat="45.7293289" lon="10.9687417"><ele>632.0</ele><time>2026-04-18T14:42:02.719Z</time></trkpt><trkpt lat="45.7294408" lon="10.9687931"><ele>632.0</ele><time>2026-04-18T14:42:04.719Z</time></trkpt><trkpt lat="45.7295276" lon="10.9688026"><ele>632.0</ele><time>2026-04-18T14:42:05.717Z</time></trkpt><trkpt lat="45.7296082" lon="10.9688563"><ele>632.0</ele><time>2026-04-18T14:42:06.721Z</time></trkpt><trkpt lat="45.7296897" lon="10.9689164"><ele>632.0</ele><time>2026-04-18T14:42:07.719Z</time></trkpt><trkpt lat="45.7297886" lon="10.9689415"><ele>632.0</ele><time>2026-04-18T14:42:08.723Z</time></trkpt><trkpt lat="45.7299024" lon="10.9689352"><ele>632.0</ele><time>2026-04-18T14:42:09.719Z</time></trkpt><trkpt lat="45.7300144" lon="10.9689214"><ele>632.0</ele><time>2026-04-18T14:42:10.718Z</time></trkpt><trkpt lat="45.7301286" lon="10.9689131"><ele>632.0</ele><time>2026-04-18T14:42:11.726Z</time></trkpt><trkpt lat="45.7302367" lon="10.9689138"><ele>632.0</ele><time>2026-04-18T14:42:12.721Z</time></trkpt><trkpt lat="45.73034" lon="10.968932"><ele>628.2</ele><time>2026-04-18T14:42:13.718Z</time></trkpt><trkpt lat="45.7304383" lon="10.9689713"><ele>624.4000000000001</ele><time>2026-04-18T14:42:14.724Z</time></trkpt><trkpt lat="45.7305239" lon="10.9690406"><ele>620.5999999999999</ele><time>2026-04-18T14:42:15.721Z</time></trkpt><trkpt lat="45.7306041" lon="10.9691115"><ele>616.8</ele><time>2026-04-18T14:42:16.728Z</time></trkpt><trkpt lat="45.7306857" lon="10.9691608"><ele>613.0</ele><time>2026-04-18T14:42:17.717Z</time></trkpt><trkpt lat="45.7307679" lon="10.9691783"><ele>613.0</ele><time>2026-04-18T14:42:18.723Z</time></trkpt><trkpt lat="45.7308498" lon="10.9691387"><ele>613.0</ele><time>2026-04-18T14:42:19.714Z</time></trkpt><trkpt lat="45.7309329" lon="10.9690382"><ele>613.0</ele><time>2026-04-18T14:42:20.719Z</time></trkpt><trkpt lat="45.7310205" lon="10.9689128"><ele>613.0</ele><time>2026-04-18T14:42:21.724Z</time></trkpt><trkpt lat="45.7311067" lon="10.9688035"><ele>613.0</ele><time>2026-04-18T14:42:22.717Z</time></trkpt><trkpt lat="45.7311853" lon="10.9686951"><ele>610.1999999999999</ele><time>2026-04-18T14:42:23.728Z</time></trkpt><trkpt lat="45.7312557" lon="10.9685749"><ele>607.4</ele><time>2026-04-18T14:42:24.718Z</time></trkpt><trkpt lat="45.7313002" lon="10.9684526"><ele>604.5999999999999</ele><time>2026-04-18T14:42:25.718Z</time></trkpt><trkpt lat="45.7313366" lon="10.9683504"><ele>601.8</ele><time>2026-04-18T14:42:26.72Z</time></trkpt><trkpt lat="45.7313767" lon="10.9682695"><ele>599.0</ele><time>2026-04-18T14:42:27.72Z</time></trkpt><trkpt lat="45.7314791" lon="10.9682448"><ele>594.2</ele><time>2026-04-18T14:42:29.735Z</time></trkpt><trkpt lat="45.7315021" lon="10.9683921"><ele>589.4</ele><time>2026-04-18T14:42:31.72Z</time></trkpt><trkpt lat="45.7314904" lon="10.968485"><ele>584.6</ele><time>2026-04-18T14:42:32.72Z</time></trkpt><trkpt lat="45.7313999" lon="10.9686183"><ele>579.8</ele><time>2026-04-18T14:42:33.724Z</time></trkpt><trkpt lat="45.7313236" lon="10.9687543"><ele>575.0</ele><time>2026-04-18T14:42:34.719Z</time></trkpt><trkpt lat="45.7312458" lon="10.968894"><ele>575.0</ele><time>2026-04-18T14:42:35.717Z</time></trkpt><trkpt lat="45.7311672" lon="10.969036"><ele>575.0</ele><time>2026-04-18T14:42:36.722Z</time></trkpt><trkpt lat="45.7310878" lon="10.9691785"><ele>575.0</ele><time>2026-04-18T14:42:37.717Z</time></trkpt><trkpt lat="45.7310098" lon="10.9693194"><ele>575.0</ele><time>2026-04-18T14:42:38.716Z</time></trkpt><trkpt lat="45.7309374" lon="10.9694453"><ele>575.25</ele><time>2026-04-18T14:42:39.722Z</time></trkpt><trkpt lat="45.7308598" lon="10.9695525"><ele>575.5</ele><time>2026-04-18T14:42:40.721Z</time></trkpt><trkpt lat="45.7307596" lon="10.9696342"><ele>575.75</ele><time>2026-04-18T14:42:41.727Z</time></trkpt><trkpt lat="45.7306457" lon="10.9696799"><ele>576.0</ele><time>2026-04-18T14:42:42.721Z</time></trkpt><trkpt lat="45.7305346" lon="10.9697023"><ele>576.0</ele><time>2026-04-18T14:42:43.719Z</time></trkpt><trkpt lat="45.7304355" lon="10.969709"><ele>576.0</ele><time>2026-04-18T14:42:44.722Z</time></trkpt><trkpt lat="45.7303375" lon="10.9696772"><ele>576.0</ele><time>2026-04-18T14:42:45.726Z</time></trkpt><trkpt lat="45.7302392" lon="10.9696163"><ele>576.0</ele><time>2026-04-18T14:42:46.715Z</time></trkpt><trkpt lat="45.7301355" lon="10.9695867"><ele>576.0</ele><time>2026-04-18T14:42:47.719Z</time></trkpt><trkpt lat="45.7300182" lon="10.9696147"><ele>577.75</ele><time>2026-04-18T14:42:48.719Z</time></trkpt><trkpt lat="45.7299023" lon="10.9696582"><ele>579.5</ele><time>2026-04-18T14:42:49.719Z</time></trkpt><trkpt lat="45.7297897" lon="10.9696989"><ele>581.25</ele><time>2026-04-18T14:42:50.721Z</time></trkpt><trkpt lat="45.729675" lon="10.9697279"><ele>583.0</ele><time>2026-04-18T14:42:51.717Z</time></trkpt><trkpt lat="45.7295623" lon="10.9697548"><ele>583.0</ele><time>2026-04-18T14:42:52.719Z</time></trkpt><trkpt lat="45.7294621" lon="10.9697819"><ele>583.0</ele><time>2026-04-18T14:42:53.716Z</time></trkpt><trkpt lat="45.7293707" lon="10.9698501"><ele>583.0</ele><time>2026-04-18T14:42:54.716Z</time></trkpt><trkpt lat="45.7292936" lon="10.9699412"><ele>583.0</ele><time>2026-04-18T14:42:55.725Z</time></trkpt><trkpt lat="45.7292229" lon="10.9700178"><ele>583.0</ele><time>2026-04-18T14:42:56.717Z</time></trkpt><trkpt lat="45.7291497" lon="10.970085"><ele>575.0</ele><time>2026-04-18T14:42:57.721Z</time></trkpt><trkpt lat="45.7290651" lon="10.9701334"><ele>567.0</ele><time>2026-04-18T14:42:58.72Z</time></trkpt><trkpt lat="45.7289719" lon="10.9701442"><ele>559.0</ele><time>2026-04-18T14:42:59.716Z</time></trkpt><trkpt lat="45.7288766" lon="10.9701285"><ele>551.0</ele><time>2026-04-18T14:43:00.72Z</time></trkpt><trkpt lat="45.7287811" lon="10.9701356"><ele>543.0</ele><time>2026-04-18T14:43:01.717Z</time></trkpt><trkpt lat="45.7286895" lon="10.9701778"><ele>543.0</ele><time>2026-04-18T14:43:02.717Z</time></trkpt><trkpt lat="45.7286054" lon="10.9702462"><ele>543.0</ele><time>2026-04-18T14:43:03.717Z</time></trkpt><trkpt lat="45.7285297" lon="10.9703242"><ele>543.0</ele><time>2026-04-18T14:43:04.725Z</time></trkpt><trkpt lat="45.7284625" lon="10.9704068"><ele>543.0</ele><time>2026-04-18T14:43:05.717Z</time></trkpt><trkpt lat="45.7284015" lon="10.9704963"><ele>543.0</ele><time>2026-04-18T14:43:06.718Z</time></trkpt><trkpt lat="45.7283466" lon="10.9705735"><ele>543.0</ele><time>2026-04-18T14:43:07.717Z</time></trkpt><trkpt lat="45.7282932" lon="10.9706381"><ele>541.8571428571429</ele><time>2026-04-18T14:43:08.718Z</time></trkpt><trkpt lat="45.7282394" lon="10.9707023"><ele>540.7142857142857</ele><time>2026-04-18T14:43:09.726Z</time></trkpt><trkpt lat="45.7281871" lon="10.9707698"><ele>539.5714285714286</ele><time>2026-04-18T14:43:10.717Z</time></trkpt><trkpt lat="45.7281343" lon="10.9708381"><ele>538.4285714285714</ele><time>2026-04-18T14:43:11.717Z</time></trkpt><trkpt lat="45.7280784" lon="10.9709179"><ele>537.2857142857143</ele><time>2026-04-18T14:43:12.719Z</time></trkpt><trkpt lat="45.7280211" lon="10.9709917"><ele>536.1428571428571</ele><time>2026-04-18T14:43:13.727Z</time></trkpt><trkpt lat="45.7279628" lon="10.9710732"><ele>535.0</ele><time>2026-04-18T14:43:14.719Z</time></trkpt><trkpt lat="45.7278937" lon="10.9711675"><ele>535.0</ele><time>2026-04-18T14:43:15.723Z</time></trkpt><trkpt lat="45.7278234" lon="10.9712544"><ele>535.0</ele><time>2026-04-18T14:43:16.718Z</time></trkpt><trkpt lat="45.7277585" lon="10.9713573"><ele>535.0</ele><time>2026-04-18T14:43:17.721Z</time></trkpt><trkpt lat="45.7277092" lon="10.9714666"><ele>535.0</ele><time>2026-04-18T14:43:18.721Z</time></trkpt><trkpt lat="45.7276703" lon="10.9715664"><ele>535.0</ele><time>2026-04-18T14:43:19.728Z</time></trkpt><trkpt lat="45.7276186" lon="10.9716425"><ele>535.0</ele><time>2026-04-18T14:43:20.718Z</time></trkpt><trkpt lat="45.7275553" lon="10.9716948"><ele>532.3333333333334</ele><time>2026-04-18T14:43:21.719Z</time></trkpt><trkpt lat="45.727487" lon="10.9717072"><ele>529.6666666666667</ele><time>2026-04-18T14:43:22.722Z</time></trkpt><trkpt lat="45.7274192" lon="10.9716959"><ele>527.0</ele><time>2026-04-18T14:43:23.723Z</time></trkpt><trkpt lat="45.7273488" lon="10.9716905"><ele>524.3333333333334</ele><time>2026-04-18T14:43:24.717Z</time></trkpt><trkpt lat="45.7272331" lon="10.9716824"><ele>521.6666666666666</ele><time>2026-04-18T14:43:26.717Z</time></trkpt><trkpt lat="45.7271619" lon="10.971777"><ele>519.0</ele><time>2026-04-18T14:43:28.716Z</time></trkpt><trkpt lat="45.7272166" lon="10.9718761"><ele>519.0</ele><time>2026-04-18T14:43:30.72Z</time></trkpt><trkpt lat="45.7273405" lon="10.9718981"><ele>519.0</ele><time>2026-04-18T14:43:32.721Z</time></trkpt><trkpt lat="45.7274155" lon="10.9718998"><ele>519.0</ele><time>2026-04-18T14:43:33.719Z</time></trkpt><trkpt lat="45.7274883" lon="10.9718978"><ele>519.0</ele><time>2026-04-18T14:43:34.72Z</time></trkpt><trkpt lat="45.7275584" lon="10.9718989"><ele>519.0</ele><time>2026-04-18T14:43:35.718Z</time></trkpt><trkpt lat="45.7276277" lon="10.9718781"><ele>519.0</ele><time>2026-04-18T14:43:36.72Z</time></trkpt><trkpt lat="45.7276894" lon="10.9718277"><ele>521.6666666666666</ele><time>2026-04-18T14:43:37.716Z</time></trkpt><trkpt lat="45.7277336" lon="10.9717478"><ele>524.3333333333334</ele><time>2026-04-18T14:43:38.715Z</time></trkpt><trkpt lat="45.7277659" lon="10.9716566"><ele>527.0</ele><time>2026-04-18T14:43:39.72Z</time></trkpt><trkpt lat="45.7278061" lon="10.9715679"><ele>529.6666666666667</ele><time>2026-04-18T14:43:40.718Z</time></trkpt><trkpt lat="45.7278498" lon="10.9714882"><ele>532.3333333333334</ele><time>2026-04-18T14:43:41.719Z</time></trkpt><trkpt lat="45.7279065" lon="10.9714193"><ele>535.0</ele><time>2026-04-18T14:43:42.717Z</time></trkpt><trkpt lat="45.727982" lon="10.9713503"><ele>535.0</ele><time>2026-04-18T14:43:43.721Z</time></trkpt><trkpt lat="45.7280738" lon="10.97127"><ele>535.0</ele><time>2026-04-18T14:43:44.719Z</time></trkpt><trkpt lat="45.7281672" lon="10.9711903"><ele>535.0</ele><time>2026-04-18T14:43:45.719Z</time></trkpt><trkpt lat="45.7282592" lon="10.9711141"><ele>535.0</ele><time>2026-04-18T14:43:46.719Z</time></trkpt><trkpt lat="45.7283459" lon="10.9710424"><ele>535.0</ele><time>2026-04-18T14:43:47.718Z</time></trkpt><trkpt lat="45.7284288" lon="10.9709711"><ele>535.0</ele><time>2026-04-18T14:43:48.72Z</time></trkpt><trkpt lat="45.7285031" lon="10.9708975"><ele>535.0</ele><time>2026-04-18T14:43:49.718Z</time></trkpt><trkpt lat="45.7285778" lon="10.9708202"><ele>535.0</ele><time>2026-04-18T14:43:50.718Z</time></trkpt><trkpt lat="45.7286586" lon="10.9707506"><ele>535.0</ele><time>2026-04-18T14:43:51.716Z</time></trkpt><trkpt lat="45.7287481" lon="10.9707119"><ele>535.0</ele><time>2026-04-18T14:43:52.723Z</time></trkpt><trkpt lat="45.728858" lon="10.9707091"><ele>536.6</ele><time>2026-04-18T14:43:53.73Z</time></trkpt><trkpt lat="45.7289669" lon="10.9707483"><ele>538.2</ele><time>2026-04-18T14:43:54.72Z</time></trkpt><trkpt lat="45.7290642" lon="10.9707906"><ele>539.8</ele><time>2026-04-18T14:43:55.723Z</time></trkpt><trkpt lat="45.7291582" lon="10.9708348"><ele>541.4</ele><time>2026-04-18T14:43:56.72Z</time></trkpt><trkpt lat="45.7292517" lon="10.9708595"><ele>543.0</ele><time>2026-04-18T14:43:57.719Z</time></trkpt><trkpt lat="45.7293471" lon="10.9708451"><ele>542.1999999999999</ele><time>2026-04-18T14:43:58.718Z</time></trkpt><trkpt lat="45.7294362" lon="10.9707835"><ele>541.4</ele><time>2026-04-18T14:43:59.721Z</time></trkpt><trkpt lat="45.7295203" lon="10.9707127"><ele>540.5999999999999</ele><time>2026-04-18T14:44:00.725Z</time></trkpt><trkpt lat="45.729603" lon="10.9706604"><ele>539.8</ele><time>2026-04-18T14:44:01.717Z</time></trkpt><trkpt lat="45.7296896" lon="10.9706365"><ele>539.0</ele><time>2026-04-18T14:44:02.719Z</time></trkpt><trkpt lat="45.7297767" lon="10.9706398"><ele>539.0</ele><time>2026-04-18T14:44:03.718Z</time></trkpt><trkpt lat="45.7298662" lon="10.9706549"><ele>539.0</ele><time>2026-04-18T14:44:04.718Z</time></trkpt><trkpt lat="45.7299596" lon="10.9706727"><ele>539.0</ele><time>2026-04-18T14:44:05.717Z</time></trkpt><trkpt lat="45.7300519" lon="10.9706986"><ele>539.0</ele><time>2026-04-18T14:44:06.719Z</time></trkpt><trkpt lat="45.7301425" lon="10.9707346"><ele>539.0</ele><time>2026-04-18T14:44:07.722Z</time></trkpt><trkpt lat="45.7302362" lon="10.9707936"><ele>526.6</ele><time>2026-04-18T14:44:08.719Z</time></trkpt><trkpt lat="45.7303261" lon="10.9708713"><ele>514.2</ele><time>2026-04-18T14:44:09.716Z</time></trkpt><trkpt lat="45.7304091" lon="10.9709535"><ele>501.80000000000007</ele><time>2026-04-18T14:44:10.715Z</time></trkpt><trkpt lat="45.7304991" lon="10.9710195"><ele>489.40000000000003</ele><time>2026-04-18T14:44:11.719Z</time></trkpt><trkpt lat="45.7305939" lon="10.9710594"><ele>477.0</ele><time>2026-04-18T14:44:12.717Z</time></trkpt><trkpt lat="45.7306869" lon="10.97109"><ele>477.0</ele><time>2026-04-18T14:44:13.72Z</time></trkpt><trkpt lat="45.7307794" lon="10.9711122"><ele>477.0</ele><time>2026-04-18T14:44:14.718Z</time></trkpt><trkpt lat="45.7308658" lon="10.9711178"><ele>477.0</ele><time>2026-04-18T14:44:15.718Z</time></trkpt><trkpt lat="45.7309529" lon="10.9710966"><ele>477.0</ele><time>2026-04-18T14:44:16.722Z</time></trkpt><trkpt lat="45.7310267" lon="10.9710355"><ele>477.0</ele><time>2026-04-18T14:44:17.724Z</time></trkpt><trkpt lat="45.7310879" lon="10.9709314"><ele>477.0</ele><time>2026-04-18T14:44:18.719Z</time></trkpt><trkpt lat="45.7311495" lon="10.9708257"><ele>480.20000000000005</ele><time>2026-04-18T14:44:19.718Z</time></trkpt><trkpt lat="45.7312179" lon="10.9707328"><ele>483.40000000000003</ele><time>2026-04-18T14:44:20.719Z</time></trkpt><trkpt lat="45.7312912" lon="10.9706507"><ele>486.59999999999997</ele><time>2026-04-18T14:44:21.721Z</time></trkpt><trkpt lat="45.7313695" lon="10.9705803"><ele>489.79999999999995</ele><time>2026-04-18T14:44:22.726Z</time></trkpt><trkpt lat="45.7314493" lon="10.9705128"><ele>493.0</ele><time>2026-04-18T14:44:23.716Z</time></trkpt><trkpt lat="45.7315319" lon="10.9704509"><ele>493.00000000000006</ele><time>2026-04-18T14:44:24.725Z</time></trkpt><trkpt lat="45.7316115" lon="10.9703938"><ele>493.0</ele><time>2026-04-18T14:44:25.725Z</time></trkpt><trkpt lat="45.7316961" lon="10.9703496"><ele>493.0</ele><time>2026-04-18T14:44:26.716Z</time></trkpt><trkpt lat="45.7317864" lon="10.9703322"><ele>493.0</ele><time>2026-04-18T14:44:27.719Z</time></trkpt><trkpt lat="45.7318734" lon="10.9703352"><ele>493.00000000000006</ele><time>2026-04-18T14:44:28.718Z</time></trkpt><trkpt lat="45.7319631" lon="10.9703507"><ele>493.0</ele><time>2026-04-18T14:44:29.717Z</time></trkpt><trkpt lat="45.7320495" lon="10.9703636"><ele>484.0</ele><time>2026-04-18T14:44:30.719Z</time></trkpt><trkpt lat="45.7321359" lon="10.9703683"><ele>474.99999999999994</ele><time>2026-04-18T14:44:31.721Z</time></trkpt><trkpt lat="45.7322202" lon="10.9703474"><ele>465.99999999999994</ele><time>2026-04-18T14:44:32.717Z</time></trkpt><trkpt lat="45.7322959" lon="10.9702767"><ele>457.0</ele><time>2026-04-18T14:44:33.718Z</time></trkpt><trkpt lat="45.7323518" lon="10.9701572"><ele>448.0</ele><time>2026-04-18T14:44:34.717Z</time></trkpt><trkpt lat="45.7324019" lon="10.9700345"><ele>451.6666666666667</ele><time>2026-04-18T14:44:35.717Z</time></trkpt><trkpt lat="45.7324519" lon="10.9699296"><ele>455.33333333333337</ele><time>2026-04-18T14:44:36.719Z</time></trkpt><trkpt lat="45.7325092" lon="10.9698361"><ele>459.0</ele><time>2026-04-18T14:44:37.716Z</time></trkpt><trkpt lat="45.7325734" lon="10.9697656"><ele>462.66666666666663</ele><time>2026-04-18T14:44:38.72Z</time></trkpt><trkpt lat="45.7326544" lon="10.96972"><ele>466.3333333333333</ele><time>2026-04-18T14:44:39.717Z</time></trkpt><trkpt lat="45.7327344" lon="10.9697012"><ele>470.0</ele><time>2026-04-18T14:44:40.72Z</time></trkpt><trkpt lat="45.7328197" lon="10.9696962"><ele>469.99999999999994</ele><time>2026-04-18T14:44:41.719Z</time></trkpt><trkpt lat="45.732903" lon="10.9696883"><ele>470.0</ele><time>2026-04-18T14:44:42.72Z</time></trkpt><trkpt lat="45.7329877" lon="10.9696803"><ele>470.0</ele><time>2026-04-18T14:44:43.718Z</time></trkpt><trkpt lat="45.7330729" lon="10.9696707"><ele>470.0</ele><time>2026-04-18T14:44:44.716Z</time></trkpt><trkpt lat="45.7331531" lon="10.9696659"><ele>469.99999999999994</ele><time>2026-04-18T14:44:45.728Z</time></trkpt><trkpt lat="45.7332179" lon="10.9696727"><ele>470.0</ele><time>2026-04-18T14:44:46.719Z</time></trkpt><trkpt lat="45.7332875" lon="10.9697461"><ele>469.99999999999994</ele><time>2026-04-18T14:44:48.722Z</time></trkpt><trkpt lat="45.7332557" lon="10.9698322"><ele>470.0</ele><time>2026-04-18T14:44:50.716Z</time></trkpt><trkpt lat="45.7331542" lon="10.9698055"><ele>470.0</ele><time>2026-04-18T14:44:52.721Z</time></trkpt><trkpt lat="45.7330835" lon="10.9697874"><ele>470.0</ele><time>2026-04-18T14:44:53.723Z</time></trkpt><trkpt lat="45.7330053" lon="10.9697851"><ele>469.99999999999994</ele><time>2026-04-18T14:44:54.721Z</time></trkpt><trkpt lat="45.7329251" lon="10.9697923"><ele>470.0</ele><time>2026-04-18T14:44:55.719Z</time></trkpt><trkpt lat="45.7328445" lon="10.9697956"><ele>469.99999999999994</ele><time>2026-04-18T14:44:56.718Z</time></trkpt><trkpt lat="45.7327641" lon="10.9698141"><ele>470.0</ele><time>2026-04-18T14:44:57.72Z</time></trkpt><trkpt lat="45.7326904" lon="10.9698618"><ele>470.0</ele><time>2026-04-18T14:44:58.722Z</time></trkpt><trkpt lat="45.7326293" lon="10.9699379"><ele>470.0</ele><time>2026-04-18T14:44:59.72Z</time></trkpt><trkpt lat="45.7325876" lon="10.970039"><ele>469.99999999999994</ele><time>2026-04-18T14:45:00.719Z</time></trkpt><trkpt lat="45.7325594" lon="10.9701486"><ele>470.0</ele><time>2026-04-18T14:45:01.718Z</time></trkpt><trkpt lat="45.7325378" lon="10.9702567"><ele>466.85714285714283</ele><time>2026-04-18T14:45:02.716Z</time></trkpt><trkpt lat="45.7325164" lon="10.9703664"><ele>463.71428571428567</ele><time>2026-04-18T14:45:03.717Z</time></trkpt><trkpt lat="45.7324914" lon="10.9704731"><ele>460.57142857142856</ele><time>2026-04-18T14:45:04.724Z</time></trkpt><trkpt lat="45.7324696" lon="10.9705696"><ele>457.42857142857144</ele><time>2026-04-18T14:45:05.717Z</time></trkpt><trkpt lat="45.7324225" lon="10.9706496"><ele>454.2857142857143</ele><time>2026-04-18T14:45:06.72Z</time></trkpt><trkpt lat="45.7323567" lon="10.9706966"><ele>451.1428571428571</ele><time>2026-04-18T14:45:07.717Z</time></trkpt><trkpt lat="45.732285" lon="10.9707156"><ele>448.0</ele><time>2026-04-18T14:45:08.721Z</time></trkpt><trkpt lat="45.732211" lon="10.9707301"><ele>448.0</ele><time>2026-04-18T14:45:09.731Z</time></trkpt><trkpt lat="45.7321246" lon="10.9707439"><ele>447.99999999999994</ele><time>2026-04-18T14:45:10.72Z</time></trkpt><trkpt lat="45.7320363" lon="10.9707602"><ele>447.99999999999994</ele><time>2026-04-18T14:45:11.72Z</time></trkpt><trkpt lat="45.7319468" lon="10.9707782"><ele>448.0</ele><time>2026-04-18T14:45:12.725Z</time></trkpt><trkpt lat="45.7318612" lon="10.9708229"><ele>448.0</ele><time>2026-04-18T14:45:13.718Z</time></trkpt><trkpt lat="45.7317803" lon="10.9708937"><ele>445.59999999999997</ele><time>2026-04-18T14:45:14.721Z</time></trkpt><trkpt lat="45.7317028" lon="10.9709814"><ele>443.19999999999993</ele><time>2026-04-18T14:45:15.72Z</time></trkpt><trkpt lat="45.7316267" lon="10.9710719"><ele>440.8</ele><time>2026-04-18T14:45:16.719Z</time></trkpt><trkpt lat="45.731559" lon="10.9711667"><ele>438.4</ele><time>2026-04-18T14:45:17.718Z</time></trkpt><trkpt lat="45.7315038" lon="10.971279"><ele>436.0</ele><time>2026-04-18T14:45:18.719Z</time></trkpt><trkpt lat="45.731458" lon="10.9714041"><ele>436.00000000000006</ele><time>2026-04-18T14:45:19.727Z</time></trkpt><trkpt lat="45.7314218" lon="10.9715189"><ele>436.0</ele><time>2026-04-18T14:45:20.719Z</time></trkpt><trkpt lat="45.7313852" lon="10.9716165"><ele>436.0</ele><time>2026-04-18T14:45:21.717Z</time></trkpt><trkpt lat="45.7313409" lon="10.9716958"><ele>436.0</ele><time>2026-04-18T14:45:22.722Z</time></trkpt><trkpt lat="45.7312501" lon="10.9717552"><ele>436.00000000000006</ele><time>2026-04-18T14:45:23.718Z</time></trkpt><trkpt lat="45.7311488" lon="10.9718015"><ele>436.0</ele><time>2026-04-18T14:45:24.719Z</time></trkpt><trkpt lat="45.7310495" lon="10.9718407"><ele>432.20000000000005</ele><time>2026-04-18T14:45:25.724Z</time></trkpt><trkpt lat="45.7309497" lon="10.9718879"><ele>428.40000000000003</ele><time>2026-04-18T14:45:26.715Z</time></trkpt><trkpt lat="45.7308477" lon="10.9719486"><ele>424.6</ele><time>2026-04-18T14:45:27.715Z</time></trkpt><trkpt lat="45.7307492" lon="10.9720087"><ele>420.8</ele><time>2026-04-18T14:45:28.719Z</time></trkpt><trkpt lat="45.7306543" lon="10.9720591"><ele>417.0</ele><time>2026-04-18T14:45:29.715Z</time></trkpt><trkpt lat="45.7305551" lon="10.9720982"><ele>417.0</ele><time>2026-04-18T14:45:30.717Z</time></trkpt><trkpt lat="45.7304582" lon="10.9721331"><ele>417.0</ele><time>2026-04-18T14:45:31.72Z</time></trkpt><trkpt lat="45.7303607" lon="10.972159"><ele>417.0</ele><time>2026-04-18T14:45:32.716Z</time></trkpt><trkpt lat="45.7302651" lon="10.9721808"><ele>417.0</ele><time>2026-04-18T14:45:33.716Z</time></trkpt><trkpt lat="45.7301651" lon="10.9721741"><ele>417.0</ele><time>2026-04-18T14:45:34.716Z</time></trkpt><trkpt lat="45.7300709" lon="10.972162"><ele>420.20000000000005</ele><time>2026-04-18T14:45:35.719Z</time></trkpt><trkpt lat="45.7299775" lon="10.9721677"><ele>423.4</ele><time>2026-04-18T14:45:36.716Z</time></trkpt><trkpt lat="45.7298854" lon="10.9722079"><ele>426.59999999999997</ele><time>2026-04-18T14:45:37.719Z</time></trkpt><trkpt lat="45.7297992" lon="10.97227"><ele>429.79999999999995</ele><time>2026-04-18T14:45:38.715Z</time></trkpt><trkpt lat="45.7297262" lon="10.9723333"><ele>433.0</ele><time>2026-04-18T14:45:39.719Z</time></trkpt><trkpt lat="45.729653" lon="10.9724001"><ele>433.0</ele><time>2026-04-18T14:45:40.717Z</time></trkpt><trkpt lat="45.7295719" lon="10.9724593"><ele>432.99999999999994</ele><time>2026-04-18T14:45:41.717Z</time></trkpt><trkpt lat="45.729471" lon="10.9724356"><ele>432.99999999999994</ele><time>2026-04-18T14:45:42.716Z</time></trkpt><trkpt lat="45.7293783" lon="10.9724448"><ele>433.0</ele><time>2026-04-18T14:45:43.72Z</time></trkpt><trkpt lat="45.7292849" lon="10.9724568"><ele>433.0</ele><time>2026-04-18T14:45:44.712Z</time></trkpt><trkpt lat="45.7291953" lon="10.9724844"><ele>428.1666666666667</ele><time>2026-04-18T14:45:45.717Z</time></trkpt><trkpt lat="45.7291136" lon="10.97255"><ele>423.33333333333337</ele><time>2026-04-18T14:45:46.712Z</time></trkpt><trkpt lat="45.7290497" lon="10.9726466"><ele>418.5</ele><time>2026-04-18T14:45:47.716Z</time></trkpt><trkpt lat="45.7290095" lon="10.9727538"><ele>413.66666666666663</ele><time>2026-04-18T14:45:48.734Z</time></trkpt><trkpt lat="45.7289722" lon="10.9728632"><ele>408.8333333333333</ele><time>2026-04-18T14:45:49.722Z</time></trkpt><trkpt lat="45.7289335" lon="10.972946"><ele>404.0</ele><time>2026-04-18T14:45:50.72Z</time></trkpt><trkpt lat="45.7288771" lon="10.9729992"><ele>404.0</ele><time>2026-04-18T14:45:51.717Z</time></trkpt><trkpt lat="45.728779" lon="10.9730594"><ele>404.0</ele><time>2026-04-18T14:45:53.716Z</time></trkpt><trkpt lat="45.728741" lon="10.9731841"><ele>404.0</ele><time>2026-04-18T14:45:55.719Z</time></trkpt><trkpt lat="45.7287932" lon="10.9732632"><ele>404.0</ele><time>2026-04-18T14:45:57.719Z</time></trkpt><trkpt lat="45.7288971" lon="10.9732488"><ele>404.0</ele><time>2026-04-18T14:45:59.72Z</time></trkpt><trkpt lat="45.7289512" lon="10.9731828"><ele>403.99999999999994</ele><time>2026-04-18T14:46:00.726Z</time></trkpt><trkpt lat="45.7290003" lon="10.9731017"><ele>404.0</ele><time>2026-04-18T14:46:01.716Z</time></trkpt><trkpt lat="45.7290441" lon="10.972999"><ele>404.0</ele><time>2026-04-18T14:46:02.717Z</time></trkpt><trkpt lat="45.7290857" lon="10.9728857"><ele>404.0</ele><time>2026-04-18T14:46:03.717Z</time></trkpt><trkpt lat="45.7291453" lon="10.9727946"><ele>403.99999999999994</ele><time>2026-04-18T14:46:04.719Z</time></trkpt><trkpt lat="45.7292199" lon="10.9727293"><ele>404.0</ele><time>2026-04-18T14:46:05.716Z</time></trkpt><trkpt lat="45.7293193" lon="10.9726864"><ele>398.5</ele><time>2026-04-18T14:46:06.717Z</time></trkpt><trkpt lat="45.7294406" lon="10.9726778"><ele>393.0</ele><time>2026-04-18T14:46:07.719Z</time></trkpt><trkpt lat="45.7295998" lon="10.9726839"><ele>387.5</ele><time>2026-04-18T14:46:08.718Z</time></trkpt><trkpt lat="45.7297673" lon="10.972706"><ele>382.0</ele><time>2026-04-18T14:46:09.718Z</time></trkpt><trkpt lat="45.7299227" lon="10.9727368"><ele>382.0</ele><time>2026-04-18T14:46:10.718Z</time></trkpt><trkpt lat="45.7300727" lon="10.97276"><ele>382.0</ele><time>2026-04-18T14:46:11.72Z</time></trkpt><trkpt lat="45.7302177" lon="10.9727733"><ele>382.0</ele><time>2026-04-18T14:46:12.721Z</time></trkpt><trkpt lat="45.7303542" lon="10.9727812"><ele>382.0</ele><time>2026-04-18T14:46:13.721Z</time></trkpt><trkpt lat="45.7304859" lon="10.97277"><ele>375.5</ele><time>2026-04-18T14:46:14.718Z</time></trkpt><trkpt lat="45.7306112" lon="10.9727465"><ele>369.0</ele><time>2026-04-18T14:46:15.715Z</time></trkpt><trkpt lat="45.7307269" lon="10.9726953"><ele>362.5</ele><time>2026-04-18T14:46:16.713Z</time></trkpt><trkpt lat="45.7308349" lon="10.9726182"><ele>356.0</ele><time>2026-04-18T14:46:17.717Z</time></trkpt><trkpt lat="45.7309372" lon="10.9725316"><ele>358.20000000000005</ele><time>2026-04-18T14:46:18.735Z</time></trkpt><trkpt lat="45.7310413" lon="10.9724665"><ele>360.40000000000003</ele><time>2026-04-18T14:46:19.717Z</time></trkpt><trkpt lat="45.7311471" lon="10.9724307"><ele>362.6</ele><time>2026-04-18T14:46:20.718Z</time></trkpt><trkpt lat="45.7312537" lon="10.9724327"><ele>364.8</ele><time>2026-04-18T14:46:21.716Z</time></trkpt><trkpt lat="45.7313535" lon="10.9724621"><ele>367.0</ele><time>2026-04-18T14:46:22.719Z</time></trkpt><trkpt lat="45.7314515" lon="10.972495"><ele>367.0</ele><time>2026-04-18T14:46:23.717Z</time></trkpt><trkpt lat="45.7315511" lon="10.9725013"><ele>367.0</ele><time>2026-04-18T14:46:24.717Z</time></trkpt><trkpt lat="45.7316568" lon="10.9724641"><ele>367.0</ele><time>2026-04-18T14:46:25.717Z</time></trkpt><trkpt lat="45.7317521" lon="10.9723977"><ele>367.0</ele><time>2026-04-18T14:46:26.716Z</time></trkpt><trkpt lat="45.7318278" lon="10.9722984"><ele>367.0</ele><time>2026-04-18T14:46:27.722Z</time></trkpt><trkpt lat="45.7318813" lon="10.9721795"><ele>362.20000000000005</ele><time>2026-04-18T14:46:28.724Z</time></trkpt><trkpt lat="45.731925" lon="10.9720569"><ele>357.4</ele><time>2026-04-18T14:46:29.717Z</time></trkpt><trkpt lat="45.7319924" lon="10.9719781"><ele>352.6</ele><time>2026-04-18T14:46:30.717Z</time></trkpt><trkpt lat="45.7320751" lon="10.9719364"><ele>347.79999999999995</ele><time>2026-04-18T14:46:31.715Z</time></trkpt><trkpt lat="45.7321931" lon="10.9719421"><ele>343.0</ele><time>2026-04-18T14:46:32.72Z</time></trkpt><trkpt lat="45.7323089" lon="10.9719561"><ele>343.0</ele><time>2026-04-18T14:46:33.719Z</time></trkpt><trkpt lat="45.7324247" lon="10.9719613"><ele>343.0</ele><time>2026-04-18T14:46:34.717Z</time></trkpt><trkpt lat="45.7325522" lon="10.9719482"><ele>343.0</ele><time>2026-04-18T14:46:35.718Z</time></trkpt><trkpt lat="45.732666" lon="10.9719181"><ele>343.0</ele><time>2026-04-18T14:46:36.717Z</time></trkpt><trkpt lat="45.7327758" lon="10.9718757"><ele>348.59999999999997</ele><time>2026-04-18T14:46:37.721Z</time></trkpt><trkpt lat="45.7328874" lon="10.9718273"><ele>354.2</ele><time>2026-04-18T14:46:38.727Z</time></trkpt><trkpt lat="45.7329921" lon="10.9717532"><ele>359.8</ele><time>2026-04-18T14:46:39.72Z</time></trkpt><trkpt lat="45.7330827" lon="10.9716483"><ele>365.4</ele><time>2026-04-18T14:46:40.724Z</time></trkpt><trkpt lat="45.7331476" lon="10.9715541"><ele>371.0</ele><time>2026-04-18T14:46:41.723Z</time></trkpt><trkpt lat="45.7332203" lon="10.9714912"><ele>371.0</ele><time>2026-04-18T14:46:42.717Z</time></trkpt><trkpt lat="45.7333165" lon="10.9714697"><ele>371.0</ele><time>2026-04-18T14:46:43.716Z</time></trkpt><trkpt lat="45.7334432" lon="10.9714904"><ele>371.0</ele><time>2026-04-18T14:46:44.719Z</time></trkpt><trkpt lat="45.7335615" lon="10.9715352"><ele>371.0</ele><time>2026-04-18T14:46:45.719Z</time></trkpt><trkpt lat="45.73368" lon="10.9716049"><ele>368.25</ele><time>2026-04-18T14:46:46.718Z</time></trkpt><trkpt lat="45.7337877" lon="10.9716833"><ele>365.5</ele><time>2026-04-18T14:46:47.721Z</time></trkpt><trkpt lat="45.733894" lon="10.9717549"><ele>362.75</ele><time>2026-04-18T14:46:48.714Z</time></trkpt><trkpt lat="45.7339998" lon="10.9718072"><ele>360.0</ele><time>2026-04-18T14:46:49.716Z</time></trkpt><trkpt lat="45.734118" lon="10.9718304"><ele>347.75</ele><time>2026-04-18T14:46:50.72Z</time></trkpt><trkpt lat="45.7342628" lon="10.9718116"><ele>335.5</ele><time>2026-04-18T14:46:51.719Z</time></trkpt><trkpt lat="45.7344058" lon="10.9717898"><ele>323.25</ele><time>2026-04-18T14:46:52.72Z</time></trkpt><trkpt lat="45.7345377" lon="10.9718037"><ele>311.0</ele><time>2026-04-18T14:46:53.721Z</time></trkpt><trkpt lat="45.7346676" lon="10.9718149"><ele>309.40000000000003</ele><time>2026-04-18T14:46:54.719Z</time></trkpt><trkpt lat="45.734792" lon="10.9718131"><ele>307.8</ele><time>2026-04-18T14:46:55.716Z</time></trkpt><trkpt lat="45.734897" lon="10.9718009"><ele>306.20000000000005</ele><time>2026-04-18T14:46:56.718Z</time></trkpt><trkpt lat="45.7349739" lon="10.9717853"><ele>304.6</ele><time>2026-04-18T14:46:57.717Z</time></trkpt><trkpt lat="45.7350395" lon="10.971792"><ele>303.0</ele><time>2026-04-18T14:46:58.721Z</time></trkpt><trkpt lat="45.7351252" lon="10.9718724"><ele>303.0</ele><time>2026-04-18T14:47:00.733Z</time></trkpt><trkpt lat="45.7350627" lon="10.9719288"><ele>303.0</ele><time>2026-04-18T14:47:01.721Z</time></trkpt><trkpt lat="45.7349071" lon="10.9719368"><ele>303.0</ele><time>2026-04-18T14:47:03.715Z</time></trkpt><trkpt lat="45.7347788" lon="10.9719253"><ele>303.0</ele><time>2026-04-18T14:47:04.718Z</time></trkpt><trkpt lat="45.7346484" lon="10.9719196"><ele>303.0</ele><time>2026-04-18T14:47:05.715Z</time></trkpt><trkpt lat="45.7345167" lon="10.9719281"><ele>303.0</ele><time>2026-04-18T14:47:06.72Z</time></trkpt><trkpt lat="45.7343906" lon="10.9719658"><ele>303.0</ele><time>2026-04-18T14:47:07.715Z</time></trkpt><trkpt lat="45.7342695" lon="10.9720134"><ele>303.0</ele><time>2026-04-18T14:47:08.718Z</time></trkpt><trkpt lat="45.7341521" lon="10.9720642"><ele>304.6</ele><time>2026-04-18T14:47:09.718Z</time></trkpt><trkpt lat="45.7340379" lon="10.9721093"><ele>306.20000000000005</ele><time>2026-04-18T14:47:10.721Z</time></trkpt><trkpt lat="45.7339311" lon="10.9721117"><ele>307.8</ele><time>2026-04-18T14:47:11.717Z</time></trkpt><trkpt lat="45.7338186" lon="10.9721012"><ele>309.40000000000003</ele><time>2026-04-18T14:47:12.717Z</time></trkpt><trkpt lat="45.7337116" lon="10.9720667"><ele>311.0</ele><time>2026-04-18T14:47:13.72Z</time></trkpt><trkpt lat="45.7336125" lon="10.9720286"><ele>311.6</ele><time>2026-04-18T14:47:14.716Z</time></trkpt><trkpt lat="45.7335176" lon="10.9719954"><ele>312.20000000000005</ele><time>2026-04-18T14:47:15.718Z</time></trkpt><trkpt lat="45.7334234" lon="10.9719935"><ele>312.79999999999995</ele><time>2026-04-18T14:47:16.724Z</time></trkpt><trkpt lat="45.7333406" lon="10.9720498"><ele>313.4</ele><time>2026-04-18T14:47:17.717Z</time></trkpt><trkpt lat="45.7332572" lon="10.9721538"><ele>314.0</ele><time>2026-04-18T14:47:18.717Z</time></trkpt><trkpt lat="45.7331678" lon="10.9722545"><ele>314.0</ele><time>2026-04-18T14:47:19.718Z</time></trkpt><trkpt lat="45.7330107" lon="10.9723606"><ele>314.0</ele><time>2026-04-18T14:47:20.716Z</time></trkpt><trkpt lat="45.7328954" lon="10.9724633"><ele>314.0</ele><time>2026-04-18T14:47:21.718Z</time></trkpt><trkpt lat="45.7327891" lon="10.9725584"><ele>314.0</ele><time>2026-04-18T14:47:22.717Z</time></trkpt><trkpt lat="45.732682" lon="10.9726437"><ele>308.5</ele><time>2026-04-18T14:47:23.722Z</time></trkpt><trkpt lat="45.7325685" lon="10.9727033"><ele>303.0</ele><time>2026-04-18T14:47:24.716Z</time></trkpt><trkpt lat="45.7324564" lon="10.9727401"><ele>297.5</ele><time>2026-04-18T14:47:25.724Z</time></trkpt><trkpt lat="45.7323536" lon="10.9728134"><ele>292.0</ele><time>2026-04-18T14:47:26.717Z</time></trkpt><trkpt lat="45.732257" lon="10.972917"><ele>292.0</ele><time>2026-04-18T14:47:27.72Z</time></trkpt><trkpt lat="45.7321502" lon="10.9730143"><ele>292.0</ele><time>2026-04-18T14:47:28.715Z</time></trkpt><trkpt lat="45.7318958" lon="10.9731493"><ele>292.0</ele><time>2026-04-18T14:47:30.715Z</time></trkpt><trkpt lat="45.7317818" lon="10.97321"><ele>294.25</ele><time>2026-04-18T14:47:31.719Z</time></trkpt><trkpt lat="45.7316816" lon="10.9732714"><ele>296.5</ele><time>2026-04-18T14:47:32.718Z</time></trkpt><trkpt lat="45.7315845" lon="10.9733584"><ele>298.75</ele><time>2026-04-18T14:47:33.718Z</time></trkpt><trkpt lat="45.7315039" lon="10.9734697"><ele>301.0</ele><time>2026-04-18T14:47:34.72Z</time></trkpt><trkpt lat="45.7314449" lon="10.9736162"><ele>301.0</ele><time>2026-04-18T14:47:35.719Z</time></trkpt><trkpt lat="45.7314208" lon="10.9737676"><ele>301.0</ele><time>2026-04-18T14:47:36.714Z</time></trkpt><trkpt lat="45.7314247" lon="10.9739241"><ele>301.0</ele><time>2026-04-18T14:47:37.713Z</time></trkpt><trkpt lat="45.7314595" lon="10.9740797"><ele>301.0</ele><time>2026-04-18T14:47:38.718Z</time></trkpt><trkpt lat="45.7315256" lon="10.9742152"><ele>301.0</ele><time>2026-04-18T14:47:39.716Z</time></trkpt><trkpt lat="45.7316043" lon="10.9743309"><ele>307.5</ele><time>2026-04-18T14:47:40.718Z</time></trkpt><trkpt lat="45.7317112" lon="10.9744028"><ele>314.0</ele><time>2026-04-18T14:47:41.722Z</time></trkpt><trkpt lat="45.7318245" lon="10.9744373"><ele>320.5</ele><time>2026-04-18T14:47:42.726Z</time></trkpt><trkpt lat="45.7319405" lon="10.9744386"><ele>327.0</ele><time>2026-04-18T14:47:43.715Z</time></trkpt><trkpt lat="45.7320553" lon="10.9744115"><ele>327.0</ele><time>2026-04-18T14:47:44.714Z</time></trkpt><trkpt lat="45.7321608" lon="10.9743446"><ele>327.0</ele><time>2026-04-18T14:47:45.715Z</time></trkpt><trkpt lat="45.7322682" lon="10.9742712"><ele>327.0</ele><time>2026-04-18T14:47:46.717Z</time></trkpt><trkpt lat="45.7323791" lon="10.9742006"><ele>327.0</ele><time>2026-04-18T14:47:47.716Z</time></trkpt><trkpt lat="45.7324943" lon="10.9741432"><ele>317.25</ele><time>2026-04-18T14:47:48.714Z</time></trkpt><trkpt lat="45.7326114" lon="10.9740892"><ele>307.5</ele><time>2026-04-18T14:47:49.718Z</time></trkpt><trkpt lat="45.73273" lon="10.974041"><ele>297.75</ele><time>2026-04-18T14:47:50.717Z</time></trkpt><trkpt lat="45.7328509" lon="10.9739974"><ele>288.0</ele><time>2026-04-18T14:47:51.715Z</time></trkpt><trkpt lat="45.73295" lon="10.9739586"><ele>286.5</ele><time>2026-04-18T14:47:52.715Z</time></trkpt><trkpt lat="45.73305" lon="10.9739202"><ele>285.0</ele><time>2026-04-18T14:47:53.715Z</time></trkpt><trkpt lat="45.7331543" lon="10.9739195"><ele>283.5</ele><time>2026-04-18T14:47:54.715Z</time></trkpt><trkpt lat="45.7332895" lon="10.9739726"><ele>282.0</ele><time>2026-04-18T14:47:55.721Z</time></trkpt><trkpt lat="45.7334476" lon="10.9740661"><ele>281.3333333333333</ele><time>2026-04-18T14:47:56.716Z</time></trkpt><trkpt lat="45.7336036" lon="10.9741686"><ele>280.66666666666663</ele><time>2026-04-18T14:47:57.718Z</time></trkpt><trkpt lat="45.7337594" lon="10.9742691"><ele>280.0</ele><time>2026-04-18T14:47:58.714Z</time></trkpt><trkpt lat="45.7339165" lon="10.9743589"><ele>280.0</ele><time>2026-04-18T14:47:59.722Z</time></trkpt><trkpt lat="45.7340735" lon="10.9744253"><ele>280.0</ele><time>2026-04-18T14:48:00.72Z</time></trkpt><trkpt lat="45.7342312" lon="10.9744774"><ele>280.0</ele><time>2026-04-18T14:48:01.715Z</time></trkpt><trkpt lat="45.7343805" lon="10.9745298"><ele>267.66666666666663</ele><time>2026-04-18T14:48:02.719Z</time></trkpt><trkpt lat="45.7345288" lon="10.9745942"><ele>255.33333333333331</ele><time>2026-04-18T14:48:03.727Z</time></trkpt><trkpt lat="45.7346638" lon="10.9746811"><ele>243.0</ele><time>2026-04-18T14:48:04.713Z</time></trkpt><trkpt lat="45.7347941" lon="10.9747986"><ele>243.0</ele><time>2026-04-18T14:48:05.716Z</time></trkpt><trkpt lat="45.7349204" lon="10.9749213"><ele>243.0</ele><time>2026-04-18T14:48:06.716Z</time></trkpt><trkpt lat="45.7350572" lon="10.975046"><ele>243.0</ele><time>2026-04-18T14:48:07.713Z</time></trkpt><trkpt lat="45.7352004" lon="10.9751559"><ele>240.33333333333331</ele><time>2026-04-18T14:48:08.722Z</time></trkpt><trkpt lat="45.7353492" lon="10.9752452"><ele>237.66666666666666</ele><time>2026-04-18T14:48:09.721Z</time></trkpt><trkpt lat="45.7354968" lon="10.9753252"><ele>235.0</ele><time>2026-04-18T14:48:10.714Z</time></trkpt><trkpt lat="45.7356429" lon="10.9754132"><ele>235.0</ele><time>2026-04-18T14:48:11.723Z</time></trkpt><trkpt lat="45.7357855" lon="10.975508"><ele>235.0</ele><time>2026-04-18T14:48:12.719Z</time></trkpt><trkpt lat="45.7359204" lon="10.9756138"><ele>235.0</ele><time>2026-04-18T14:48:13.718Z</time></trkpt><trkpt lat="45.736048" lon="10.9757313"><ele>229.25</ele><time>2026-04-18T14:48:14.719Z</time></trkpt><trkpt lat="45.736166" lon="10.9758484"><ele>223.5</ele><time>2026-04-18T14:48:15.721Z</time></trkpt><trkpt lat="45.7362785" lon="10.9759646"><ele>217.75</ele><time>2026-04-18T14:48:16.719Z</time></trkpt><trkpt lat="45.7363859" lon="10.9760933"><ele>212.0</ele><time>2026-04-18T14:48:17.721Z</time></trkpt><trkpt lat="45.7364992" lon="10.9762719"><ele>212.0</ele><time>2026-04-18T14:48:18.718Z</time></trkpt><trkpt lat="45.7366119" lon="10.9764881"><ele>212.0</ele><time>2026-04-18T14:48:19.722Z</time></trkpt><trkpt lat="45.7367173" lon="10.9767147"><ele>212.0</ele><time>2026-04-18T14:48:20.717Z</time></trkpt><trkpt lat="45.7368139" lon="10.9769252"><ele>208.0</ele><time>2026-04-18T14:48:21.717Z</time></trkpt><trkpt lat="45.7368979" lon="10.9771199"><ele>204.0</ele><time>2026-04-18T14:48:22.72Z</time></trkpt><trkpt lat="45.7369693" lon="10.9772913"><ele>200.0</ele><time>2026-04-18T14:48:23.715Z</time></trkpt><trkpt lat="45.7370446" lon="10.9774472"><ele>196.0</ele><time>2026-04-18T14:48:24.716Z</time></trkpt><trkpt lat="45.7371459" lon="10.9775744"><ele>196.0</ele><time>2026-04-18T14:48:25.714Z</time></trkpt><trkpt lat="45.7372512" lon="10.9776691"><ele>196.0</ele><time>2026-04-18T14:48:26.719Z</time></trkpt><trkpt lat="45.7373389" lon="10.9777529"><ele>196.0</ele><time>2026-04-18T14:48:27.718Z</time></trkpt><trkpt lat="45.7374183" lon="10.9778465"><ele>196.0</ele><time>2026-04-18T14:48:28.719Z</time></trkpt><trkpt lat="45.7374794" lon="10.9779859"><ele>196.0</ele><time>2026-04-18T14:48:29.72Z</time></trkpt><trkpt lat="45.7375234" lon="10.9781779"><ele>199.75</ele><time>2026-04-18T14:48:30.721Z</time></trkpt><trkpt lat="45.7375686" lon="10.9783605"><ele>203.5</ele><time>2026-04-18T14:48:31.717Z</time></trkpt><trkpt lat="45.7375986" lon="10.9785473"><ele>207.25</ele><time>2026-04-18T14:48:32.717Z</time></trkpt><trkpt lat="45.7376051" lon="10.9787301"><ele>211.0</ele><time>2026-04-18T14:48:33.718Z</time></trkpt><trkpt lat="45.7376302" lon="10.978899"><ele>211.0</ele><time>2026-04-18T14:48:34.721Z</time></trkpt><trkpt lat="45.7376898" lon="10.9790685"><ele>211.0</ele><time>2026-04-18T14:48:35.716Z</time></trkpt><trkpt lat="45.7377649" lon="10.9792552"><ele>211.0</ele><time>2026-04-18T14:48:36.788Z</time></trkpt><trkpt lat="45.7378393" lon="10.9794277"><ele>211.0</ele><time>2026-04-18T14:48:37.719Z</time></trkpt><trkpt lat="45.7379135" lon="10.9795944"><ele>207.5</ele><time>2026-04-18T14:48:38.719Z</time></trkpt><trkpt lat="45.7379853" lon="10.9797824"><ele>204.0</ele><time>2026-04-18T14:48:39.718Z</time></trkpt><trkpt lat="45.7380667" lon="10.979963"><ele>200.5</ele><time>2026-04-18T14:48:40.714Z</time></trkpt><trkpt lat="45.7381568" lon="10.9801272"><ele>197.0</ele><time>2026-04-18T14:48:41.716Z</time></trkpt><trkpt lat="45.7382463" lon="10.9802865"><ele>197.0</ele><time>2026-04-18T14:48:42.717Z</time></trkpt><trkpt lat="45.738339" lon="10.9804372"><ele>197.0</ele><time>2026-04-18T14:48:43.717Z</time></trkpt><trkpt lat="45.7384361" lon="10.9805758"><ele>197.0</ele><time>2026-04-18T14:48:44.719Z</time></trkpt><trkpt lat="45.7385371" lon="10.9806954"><ele>197.0</ele><time>2026-04-18T14:48:45.716Z</time></trkpt><trkpt lat="45.7386451" lon="10.980808"><ele>194.5</ele><time>2026-04-18T14:48:46.714Z</time></trkpt><trkpt lat="45.7387529" lon="10.9809015"><ele>192.0</ele><time>2026-04-18T14:48:47.713Z</time></trkpt><trkpt lat="45.7388703" lon="10.980972"><ele>189.5</ele><time>2026-04-18T14:48:48.712Z</time></trkpt><trkpt lat="45.7389911" lon="10.981017"><ele>187.0</ele><time>2026-04-18T14:48:49.724Z</time></trkpt><trkpt lat="45.7391128" lon="10.9810515"><ele>187.0</ele><time>2026-04-18T14:48:50.713Z</time></trkpt><trkpt lat="45.7392294" lon="10.9810847"><ele>187.0</ele><time>2026-04-18T14:48:51.719Z</time></trkpt><trkpt lat="45.7393333" lon="10.9811265"><ele>187.0</ele><time>2026-04-18T14:48:52.716Z</time></trkpt><trkpt lat="45.739421" lon="10.981167"><ele>187.0</ele><time>2026-04-18T14:48:53.714Z</time></trkpt><trkpt lat="45.7395009" lon="10.9811983"><ele>187.0</ele><time>2026-04-18T14:48:54.714Z</time></trkpt><trkpt lat="45.7395773" lon="10.9811961"><ele>184.5</ele><time>2026-04-18T14:48:55.713Z</time></trkpt><trkpt lat="45.739651" lon="10.9811464"><ele>182.0</ele><time>2026-04-18T14:48:56.714Z</time></trkpt><trkpt lat="45.7397161" lon="10.9810793"><ele>179.5</ele><time>2026-04-18T14:48:57.714Z</time></trkpt><trkpt lat="45.7397815" lon="10.981012"><ele>177.0</ele><time>2026-04-18T14:48:58.712Z</time></trkpt><trkpt lat="45.7398498" lon="10.9809491"><ele>174.5</ele><time>2026-04-18T14:48:59.714Z</time></trkpt><trkpt lat="45.7399172" lon="10.9808833"><ele>172.0</ele><time>2026-04-18T14:49:00.711Z</time></trkpt><trkpt lat="45.7399779" lon="10.9808097"><ele>170.66666666666669</ele><time>2026-04-18T14:49:01.714Z</time></trkpt><trkpt lat="45.7400321" lon="10.980732"><ele>169.33333333333334</ele><time>2026-04-18T14:49:02.713Z</time></trkpt><trkpt lat="45.7400814" lon="10.9806475"><ele>168.0</ele><time>2026-04-18T14:49:03.715Z</time></trkpt><trkpt lat="45.7401289" lon="10.9805551"><ele>166.66666666666666</ele><time>2026-04-18T14:49:04.719Z</time></trkpt><trkpt lat="45.7401753" lon="10.9804618"><ele>165.33333333333331</ele><time>2026-04-18T14:49:05.719Z</time></trkpt><trkpt lat="45.7402211" lon="10.9803682"><ele>164.0</ele><time>2026-04-18T14:49:06.711Z</time></trkpt><trkpt lat="45.740269" lon="10.9802824"><ele>163.66666666666666</ele><time>2026-04-18T14:49:07.717Z</time></trkpt><trkpt lat="45.7403182" lon="10.9802111"><ele>163.33333333333331</ele><time>2026-04-18T14:49:08.713Z</time></trkpt><trkpt lat="45.740383" lon="10.9801907"><ele>163.0</ele><time>2026-04-18T14:49:09.715Z</time></trkpt><trkpt lat="45.7404651" lon="10.9802001"><ele>162.66666666666666</ele><time>2026-04-18T14:49:10.713Z</time></trkpt><trkpt lat="45.7405524" lon="10.9802148"><ele>162.33333333333334</ele><time>2026-04-18T14:49:11.714Z</time></trkpt><trkpt lat="45.7406605" lon="10.9802465"><ele>162.0</ele><time>2026-04-18T14:49:12.721Z</time></trkpt><trkpt lat="45.7407576" lon="10.9802652"><ele>162.0</ele><time>2026-04-18T14:49:13.725Z</time></trkpt><trkpt lat="45.7408495" lon="10.980271"><ele>162.0</ele><time>2026-04-18T14:49:14.714Z</time></trkpt><trkpt lat="45.7409377" lon="10.9802888"><ele>162.0</ele><time>2026-04-18T14:49:15.711Z</time></trkpt><trkpt lat="45.7410254" lon="10.9803076"><ele>162.0</ele><time>2026-04-18T14:49:16.723Z</time></trkpt><trkpt lat="45.7410951" lon="10.9803104"><ele>162.0</ele><time>2026-04-18T14:49:17.72Z</time></trkpt><trkpt lat="45.741168" lon="10.9802903"><ele>162.0</ele><time>2026-04-18T14:49:18.717Z</time></trkpt><trkpt lat="45.7412328" lon="10.9802412"><ele>161.0</ele><time>2026-04-18T14:49:19.721Z</time></trkpt><trkpt lat="45.741295" lon="10.9801905"><ele>160.0</ele><time>2026-04-18T14:49:20.714Z</time></trkpt><trkpt lat="45.7413613" lon="10.9801481"><ele>159.0</ele><time>2026-04-18T14:49:21.713Z</time></trkpt><trkpt lat="45.7414345" lon="10.9801215"><ele>158.0</ele><time>2026-04-18T14:49:22.715Z</time></trkpt><trkpt lat="45.7415182" lon="10.9801155"><ele>157.0</ele><time>2026-04-18T14:49:23.714Z</time></trkpt><trkpt lat="45.7416166" lon="10.9801352"><ele>156.0</ele><time>2026-04-18T14:49:24.713Z</time></trkpt><trkpt lat="45.7417102" lon="10.9801737"><ele>156.0</ele><time>2026-04-18T14:49:25.715Z</time></trkpt><trkpt lat="45.7418005" lon="10.9802097"><ele>156.0</ele><time>2026-04-18T14:49:26.721Z</time></trkpt><trkpt lat="45.7418838" lon="10.9802456"><ele>156.0</ele><time>2026-04-18T14:49:27.711Z</time></trkpt><trkpt lat="45.7419593" lon="10.9802822"><ele>156.0</ele><time>2026-04-18T14:49:28.713Z</time></trkpt><trkpt lat="45.742021" lon="10.9803126"><ele>156.0</ele><time>2026-04-18T14:49:29.713Z</time></trkpt><trkpt lat="45.742131" lon="10.9802715"><ele>156.0</ele><time>2026-04-18T14:49:31.714Z</time></trkpt><trkpt lat="45.7422183" lon="10.9801703"><ele>155.0</ele><time>2026-04-18T14:49:33.72Z</time></trkpt><trkpt lat="45.7422995" lon="10.9800876"><ele>154.0</ele><time>2026-04-18T14:49:35.716Z</time></trkpt><trkpt lat="45.7423753" lon="10.9800649"><ele>153.0</ele><time>2026-04-18T14:49:37.718Z</time></trkpt><trkpt lat="45.7424002" lon="10.9799455"><ele>152.0</ele><time>2026-04-18T14:50:00.723Z</time></trkpt><trkpt lat="45.7423575" lon="10.9798716"><ele>151.0</ele><time>2026-04-18T14:50:01.721Z</time></trkpt><trkpt lat="45.7422837" lon="10.979772"><ele>150.0</ele><time>2026-04-18T14:50:02.719Z</time></trkpt><trkpt lat="45.7422118" lon="10.9796486"><ele>149.25</ele><time>2026-04-18T14:50:03.715Z</time></trkpt><trkpt lat="45.7421276" lon="10.9795069"><ele>148.5</ele><time>2026-04-18T14:50:04.713Z</time></trkpt><trkpt lat="45.742031" lon="10.9793618"><ele>147.75</ele><time>2026-04-18T14:50:05.713Z</time></trkpt><trkpt lat="45.7419423" lon="10.9792389"><ele>147.0</ele><time>2026-04-18T14:50:06.716Z</time></trkpt><trkpt lat="45.7418572" lon="10.9791231"><ele>147.0</ele><time>2026-04-18T14:50:07.723Z</time></trkpt><trkpt lat="45.7417773" lon="10.9790122"><ele>147.0</ele><time>2026-04-18T14:50:08.715Z</time></trkpt><trkpt lat="45.7416983" lon="10.9789054"><ele>147.0</ele><time>2026-04-18T14:50:09.711Z</time></trkpt><trkpt lat="45.7416244" lon="10.9788042"><ele>147.0</ele><time>2026-04-18T14:50:10.713Z</time></trkpt><trkpt lat="45.7415552" lon="10.9787097"><ele>147.0</ele><time>2026-04-18T14:50:11.713Z</time></trkpt><trkpt lat="45.7414886" lon="10.9786142"><ele>147.0</ele><time>2026-04-18T14:50:12.721Z</time></trkpt><trkpt lat="45.7414215" lon="10.9785151"><ele>147.0</ele><time>2026-04-18T14:50:13.714Z</time></trkpt><trkpt lat="45.7413612" lon="10.9784176"><ele>147.0</ele><time>2026-04-18T14:50:14.714Z</time></trkpt><trkpt lat="45.7412996" lon="10.9783076"><ele>147.0</ele><time>2026-04-18T14:50:15.712Z</time></trkpt><trkpt lat="45.7412395" lon="10.9781916"><ele>147.0</ele><time>2026-04-18T14:50:16.742Z</time></trkpt><trkpt lat="45.7411826" lon="10.9780728"><ele>147.2</ele><time>2026-04-18T14:50:17.719Z</time></trkpt><trkpt lat="45.7411284" lon="10.9779514"><ele>147.39999999999998</ele><time>2026-04-18T14:50:18.717Z</time></trkpt><trkpt lat="45.7410747" lon="10.9778272"><ele>147.60000000000002</ele><time>2026-04-18T14:50:19.723Z</time></trkpt><trkpt lat="45.7410201" lon="10.9777041"><ele>147.8</ele><time>2026-04-18T14:50:20.72Z</time></trkpt><trkpt lat="45.7409662" lon="10.977578"><ele>148.0</ele><time>2026-04-18T14:50:21.712Z</time></trkpt><trkpt lat="45.740913" lon="10.9774479"><ele>148.0</ele><time>2026-04-18T14:50:22.719Z</time></trkpt><trkpt lat="45.7408597" lon="10.9773169"><ele>148.0</ele><time>2026-04-18T14:50:23.717Z</time></trkpt><trkpt lat="45.7408035" lon="10.9771805"><ele>148.0</ele><time>2026-04-18T14:50:24.719Z</time></trkpt><trkpt lat="45.7407433" lon="10.9770439"><ele>148.0</ele><time>2026-04-18T14:50:25.722Z</time></trkpt><trkpt lat="45.7406822" lon="10.9769122"><ele>148.0</ele><time>2026-04-18T14:50:26.717Z</time></trkpt><trkpt lat="45.7406168" lon="10.9767675"><ele>146.75</ele><time>2026-04-18T14:50:27.729Z</time></trkpt><trkpt lat="45.7405483" lon="10.976621"><ele>145.5</ele><time>2026-04-18T14:50:28.724Z</time></trkpt><trkpt lat="45.7404668" lon="10.9764444"><ele>144.25</ele><time>2026-04-18T14:50:29.724Z</time></trkpt><trkpt lat="45.7403778" lon="10.9762421"><ele>143.0</ele><time>2026-04-18T14:50:30.717Z</time></trkpt><trkpt lat="45.7402823" lon="10.9760067"><ele>145.5</ele><time>2026-04-18T14:50:31.718Z</time></trkpt><trkpt lat="45.7400946" lon="10.9755703"><ele>148.0</ele><time>2026-04-18T14:50:33.723Z</time></trkpt><trkpt lat="45.7399967" lon="10.9753671"><ele>148.0</ele><time>2026-04-18T14:50:34.715Z</time></trkpt><trkpt lat="45.7398917" lon="10.9751693"><ele>148.0</ele><time>2026-04-18T14:50:35.721Z</time></trkpt><trkpt lat="45.7397862" lon="10.9749775"><ele>148.0</ele><time>2026-04-18T14:50:36.723Z</time></trkpt><trkpt lat="45.7396873" lon="10.9747626"><ele>146.33333333333334</ele><time>2026-04-18T14:50:37.715Z</time></trkpt><trkpt lat="45.7396102" lon="10.9745387"><ele>144.66666666666666</ele><time>2026-04-18T14:50:38.72Z</time></trkpt><trkpt lat="45.7395532" lon="10.9743224"><ele>143.0</ele><time>2026-04-18T14:50:39.72Z</time></trkpt><trkpt lat="45.7395093" lon="10.9741152"><ele>141.66666666666666</ele><time>2026-04-18T14:50:40.723Z</time></trkpt><trkpt lat="45.7394466" lon="10.9738932"><ele>140.33333333333334</ele><time>2026-04-18T14:50:41.717Z</time></trkpt><trkpt lat="45.7393476" lon="10.9736579"><ele>139.0</ele><time>2026-04-18T14:50:42.718Z</time></trkpt><trkpt lat="45.7392317" lon="10.9734122"><ele>140.66666666666669</ele><time>2026-04-18T14:50:43.713Z</time></trkpt><trkpt lat="45.7391096" lon="10.9731568"><ele>142.33333333333334</ele><time>2026-04-18T14:50:44.713Z</time></trkpt><trkpt lat="45.7389809" lon="10.9728978"><ele>144.0</ele><time>2026-04-18T14:50:45.717Z</time></trkpt><trkpt lat="45.738849" lon="10.9726316"><ele>142.0</ele><time>2026-04-18T14:50:46.715Z</time></trkpt><trkpt lat="45.7387132" lon="10.972366"><ele>140.0</ele><time>2026-04-18T14:50:47.718Z</time></trkpt><trkpt lat="45.7385678" lon="10.9720931"><ele>140.66666666666666</ele><time>2026-04-18T14:50:48.716Z</time></trkpt><trkpt lat="45.7384227" lon="10.9718378"><ele>141.33333333333334</ele><time>2026-04-18T14:50:49.725Z</time></trkpt><trkpt lat="45.7382819" lon="10.9715986"><ele>142.0</ele><time>2026-04-18T14:50:50.716Z</time></trkpt><trkpt lat="45.7381361" lon="10.971357"><ele>142.0</ele><time>2026-04-18T14:50:51.713Z</time></trkpt><trkpt lat="45.7379954" lon="10.9711327"><ele>142.0</ele><time>2026-04-18T14:50:52.723Z</time></trkpt><trkpt lat="45.7378555" lon="10.970917"><ele>142.0</ele><time>2026-04-18T14:50:53.712Z</time></trkpt><trkpt lat="45.7377171" lon="10.9706959"><ele>142.66666666666669</ele><time>2026-04-18T14:50:54.717Z</time></trkpt><trkpt lat="45.7375922" lon="10.9704686"><ele>143.33333333333334</ele><time>2026-04-18T14:50:55.714Z</time></trkpt><trkpt lat="45.7374757" lon="10.9702091"><ele>144.0</ele><time>2026-04-18T14:50:56.711Z</time></trkpt><trkpt lat="45.7373763" lon="10.9699107"><ele>142.0</ele><time>2026-04-18T14:50:57.714Z</time></trkpt><trkpt lat="45.7373018" lon="10.9695816"><ele>140.0</ele><time>2026-04-18T14:50:58.712Z</time></trkpt><trkpt lat="45.7372468" lon="10.9692301"><ele>139.5</ele><time>2026-04-18T14:50:59.713Z</time></trkpt><trkpt lat="45.737198" lon="10.9688843"><ele>139.0</ele><time>2026-04-18T14:51:00.712Z</time></trkpt><trkpt lat="45.7371553" lon="10.9685361"><ele>139.0</ele><time>2026-04-18T14:51:01.716Z</time></trkpt><trkpt lat="45.7371152" lon="10.9681921"><ele>139.0</ele><time>2026-04-18T14:51:02.713Z</time></trkpt><trkpt lat="45.7370768" lon="10.9678719"><ele>139.0</ele><time>2026-04-18T14:51:03.714Z</time></trkpt><trkpt lat="45.7370405" lon="10.9675681"><ele>139.0</ele><time>2026-04-18T14:51:04.716Z</time></trkpt><trkpt lat="45.7370075" lon="10.9672749"><ele>139.0</ele><time>2026-04-18T14:51:05.714Z</time></trkpt><trkpt lat="45.736975" lon="10.9669881"><ele>137.33333333333334</ele><time>2026-04-18T14:51:06.718Z</time></trkpt><trkpt lat="45.7369388" lon="10.9666948"><ele>135.66666666666666</ele><time>2026-04-18T14:51:07.718Z</time></trkpt><trkpt lat="45.7369009" lon="10.9664023"><ele>134.0</ele><time>2026-04-18T14:51:08.718Z</time></trkpt><trkpt lat="45.7368583" lon="10.9661012"><ele>140.0</ele><time>2026-04-18T14:51:09.717Z</time></trkpt><trkpt lat="45.7368102" lon="10.9657983"><ele>146.0</ele><time>2026-04-18T14:51:10.723Z</time></trkpt><trkpt lat="45.7367665" lon="10.9655127"><ele>152.0</ele><time>2026-04-18T14:51:11.718Z</time></trkpt><trkpt lat="45.7367245" lon="10.9652402"><ele>149.0</ele><time>2026-04-18T14:51:12.719Z</time></trkpt><trkpt lat="45.7366831" lon="10.9649779"><ele>146.0</ele><time>2026-04-18T14:51:13.725Z</time></trkpt><trkpt lat="45.7366357" lon="10.9647173"><ele>143.0</ele><time>2026-04-18T14:51:14.713Z</time></trkpt><trkpt lat="45.7365843" lon="10.9644614"><ele>143.0</ele><time>2026-04-18T14:51:15.721Z</time></trkpt><trkpt lat="45.736523" lon="10.9642082"><ele>143.0</ele><time>2026-04-18T14:51:16.714Z</time></trkpt><trkpt lat="45.7364596" lon="10.9639488"><ele>143.0</ele><time>2026-04-18T14:51:17.72Z</time></trkpt><trkpt lat="45.7363871" lon="10.9636835"><ele>141.33333333333331</ele><time>2026-04-18T14:51:18.785Z</time></trkpt><trkpt lat="45.7363128" lon="10.9634113"><ele>139.66666666666666</ele><time>2026-04-18T14:51:19.721Z</time></trkpt><trkpt lat="45.7362339" lon="10.9631403"><ele>138.0</ele><time>2026-04-18T14:51:20.72Z</time></trkpt><trkpt lat="45.7361387" lon="10.9628639"><ele>143.5</ele><time>2026-04-18T14:51:21.715Z</time></trkpt><trkpt lat="45.7360186" lon="10.9625881"><ele>149.0</ele><time>2026-04-18T14:51:22.715Z</time></trkpt><trkpt lat="45.7358831" lon="10.9623091"><ele>149.0</ele><time>2026-04-18T14:51:23.716Z</time></trkpt><trkpt lat="45.7357385" lon="10.9620286"><ele>149.0</ele><time>2026-04-18T14:51:24.712Z</time></trkpt><trkpt lat="45.7355902" lon="10.9617362"><ele>143.5</ele><time>2026-04-18T14:51:25.719Z</time></trkpt><trkpt lat="45.7354373" lon="10.9614459"><ele>138.0</ele><time>2026-04-18T14:51:26.729Z</time></trkpt><trkpt lat="45.7352807" lon="10.9611539"><ele>143.5</ele><time>2026-04-18T14:51:27.726Z</time></trkpt><trkpt lat="45.7351252" lon="10.960857"><ele>149.0</ele><time>2026-04-18T14:51:28.712Z</time></trkpt><trkpt lat="45.7349716" lon="10.9605622"><ele>149.0</ele><time>2026-04-18T14:51:29.713Z</time></trkpt><trkpt lat="45.7348184" lon="10.9602819"><ele>149.0</ele><time>2026-04-18T14:51:30.714Z</time></trkpt><trkpt lat="45.7346783" lon="10.9600213"><ele>146.33333333333331</ele><time>2026-04-18T14:51:31.712Z</time></trkpt><trkpt lat="45.7345481" lon="10.9597791"><ele>143.66666666666666</ele><time>2026-04-18T14:51:32.713Z</time></trkpt><trkpt lat="45.7344219" lon="10.9595486"><ele>141.0</ele><time>2026-04-18T14:51:33.722Z</time></trkpt><trkpt lat="45.7342948" lon="10.9593152"><ele>144.0</ele><time>2026-04-18T14:51:34.713Z</time></trkpt><trkpt lat="45.7341717" lon="10.9590865"><ele>147.0</ele><time>2026-04-18T14:51:35.725Z</time></trkpt><trkpt lat="45.7340537" lon="10.9588649"><ele>150.0</ele><time>2026-04-18T14:51:36.717Z</time></trkpt><trkpt lat="45.7339422" lon="10.9586374"><ele>150.0</ele><time>2026-04-18T14:51:37.714Z</time></trkpt><trkpt lat="45.7338333" lon="10.9584082"><ele>150.0</ele><time>2026-04-18T14:51:38.716Z</time></trkpt><trkpt lat="45.733722" lon="10.9581743"><ele>150.0</ele><time>2026-04-18T14:51:39.712Z</time></trkpt><trkpt lat="45.7336115" lon="10.9579311"><ele>150.66666666666666</ele><time>2026-04-18T14:51:40.718Z</time></trkpt><trkpt lat="45.7334983" lon="10.9576802"><ele>151.33333333333331</ele><time>2026-04-18T14:51:41.725Z</time></trkpt><trkpt lat="45.7333886" lon="10.9574204"><ele>152.0</ele><time>2026-04-18T14:51:42.712Z</time></trkpt><trkpt lat="45.7332722" lon="10.9571613"><ele>152.0</ele><time>2026-04-18T14:51:43.716Z</time></trkpt><trkpt lat="45.7331529" lon="10.9568979"><ele>152.0</ele><time>2026-04-18T14:51:44.712Z</time></trkpt><trkpt lat="45.7330312" lon="10.9566251"><ele>152.0</ele><time>2026-04-18T14:51:45.726Z</time></trkpt><trkpt lat="45.7329118" lon="10.9563482"><ele>152.66666666666666</ele><time>2026-04-18T14:51:46.713Z</time></trkpt><trkpt lat="45.7327896" lon="10.9560766"><ele>153.33333333333334</ele><time>2026-04-18T14:51:47.714Z</time></trkpt><trkpt lat="45.7326768" lon="10.9558158"><ele>154.0</ele><time>2026-04-18T14:51:48.724Z</time></trkpt><trkpt lat="45.7325714" lon="10.9555696"><ele>154.0</ele><time>2026-04-18T14:51:49.716Z</time></trkpt><trkpt lat="45.7324645" lon="10.9553212"><ele>154.0</ele><time>2026-04-18T14:51:50.724Z</time></trkpt><trkpt lat="45.7323589" lon="10.9550788"><ele>154.0</ele><time>2026-04-18T14:51:51.713Z</time></trkpt><trkpt lat="45.7322526" lon="10.9548455"><ele>151.66666666666669</ele><time>2026-04-18T14:51:52.713Z</time></trkpt><trkpt lat="45.7321515" lon="10.9546153"><ele>149.33333333333334</ele><time>2026-04-18T14:51:53.722Z</time></trkpt><trkpt lat="45.7320518" lon="10.9543867"><ele>147.0</ele><time>2026-04-18T14:51:54.723Z</time></trkpt><trkpt lat="45.7319589" lon="10.9541588"><ele>150.33333333333334</ele><time>2026-04-18T14:51:55.71Z</time></trkpt><trkpt lat="45.7318669" lon="10.9539327"><ele>153.66666666666669</ele><time>2026-04-18T14:51:56.721Z</time></trkpt><trkpt lat="45.7317797" lon="10.9536988"><ele>157.0</ele><time>2026-04-18T14:51:57.725Z</time></trkpt><trkpt lat="45.7317001" lon="10.9534396"><ele>156.0</ele><time>2026-04-18T14:51:58.713Z</time></trkpt><trkpt lat="45.7316234" lon="10.9531718"><ele>155.0</ele><time>2026-04-18T14:51:59.715Z</time></trkpt><trkpt lat="45.7315478" lon="10.9529127"><ele>154.0</ele><time>2026-04-18T14:52:00.713Z</time></trkpt><trkpt lat="45.7314613" lon="10.9526534"><ele>151.66666666666669</ele><time>2026-04-18T14:52:01.718Z</time></trkpt><trkpt lat="45.7313532" lon="10.9523977"><ele>149.33333333333334</ele><time>2026-04-18T14:52:02.712Z</time></trkpt><trkpt lat="45.731226" lon="10.9521546"><ele>147.0</ele><time>2026-04-18T14:52:03.725Z</time></trkpt><trkpt lat="45.7310823" lon="10.9519137"><ele>149.5</ele><time>2026-04-18T14:52:04.724Z</time></trkpt><trkpt lat="45.7309281" lon="10.951682"><ele>152.0</ele><time>2026-04-18T14:52:05.711Z</time></trkpt><trkpt lat="45.7307633" lon="10.951452"><ele>152.0</ele><time>2026-04-18T14:52:06.723Z</time></trkpt><trkpt lat="45.7306011" lon="10.9512334"><ele>152.0</ele><time>2026-04-18T14:52:07.711Z</time></trkpt><trkpt lat="45.7304459" lon="10.9510201"><ele>152.0</ele><time>2026-04-18T14:52:08.712Z</time></trkpt><trkpt lat="45.7302973" lon="10.9508149"><ele>152.66666666666666</ele><time>2026-04-18T14:52:09.712Z</time></trkpt><trkpt lat="45.7301544" lon="10.9506076"><ele>153.33333333333334</ele><time>2026-04-18T14:52:10.714Z</time></trkpt><trkpt lat="45.7300064" lon="10.9503981"><ele>154.0</ele><time>2026-04-18T14:52:11.715Z</time></trkpt><trkpt lat="45.7298568" lon="10.9501893"><ele>153.66666666666669</ele><time>2026-04-18T14:52:12.715Z</time></trkpt><trkpt lat="45.7297089" lon="10.9499799"><ele>153.33333333333334</ele><time>2026-04-18T14:52:13.715Z</time></trkpt><trkpt lat="45.7295596" lon="10.9497706"><ele>153.0</ele><time>2026-04-18T14:52:14.712Z</time></trkpt><trkpt lat="45.7294088" lon="10.9495637"><ele>153.0</ele><time>2026-04-18T14:52:15.716Z</time></trkpt><trkpt lat="45.7292598" lon="10.9493575"><ele>153.0</ele><time>2026-04-18T14:52:16.712Z</time></trkpt><trkpt lat="45.7291131" lon="10.949148"><ele>153.0</ele><time>2026-04-18T14:52:17.714Z</time></trkpt><trkpt lat="45.7289659" lon="10.9489437"><ele>153.0</ele><time>2026-04-18T14:52:18.713Z</time></trkpt><trkpt lat="45.7288203" lon="10.9487406"><ele>153.0</ele><time>2026-04-18T14:52:19.713Z</time></trkpt><trkpt lat="45.7286779" lon="10.9485375"><ele>153.0</ele><time>2026-04-18T14:52:20.716Z</time></trkpt><trkpt lat="45.7285259" lon="10.9483291"><ele>153.66666666666666</ele><time>2026-04-18T14:52:21.712Z</time></trkpt><trkpt lat="45.7283658" lon="10.9481276"><ele>154.33333333333331</ele><time>2026-04-18T14:52:22.712Z</time></trkpt><trkpt lat="45.7281918" lon="10.9479382"><ele>155.0</ele><time>2026-04-18T14:52:23.716Z</time></trkpt><trkpt lat="45.7280063" lon="10.9477632"><ele>155.0</ele><time>2026-04-18T14:52:24.723Z</time></trkpt><trkpt lat="45.7278194" lon="10.9475923"><ele>155.0</ele><time>2026-04-18T14:52:25.712Z</time></trkpt><trkpt lat="45.7276303" lon="10.9474214"><ele>155.0</ele><time>2026-04-18T14:52:26.711Z</time></trkpt><trkpt lat="45.7274458" lon="10.9472519"><ele>155.33333333333331</ele><time>2026-04-18T14:52:27.711Z</time></trkpt><trkpt lat="45.7272641" lon="10.9470846"><ele>155.66666666666666</ele><time>2026-04-18T14:52:28.715Z</time></trkpt><trkpt lat="45.7270899" lon="10.9469209"><ele>156.0</ele><time>2026-04-18T14:52:29.716Z</time></trkpt><trkpt lat="45.7269188" lon="10.9467487"><ele>155.66666666666666</ele><time>2026-04-18T14:52:30.723Z</time></trkpt><trkpt lat="45.7267536" lon="10.9465734"><ele>155.33333333333331</ele><time>2026-04-18T14:52:31.728Z</time></trkpt><trkpt lat="45.7265917" lon="10.9463954"><ele>155.0</ele><time>2026-04-18T14:52:32.718Z</time></trkpt><trkpt lat="45.726436" lon="10.9462105"><ele>155.0</ele><time>2026-04-18T14:52:33.715Z</time></trkpt><trkpt lat="45.7262897" lon="10.9459938"><ele>155.0</ele><time>2026-04-18T14:52:34.714Z</time></trkpt><trkpt lat="45.7261555" lon="10.945749"><ele>155.0</ele><time>2026-04-18T14:52:35.714Z</time></trkpt><trkpt lat="45.7260417" lon="10.945499"><ele>154.66666666666666</ele><time>2026-04-18T14:52:36.713Z</time></trkpt><trkpt lat="45.7259353" lon="10.9452587"><ele>154.33333333333334</ele><time>2026-04-18T14:52:37.715Z</time></trkpt><trkpt lat="45.7258281" lon="10.9450208"><ele>154.0</ele><time>2026-04-18T14:52:38.721Z</time></trkpt><trkpt lat="45.7257102" lon="10.944779"><ele>154.0</ele><time>2026-04-18T14:52:39.716Z</time></trkpt><trkpt lat="45.7255764" lon="10.9445461"><ele>154.0</ele><time>2026-04-18T14:52:40.714Z</time></trkpt><trkpt lat="45.7254324" lon="10.9443317"><ele>154.0</ele><time>2026-04-18T14:52:41.715Z</time></trkpt><trkpt lat="45.7252861" lon="10.9441347"><ele>154.66666666666669</ele><time>2026-04-18T14:52:42.713Z</time></trkpt><trkpt lat="45.7251256" lon="10.9439531"><ele>155.33333333333334</ele><time>2026-04-18T14:52:43.716Z</time></trkpt><trkpt lat="45.7249461" lon="10.9437852"><ele>156.0</ele><time>2026-04-18T14:52:44.723Z</time></trkpt><trkpt lat="45.7247533" lon="10.9436479"><ele>156.0</ele><time>2026-04-18T14:52:45.722Z</time></trkpt><trkpt lat="45.7245621" lon="10.9435358"><ele>156.0</ele><time>2026-04-18T14:52:46.717Z</time></trkpt><trkpt lat="45.724378" lon="10.9434369"><ele>156.0</ele><time>2026-04-18T14:52:47.715Z</time></trkpt><trkpt lat="45.7241953" lon="10.9433265"><ele>155.33333333333334</ele><time>2026-04-18T14:52:48.712Z</time></trkpt><trkpt lat="45.7240099" lon="10.9431938"><ele>154.66666666666669</ele><time>2026-04-18T14:52:49.728Z</time></trkpt><trkpt lat="45.7238236" lon="10.9430416"><ele>154.0</ele><time>2026-04-18T14:52:50.721Z</time></trkpt><trkpt lat="45.7236387" lon="10.9428682"><ele>153.66666666666669</ele><time>2026-04-18T14:52:51.712Z</time></trkpt><trkpt lat="45.723466" lon="10.9426754"><ele>153.33333333333334</ele><time>2026-04-18T14:52:52.716Z</time></trkpt><trkpt lat="45.7233073" lon="10.9424849"><ele>153.0</ele><time>2026-04-18T14:52:53.722Z</time></trkpt><trkpt lat="45.7231526" lon="10.9423004"><ele>153.0</ele><time>2026-04-18T14:52:54.714Z</time></trkpt><trkpt lat="45.7229925" lon="10.9421196"><ele>153.0</ele><time>2026-04-18T14:52:55.714Z</time></trkpt><trkpt lat="45.7228235" lon="10.9419503"><ele>153.0</ele><time>2026-04-18T14:52:56.723Z</time></trkpt><trkpt lat="45.7226382" lon="10.9417839"><ele>153.66666666666666</ele><time>2026-04-18T14:52:57.712Z</time></trkpt><trkpt lat="45.7224479" lon="10.9416325"><ele>154.33333333333331</ele><time>2026-04-18T14:52:58.714Z</time></trkpt><trkpt lat="45.7222676" lon="10.9414963"><ele>155.0</ele><time>2026-04-18T14:52:59.72Z</time></trkpt><trkpt lat="45.7220936" lon="10.9413685"><ele>155.0</ele><time>2026-04-18T14:53:00.715Z</time></trkpt><trkpt lat="45.7219238" lon="10.9412452"><ele>155.0</ele><time>2026-04-18T14:53:01.715Z</time></trkpt><trkpt lat="45.7217601" lon="10.941129"><ele>155.0</ele><time>2026-04-18T14:53:02.713Z</time></trkpt><trkpt lat="45.7215952" lon="10.9410169"><ele>155.0</ele><time>2026-04-18T14:53:03.716Z</time></trkpt><trkpt lat="45.7214144" lon="10.9409121"><ele>155.0</ele><time>2026-04-18T14:53:04.717Z</time></trkpt><trkpt lat="45.7212172" lon="10.9408179"><ele>155.0</ele><time>2026-04-18T14:53:05.72Z</time></trkpt><trkpt lat="45.7210195" lon="10.9407415"><ele>152.66666666666666</ele><time>2026-04-18T14:53:06.717Z</time></trkpt><trkpt lat="45.7208253" lon="10.9406743"><ele>150.33333333333334</ele><time>2026-04-18T14:53:07.722Z</time></trkpt><trkpt lat="45.7206375" lon="10.9406139"><ele>148.0</ele><time>2026-04-18T14:53:08.717Z</time></trkpt><trkpt lat="45.7204545" lon="10.9405553"><ele>148.0</ele><time>2026-04-18T14:53:09.715Z</time></trkpt><trkpt lat="45.7202755" lon="10.9405016"><ele>148.0</ele><time>2026-04-18T14:53:10.718Z</time></trkpt><trkpt lat="45.7201015" lon="10.9404516"><ele>148.0</ele><time>2026-04-18T14:53:11.719Z</time></trkpt><trkpt lat="45.7199337" lon="10.9404052"><ele>148.66666666666669</ele><time>2026-04-18T14:53:12.715Z</time></trkpt><trkpt lat="45.7197726" lon="10.9403567"><ele>149.33333333333334</ele><time>2026-04-18T14:53:13.714Z</time></trkpt><trkpt lat="45.719621" lon="10.9403161"><ele>150.0</ele><time>2026-04-18T14:53:14.73Z</time></trkpt><trkpt lat="45.7194678" lon="10.9402747"><ele>150.33333333333334</ele><time>2026-04-18T14:53:15.713Z</time></trkpt><trkpt lat="45.7193095" lon="10.9402418"><ele>150.66666666666669</ele><time>2026-04-18T14:53:16.721Z</time></trkpt><trkpt lat="45.719147" lon="10.940215"><ele>151.0</ele><time>2026-04-18T14:53:17.714Z</time></trkpt><trkpt lat="45.7189793" lon="10.9401938"><ele>151.0</ele><time>2026-04-18T14:53:18.715Z</time></trkpt><trkpt lat="45.71882" lon="10.9401758"><ele>151.0</ele><time>2026-04-18T14:53:19.715Z</time></trkpt><trkpt lat="45.7186663" lon="10.94016"><ele>151.0</ele><time>2026-04-18T14:53:20.714Z</time></trkpt><trkpt lat="45.7185206" lon="10.9401398"><ele>151.33333333333334</ele><time>2026-04-18T14:53:21.714Z</time></trkpt><trkpt lat="45.718373" lon="10.9401092"><ele>151.66666666666666</ele><time>2026-04-18T14:53:22.727Z</time></trkpt><trkpt lat="45.718218" lon="10.9400592"><ele>152.0</ele><time>2026-04-18T14:53:23.714Z</time></trkpt><trkpt lat="45.7180591" lon="10.9399862"><ele>149.66666666666666</ele><time>2026-04-18T14:53:24.714Z</time></trkpt><trkpt lat="45.7178962" lon="10.9399041"><ele>147.33333333333334</ele><time>2026-04-18T14:53:25.713Z</time></trkpt><trkpt lat="45.7177444" lon="10.9398302"><ele>145.0</ele><time>2026-04-18T14:53:26.716Z</time></trkpt><trkpt lat="45.7175963" lon="10.9397542"><ele>144.75</ele><time>2026-04-18T14:53:27.722Z</time></trkpt><trkpt lat="45.7174532" lon="10.9396854"><ele>144.5</ele><time>2026-04-18T14:53:28.718Z</time></trkpt><trkpt lat="45.7173114" lon="10.9396202"><ele>144.25</ele><time>2026-04-18T14:53:29.718Z</time></trkpt><trkpt lat="45.7171693" lon="10.9395538"><ele>144.0</ele><time>2026-04-18T14:53:30.722Z</time></trkpt><trkpt lat="45.7170275" lon="10.9394904"><ele>142.75</ele><time>2026-04-18T14:53:31.713Z</time></trkpt><trkpt lat="45.7168862" lon="10.939425"><ele>141.5</ele><time>2026-04-18T14:53:32.718Z</time></trkpt><trkpt lat="45.7167471" lon="10.9393588"><ele>140.25</ele><time>2026-04-18T14:53:33.714Z</time></trkpt><trkpt lat="45.716609" lon="10.9392861"><ele>139.0</ele><time>2026-04-18T14:53:34.72Z</time></trkpt><trkpt lat="45.7164711" lon="10.9392089"><ele>139.0</ele><time>2026-04-18T14:53:35.716Z</time></trkpt><trkpt lat="45.7163327" lon="10.9391202"><ele>139.0</ele><time>2026-04-18T14:53:36.714Z</time></trkpt><trkpt lat="45.7161932" lon="10.9390294"><ele>139.0</ele><time>2026-04-18T14:53:37.717Z</time></trkpt><trkpt lat="45.7160489" lon="10.9389338"><ele>139.33333333333334</ele><time>2026-04-18T14:53:38.717Z</time></trkpt><trkpt lat="45.7159025" lon="10.9388424"><ele>139.66666666666666</ele><time>2026-04-18T14:53:39.714Z</time></trkpt><trkpt lat="45.7157506" lon="10.9387561"><ele>140.0</ele><time>2026-04-18T14:53:40.713Z</time></trkpt><trkpt lat="45.7155957" lon="10.9386739"><ele>140.0</ele><time>2026-04-18T14:53:41.724Z</time></trkpt><trkpt lat="45.7154342" lon="10.9386003"><ele>140.0</ele><time>2026-04-18T14:53:42.714Z</time></trkpt><trkpt lat="45.7152714" lon="10.9385385"><ele>140.0</ele><time>2026-04-18T14:53:43.715Z</time></trkpt><trkpt lat="45.7151083" lon="10.9384809"><ele>140.0</ele><time>2026-04-18T14:53:44.714Z</time></trkpt><trkpt lat="45.7149543" lon="10.9384228"><ele>140.0</ele><time>2026-04-18T14:53:45.715Z</time></trkpt><trkpt lat="45.714803" lon="10.9383644"><ele>140.0</ele><time>2026-04-18T14:53:46.716Z</time></trkpt><trkpt lat="45.7146498" lon="10.9383044"><ele>140.0</ele><time>2026-04-18T14:53:47.715Z</time></trkpt><trkpt lat="45.7144971" lon="10.9382386"><ele>140.0</ele><time>2026-04-18T14:53:48.72Z</time></trkpt><trkpt lat="45.7143485" lon="10.9381675"><ele>140.0</ele><time>2026-04-18T14:53:49.728Z</time></trkpt><trkpt lat="45.7142047" lon="10.9380946"><ele>141.33333333333331</ele><time>2026-04-18T14:53:50.713Z</time></trkpt><trkpt lat="45.7140673" lon="10.9380234"><ele>142.66666666666666</ele><time>2026-04-18T14:53:51.724Z</time></trkpt><trkpt lat="45.7139242" lon="10.9379482"><ele>144.0</ele><time>2026-04-18T14:53:52.711Z</time></trkpt><trkpt lat="45.7137723" lon="10.937872"><ele>144.0</ele><time>2026-04-18T14:53:53.712Z</time></trkpt><trkpt lat="45.7136064" lon="10.9377769"><ele>144.0</ele><time>2026-04-18T14:53:54.712Z</time></trkpt><trkpt lat="45.7134365" lon="10.9376676"><ele>144.0</ele><time>2026-04-18T14:53:55.722Z</time></trkpt><trkpt lat="45.7132771" lon="10.9375486"><ele>142.33333333333334</ele><time>2026-04-18T14:53:56.712Z</time></trkpt><trkpt lat="45.7131235" lon="10.9374238"><ele>140.66666666666669</ele><time>2026-04-18T14:53:57.712Z</time></trkpt><trkpt lat="45.7129737" lon="10.937299"><ele>139.0</ele><time>2026-04-18T14:53:58.731Z</time></trkpt><trkpt lat="45.712822" lon="10.9371768"><ele>141.33333333333334</ele><time>2026-04-18T14:53:59.713Z</time></trkpt><trkpt lat="45.712671" lon="10.9370605"><ele>143.66666666666666</ele><time>2026-04-18T14:54:00.722Z</time></trkpt><trkpt lat="45.7125114" lon="10.9369489"><ele>146.0</ele><time>2026-04-18T14:54:01.714Z</time></trkpt><trkpt lat="45.7123508" lon="10.9368474"><ele>146.0</ele><time>2026-04-18T14:54:02.713Z</time></trkpt><trkpt lat="45.7121861" lon="10.936748"><ele>146.0</ele><time>2026-04-18T14:54:03.712Z</time></trkpt><trkpt lat="45.7120179" lon="10.936656"><ele>146.0</ele><time>2026-04-18T14:54:04.712Z</time></trkpt><trkpt lat="45.7118461" lon="10.936562"><ele>144.0</ele><time>2026-04-18T14:54:05.715Z</time></trkpt><trkpt lat="45.7116759" lon="10.936469"><ele>142.0</ele><time>2026-04-18T14:54:06.712Z</time></trkpt><trkpt lat="45.7115056" lon="10.9363758"><ele>140.0</ele><time>2026-04-18T14:54:07.725Z</time></trkpt><trkpt lat="45.7113395" lon="10.9362869"><ele>140.0</ele><time>2026-04-18T14:54:08.715Z</time></trkpt><trkpt lat="45.711175" lon="10.9362002"><ele>140.0</ele><time>2026-04-18T14:54:09.712Z</time></trkpt><trkpt lat="45.711012" lon="10.9361159"><ele>140.0</ele><time>2026-04-18T14:54:10.716Z</time></trkpt><trkpt lat="45.7108533" lon="10.9360286"><ele>140.33333333333331</ele><time>2026-04-18T14:54:11.713Z</time></trkpt><trkpt lat="45.7106916" lon="10.9359417"><ele>140.66666666666666</ele><time>2026-04-18T14:54:12.724Z</time></trkpt><trkpt lat="45.7105131" lon="10.9358513"><ele>141.0</ele><time>2026-04-18T14:54:13.719Z</time></trkpt><trkpt lat="45.7103227" lon="10.9357553"><ele>140.0</ele><time>2026-04-18T14:54:14.717Z</time></trkpt><trkpt lat="45.710129" lon="10.9356526"><ele>139.0</ele><time>2026-04-18T14:54:15.711Z</time></trkpt><trkpt lat="45.7099424" lon="10.935559"><ele>138.0</ele><time>2026-04-18T14:54:16.712Z</time></trkpt><trkpt lat="45.7097636" lon="10.9354678"><ele>138.0</ele><time>2026-04-18T14:54:17.713Z</time></trkpt><trkpt lat="45.7095881" lon="10.9353732"><ele>138.0</ele><time>2026-04-18T14:54:18.711Z</time></trkpt><trkpt lat="45.7094152" lon="10.9352738"><ele>138.0</ele><time>2026-04-18T14:54:19.713Z</time></trkpt><trkpt lat="45.7092458" lon="10.9351674"><ele>136.33333333333334</ele><time>2026-04-18T14:54:20.722Z</time></trkpt><trkpt lat="45.709079" lon="10.9350502"><ele>134.66666666666669</ele><time>2026-04-18T14:54:21.712Z</time></trkpt><trkpt lat="45.708915" lon="10.9349219"><ele>133.0</ele><time>2026-04-18T14:54:22.716Z</time></trkpt><trkpt lat="45.7087552" lon="10.934779"><ele>133.0</ele><time>2026-04-18T14:54:23.714Z</time></trkpt><trkpt lat="45.7085997" lon="10.934621"><ele>133.0</ele><time>2026-04-18T14:54:24.723Z</time></trkpt><trkpt lat="45.7084437" lon="10.9344566"><ele>133.0</ele><time>2026-04-18T14:54:25.72Z</time></trkpt><trkpt lat="45.7082929" lon="10.9342848"><ele>130.66666666666669</ele><time>2026-04-18T14:54:26.722Z</time></trkpt><trkpt lat="45.7081424" lon="10.9341114"><ele>128.33333333333334</ele><time>2026-04-18T14:54:27.714Z</time></trkpt><trkpt lat="45.707994" lon="10.9339414"><ele>126.0</ele><time>2026-04-18T14:54:28.721Z</time></trkpt><trkpt lat="45.7078523" lon="10.9337758"><ele>125.66666666666666</ele><time>2026-04-18T14:54:29.717Z</time></trkpt><trkpt lat="45.7077092" lon="10.9336112"><ele>125.33333333333333</ele><time>2026-04-18T14:54:30.722Z</time></trkpt><trkpt lat="45.7075654" lon="10.9334473"><ele>125.0</ele><time>2026-04-18T14:54:31.72Z</time></trkpt><trkpt lat="45.7074214" lon="10.9332834"><ele>124.66666666666666</ele><time>2026-04-18T14:54:32.715Z</time></trkpt><trkpt lat="45.7072762" lon="10.9331156"><ele>124.33333333333334</ele><time>2026-04-18T14:54:33.713Z</time></trkpt><trkpt lat="45.7071332" lon="10.9329482"><ele>124.0</ele><time>2026-04-18T14:54:34.716Z</time></trkpt><trkpt lat="45.7069908" lon="10.932782"><ele>124.0</ele><time>2026-04-18T14:54:35.713Z</time></trkpt><trkpt lat="45.7068485" lon="10.9326188"><ele>124.0</ele><time>2026-04-18T14:54:36.715Z</time></trkpt><trkpt lat="45.7067096" lon="10.9324578"><ele>124.0</ele><time>2026-04-18T14:54:37.713Z</time></trkpt><trkpt lat="45.7065671" lon="10.9322962"><ele>124.33333333333334</ele><time>2026-04-18T14:54:38.713Z</time></trkpt><trkpt lat="45.7064261" lon="10.9321317"><ele>124.66666666666666</ele><time>2026-04-18T14:54:39.716Z</time></trkpt><trkpt lat="45.7062846" lon="10.9319711"><ele>125.0</ele><time>2026-04-18T14:54:40.718Z</time></trkpt><trkpt lat="45.7061405" lon="10.9318142"><ele>125.33333333333333</ele><time>2026-04-18T14:54:41.713Z</time></trkpt><trkpt lat="45.7059895" lon="10.9316665"><ele>125.66666666666666</ele><time>2026-04-18T14:54:42.712Z</time></trkpt><trkpt lat="45.7058245" lon="10.93153"><ele>126.0</ele><time>2026-04-18T14:54:43.712Z</time></trkpt><trkpt lat="45.7056494" lon="10.9314153"><ele>126.0</ele><time>2026-04-18T14:54:44.713Z</time></trkpt><trkpt lat="45.7054655" lon="10.9313178"><ele>126.0</ele><time>2026-04-18T14:54:45.713Z</time></trkpt><trkpt lat="45.7052784" lon="10.9312321"><ele>126.0</ele><time>2026-04-18T14:54:46.712Z</time></trkpt><trkpt lat="45.7050953" lon="10.9311552"><ele>126.0</ele><time>2026-04-18T14:54:47.715Z</time></trkpt><trkpt lat="45.7049164" lon="10.9310854"><ele>126.0</ele><time>2026-04-18T14:54:48.722Z</time></trkpt><trkpt lat="45.7047341" lon="10.9310145"><ele>126.0</ele><time>2026-04-18T14:54:49.712Z</time></trkpt><trkpt lat="45.7045519" lon="10.9309453"><ele>126.0</ele><time>2026-04-18T14:54:50.72Z</time></trkpt><trkpt lat="45.7043729" lon="10.9308757"><ele>126.0</ele><time>2026-04-18T14:54:51.713Z</time></trkpt><trkpt lat="45.7041958" lon="10.9308065"><ele>126.0</ele><time>2026-04-18T14:54:52.716Z</time></trkpt><trkpt lat="45.7040072" lon="10.9307403"><ele>126.0</ele><time>2026-04-18T14:54:53.713Z</time></trkpt><trkpt lat="45.7037996" lon="10.9306698"><ele>126.0</ele><time>2026-04-18T14:54:54.714Z</time></trkpt><trkpt lat="45.7035842" lon="10.9305901"><ele>126.0</ele><time>2026-04-18T14:54:55.717Z</time></trkpt><trkpt lat="45.7033779" lon="10.9305065"><ele>126.66666666666666</ele><time>2026-04-18T14:54:56.713Z</time></trkpt><trkpt lat="45.7031806" lon="10.9304304"><ele>127.33333333333333</ele><time>2026-04-18T14:54:57.712Z</time></trkpt><trkpt lat="45.7029928" lon="10.9303629"><ele>128.0</ele><time>2026-04-18T14:54:58.725Z</time></trkpt><trkpt lat="45.7028148" lon="10.9302992"><ele>127.33333333333333</ele><time>2026-04-18T14:54:59.715Z</time></trkpt><trkpt lat="45.7026476" lon="10.9302372"><ele>126.66666666666666</ele><time>2026-04-18T14:55:00.712Z</time></trkpt><trkpt lat="45.7024806" lon="10.9301754"><ele>126.0</ele><time>2026-04-18T14:55:01.716Z</time></trkpt><trkpt lat="45.7023098" lon="10.9301132"><ele>125.66666666666666</ele><time>2026-04-18T14:55:02.724Z</time></trkpt><trkpt lat="45.7021337" lon="10.9300522"><ele>125.33333333333333</ele><time>2026-04-18T14:55:03.722Z</time></trkpt><trkpt lat="45.7019526" lon="10.9299839"><ele>125.0</ele><time>2026-04-18T14:55:04.719Z</time></trkpt><trkpt lat="45.7017687" lon="10.9299142"><ele>124.66666666666666</ele><time>2026-04-18T14:55:05.72Z</time></trkpt><trkpt lat="45.7015831" lon="10.9298431"><ele>124.33333333333334</ele><time>2026-04-18T14:55:06.714Z</time></trkpt><trkpt lat="45.7014009" lon="10.9297744"><ele>124.0</ele><time>2026-04-18T14:55:07.712Z</time></trkpt><trkpt lat="45.701216" lon="10.929708"><ele>125.66666666666667</ele><time>2026-04-18T14:55:08.713Z</time></trkpt><trkpt lat="45.7010337" lon="10.9296424"><ele>127.33333333333334</ele><time>2026-04-18T14:55:09.713Z</time></trkpt><trkpt lat="45.7008556" lon="10.9295729"><ele>129.0</ele><time>2026-04-18T14:55:10.72Z</time></trkpt><trkpt lat="45.7006764" lon="10.929495"><ele>129.0</ele><time>2026-04-18T14:55:11.716Z</time></trkpt><trkpt lat="45.7005035" lon="10.9294112"><ele>129.0</ele><time>2026-04-18T14:55:12.716Z</time></trkpt><trkpt lat="45.7003328" lon="10.9293201"><ele>129.0</ele><time>2026-04-18T14:55:13.716Z</time></trkpt><trkpt lat="45.7001645" lon="10.9292208"><ele>129.66666666666666</ele><time>2026-04-18T14:55:14.713Z</time></trkpt><trkpt lat="45.6999962" lon="10.9291202"><ele>130.33333333333331</ele><time>2026-04-18T14:55:15.713Z</time></trkpt><trkpt lat="45.6998273" lon="10.9290239"><ele>131.0</ele><time>2026-04-18T14:55:16.713Z</time></trkpt><trkpt lat="45.6996585" lon="10.9289296"><ele>131.0</ele><time>2026-04-18T14:55:17.718Z</time></trkpt><trkpt lat="45.699489" lon="10.9288344"><ele>131.0</ele><time>2026-04-18T14:55:18.713Z</time></trkpt><trkpt lat="45.6993225" lon="10.9287378"><ele>131.0</ele><time>2026-04-18T14:55:19.712Z</time></trkpt><trkpt lat="45.699156" lon="10.9286413"><ele>130.66666666666666</ele><time>2026-04-18T14:55:20.718Z</time></trkpt><trkpt lat="45.6989884" lon="10.9285498"><ele>130.33333333333334</ele><time>2026-04-18T14:55:21.714Z</time></trkpt><trkpt lat="45.6988195" lon="10.9284689"><ele>130.0</ele><time>2026-04-18T14:55:22.711Z</time></trkpt><trkpt lat="45.6986469" lon="10.92839"><ele>130.66666666666669</ele><time>2026-04-18T14:55:23.712Z</time></trkpt><trkpt lat="45.6984737" lon="10.9283203"><ele>131.33333333333334</ele><time>2026-04-18T14:55:24.717Z</time></trkpt><trkpt lat="45.6982991" lon="10.9282631"><ele>132.0</ele><time>2026-04-18T14:55:25.722Z</time></trkpt><trkpt lat="45.6981217" lon="10.9282143"><ele>132.0</ele><time>2026-04-18T14:55:26.717Z</time></trkpt><trkpt lat="45.69794" lon="10.9281686"><ele>132.0</ele><time>2026-04-18T14:55:27.715Z</time></trkpt><trkpt lat="45.6977578" lon="10.9281331"><ele>132.0</ele><time>2026-04-18T14:55:28.716Z</time></trkpt><trkpt lat="45.6975761" lon="10.9281039"><ele>131.66666666666666</ele><time>2026-04-18T14:55:29.739Z</time></trkpt><trkpt lat="45.697395" lon="10.9280617"><ele>131.33333333333331</ele><time>2026-04-18T14:55:30.713Z</time></trkpt><trkpt lat="45.6972168" lon="10.9279977"><ele>131.0</ele><time>2026-04-18T14:55:31.716Z</time></trkpt><trkpt lat="45.6970462" lon="10.9279112"><ele>131.66666666666666</ele><time>2026-04-18T14:55:32.717Z</time></trkpt><trkpt lat="45.6968862" lon="10.9278197"><ele>132.33333333333334</ele><time>2026-04-18T14:55:33.721Z</time></trkpt><trkpt lat="45.6967367" lon="10.9277325"><ele>133.0</ele><time>2026-04-18T14:55:34.716Z</time></trkpt><trkpt lat="45.6965979" lon="10.9276496"><ele>133.0</ele><time>2026-04-18T14:55:35.718Z</time></trkpt><trkpt lat="45.6964672" lon="10.9275743"><ele>133.0</ele><time>2026-04-18T14:55:36.724Z</time></trkpt><trkpt lat="45.6963401" lon="10.9275007"><ele>133.0</ele><time>2026-04-18T14:55:37.72Z</time></trkpt><trkpt lat="45.6962118" lon="10.92743"><ele>133.0</ele><time>2026-04-18T14:55:38.718Z</time></trkpt><trkpt lat="45.6960801" lon="10.9273549"><ele>132.0</ele><time>2026-04-18T14:55:39.72Z</time></trkpt><trkpt lat="45.6959437" lon="10.9272769"><ele>131.0</ele><time>2026-04-18T14:55:40.722Z</time></trkpt><trkpt lat="45.6958031" lon="10.9271901"><ele>130.0</ele><time>2026-04-18T14:55:41.725Z</time></trkpt><trkpt lat="45.6956645" lon="10.9270994"><ele>130.0</ele><time>2026-04-18T14:55:42.716Z</time></trkpt><trkpt lat="45.6955248" lon="10.9270093"><ele>130.0</ele><time>2026-04-18T14:55:43.717Z</time></trkpt><trkpt lat="45.6953915" lon="10.9269161"><ele>130.0</ele><time>2026-04-18T14:55:44.714Z</time></trkpt><trkpt lat="45.695259" lon="10.9268186"><ele>130.25</ele><time>2026-04-18T14:55:45.716Z</time></trkpt><trkpt lat="45.6951268" lon="10.9267235"><ele>130.5</ele><time>2026-04-18T14:55:46.717Z</time></trkpt><trkpt lat="45.6949934" lon="10.9266291"><ele>130.75</ele><time>2026-04-18T14:55:47.718Z</time></trkpt><trkpt lat="45.6948615" lon="10.9265262"><ele>131.0</ele><time>2026-04-18T14:55:48.717Z</time></trkpt><trkpt lat="45.6947355" lon="10.9264178"><ele>131.0</ele><time>2026-04-18T14:55:49.713Z</time></trkpt><trkpt lat="45.6946145" lon="10.9262947"><ele>131.0</ele><time>2026-04-18T14:55:50.72Z</time></trkpt><trkpt lat="45.694497" lon="10.9261672"><ele>131.0</ele><time>2026-04-18T14:55:51.717Z</time></trkpt><trkpt lat="45.6943823" lon="10.9260259"><ele>131.0</ele><time>2026-04-18T14:55:52.722Z</time></trkpt><trkpt lat="45.6942674" lon="10.9258751"><ele>129.66666666666666</ele><time>2026-04-18T14:55:53.717Z</time></trkpt><trkpt lat="45.6941563" lon="10.9257187"><ele>128.33333333333334</ele><time>2026-04-18T14:55:54.719Z</time></trkpt><trkpt lat="45.694043" lon="10.925562"><ele>127.0</ele><time>2026-04-18T14:55:55.714Z</time></trkpt><trkpt lat="45.6939336" lon="10.9254038"><ele>127.0</ele><time>2026-04-18T14:55:56.714Z</time></trkpt><trkpt lat="45.6938228" lon="10.9252415"><ele>127.0</ele><time>2026-04-18T14:55:57.715Z</time></trkpt><trkpt lat="45.6937124" lon="10.9250809"><ele>127.0</ele><time>2026-04-18T14:55:58.712Z</time></trkpt><trkpt lat="45.693601" lon="10.9249182"><ele>126.66666666666667</ele><time>2026-04-18T14:55:59.715Z</time></trkpt><trkpt lat="45.6934863" lon="10.9247554"><ele>126.33333333333334</ele><time>2026-04-18T14:56:00.715Z</time></trkpt><trkpt lat="45.6933704" lon="10.9245914"><ele>126.0</ele><time>2026-04-18T14:56:01.712Z</time></trkpt><trkpt lat="45.6932592" lon="10.9244326"><ele>126.0</ele><time>2026-04-18T14:56:02.716Z</time></trkpt><trkpt lat="45.6931503" lon="10.9242782"><ele>126.0</ele><time>2026-04-18T14:56:03.715Z</time></trkpt><trkpt lat="45.6930407" lon="10.9241246"><ele>126.0</ele><time>2026-04-18T14:56:04.717Z</time></trkpt><trkpt lat="45.6929336" lon="10.9239762"><ele>126.0</ele><time>2026-04-18T14:56:05.726Z</time></trkpt><trkpt lat="45.6928298" lon="10.9238307"><ele>126.0</ele><time>2026-04-18T14:56:06.718Z</time></trkpt><trkpt lat="45.6927289" lon="10.9236871"><ele>126.0</ele><time>2026-04-18T14:56:07.716Z</time></trkpt><trkpt lat="45.6926289" lon="10.9235423"><ele>126.0</ele><time>2026-04-18T14:56:08.715Z</time></trkpt><trkpt lat="45.6925177" lon="10.9233938"><ele>126.0</ele><time>2026-04-18T14:56:09.72Z</time></trkpt><trkpt lat="45.6923886" lon="10.9232338"><ele>126.0</ele><time>2026-04-18T14:56:10.718Z</time></trkpt><trkpt lat="45.6922461" lon="10.9230638"><ele>126.0</ele><time>2026-04-18T14:56:11.718Z</time></trkpt><trkpt lat="45.6920983" lon="10.9228782"><ele>126.0</ele><time>2026-04-18T14:56:12.719Z</time></trkpt><trkpt lat="45.6919544" lon="10.9226986"><ele>126.0</ele><time>2026-04-18T14:56:13.717Z</time></trkpt><trkpt lat="45.6918187" lon="10.9225322"><ele>126.0</ele><time>2026-04-18T14:56:14.718Z</time></trkpt><trkpt lat="45.6916891" lon="10.9223746"><ele>126.0</ele><time>2026-04-18T14:56:15.717Z</time></trkpt><trkpt lat="45.6915628" lon="10.922222"><ele>126.0</ele><time>2026-04-18T14:56:16.716Z</time></trkpt><trkpt lat="45.6914257" lon="10.922066"><ele>126.0</ele><time>2026-04-18T14:56:17.723Z</time></trkpt><trkpt lat="45.6912855" lon="10.9219009"><ele>126.0</ele><time>2026-04-18T14:56:18.719Z</time></trkpt><trkpt lat="45.6911482" lon="10.9217352"><ele>126.0</ele><time>2026-04-18T14:56:19.721Z</time></trkpt><trkpt lat="45.6910046" lon="10.9215615"><ele>126.0</ele><time>2026-04-18T14:56:20.72Z</time></trkpt><trkpt lat="45.6908707" lon="10.9214027"><ele>126.0</ele><time>2026-04-18T14:56:21.718Z</time></trkpt><trkpt lat="45.6907412" lon="10.9212501"><ele>126.0</ele><time>2026-04-18T14:56:22.718Z</time></trkpt><trkpt lat="45.6906122" lon="10.9210973"><ele>126.0</ele><time>2026-04-18T14:56:23.721Z</time></trkpt><trkpt lat="45.6904857" lon="10.920948"><ele>125.0</ele><time>2026-04-18T14:56:24.715Z</time></trkpt><trkpt lat="45.6903532" lon="10.9207948"><ele>124.0</ele><time>2026-04-18T14:56:25.72Z</time></trkpt><trkpt lat="45.690223" lon="10.9206419"><ele>123.0</ele><time>2026-04-18T14:56:26.716Z</time></trkpt><trkpt lat="45.6900931" lon="10.9204865"><ele>124.66666666666666</ele><time>2026-04-18T14:56:27.717Z</time></trkpt><trkpt lat="45.689966" lon="10.9203331"><ele>126.33333333333333</ele><time>2026-04-18T14:56:28.714Z</time></trkpt><trkpt lat="45.6898379" lon="10.9201788"><ele>128.0</ele><time>2026-04-18T14:56:29.718Z</time></trkpt><trkpt lat="45.6897073" lon="10.9200261"><ele>128.0</ele><time>2026-04-18T14:56:30.717Z</time></trkpt><trkpt lat="45.6895749" lon="10.9198699"><ele>128.0</ele><time>2026-04-18T14:56:31.722Z</time></trkpt><trkpt lat="45.6894427" lon="10.9197151"><ele>128.0</ele><time>2026-04-18T14:56:32.719Z</time></trkpt><trkpt lat="45.6893135" lon="10.9195587"><ele>128.0</ele><time>2026-04-18T14:56:33.718Z</time></trkpt><trkpt lat="45.6891902" lon="10.9194098"><ele>128.0</ele><time>2026-04-18T14:56:34.718Z</time></trkpt><trkpt lat="45.6890626" lon="10.919259"><ele>128.0</ele><time>2026-04-18T14:56:35.717Z</time></trkpt><trkpt lat="45.6889376" lon="10.9191081"><ele>128.0</ele><time>2026-04-18T14:56:36.724Z</time></trkpt><trkpt lat="45.6888106" lon="10.918954"><ele>128.0</ele><time>2026-04-18T14:56:37.719Z</time></trkpt><trkpt lat="45.6886807" lon="10.9188049"><ele>128.0</ele><time>2026-04-18T14:56:38.717Z</time></trkpt><trkpt lat="45.6885532" lon="10.9186549"><ele>129.0</ele><time>2026-04-18T14:56:39.718Z</time></trkpt><trkpt lat="45.6884236" lon="10.9185049"><ele>130.0</ele><time>2026-04-18T14:56:40.716Z</time></trkpt><trkpt lat="45.6882939" lon="10.9183529"><ele>131.0</ele><time>2026-04-18T14:56:41.718Z</time></trkpt><trkpt lat="45.6881647" lon="10.9181923"><ele>129.0</ele><time>2026-04-18T14:56:42.717Z</time></trkpt><trkpt lat="45.688039" lon="10.9180195"><ele>127.0</ele><time>2026-04-18T14:56:43.721Z</time></trkpt><trkpt lat="45.6879264" lon="10.9178353"><ele>125.0</ele><time>2026-04-18T14:56:44.718Z</time></trkpt><trkpt lat="45.6878196" lon="10.9176355"><ele>128.0</ele><time>2026-04-18T14:56:45.716Z</time></trkpt><trkpt lat="45.6877256" lon="10.9174175"><ele>131.0</ele><time>2026-04-18T14:56:46.716Z</time></trkpt><trkpt lat="45.6876389" lon="10.917184"><ele>134.0</ele><time>2026-04-18T14:56:47.719Z</time></trkpt><trkpt lat="45.6875588" lon="10.9169502"><ele>132.66666666666666</ele><time>2026-04-18T14:56:48.72Z</time></trkpt><trkpt lat="45.6874904" lon="10.9167241"><ele>131.33333333333334</ele><time>2026-04-18T14:56:49.717Z</time></trkpt><trkpt lat="45.6874303" lon="10.9165069"><ele>130.0</ele><time>2026-04-18T14:56:50.719Z</time></trkpt><trkpt lat="45.6873727" lon="10.9162925"><ele>130.0</ele><time>2026-04-18T14:56:51.718Z</time></trkpt><trkpt lat="45.687316" lon="10.9160846"><ele>130.0</ele><time>2026-04-18T14:56:52.718Z</time></trkpt><trkpt lat="45.687263" lon="10.9158802"><ele>130.0</ele><time>2026-04-18T14:56:53.719Z</time></trkpt><trkpt lat="45.6872129" lon="10.9156747"><ele>129.0</ele><time>2026-04-18T14:56:54.721Z</time></trkpt><trkpt lat="45.6871652" lon="10.9154701"><ele>128.0</ele><time>2026-04-18T14:56:55.718Z</time></trkpt><trkpt lat="45.6871153" lon="10.9152658"><ele>127.0</ele><time>2026-04-18T14:56:56.718Z</time></trkpt><trkpt lat="45.6870706" lon="10.9150699"><ele>126.0</ele><time>2026-04-18T14:56:57.713Z</time></trkpt><trkpt lat="45.6870325" lon="10.9148844"><ele>125.25</ele><time>2026-04-18T14:56:58.723Z</time></trkpt><trkpt lat="45.6869917" lon="10.9147053"><ele>124.5</ele><time>2026-04-18T14:56:59.726Z</time></trkpt><trkpt lat="45.6869512" lon="10.9145335"><ele>123.75</ele><time>2026-04-18T14:57:00.716Z</time></trkpt><trkpt lat="45.6869087" lon="10.9143709"><ele>123.0</ele><time>2026-04-18T14:57:01.715Z</time></trkpt><trkpt lat="45.6868631" lon="10.9142144"><ele>126.75</ele><time>2026-04-18T14:57:02.718Z</time></trkpt><trkpt lat="45.6868071" lon="10.9140566"><ele>130.5</ele><time>2026-04-18T14:57:03.711Z</time></trkpt><trkpt lat="45.6867452" lon="10.9138999"><ele>134.25</ele><time>2026-04-18T14:57:04.713Z</time></trkpt><trkpt lat="45.6866811" lon="10.9137398"><ele>138.0</ele><time>2026-04-18T14:57:05.712Z</time></trkpt><trkpt lat="45.6866154" lon="10.9135736"><ele>138.0</ele><time>2026-04-18T14:57:06.722Z</time></trkpt><trkpt lat="45.6865518" lon="10.9134142"><ele>138.0</ele><time>2026-04-18T14:57:07.712Z</time></trkpt><trkpt lat="45.6864907" lon="10.9132617"><ele>138.0</ele><time>2026-04-18T14:57:08.716Z</time></trkpt><trkpt lat="45.6864322" lon="10.913117"><ele>138.0</ele><time>2026-04-18T14:57:09.73Z</time></trkpt><trkpt lat="45.6863755" lon="10.9129816"><ele>135.0</ele><time>2026-04-18T14:57:10.722Z</time></trkpt><trkpt lat="45.6863162" lon="10.9128362"><ele>132.0</ele><time>2026-04-18T14:57:11.72Z</time></trkpt><trkpt lat="45.6862545" lon="10.912689"><ele>129.0</ele><time>2026-04-18T14:57:12.716Z</time></trkpt><trkpt lat="45.6861885" lon="10.9125295"><ele>126.0</ele><time>2026-04-18T14:57:13.711Z</time></trkpt><trkpt lat="45.6861181" lon="10.9123626"><ele>127.0</ele><time>2026-04-18T14:57:14.722Z</time></trkpt><trkpt lat="45.6860456" lon="10.9121971"><ele>128.0</ele><time>2026-04-18T14:57:15.716Z</time></trkpt><trkpt lat="45.6859721" lon="10.9120278"><ele>129.0</ele><time>2026-04-18T14:57:16.721Z</time></trkpt><trkpt lat="45.6859018" lon="10.9118595"><ele>130.0</ele><time>2026-04-18T14:57:17.717Z</time></trkpt><trkpt lat="45.6858252" lon="10.9116756"><ele>130.0</ele><time>2026-04-18T14:57:18.722Z</time></trkpt><trkpt lat="45.6857364" lon="10.9114654"><ele>130.0</ele><time>2026-04-18T14:57:19.721Z</time></trkpt><trkpt lat="45.6856292" lon="10.9112384"><ele>130.0</ele><time>2026-04-18T14:57:20.712Z</time></trkpt><trkpt lat="45.6855065" lon="10.910997"><ele>125.5</ele><time>2026-04-18T14:57:21.714Z</time></trkpt><trkpt lat="45.6853767" lon="10.9107323"><ele>121.0</ele><time>2026-04-18T14:57:22.722Z</time></trkpt><trkpt lat="45.6852448" lon="10.9104578"><ele>125.5</ele><time>2026-04-18T14:57:23.716Z</time></trkpt><trkpt lat="45.6851089" lon="10.9101802"><ele>130.0</ele><time>2026-04-18T14:57:24.713Z</time></trkpt><trkpt lat="45.6849744" lon="10.9099201"><ele>130.0</ele><time>2026-04-18T14:57:25.713Z</time></trkpt><trkpt lat="45.6848468" lon="10.9096761"><ele>130.0</ele><time>2026-04-18T14:57:26.714Z</time></trkpt><trkpt lat="45.6847194" lon="10.9094408"><ele>130.0</ele><time>2026-04-18T14:57:27.724Z</time></trkpt><trkpt lat="45.684583" lon="10.9092029"><ele>132.5</ele><time>2026-04-18T14:57:28.715Z</time></trkpt><trkpt lat="45.6844332" lon="10.9089728"><ele>135.0</ele><time>2026-04-18T14:57:29.712Z</time></trkpt><trkpt lat="45.6842637" lon="10.9087503"><ele>135.0</ele><time>2026-04-18T14:57:30.715Z</time></trkpt><trkpt lat="45.6840805" lon="10.9085404"><ele>135.0</ele><time>2026-04-18T14:57:31.713Z</time></trkpt><trkpt lat="45.683902" lon="10.9083542"><ele>135.66666666666666</ele><time>2026-04-18T14:57:32.714Z</time></trkpt><trkpt lat="45.6837329" lon="10.9081806"><ele>136.33333333333331</ele><time>2026-04-18T14:57:33.711Z</time></trkpt><trkpt lat="45.6835686" lon="10.9080138"><ele>137.0</ele><time>2026-04-18T14:57:34.712Z</time></trkpt><trkpt lat="45.6834131" lon="10.9078635"><ele>137.0</ele><time>2026-04-18T14:57:35.712Z</time></trkpt><trkpt lat="45.683274" lon="10.9077226"><ele>137.0</ele><time>2026-04-18T14:57:36.715Z</time></trkpt><trkpt lat="45.6831333" lon="10.9075795"><ele>137.0</ele><time>2026-04-18T14:57:37.711Z</time></trkpt><trkpt lat="45.6829941" lon="10.9074389"><ele>136.66666666666666</ele><time>2026-04-18T14:57:38.713Z</time></trkpt><trkpt lat="45.6828527" lon="10.9072949"><ele>136.33333333333334</ele><time>2026-04-18T14:57:39.723Z</time></trkpt><trkpt lat="45.6826985" lon="10.9071457"><ele>136.0</ele><time>2026-04-18T14:57:40.71Z</time></trkpt><trkpt lat="45.6825377" lon="10.9070139"><ele>136.0</ele><time>2026-04-18T14:57:41.712Z</time></trkpt><trkpt lat="45.6823658" lon="10.9068998"><ele>136.0</ele><time>2026-04-18T14:57:42.722Z</time></trkpt><trkpt lat="45.6821894" lon="10.9068049"><ele>136.0</ele><time>2026-04-18T14:57:43.725Z</time></trkpt><trkpt lat="45.6820168" lon="10.9067201"><ele>135.66666666666669</ele><time>2026-04-18T14:57:44.714Z</time></trkpt><trkpt lat="45.6818393" lon="10.9066434"><ele>135.33333333333334</ele><time>2026-04-18T14:57:45.712Z</time></trkpt><trkpt lat="45.6816614" lon="10.9065755"><ele>135.0</ele><time>2026-04-18T14:57:46.711Z</time></trkpt><trkpt lat="45.6814919" lon="10.9065143"><ele>135.0</ele><time>2026-04-18T14:57:47.712Z</time></trkpt><trkpt lat="45.6813295" lon="10.9064537"><ele>135.0</ele><time>2026-04-18T14:57:48.714Z</time></trkpt><trkpt lat="45.6811664" lon="10.9063949"><ele>135.0</ele><time>2026-04-18T14:57:49.711Z</time></trkpt><trkpt lat="45.6809996" lon="10.9063368"><ele>136.66666666666666</ele><time>2026-04-18T14:57:50.725Z</time></trkpt><trkpt lat="45.6808319" lon="10.9062726"><ele>138.33333333333331</ele><time>2026-04-18T14:57:51.712Z</time></trkpt><trkpt lat="45.6806603" lon="10.9062104"><ele>140.0</ele><time>2026-04-18T14:57:52.713Z</time></trkpt><trkpt lat="45.6804898" lon="10.906146"><ele>140.0</ele><time>2026-04-18T14:57:53.711Z</time></trkpt><trkpt lat="45.6803213" lon="10.9060881"><ele>140.0</ele><time>2026-04-18T14:57:54.712Z</time></trkpt><trkpt lat="45.6801516" lon="10.9060379"><ele>140.0</ele><time>2026-04-18T14:57:55.72Z</time></trkpt><trkpt lat="45.6799792" lon="10.9060039"><ele>139.33333333333331</ele><time>2026-04-18T14:57:56.711Z</time></trkpt><trkpt lat="45.6798047" lon="10.9059814"><ele>138.66666666666666</ele><time>2026-04-18T14:57:57.711Z</time></trkpt><trkpt lat="45.67963" lon="10.9059662"><ele>138.0</ele><time>2026-04-18T14:57:58.712Z</time></trkpt><trkpt lat="45.6794576" lon="10.9059612"><ele>137.66666666666666</ele><time>2026-04-18T14:57:59.721Z</time></trkpt><trkpt lat="45.6792793" lon="10.9059569"><ele>137.33333333333331</ele><time>2026-04-18T14:58:00.712Z</time></trkpt><trkpt lat="45.679101" lon="10.905949"><ele>137.0</ele><time>2026-04-18T14:58:01.713Z</time></trkpt><trkpt lat="45.6789231" lon="10.9059412"><ele>137.0</ele><time>2026-04-18T14:58:02.714Z</time></trkpt><trkpt lat="45.6787546" lon="10.9059321"><ele>137.0</ele><time>2026-04-18T14:58:03.713Z</time></trkpt><trkpt lat="45.6785898" lon="10.9059266"><ele>137.0</ele><time>2026-04-18T14:58:04.711Z</time></trkpt><trkpt lat="45.6784161" lon="10.9059221"><ele>137.66666666666666</ele><time>2026-04-18T14:58:05.712Z</time></trkpt><trkpt lat="45.6782374" lon="10.90592"><ele>138.33333333333334</ele><time>2026-04-18T14:58:06.722Z</time></trkpt><trkpt lat="45.678055" lon="10.9059263"><ele>139.0</ele><time>2026-04-18T14:58:07.716Z</time></trkpt><trkpt lat="45.6778774" lon="10.905947"><ele>139.33333333333334</ele><time>2026-04-18T14:58:08.713Z</time></trkpt><trkpt lat="45.6776986" lon="10.9059832"><ele>139.66666666666666</ele><time>2026-04-18T14:58:09.711Z</time></trkpt><trkpt lat="45.6775214" lon="10.9060254"><ele>140.0</ele><time>2026-04-18T14:58:10.714Z</time></trkpt><trkpt lat="45.677349" lon="10.9060685"><ele>140.0</ele><time>2026-04-18T14:58:11.713Z</time></trkpt><trkpt lat="45.6771871" lon="10.9061097"><ele>140.0</ele><time>2026-04-18T14:58:12.711Z</time></trkpt><trkpt lat="45.6770312" lon="10.9061476"><ele>140.0</ele><time>2026-04-18T14:58:13.712Z</time></trkpt><trkpt lat="45.6768749" lon="10.9061834"><ele>140.66666666666666</ele><time>2026-04-18T14:58:14.711Z</time></trkpt><trkpt lat="45.6767068" lon="10.9062088"><ele>141.33333333333334</ele><time>2026-04-18T14:58:15.714Z</time></trkpt><trkpt lat="45.6765266" lon="10.906209"><ele>142.0</ele><time>2026-04-18T14:58:16.713Z</time></trkpt><trkpt lat="45.6763495" lon="10.90619"><ele>142.0</ele><time>2026-04-18T14:58:17.714Z</time></trkpt><trkpt lat="45.6761796" lon="10.9061568"><ele>142.0</ele><time>2026-04-18T14:58:18.715Z</time></trkpt><trkpt lat="45.6760184" lon="10.906112"><ele>142.0</ele><time>2026-04-18T14:58:19.715Z</time></trkpt><trkpt lat="45.6758598" lon="10.9060615"><ele>140.66666666666669</ele><time>2026-04-18T14:58:20.711Z</time></trkpt><trkpt lat="45.6756973" lon="10.9060074"><ele>139.33333333333334</ele><time>2026-04-18T14:58:21.712Z</time></trkpt><trkpt lat="45.6755324" lon="10.9059308"><ele>138.0</ele><time>2026-04-18T14:58:22.713Z</time></trkpt><trkpt lat="45.6753628" lon="10.9058185"><ele>139.66666666666666</ele><time>2026-04-18T14:58:23.721Z</time></trkpt><trkpt lat="45.6751981" lon="10.9056764"><ele>141.33333333333331</ele><time>2026-04-18T14:58:24.714Z</time></trkpt><trkpt lat="45.6750431" lon="10.9055282"><ele>143.0</ele><time>2026-04-18T14:58:25.714Z</time></trkpt><trkpt lat="45.6748977" lon="10.9053833"><ele>143.0</ele><time>2026-04-18T14:58:26.715Z</time></trkpt><trkpt lat="45.6747622" lon="10.9052423"><ele>143.0</ele><time>2026-04-18T14:58:27.711Z</time></trkpt><trkpt lat="45.6746332" lon="10.9051081"><ele>143.0</ele><time>2026-04-18T14:58:28.711Z</time></trkpt><trkpt lat="45.6745057" lon="10.9049786"><ele>144.33333333333331</ele><time>2026-04-18T14:58:29.712Z</time></trkpt><trkpt lat="45.6743753" lon="10.9048503"><ele>145.66666666666666</ele><time>2026-04-18T14:58:30.725Z</time></trkpt><trkpt lat="45.6742379" lon="10.9047301"><ele>147.0</ele><time>2026-04-18T14:58:31.711Z</time></trkpt><trkpt lat="45.6740942" lon="10.9046235"><ele>147.0</ele><time>2026-04-18T14:58:32.713Z</time></trkpt><trkpt lat="45.6739399" lon="10.9045323"><ele>147.0</ele><time>2026-04-18T14:58:33.714Z</time></trkpt><trkpt lat="45.6737762" lon="10.9044483"><ele>147.0</ele><time>2026-04-18T14:58:34.713Z</time></trkpt><trkpt lat="45.6736155" lon="10.9043741"><ele>147.0</ele><time>2026-04-18T14:58:35.713Z</time></trkpt><trkpt lat="45.6734623" lon="10.9043042"><ele>147.0</ele><time>2026-04-18T14:58:36.716Z</time></trkpt><trkpt lat="45.6733151" lon="10.9042421"><ele>147.0</ele><time>2026-04-18T14:58:37.72Z</time></trkpt><trkpt lat="45.6731743" lon="10.9041883"><ele>147.0</ele><time>2026-04-18T14:58:38.713Z</time></trkpt><trkpt lat="45.6730425" lon="10.9041439"><ele>147.0</ele><time>2026-04-18T14:58:39.714Z</time></trkpt><trkpt lat="45.6729139" lon="10.9041029"><ele>147.0</ele><time>2026-04-18T14:58:40.725Z</time></trkpt><trkpt lat="45.6727862" lon="10.9040754"><ele>147.0</ele><time>2026-04-18T14:58:41.713Z</time></trkpt><trkpt lat="45.6726502" lon="10.9040593"><ele>147.33333333333334</ele><time>2026-04-18T14:58:42.712Z</time></trkpt><trkpt lat="45.6725058" lon="10.9040541"><ele>147.66666666666669</ele><time>2026-04-18T14:58:43.713Z</time></trkpt><trkpt lat="45.6723477" lon="10.9040588"><ele>148.0</ele><time>2026-04-18T14:58:44.713Z</time></trkpt><trkpt lat="45.6721915" lon="10.9040703"><ele>148.0</ele><time>2026-04-18T14:58:45.711Z</time></trkpt><trkpt lat="45.6720386" lon="10.9040877"><ele>148.0</ele><time>2026-04-18T14:58:46.718Z</time></trkpt><trkpt lat="45.6718916" lon="10.9041052"><ele>148.0</ele><time>2026-04-18T14:58:47.712Z</time></trkpt><trkpt lat="45.6717476" lon="10.9041234"><ele>148.0</ele><time>2026-04-18T14:58:48.713Z</time></trkpt><trkpt lat="45.6716071" lon="10.9041426"><ele>147.75</ele><time>2026-04-18T14:58:49.713Z</time></trkpt><trkpt lat="45.6714685" lon="10.9041653"><ele>147.5</ele><time>2026-04-18T14:58:50.713Z</time></trkpt><trkpt lat="45.6713316" lon="10.9041859"><ele>147.25</ele><time>2026-04-18T14:58:51.713Z</time></trkpt><trkpt lat="45.6711992" lon="10.9042021"><ele>147.0</ele><time>2026-04-18T14:58:52.715Z</time></trkpt><trkpt lat="45.6710687" lon="10.9042064"><ele>146.0</ele><time>2026-04-18T14:58:53.719Z</time></trkpt><trkpt lat="45.6709434" lon="10.9041878"><ele>145.0</ele><time>2026-04-18T14:58:54.716Z</time></trkpt><trkpt lat="45.6708218" lon="10.9041496"><ele>144.0</ele><time>2026-04-18T14:58:55.717Z</time></trkpt><trkpt lat="45.6706977" lon="10.9040903"><ele>143.0</ele><time>2026-04-18T14:58:56.721Z</time></trkpt><trkpt lat="45.6705704" lon="10.9040075"><ele>143.0</ele><time>2026-04-18T14:58:57.713Z</time></trkpt><trkpt lat="45.6704525" lon="10.9039006"><ele>143.0</ele><time>2026-04-18T14:58:58.713Z</time></trkpt><trkpt lat="45.6703467" lon="10.9037716"><ele>143.0</ele><time>2026-04-18T14:58:59.713Z</time></trkpt><trkpt lat="45.6702462" lon="10.9036354"><ele>143.0</ele><time>2026-04-18T14:59:00.716Z</time></trkpt><trkpt lat="45.6701527" lon="10.9035001"><ele>141.0</ele><time>2026-04-18T14:59:01.717Z</time></trkpt><trkpt lat="45.6700588" lon="10.9033723"><ele>139.0</ele><time>2026-04-18T14:59:02.713Z</time></trkpt><trkpt lat="45.6699515" lon="10.9032606"><ele>137.0</ele><time>2026-04-18T14:59:03.723Z</time></trkpt><trkpt lat="45.669816" lon="10.903171"><ele>135.0</ele><time>2026-04-18T14:59:04.712Z</time></trkpt><trkpt lat="45.669663" lon="10.9031346"><ele>135.0</ele><time>2026-04-18T14:59:05.719Z</time></trkpt><trkpt lat="45.6694905" lon="10.9031542"><ele>135.0</ele><time>2026-04-18T14:59:06.723Z</time></trkpt><trkpt lat="45.6693181" lon="10.9032012"><ele>135.0</ele><time>2026-04-18T14:59:07.717Z</time></trkpt><trkpt lat="45.6691523" lon="10.9032535"><ele>133.33333333333334</ele><time>2026-04-18T14:59:08.719Z</time></trkpt><trkpt lat="45.6689893" lon="10.9033046"><ele>131.66666666666669</ele><time>2026-04-18T14:59:09.724Z</time></trkpt><trkpt lat="45.6688327" lon="10.9033544"><ele>130.0</ele><time>2026-04-18T14:59:10.721Z</time></trkpt><trkpt lat="45.668678" lon="10.9034071"><ele>128.33333333333334</ele><time>2026-04-18T14:59:11.711Z</time></trkpt><trkpt lat="45.6685295" lon="10.903471"><ele>126.66666666666666</ele><time>2026-04-18T14:59:12.713Z</time></trkpt><trkpt lat="45.6683849" lon="10.9035533"><ele>125.0</ele><time>2026-04-18T14:59:13.714Z</time></trkpt><trkpt lat="45.6682423" lon="10.9036558"><ele>125.0</ele><time>2026-04-18T14:59:14.712Z</time></trkpt><trkpt lat="45.6681077" lon="10.9037794"><ele>125.0</ele><time>2026-04-18T14:59:15.714Z</time></trkpt><trkpt lat="45.6679808" lon="10.9039439"><ele>125.0</ele><time>2026-04-18T14:59:16.721Z</time></trkpt><trkpt lat="45.6678735" lon="10.9041281"><ele>124.66666666666666</ele><time>2026-04-18T14:59:17.712Z</time></trkpt><trkpt lat="45.6677755" lon="10.9043072"><ele>124.33333333333334</ele><time>2026-04-18T14:59:18.722Z</time></trkpt><trkpt lat="45.6676779" lon="10.9044899"><ele>124.0</ele><time>2026-04-18T14:59:19.715Z</time></trkpt><trkpt lat="45.6675987" lon="10.9046696"><ele>124.0</ele><time>2026-04-18T14:59:20.712Z</time></trkpt><trkpt lat="45.667524" lon="10.9048562"><ele>124.0</ele><time>2026-04-18T14:59:21.713Z</time></trkpt><trkpt lat="45.6674561" lon="10.9050381"><ele>124.0</ele><time>2026-04-18T14:59:22.718Z</time></trkpt><trkpt lat="45.6673718" lon="10.905221"><ele>124.0</ele><time>2026-04-18T14:59:23.713Z</time></trkpt><trkpt lat="45.6672645" lon="10.9053945"><ele>124.66666666666667</ele><time>2026-04-18T14:59:24.712Z</time></trkpt><trkpt lat="45.6671357" lon="10.9055482"><ele>125.33333333333334</ele><time>2026-04-18T14:59:25.718Z</time></trkpt><trkpt lat="45.6669868" lon="10.9056717"><ele>126.0</ele><time>2026-04-18T14:59:26.714Z</time></trkpt><trkpt lat="45.6668228" lon="10.9057613"><ele>126.0</ele><time>2026-04-18T14:59:27.712Z</time></trkpt><trkpt lat="45.6666495" lon="10.9058335"><ele>126.0</ele><time>2026-04-18T14:59:28.714Z</time></trkpt><trkpt lat="45.6664667" lon="10.905882"><ele>126.0</ele><time>2026-04-18T14:59:29.713Z</time></trkpt><trkpt lat="45.6662786" lon="10.905906"><ele>124.66666666666666</ele><time>2026-04-18T14:59:30.714Z</time></trkpt><trkpt lat="45.6660966" lon="10.9059027"><ele>123.33333333333333</ele><time>2026-04-18T14:59:31.713Z</time></trkpt><trkpt lat="45.6659283" lon="10.9058768"><ele>122.0</ele><time>2026-04-18T14:59:32.713Z</time></trkpt><trkpt lat="45.6657716" lon="10.9058402"><ele>122.0</ele><time>2026-04-18T14:59:33.721Z</time></trkpt><trkpt lat="45.665622" lon="10.9058019"><ele>122.0</ele><time>2026-04-18T14:59:34.711Z</time></trkpt><trkpt lat="45.6654837" lon="10.9057592"><ele>122.0</ele><time>2026-04-18T14:59:35.719Z</time></trkpt><trkpt lat="45.6653504" lon="10.905704"><ele>122.0</ele><time>2026-04-18T14:59:36.716Z</time></trkpt><trkpt lat="45.6652229" lon="10.9056232"><ele>126.33333333333333</ele><time>2026-04-18T14:59:37.715Z</time></trkpt><trkpt lat="45.6650986" lon="10.9055017"><ele>130.66666666666666</ele><time>2026-04-18T14:59:38.717Z</time></trkpt><trkpt lat="45.6649889" lon="10.9053496"><ele>135.0</ele><time>2026-04-18T14:59:39.714Z</time></trkpt><trkpt lat="45.6648974" lon="10.9051802"><ele>132.5</ele><time>2026-04-18T14:59:40.713Z</time></trkpt><trkpt lat="45.6648182" lon="10.9050053"><ele>130.0</ele><time>2026-04-18T14:59:41.712Z</time></trkpt><trkpt lat="45.6647367" lon="10.904837"><ele>127.5</ele><time>2026-04-18T14:59:42.715Z</time></trkpt><trkpt lat="45.6646365" lon="10.904663"><ele>125.0</ele><time>2026-04-18T14:59:43.726Z</time></trkpt><trkpt lat="45.664538" lon="10.904499"><ele>125.0</ele><time>2026-04-18T14:59:44.72Z</time></trkpt><trkpt lat="45.6644498" lon="10.9043492"><ele>125.0</ele><time>2026-04-18T14:59:45.716Z</time></trkpt><trkpt lat="45.6643598" lon="10.9042103"><ele>125.0</ele><time>2026-04-18T14:59:46.713Z</time></trkpt><trkpt lat="45.664261" lon="10.9040807"><ele>125.0</ele><time>2026-04-18T14:59:47.713Z</time></trkpt><trkpt lat="45.6641525" lon="10.9039537"><ele>127.5</ele><time>2026-04-18T14:59:48.723Z</time></trkpt><trkpt lat="45.6640391" lon="10.9038273"><ele>130.0</ele><time>2026-04-18T14:59:49.714Z</time></trkpt><trkpt lat="45.6639202" lon="10.9037049"><ele>132.5</ele><time>2026-04-18T14:59:50.713Z</time></trkpt><trkpt lat="45.6637995" lon="10.9035877"><ele>135.0</ele><time>2026-04-18T14:59:51.715Z</time></trkpt><trkpt lat="45.663685" lon="10.9034838"><ele>136.0</ele><time>2026-04-18T14:59:52.713Z</time></trkpt><trkpt lat="45.6635726" lon="10.9033956"><ele>137.0</ele><time>2026-04-18T14:59:53.715Z</time></trkpt><trkpt lat="45.6634634" lon="10.9033234"><ele>138.0</ele><time>2026-04-18T14:59:54.713Z</time></trkpt><trkpt lat="45.6633451" lon="10.9032509"><ele>139.0</ele><time>2026-04-18T14:59:55.713Z</time></trkpt><trkpt lat="45.663211" lon="10.903173"><ele>139.0</ele><time>2026-04-18T14:59:56.712Z</time></trkpt><trkpt lat="45.6630744" lon="10.9030943"><ele>139.0</ele><time>2026-04-18T14:59:57.713Z</time></trkpt><trkpt lat="45.6629399" lon="10.9030179"><ele>139.0</ele><time>2026-04-18T14:59:58.713Z</time></trkpt><trkpt lat="45.6628063" lon="10.9029561"><ele>139.0</ele><time>2026-04-18T14:59:59.712Z</time></trkpt><trkpt lat="45.6626655" lon="10.9029206"><ele>143.0</ele><time>2026-04-18T15:00:00.714Z</time></trkpt><trkpt lat="45.6625127" lon="10.9028979"><ele>147.0</ele><time>2026-04-18T15:00:01.712Z</time></trkpt><trkpt lat="45.6623537" lon="10.9028797"><ele>151.0</ele><time>2026-04-18T15:00:02.714Z</time></trkpt><trkpt lat="45.6621881" lon="10.9028636"><ele>151.0</ele><time>2026-04-18T15:00:03.715Z</time></trkpt><trkpt lat="45.6620213" lon="10.9028488"><ele>151.0</ele><time>2026-04-18T15:00:04.712Z</time></trkpt><trkpt lat="45.6618642" lon="10.9028379"><ele>151.0</ele><time>2026-04-18T15:00:05.713Z</time></trkpt><trkpt lat="45.6617138" lon="10.9028282"><ele>153.25</ele><time>2026-04-18T15:00:06.712Z</time></trkpt><trkpt lat="45.6615682" lon="10.9028234"><ele>155.5</ele><time>2026-04-18T15:00:07.722Z</time></trkpt><trkpt lat="45.6614288" lon="10.9028185"><ele>157.75</ele><time>2026-04-18T15:00:08.713Z</time></trkpt><trkpt lat="45.6612953" lon="10.902818"><ele>160.0</ele><time>2026-04-18T15:00:09.713Z</time></trkpt><trkpt lat="45.6611578" lon="10.9028157"><ele>159.5</ele><time>2026-04-18T15:00:10.711Z</time></trkpt><trkpt lat="45.6610208" lon="10.9028128"><ele>159.0</ele><time>2026-04-18T15:00:11.724Z</time></trkpt><trkpt lat="45.6608879" lon="10.9028142"><ele>158.5</ele><time>2026-04-18T15:00:12.711Z</time></trkpt><trkpt lat="45.6607572" lon="10.9028226"><ele>158.0</ele><time>2026-04-18T15:00:13.712Z</time></trkpt><trkpt lat="45.6606276" lon="10.9028443"><ele>158.0</ele><time>2026-04-18T15:00:14.712Z</time></trkpt><trkpt lat="45.6605093" lon="10.9028768"><ele>158.0</ele><time>2026-04-18T15:00:15.713Z</time></trkpt><trkpt lat="45.6603976" lon="10.9029149"><ele>158.0</ele><time>2026-04-18T15:00:16.721Z</time></trkpt><trkpt lat="45.6602915" lon="10.9029613"><ele>158.0</ele><time>2026-04-18T15:00:17.712Z</time></trkpt><trkpt lat="45.6601949" lon="10.9030126"><ele>158.0</ele><time>2026-04-18T15:00:18.712Z</time></trkpt><trkpt lat="45.6601008" lon="10.9030647"><ele>157.20000000000002</ele><time>2026-04-18T15:00:19.712Z</time></trkpt><trkpt lat="45.6600081" lon="10.9031183"><ele>156.4</ele><time>2026-04-18T15:00:20.721Z</time></trkpt><trkpt lat="45.6599152" lon="10.9031596"><ele>155.60000000000002</ele><time>2026-04-18T15:00:21.71Z</time></trkpt><trkpt lat="45.6598213" lon="10.9031942"><ele>154.8</ele><time>2026-04-18T15:00:22.718Z</time></trkpt><trkpt lat="45.6597332" lon="10.9032145"><ele>154.0</ele><time>2026-04-18T15:00:23.711Z</time></trkpt><trkpt lat="45.6596589" lon="10.9032265"><ele>154.0</ele><time>2026-04-18T15:00:24.715Z</time></trkpt><trkpt lat="45.6595929" lon="10.90322"><ele>154.0</ele><time>2026-04-18T15:00:25.713Z</time></trkpt><trkpt lat="45.6594743" lon="10.9031927"><ele>154.0</ele><time>2026-04-18T15:00:27.712Z</time></trkpt><trkpt lat="45.6594051" lon="10.9031704"><ele>154.0</ele><time>2026-04-18T15:00:28.713Z</time></trkpt><trkpt lat="45.6593265" lon="10.903141"><ele>154.0</ele><time>2026-04-18T15:00:29.711Z</time></trkpt><trkpt lat="45.6592383" lon="10.9031126"><ele>154.0</ele><time>2026-04-18T15:00:30.712Z</time></trkpt><trkpt lat="45.6591536" lon="10.9030837"><ele>152.83333333333334</ele><time>2026-04-18T15:00:31.711Z</time></trkpt><trkpt lat="45.6590719" lon="10.9030541"><ele>151.66666666666669</ele><time>2026-04-18T15:00:32.712Z</time></trkpt><trkpt lat="45.6589914" lon="10.9030231"><ele>150.5</ele><time>2026-04-18T15:00:33.711Z</time></trkpt><trkpt lat="45.6589099" lon="10.9029864"><ele>149.33333333333334</ele><time>2026-04-18T15:00:34.72Z</time></trkpt><trkpt lat="45.6588238" lon="10.9029508"><ele>148.16666666666666</ele><time>2026-04-18T15:00:35.722Z</time></trkpt><trkpt lat="45.6587347" lon="10.9029188"><ele>147.0</ele><time>2026-04-18T15:00:36.711Z</time></trkpt><trkpt lat="45.6586409" lon="10.9028815"><ele>148.6</ele><time>2026-04-18T15:00:37.712Z</time></trkpt><trkpt lat="45.6585451" lon="10.9028412"><ele>150.2</ele><time>2026-04-18T15:00:38.712Z</time></trkpt><trkpt lat="45.6584468" lon="10.9028015"><ele>151.8</ele><time>2026-04-18T15:00:39.721Z</time></trkpt><trkpt lat="45.6583303" lon="10.9027559"><ele>153.4</ele><time>2026-04-18T15:00:40.712Z</time></trkpt><trkpt lat="45.6582141" lon="10.902713"><ele>155.0</ele><time>2026-04-18T15:00:41.714Z</time></trkpt><trkpt lat="45.6581026" lon="10.9026708"><ele>155.0</ele><time>2026-04-18T15:00:42.712Z</time></trkpt><trkpt lat="45.6579986" lon="10.9026305"><ele>155.0</ele><time>2026-04-18T15:00:43.712Z</time></trkpt><trkpt lat="45.6578961" lon="10.9025895"><ele>155.0</ele><time>2026-04-18T15:00:44.711Z</time></trkpt><trkpt lat="45.6577943" lon="10.9025489"><ele>155.0</ele><time>2026-04-18T15:00:45.717Z</time></trkpt><trkpt lat="45.6576939" lon="10.902514"><ele>155.0</ele><time>2026-04-18T15:00:46.723Z</time></trkpt><trkpt lat="45.6575932" lon="10.9024783"><ele>151.6</ele><time>2026-04-18T15:00:47.711Z</time></trkpt><trkpt lat="45.6574947" lon="10.9024432"><ele>148.2</ele><time>2026-04-18T15:00:48.724Z</time></trkpt><trkpt lat="45.6573959" lon="10.9024056"><ele>144.8</ele><time>2026-04-18T15:00:49.71Z</time></trkpt><trkpt lat="45.6572915" lon="10.902364"><ele>141.4</ele><time>2026-04-18T15:00:50.717Z</time></trkpt><trkpt lat="45.6571776" lon="10.9023224"><ele>138.0</ele><time>2026-04-18T15:00:51.71Z</time></trkpt><trkpt lat="45.6570626" lon="10.902281"><ele>138.0</ele><time>2026-04-18T15:00:52.711Z</time></trkpt><trkpt lat="45.656956" lon="10.902243"><ele>138.0</ele><time>2026-04-18T15:00:53.713Z</time></trkpt><trkpt lat="45.6568603" lon="10.902202"><ele>138.0</ele><time>2026-04-18T15:00:54.712Z</time></trkpt><trkpt lat="45.6567671" lon="10.902163"><ele>138.0</ele><time>2026-04-18T15:00:55.719Z</time></trkpt><trkpt lat="45.6566774" lon="10.9021266"><ele>138.0</ele><time>2026-04-18T15:00:56.722Z</time></trkpt><trkpt lat="45.6565887" lon="10.9020901"><ele>139.25</ele><time>2026-04-18T15:00:57.712Z</time></trkpt><trkpt lat="45.6564907" lon="10.9020556"><ele>140.5</ele><time>2026-04-18T15:00:58.714Z</time></trkpt><trkpt lat="45.6563794" lon="10.9020177"><ele>141.75</ele><time>2026-04-18T15:00:59.715Z</time></trkpt><trkpt lat="45.6562503" lon="10.9019675"><ele>143.0</ele><time>2026-04-18T15:01:00.723Z</time></trkpt><trkpt lat="45.6561252" lon="10.9019202"><ele>143.25</ele><time>2026-04-18T15:01:01.712Z</time></trkpt><trkpt lat="45.6560109" lon="10.9018752"><ele>143.5</ele><time>2026-04-18T15:01:02.713Z</time></trkpt><trkpt lat="45.6559019" lon="10.9018344"><ele>143.75</ele><time>2026-04-18T15:01:03.716Z</time></trkpt><trkpt lat="45.6557971" lon="10.901797"><ele>144.0</ele><time>2026-04-18T15:01:04.712Z</time></trkpt><trkpt lat="45.6556833" lon="10.9017526"><ele>143.0</ele><time>2026-04-18T15:01:05.712Z</time></trkpt><trkpt lat="45.6555749" lon="10.9017097"><ele>142.0</ele><time>2026-04-18T15:01:06.725Z</time></trkpt><trkpt lat="45.6554688" lon="10.9016715"><ele>141.0</ele><time>2026-04-18T15:01:07.714Z</time></trkpt><trkpt lat="45.6553641" lon="10.9016375"><ele>140.0</ele><time>2026-04-18T15:01:08.72Z</time></trkpt><trkpt lat="45.6552575" lon="10.9015985"><ele>139.0</ele><time>2026-04-18T15:01:09.713Z</time></trkpt><trkpt lat="45.6551459" lon="10.9015564"><ele>138.6</ele><time>2026-04-18T15:01:10.712Z</time></trkpt><trkpt lat="45.6550336" lon="10.9015161"><ele>138.2</ele><time>2026-04-18T15:01:11.713Z</time></trkpt><trkpt lat="45.6549267" lon="10.9014785"><ele>137.79999999999998</ele><time>2026-04-18T15:01:12.752Z</time></trkpt><trkpt lat="45.6548242" lon="10.9014311"><ele>137.4</ele><time>2026-04-18T15:01:13.715Z</time></trkpt><trkpt lat="45.6547289" lon="10.9013707"><ele>137.0</ele><time>2026-04-18T15:01:14.713Z</time></trkpt><trkpt lat="45.6546519" lon="10.9013022"><ele>137.0</ele><time>2026-04-18T15:01:15.712Z</time></trkpt><trkpt lat="45.6545965" lon="10.9012242"><ele>137.0</ele><time>2026-04-18T15:01:16.713Z</time></trkpt><trkpt lat="45.6545627" lon="10.9011273"><ele>137.0</ele><time>2026-04-18T15:01:17.713Z</time></trkpt><trkpt lat="45.6545578" lon="10.9009949"><ele>137.0</ele><time>2026-04-18T15:01:18.714Z</time></trkpt><trkpt lat="45.6545791" lon="10.9008236"><ele>137.0</ele><time>2026-04-18T15:01:19.715Z</time></trkpt><trkpt lat="45.6546256" lon="10.9006207"><ele>134.33333333333331</ele><time>2026-04-18T15:01:20.724Z</time></trkpt><trkpt lat="45.6546798" lon="10.9003854"><ele>131.66666666666666</ele><time>2026-04-18T15:01:21.712Z</time></trkpt><trkpt lat="45.6547342" lon="10.900159"><ele>129.0</ele><time>2026-04-18T15:01:22.72Z</time></trkpt><trkpt lat="45.6547875" lon="10.8999348"><ele>127.66666666666666</ele><time>2026-04-18T15:01:23.712Z</time></trkpt><trkpt lat="45.6548388" lon="10.899714"><ele>126.33333333333333</ele><time>2026-04-18T15:01:24.723Z</time></trkpt><trkpt lat="45.6548896" lon="10.8995"><ele>125.0</ele><time>2026-04-18T15:01:25.724Z</time></trkpt><trkpt lat="45.6549387" lon="10.8992934"><ele>124.0</ele><time>2026-04-18T15:01:26.718Z</time></trkpt><trkpt lat="45.6549777" lon="10.8990945"><ele>123.0</ele><time>2026-04-18T15:01:27.712Z</time></trkpt><trkpt lat="45.6550271" lon="10.8989221"><ele>122.0</ele><time>2026-04-18T15:01:28.719Z</time></trkpt><trkpt lat="45.6550717" lon="10.8987467"><ele>121.0</ele><time>2026-04-18T15:01:29.718Z</time></trkpt><trkpt lat="45.6551247" lon="10.8985971"><ele>121.0</ele><time>2026-04-18T15:01:30.718Z</time></trkpt><trkpt lat="45.6551899" lon="10.8984516"><ele>121.0</ele><time>2026-04-18T15:01:31.713Z</time></trkpt><trkpt lat="45.6552661" lon="10.8983207"><ele>121.0</ele><time>2026-04-18T15:01:32.715Z</time></trkpt><trkpt lat="45.6553609" lon="10.8982161"><ele>121.0</ele><time>2026-04-18T15:01:33.713Z</time></trkpt><trkpt lat="45.655461" lon="10.8981322"><ele>120.5</ele><time>2026-04-18T15:01:34.713Z</time></trkpt><trkpt lat="45.6555709" lon="10.8980754"><ele>120.0</ele><time>2026-04-18T15:01:35.715Z</time></trkpt><trkpt lat="45.6556874" lon="10.8980438"><ele>119.5</ele><time>2026-04-18T15:01:36.714Z</time></trkpt><trkpt lat="45.655811" lon="10.898042"><ele>119.0</ele><time>2026-04-18T15:01:37.714Z</time></trkpt><trkpt lat="45.6559249" lon="10.8980672"><ele>119.0</ele><time>2026-04-18T15:01:38.714Z</time></trkpt><trkpt lat="45.6560302" lon="10.8980932"><ele>119.0</ele><time>2026-04-18T15:01:39.714Z</time></trkpt><trkpt lat="45.6561267" lon="10.8980965"><ele>119.0</ele><time>2026-04-18T15:01:40.713Z</time></trkpt><trkpt lat="45.6562195" lon="10.8980667"><ele>119.0</ele><time>2026-04-18T15:01:41.716Z</time></trkpt><trkpt lat="45.6562898" lon="10.8979924"><ele>119.0</ele><time>2026-04-18T15:01:42.721Z</time></trkpt><trkpt lat="45.6563412" lon="10.8978804"><ele>119.0</ele><time>2026-04-18T15:01:43.717Z</time></trkpt><trkpt lat="45.6563783" lon="10.8977271"><ele>119.0</ele><time>2026-04-18T15:01:44.719Z</time></trkpt><trkpt lat="45.6564162" lon="10.8975319"><ele>119.0</ele><time>2026-04-18T15:01:45.713Z</time></trkpt><trkpt lat="45.6564484" lon="10.8973065"><ele>119.0</ele><time>2026-04-18T15:01:46.72Z</time></trkpt><trkpt lat="45.6564761" lon="10.8970541"><ele>119.0</ele><time>2026-04-18T15:01:47.717Z</time></trkpt><trkpt lat="45.6565016" lon="10.8968039"><ele>119.0</ele><time>2026-04-18T15:01:48.712Z</time></trkpt><trkpt lat="45.656529" lon="10.8965621"><ele>119.0</ele><time>2026-04-18T15:01:49.715Z</time></trkpt><trkpt lat="45.6565514" lon="10.896314"><ele>118.33333333333333</ele><time>2026-04-18T15:01:50.717Z</time></trkpt><trkpt lat="45.6565735" lon="10.8960659"><ele>117.66666666666666</ele><time>2026-04-18T15:01:51.714Z</time></trkpt><trkpt lat="45.6565965" lon="10.895815"><ele>117.0</ele><time>2026-04-18T15:01:52.712Z</time></trkpt><trkpt lat="45.6566201" lon="10.8955575"><ele>115.66666666666666</ele><time>2026-04-18T15:01:53.712Z</time></trkpt><trkpt lat="45.6566442" lon="10.8953135"><ele>114.33333333333333</ele><time>2026-04-18T15:01:54.722Z</time></trkpt><trkpt lat="45.6566677" lon="10.8950863"><ele>113.0</ele><time>2026-04-18T15:01:55.713Z</time></trkpt><trkpt lat="45.6566856" lon="10.8948711"><ele>113.0</ele><time>2026-04-18T15:01:56.717Z</time></trkpt><trkpt lat="45.6567032" lon="10.8946816"><ele>113.00000000000001</ele><time>2026-04-18T15:01:57.713Z</time></trkpt><trkpt lat="45.6567193" lon="10.8945196"><ele>113.00000000000001</ele><time>2026-04-18T15:01:58.713Z</time></trkpt><trkpt lat="45.6567298" lon="10.8943891"><ele>113.0</ele><time>2026-04-18T15:01:59.709Z</time></trkpt><trkpt lat="45.6567381" lon="10.8942952"><ele>113.0</ele><time>2026-04-18T15:02:00.719Z</time></trkpt><trkpt lat="45.6567438" lon="10.8941878"><ele>114.5</ele><time>2026-04-18T15:02:02.718Z</time></trkpt><trkpt lat="45.6567237" lon="10.8941013"><ele>116.0</ele><time>2026-04-18T15:02:04.712Z</time></trkpt><trkpt lat="45.6565835" lon="10.8940325"><ele>117.5</ele><time>2026-04-18T15:02:06.712Z</time></trkpt><trkpt lat="45.6564663" lon="10.8940026"><ele>119.0</ele><time>2026-04-18T15:02:07.714Z</time></trkpt><trkpt lat="45.6563211" lon="10.8939683"><ele>119.0</ele><time>2026-04-18T15:02:08.711Z</time></trkpt><trkpt lat="45.656167" lon="10.8939305"><ele>119.0</ele><time>2026-04-18T15:02:09.725Z</time></trkpt><trkpt lat="45.65601" lon="10.8938886"><ele>119.0</ele><time>2026-04-18T15:02:10.712Z</time></trkpt><trkpt lat="45.6558429" lon="10.893859"><ele>119.66666666666666</ele><time>2026-04-18T15:02:11.713Z</time></trkpt><trkpt lat="45.6556849" lon="10.893858"><ele>120.33333333333334</ele><time>2026-04-18T15:02:12.713Z</time></trkpt><trkpt lat="45.6555302" lon="10.8938511"><ele>121.0</ele><time>2026-04-18T15:02:13.711Z</time></trkpt><trkpt lat="45.6553896" lon="10.8938359"><ele>120.5</ele><time>2026-04-18T15:02:14.713Z</time></trkpt><trkpt lat="45.6552555" lon="10.8938085"><ele>120.0</ele><time>2026-04-18T15:02:15.713Z</time></trkpt><trkpt lat="45.6551249" lon="10.8937777"><ele>119.5</ele><time>2026-04-18T15:02:16.712Z</time></trkpt><trkpt lat="45.6550029" lon="10.8937356"><ele>119.0</ele><time>2026-04-18T15:02:17.713Z</time></trkpt><trkpt lat="45.6548915" lon="10.8936767"><ele>119.0</ele><time>2026-04-18T15:02:18.713Z</time></trkpt><trkpt lat="45.6547954" lon="10.8935962"><ele>119.0</ele><time>2026-04-18T15:02:19.712Z</time></trkpt><trkpt lat="45.6547078" lon="10.8934723"><ele>119.0</ele><time>2026-04-18T15:02:20.714Z</time></trkpt><trkpt lat="45.6546203" lon="10.8933082"><ele>119.0</ele><time>2026-04-18T15:02:21.713Z</time></trkpt><trkpt lat="45.6545326" lon="10.8931073"><ele>121.0</ele><time>2026-04-18T15:02:22.713Z</time></trkpt><trkpt lat="45.6544542" lon="10.892871"><ele>123.0</ele><time>2026-04-18T15:02:23.712Z</time></trkpt><trkpt lat="45.6543877" lon="10.8926316"><ele>125.0</ele><time>2026-04-18T15:02:24.714Z</time></trkpt><trkpt lat="45.6543268" lon="10.8924077"><ele>125.33333333333333</ele><time>2026-04-18T15:02:25.711Z</time></trkpt><trkpt lat="45.6542577" lon="10.8921885"><ele>125.66666666666666</ele><time>2026-04-18T15:02:26.712Z</time></trkpt><trkpt lat="45.6541772" lon="10.8919967"><ele>126.0</ele><time>2026-04-18T15:02:27.71Z</time></trkpt><trkpt lat="45.6540893" lon="10.8918128"><ele>126.33333333333334</ele><time>2026-04-18T15:02:28.711Z</time></trkpt><trkpt lat="45.6539976" lon="10.8916331"><ele>126.66666666666667</ele><time>2026-04-18T15:02:29.711Z</time></trkpt><trkpt lat="45.6539025" lon="10.8914554"><ele>127.0</ele><time>2026-04-18T15:02:30.711Z</time></trkpt><trkpt lat="45.6537949" lon="10.8912727"><ele>127.0</ele><time>2026-04-18T15:02:31.716Z</time></trkpt><trkpt lat="45.6536886" lon="10.8910802"><ele>127.0</ele><time>2026-04-18T15:02:32.711Z</time></trkpt><trkpt lat="45.6535829" lon="10.8908936"><ele>127.0</ele><time>2026-04-18T15:02:33.71Z</time></trkpt><trkpt lat="45.6534812" lon="10.8906765"><ele>127.0</ele><time>2026-04-18T15:02:34.713Z</time></trkpt><trkpt lat="45.6533926" lon="10.8904182"><ele>127.0</ele><time>2026-04-18T15:02:35.714Z</time></trkpt><trkpt lat="45.6533166" lon="10.8901353"><ele>127.0</ele><time>2026-04-18T15:02:36.712Z</time></trkpt><trkpt lat="45.6532497" lon="10.8898727"><ele>127.66666666666667</ele><time>2026-04-18T15:02:37.712Z</time></trkpt><trkpt lat="45.6531877" lon="10.889629"><ele>128.33333333333334</ele><time>2026-04-18T15:02:38.712Z</time></trkpt><trkpt lat="45.6531298" lon="10.8893987"><ele>129.0</ele><time>2026-04-18T15:02:39.715Z</time></trkpt><trkpt lat="45.6530717" lon="10.8891691"><ele>129.5</ele><time>2026-04-18T15:02:40.713Z</time></trkpt><trkpt lat="45.6530151" lon="10.8889446"><ele>130.0</ele><time>2026-04-18T15:02:41.712Z</time></trkpt><trkpt lat="45.6529629" lon="10.8887382"><ele>130.5</ele><time>2026-04-18T15:02:42.712Z</time></trkpt><trkpt lat="45.6529207" lon="10.8885705"><ele>131.0</ele><time>2026-04-18T15:02:43.725Z</time></trkpt><trkpt lat="45.6528826" lon="10.8884258"><ele>131.25</ele><time>2026-04-18T15:02:44.713Z</time></trkpt><trkpt lat="45.6528375" lon="10.8882958"><ele>131.5</ele><time>2026-04-18T15:02:45.711Z</time></trkpt><trkpt lat="45.6527566" lon="10.888172"><ele>131.75</ele><time>2026-04-18T15:02:46.713Z</time></trkpt><trkpt lat="45.6526305" lon="10.8880516"><ele>132.0</ele><time>2026-04-18T15:02:47.713Z</time></trkpt><trkpt lat="45.6524915" lon="10.887908"><ele>132.0</ele><time>2026-04-18T15:02:48.711Z</time></trkpt><trkpt lat="45.6523472" lon="10.8877418"><ele>132.0</ele><time>2026-04-18T15:02:49.712Z</time></trkpt><trkpt lat="45.6521933" lon="10.8875639"><ele>132.0</ele><time>2026-04-18T15:02:50.736Z</time></trkpt><trkpt lat="45.6520437" lon="10.8873859"><ele>132.33333333333334</ele><time>2026-04-18T15:02:51.712Z</time></trkpt><trkpt lat="45.6518885" lon="10.8871798"><ele>132.66666666666669</ele><time>2026-04-18T15:02:52.712Z</time></trkpt><trkpt lat="45.6517243" lon="10.8869458"><ele>133.0</ele><time>2026-04-18T15:02:53.716Z</time></trkpt><trkpt lat="45.6515537" lon="10.8866934"><ele>133.0</ele><time>2026-04-18T15:02:54.712Z</time></trkpt><trkpt lat="45.651374" lon="10.8864293"><ele>133.0</ele><time>2026-04-18T15:02:55.717Z</time></trkpt><trkpt lat="45.6511845" lon="10.8861529"><ele>131.0</ele><time>2026-04-18T15:02:56.722Z</time></trkpt><trkpt lat="45.6510035" lon="10.8858788"><ele>129.0</ele><time>2026-04-18T15:02:57.711Z</time></trkpt><trkpt lat="45.6508319" lon="10.8856191"><ele>129.0</ele><time>2026-04-18T15:02:58.711Z</time></trkpt><trkpt lat="45.6506652" lon="10.8853748"><ele>129.0</ele><time>2026-04-18T15:02:59.712Z</time></trkpt><trkpt lat="45.6504961" lon="10.8851366"><ele>129.0</ele><time>2026-04-18T15:03:00.716Z</time></trkpt><trkpt lat="45.6503021" lon="10.8849201"><ele>129.0</ele><time>2026-04-18T15:03:01.711Z</time></trkpt><trkpt lat="45.6500877" lon="10.8847147"><ele>129.0</ele><time>2026-04-18T15:03:02.718Z</time></trkpt><trkpt lat="45.6498698" lon="10.8845114"><ele>129.0</ele><time>2026-04-18T15:03:03.715Z</time></trkpt><trkpt lat="45.6496688" lon="10.8843181"><ele>126.0</ele><time>2026-04-18T15:03:04.71Z</time></trkpt><trkpt lat="45.6494742" lon="10.8841313"><ele>123.0</ele><time>2026-04-18T15:03:05.711Z</time></trkpt><trkpt lat="45.6492851" lon="10.8839573"><ele>123.0</ele><time>2026-04-18T15:03:06.71Z</time></trkpt><trkpt lat="45.6490984" lon="10.8837818"><ele>123.0</ele><time>2026-04-18T15:03:07.711Z</time></trkpt><trkpt lat="45.648921" lon="10.883616"><ele>123.0</ele><time>2026-04-18T15:03:08.71Z</time></trkpt><trkpt lat="45.6487477" lon="10.8834533"><ele>123.0</ele><time>2026-04-18T15:03:09.722Z</time></trkpt><trkpt lat="45.6485857" lon="10.8832874"><ele>123.0</ele><time>2026-04-18T15:03:10.71Z</time></trkpt><trkpt lat="45.6484332" lon="10.8831184"><ele>123.0</ele><time>2026-04-18T15:03:11.722Z</time></trkpt><trkpt lat="45.6482823" lon="10.8829364"><ele>123.0</ele><time>2026-04-18T15:03:12.711Z</time></trkpt><trkpt lat="45.6481287" lon="10.8827222"><ele>123.0</ele><time>2026-04-18T15:03:13.711Z</time></trkpt><trkpt lat="45.6479737" lon="10.8824752"><ele>123.0</ele><time>2026-04-18T15:03:14.711Z</time></trkpt><trkpt lat="45.6478231" lon="10.8821951"><ele>120.5</ele><time>2026-04-18T15:03:15.715Z</time></trkpt><trkpt lat="45.6476717" lon="10.8818853"><ele>118.0</ele><time>2026-04-18T15:03:16.711Z</time></trkpt><trkpt lat="45.6475203" lon="10.8815713"><ele>125.0</ele><time>2026-04-18T15:03:17.712Z</time></trkpt><trkpt lat="45.6473792" lon="10.8812758"><ele>132.0</ele><time>2026-04-18T15:03:18.712Z</time></trkpt><trkpt lat="45.6472443" lon="10.8809972"><ele>127.33333333333334</ele><time>2026-04-18T15:03:19.711Z</time></trkpt><trkpt lat="45.6471176" lon="10.8807336"><ele>122.66666666666667</ele><time>2026-04-18T15:03:20.711Z</time></trkpt><trkpt lat="45.6470028" lon="10.8804832"><ele>118.0</ele><time>2026-04-18T15:03:21.714Z</time></trkpt><trkpt lat="45.646891" lon="10.880244"><ele>122.66666666666667</ele><time>2026-04-18T15:03:22.71Z</time></trkpt><trkpt lat="45.6467819" lon="10.8800336"><ele>127.33333333333334</ele><time>2026-04-18T15:03:23.71Z</time></trkpt><trkpt lat="45.6466584" lon="10.8798449"><ele>132.0</ele><time>2026-04-18T15:03:24.711Z</time></trkpt><trkpt lat="45.646516" lon="10.8796875"><ele>132.0</ele><time>2026-04-18T15:03:25.71Z</time></trkpt><trkpt lat="45.6463466" lon="10.8795518"><ele>132.0</ele><time>2026-04-18T15:03:26.711Z</time></trkpt><trkpt lat="45.6461431" lon="10.8794452"><ele>132.0</ele><time>2026-04-18T15:03:27.714Z</time></trkpt><trkpt lat="45.6459197" lon="10.8793529"><ele>130.0</ele><time>2026-04-18T15:03:28.713Z</time></trkpt><trkpt lat="45.6456882" lon="10.8792734"><ele>128.0</ele><time>2026-04-18T15:03:29.712Z</time></trkpt><trkpt lat="45.6454595" lon="10.8791898"><ele>125.0</ele><time>2026-04-18T15:03:30.711Z</time></trkpt><trkpt lat="45.6452337" lon="10.8791091"><ele>122.0</ele><time>2026-04-18T15:03:31.715Z</time></trkpt><trkpt lat="45.6449976" lon="10.8790284"><ele>122.0</ele><time>2026-04-18T15:03:32.712Z</time></trkpt><trkpt lat="45.6447526" lon="10.8789426"><ele>122.0</ele><time>2026-04-18T15:03:33.712Z</time></trkpt><trkpt lat="45.6445123" lon="10.8788589"><ele>119.0</ele><time>2026-04-18T15:03:34.712Z</time></trkpt><trkpt lat="45.6442708" lon="10.8787734"><ele>116.0</ele><time>2026-04-18T15:03:35.712Z</time></trkpt><trkpt lat="45.644023" lon="10.8786899"><ele>116.0</ele><time>2026-04-18T15:03:36.721Z</time></trkpt><trkpt lat="45.6437754" lon="10.8786015"><ele>116.0</ele><time>2026-04-18T15:03:37.723Z</time></trkpt><trkpt lat="45.6435321" lon="10.8785177"><ele>115.0</ele><time>2026-04-18T15:03:38.712Z</time></trkpt><trkpt lat="45.6433042" lon="10.8784411"><ele>114.0</ele><time>2026-04-18T15:03:39.711Z</time></trkpt><trkpt lat="45.6430877" lon="10.8783694"><ele>116.66666666666666</ele><time>2026-04-18T15:03:40.712Z</time></trkpt><trkpt lat="45.6428761" lon="10.8782946"><ele>119.33333333333333</ele><time>2026-04-18T15:03:41.711Z</time></trkpt><trkpt lat="45.6426694" lon="10.8782244"><ele>122.0</ele><time>2026-04-18T15:03:42.711Z</time></trkpt><trkpt lat="45.6424755" lon="10.8781584"><ele>122.0</ele><time>2026-04-18T15:03:43.71Z</time></trkpt><trkpt lat="45.6422891" lon="10.8780955"><ele>122.0</ele><time>2026-04-18T15:03:44.713Z</time></trkpt><trkpt lat="45.6421055" lon="10.8780321"><ele>122.0</ele><time>2026-04-18T15:03:45.713Z</time></trkpt><trkpt lat="45.6419274" lon="10.8779665"><ele>123.0</ele><time>2026-04-18T15:03:46.713Z</time></trkpt><trkpt lat="45.6417504" lon="10.8778989"><ele>124.0</ele><time>2026-04-18T15:03:47.714Z</time></trkpt><trkpt lat="45.6415817" lon="10.8778344"><ele>125.0</ele><time>2026-04-18T15:03:48.711Z</time></trkpt><trkpt lat="45.641424" lon="10.8777685"><ele>125.0</ele><time>2026-04-18T15:03:49.719Z</time></trkpt><trkpt lat="45.6412633" lon="10.8776931"><ele>125.0</ele><time>2026-04-18T15:03:50.718Z</time></trkpt><trkpt lat="45.6410961" lon="10.8776069"><ele>125.0</ele><time>2026-04-18T15:03:51.711Z</time></trkpt><trkpt lat="45.6409205" lon="10.8775039"><ele>126.33333333333333</ele><time>2026-04-18T15:03:52.711Z</time></trkpt><trkpt lat="45.6407351" lon="10.8773799"><ele>127.66666666666666</ele><time>2026-04-18T15:03:53.712Z</time></trkpt><trkpt lat="45.6405432" lon="10.8772276"><ele>129.0</ele><time>2026-04-18T15:03:54.711Z</time></trkpt><trkpt lat="45.640353" lon="10.8770563"><ele>128.66666666666666</ele><time>2026-04-18T15:03:55.724Z</time></trkpt><trkpt lat="45.6401731" lon="10.8768919"><ele>128.33333333333331</ele><time>2026-04-18T15:03:56.721Z</time></trkpt><trkpt lat="45.6400008" lon="10.8767345"><ele>128.0</ele><time>2026-04-18T15:03:57.714Z</time></trkpt><trkpt lat="45.6398385" lon="10.8765835"><ele>128.0</ele><time>2026-04-18T15:03:58.711Z</time></trkpt><trkpt lat="45.6396811" lon="10.8764376"><ele>128.0</ele><time>2026-04-18T15:03:59.711Z</time></trkpt><trkpt lat="45.6395132" lon="10.8762773"><ele>128.0</ele><time>2026-04-18T15:04:00.715Z</time></trkpt><trkpt lat="45.6393366" lon="10.8761018"><ele>128.5</ele><time>2026-04-18T15:04:01.716Z</time></trkpt><trkpt lat="45.6391524" lon="10.8759032"><ele>129.0</ele><time>2026-04-18T15:04:02.713Z</time></trkpt><trkpt lat="45.6389628" lon="10.875675"><ele>129.0</ele><time>2026-04-18T15:04:03.725Z</time></trkpt><trkpt lat="45.6387693" lon="10.8754344"><ele>129.0</ele><time>2026-04-18T15:04:04.714Z</time></trkpt><trkpt lat="45.6385749" lon="10.8751798"><ele>129.5</ele><time>2026-04-18T15:04:05.715Z</time></trkpt><trkpt lat="45.6383714" lon="10.8749324"><ele>130.0</ele><time>2026-04-18T15:04:06.726Z</time></trkpt><trkpt lat="45.6381498" lon="10.8746882"><ele>130.0</ele><time>2026-04-18T15:04:07.715Z</time></trkpt><trkpt lat="45.6379126" lon="10.8744381"><ele>130.0</ele><time>2026-04-18T15:04:08.715Z</time></trkpt><trkpt lat="45.6376642" lon="10.87418"><ele>128.0</ele><time>2026-04-18T15:04:09.712Z</time></trkpt><trkpt lat="45.6374073" lon="10.8739114"><ele>126.0</ele><time>2026-04-18T15:04:10.713Z</time></trkpt><trkpt lat="45.6371616" lon="10.8736543"><ele>126.5</ele><time>2026-04-18T15:04:11.72Z</time></trkpt><trkpt lat="45.6369321" lon="10.8734095"><ele>127.0</ele><time>2026-04-18T15:04:12.713Z</time></trkpt><trkpt lat="45.6367157" lon="10.8731764"><ele>127.0</ele><time>2026-04-18T15:04:13.711Z</time></trkpt><trkpt lat="45.6365085" lon="10.8729563"><ele>127.0</ele><time>2026-04-18T15:04:14.711Z</time></trkpt><trkpt lat="45.6363056" lon="10.8727378"><ele>125.5</ele><time>2026-04-18T15:04:15.711Z</time></trkpt><trkpt lat="45.6361069" lon="10.8725271"><ele>124.0</ele><time>2026-04-18T15:04:16.713Z</time></trkpt><trkpt lat="45.6359163" lon="10.8723278"><ele>124.0</ele><time>2026-04-18T15:04:17.713Z</time></trkpt><trkpt lat="45.6357323" lon="10.8721316"><ele>124.0</ele><time>2026-04-18T15:04:18.718Z</time></trkpt><trkpt lat="45.6355464" lon="10.8719329"><ele>125.5</ele><time>2026-04-18T15:04:19.712Z</time></trkpt><trkpt lat="45.6353598" lon="10.8717339"><ele>127.0</ele><time>2026-04-18T15:04:20.723Z</time></trkpt><trkpt lat="45.6351752" lon="10.8715368"><ele>127.0</ele><time>2026-04-18T15:04:21.712Z</time></trkpt><trkpt lat="45.634992" lon="10.8713467"><ele>127.0</ele><time>2026-04-18T15:04:22.712Z</time></trkpt><trkpt lat="45.6348061" lon="10.8711583"><ele>127.0</ele><time>2026-04-18T15:04:23.715Z</time></trkpt><trkpt lat="45.6346101" lon="10.8709689"><ele>127.0</ele><time>2026-04-18T15:04:24.712Z</time></trkpt><trkpt lat="45.6343955" lon="10.8707765"><ele>126.5</ele><time>2026-04-18T15:04:25.716Z</time></trkpt><trkpt lat="45.6341705" lon="10.8705752"><ele>126.0</ele><time>2026-04-18T15:04:26.74Z</time></trkpt><trkpt lat="45.6339457" lon="10.8703667"><ele>126.0</ele><time>2026-04-18T15:04:27.712Z</time></trkpt><trkpt lat="45.6337279" lon="10.8701723"><ele>126.0</ele><time>2026-04-18T15:04:28.718Z</time></trkpt><trkpt lat="45.6335218" lon="10.8699888"><ele>126.0</ele><time>2026-04-18T15:04:29.716Z</time></trkpt><trkpt lat="45.6333294" lon="10.8698145"><ele>126.0</ele><time>2026-04-18T15:04:30.713Z</time></trkpt><trkpt lat="45.6331456" lon="10.8696513"><ele>126.0</ele><time>2026-04-18T15:04:31.711Z</time></trkpt><trkpt lat="45.6329742" lon="10.8694954"><ele>125.66666666666666</ele><time>2026-04-18T15:04:32.711Z</time></trkpt><trkpt lat="45.6328042" lon="10.8693417"><ele>125.33333333333333</ele><time>2026-04-18T15:04:33.724Z</time></trkpt><trkpt lat="45.6326275" lon="10.8691826"><ele>125.0</ele><time>2026-04-18T15:04:34.718Z</time></trkpt><trkpt lat="45.6324444" lon="10.8690139"><ele>126.0</ele><time>2026-04-18T15:04:35.712Z</time></trkpt><trkpt lat="45.6322576" lon="10.8688203"><ele>127.0</ele><time>2026-04-18T15:04:36.713Z</time></trkpt><trkpt lat="45.6320671" lon="10.868599"><ele>127.0</ele><time>2026-04-18T15:04:37.713Z</time></trkpt><trkpt lat="45.6318747" lon="10.8683672"><ele>127.0</ele><time>2026-04-18T15:04:38.71Z</time></trkpt><trkpt lat="45.6316893" lon="10.8681426"><ele>127.0</ele><time>2026-04-18T15:04:39.712Z</time></trkpt><trkpt lat="45.6315188" lon="10.86793"><ele>127.0</ele><time>2026-04-18T15:04:40.715Z</time></trkpt><trkpt lat="45.6313399" lon="10.8677095"><ele>127.0</ele><time>2026-04-18T15:04:41.718Z</time></trkpt><trkpt lat="45.6311611" lon="10.8674903"><ele>127.0</ele><time>2026-04-18T15:04:42.711Z</time></trkpt><trkpt lat="45.6309928" lon="10.8672834"><ele>127.0</ele><time>2026-04-18T15:04:43.711Z</time></trkpt><trkpt lat="45.6308411" lon="10.8671005"><ele>127.0</ele><time>2026-04-18T15:04:44.711Z</time></trkpt><trkpt lat="45.6306986" lon="10.866929"><ele>127.0</ele><time>2026-04-18T15:04:45.715Z</time></trkpt><trkpt lat="45.6305658" lon="10.866765"><ele>127.0</ele><time>2026-04-18T15:04:46.713Z</time></trkpt><trkpt lat="45.6304373" lon="10.8666119"><ele>127.0</ele><time>2026-04-18T15:04:47.711Z</time></trkpt><trkpt lat="45.6303163" lon="10.8664646"><ele>127.0</ele><time>2026-04-18T15:04:48.713Z</time></trkpt><trkpt lat="45.6302017" lon="10.8663284"><ele>127.0</ele><time>2026-04-18T15:04:49.712Z</time></trkpt><trkpt lat="45.6300833" lon="10.866203"><ele>127.0</ele><time>2026-04-18T15:04:50.711Z</time></trkpt><trkpt lat="45.62996" lon="10.8660869"><ele>127.0</ele><time>2026-04-18T15:04:51.713Z</time></trkpt><trkpt lat="45.6298386" lon="10.8659852"><ele>127.0</ele><time>2026-04-18T15:04:52.711Z</time></trkpt><trkpt lat="45.6297106" lon="10.8658939"><ele>127.25</ele><time>2026-04-18T15:04:53.711Z</time></trkpt><trkpt lat="45.6295859" lon="10.8658084"><ele>127.5</ele><time>2026-04-18T15:04:54.712Z</time></trkpt><trkpt lat="45.6294636" lon="10.8657328"><ele>127.75</ele><time>2026-04-18T15:04:55.711Z</time></trkpt><trkpt lat="45.6293479" lon="10.8656692"><ele>128.0</ele><time>2026-04-18T15:04:56.712Z</time></trkpt><trkpt lat="45.6292373" lon="10.8656074"><ele>128.0</ele><time>2026-04-18T15:04:57.711Z</time></trkpt><trkpt lat="45.6291317" lon="10.8655441"><ele>128.0</ele><time>2026-04-18T15:04:58.715Z</time></trkpt><trkpt lat="45.6290263" lon="10.865474"><ele>128.0</ele><time>2026-04-18T15:04:59.718Z</time></trkpt><trkpt lat="45.6289198" lon="10.8653938"><ele>128.0</ele><time>2026-04-18T15:05:00.712Z</time></trkpt><trkpt lat="45.6288093" lon="10.8653023"><ele>128.0</ele><time>2026-04-18T15:05:01.713Z</time></trkpt><trkpt lat="45.6286938" lon="10.8652095"><ele>128.0</ele><time>2026-04-18T15:05:02.711Z</time></trkpt><trkpt lat="45.6285761" lon="10.8651122"><ele>128.0</ele><time>2026-04-18T15:05:03.711Z</time></trkpt><trkpt lat="45.6284586" lon="10.8650075"><ele>128.0</ele><time>2026-04-18T15:05:04.712Z</time></trkpt><trkpt lat="45.6283374" lon="10.8648993"><ele>128.25</ele><time>2026-04-18T15:05:05.723Z</time></trkpt><trkpt lat="45.6282182" lon="10.8647898"><ele>128.5</ele><time>2026-04-18T15:05:06.721Z</time></trkpt><trkpt lat="45.6281027" lon="10.8646825"><ele>128.75</ele><time>2026-04-18T15:05:07.712Z</time></trkpt><trkpt lat="45.6279907" lon="10.8645704"><ele>129.0</ele><time>2026-04-18T15:05:08.72Z</time></trkpt><trkpt lat="45.6278764" lon="10.8644591"><ele>128.75</ele><time>2026-04-18T15:05:09.716Z</time></trkpt><trkpt lat="45.6277615" lon="10.8643547"><ele>128.5</ele><time>2026-04-18T15:05:10.713Z</time></trkpt><trkpt lat="45.6276444" lon="10.8642567"><ele>128.25</ele><time>2026-04-18T15:05:11.712Z</time></trkpt><trkpt lat="45.6275271" lon="10.864159"><ele>128.0</ele><time>2026-04-18T15:05:12.72Z</time></trkpt><trkpt lat="45.6274082" lon="10.8640707"><ele>128.0</ele><time>2026-04-18T15:05:13.717Z</time></trkpt><trkpt lat="45.6272894" lon="10.8639859"><ele>128.0</ele><time>2026-04-18T15:05:14.716Z</time></trkpt><trkpt lat="45.6271714" lon="10.8639064"><ele>128.0</ele><time>2026-04-18T15:05:15.722Z</time></trkpt><trkpt lat="45.6270539" lon="10.8638282"><ele>128.0</ele><time>2026-04-18T15:05:16.724Z</time></trkpt><trkpt lat="45.6269371" lon="10.8637546"><ele>127.5</ele><time>2026-04-18T15:05:17.711Z</time></trkpt><trkpt lat="45.6268105" lon="10.8636842"><ele>127.0</ele><time>2026-04-18T15:05:18.711Z</time></trkpt><trkpt lat="45.6266795" lon="10.8636123"><ele>126.5</ele><time>2026-04-18T15:05:19.712Z</time></trkpt><trkpt lat="45.626541" lon="10.8635397"><ele>126.0</ele><time>2026-04-18T15:05:20.711Z</time></trkpt><trkpt lat="45.6263908" lon="10.8634693"><ele>127.0</ele><time>2026-04-18T15:05:21.717Z</time></trkpt><trkpt lat="45.6262363" lon="10.8634044"><ele>128.0</ele><time>2026-04-18T15:05:22.719Z</time></trkpt><trkpt lat="45.6260797" lon="10.8633478"><ele>129.0</ele><time>2026-04-18T15:05:23.724Z</time></trkpt><trkpt lat="45.6259317" lon="10.8632902"><ele>129.0</ele><time>2026-04-18T15:05:24.712Z</time></trkpt><trkpt lat="45.6257868" lon="10.8632343"><ele>129.0</ele><time>2026-04-18T15:05:25.711Z</time></trkpt><trkpt lat="45.6256492" lon="10.8631815"><ele>129.0</ele><time>2026-04-18T15:05:26.713Z</time></trkpt><trkpt lat="45.625519" lon="10.8631244"><ele>129.0</ele><time>2026-04-18T15:05:27.712Z</time></trkpt><trkpt lat="45.6253938" lon="10.8630486"><ele>129.0</ele><time>2026-04-18T15:05:28.713Z</time></trkpt><trkpt lat="45.6252751" lon="10.8629535"><ele>129.0</ele><time>2026-04-18T15:05:29.712Z</time></trkpt><trkpt lat="45.6251569" lon="10.862829"><ele>129.0</ele><time>2026-04-18T15:05:30.712Z</time></trkpt><trkpt lat="45.6250541" lon="10.862669"><ele>129.0</ele><time>2026-04-18T15:05:31.709Z</time></trkpt><trkpt lat="45.6249631" lon="10.8624871"><ele>129.0</ele><time>2026-04-18T15:05:32.72Z</time></trkpt><trkpt lat="45.6248872" lon="10.8623009"><ele>129.0</ele><time>2026-04-18T15:05:33.713Z</time></trkpt><trkpt lat="45.6248213" lon="10.8621234"><ele>129.0</ele><time>2026-04-18T15:05:34.711Z</time></trkpt><trkpt lat="45.6247583" lon="10.8619519"><ele>129.0</ele><time>2026-04-18T15:05:35.712Z</time></trkpt><trkpt lat="45.6246956" lon="10.8617879"><ele>129.0</ele><time>2026-04-18T15:05:36.712Z</time></trkpt><trkpt lat="45.6246336" lon="10.8616297"><ele>129.0</ele><time>2026-04-18T15:05:37.721Z</time></trkpt><trkpt lat="45.6245765" lon="10.8614781"><ele>129.0</ele><time>2026-04-18T15:05:38.713Z</time></trkpt><trkpt lat="45.6245254" lon="10.8613279"><ele>129.0</ele><time>2026-04-18T15:05:39.71Z</time></trkpt><trkpt lat="45.6244705" lon="10.8611723"><ele>128.75</ele><time>2026-04-18T15:05:40.711Z</time></trkpt><trkpt lat="45.6244083" lon="10.8610029"><ele>128.5</ele><time>2026-04-18T15:05:41.712Z</time></trkpt><trkpt lat="45.6243538" lon="10.8608272"><ele>128.25</ele><time>2026-04-18T15:05:42.71Z</time></trkpt><trkpt lat="45.6243086" lon="10.8606533"><ele>128.0</ele><time>2026-04-18T15:05:43.712Z</time></trkpt><trkpt lat="45.6242676" lon="10.8604764"><ele>128.5</ele><time>2026-04-18T15:05:44.714Z</time></trkpt><trkpt lat="45.6242267" lon="10.8602834"><ele>129.0</ele><time>2026-04-18T15:05:45.711Z</time></trkpt><trkpt lat="45.6241832" lon="10.8600875"><ele>129.5</ele><time>2026-04-18T15:05:46.723Z</time></trkpt><trkpt lat="45.6241397" lon="10.8598979"><ele>130.0</ele><time>2026-04-18T15:05:47.713Z</time></trkpt><trkpt lat="45.6240972" lon="10.859713"><ele>130.0</ele><time>2026-04-18T15:05:48.711Z</time></trkpt><trkpt lat="45.6240614" lon="10.8595267"><ele>130.0</ele><time>2026-04-18T15:05:49.712Z</time></trkpt><trkpt lat="45.6240243" lon="10.8593433"><ele>130.0</ele><time>2026-04-18T15:05:50.719Z</time></trkpt><trkpt lat="45.6239873" lon="10.8591633"><ele>130.0</ele><time>2026-04-18T15:05:51.711Z</time></trkpt><trkpt lat="45.6239514" lon="10.8589841"><ele>130.0</ele><time>2026-04-18T15:05:52.712Z</time></trkpt><trkpt lat="45.6239068" lon="10.8588014"><ele>130.0</ele><time>2026-04-18T15:05:53.72Z</time></trkpt><trkpt lat="45.6238475" lon="10.8586131"><ele>130.0</ele><time>2026-04-18T15:05:54.711Z</time></trkpt><trkpt lat="45.6237603" lon="10.8584064"><ele>130.0</ele><time>2026-04-18T15:05:55.713Z</time></trkpt><trkpt lat="45.6236445" lon="10.8581925"><ele>126.66666666666667</ele><time>2026-04-18T15:05:56.709Z</time></trkpt><trkpt lat="45.6235126" lon="10.8579459"><ele>123.33333333333334</ele><time>2026-04-18T15:05:57.714Z</time></trkpt><trkpt lat="45.6233775" lon="10.8576761"><ele>120.0</ele><time>2026-04-18T15:05:58.714Z</time></trkpt><trkpt lat="45.6232484" lon="10.8573958"><ele>120.0</ele><time>2026-04-18T15:05:59.727Z</time></trkpt><trkpt lat="45.6231219" lon="10.8571165"><ele>120.0</ele><time>2026-04-18T15:06:00.718Z</time></trkpt><trkpt lat="45.6229884" lon="10.8568434"><ele>116.5</ele><time>2026-04-18T15:06:01.713Z</time></trkpt><trkpt lat="45.6228518" lon="10.8565718"><ele>113.0</ele><time>2026-04-18T15:06:02.713Z</time></trkpt><trkpt lat="45.6227115" lon="10.8562991"><ele>113.0</ele><time>2026-04-18T15:06:03.71Z</time></trkpt><trkpt lat="45.6225773" lon="10.8560262"><ele>113.0</ele><time>2026-04-18T15:06:04.709Z</time></trkpt><trkpt lat="45.6224521" lon="10.8557665"><ele>115.33333333333333</ele><time>2026-04-18T15:06:05.721Z</time></trkpt><trkpt lat="45.6223335" lon="10.8555149"><ele>117.66666666666666</ele><time>2026-04-18T15:06:06.716Z</time></trkpt><trkpt lat="45.6222124" lon="10.8552769"><ele>120.0</ele><time>2026-04-18T15:06:07.71Z</time></trkpt><trkpt lat="45.622066" lon="10.8550541"><ele>117.0</ele><time>2026-04-18T15:06:08.709Z</time></trkpt><trkpt lat="45.6218949" lon="10.8548489"><ele>114.0</ele><time>2026-04-18T15:06:09.716Z</time></trkpt><trkpt lat="45.6217239" lon="10.8546672"><ele>111.0</ele><time>2026-04-18T15:06:10.714Z</time></trkpt><trkpt lat="45.6215637" lon="10.8544928"><ele>111.0</ele><time>2026-04-18T15:06:11.715Z</time></trkpt><trkpt lat="45.621411" lon="10.8543195"><ele>111.0</ele><time>2026-04-18T15:06:12.714Z</time></trkpt><trkpt lat="45.6212523" lon="10.8541432"><ele>111.0</ele><time>2026-04-18T15:06:13.713Z</time></trkpt><trkpt lat="45.6210678" lon="10.8539805"><ele>109.0</ele><time>2026-04-18T15:06:14.711Z</time></trkpt><trkpt lat="45.6208637" lon="10.8538293"><ele>107.0</ele><time>2026-04-18T15:06:15.712Z</time></trkpt><trkpt lat="45.6206399" lon="10.8536875"><ele>107.0</ele><time>2026-04-18T15:06:16.71Z</time></trkpt><trkpt lat="45.6204097" lon="10.8535521"><ele>107.0</ele><time>2026-04-18T15:06:17.712Z</time></trkpt><trkpt lat="45.6201897" lon="10.8534236"><ele>108.66666666666666</ele><time>2026-04-18T15:06:18.711Z</time></trkpt><trkpt lat="45.6199827" lon="10.8533021"><ele>110.33333333333334</ele><time>2026-04-18T15:06:19.713Z</time></trkpt><trkpt lat="45.6197801" lon="10.8531914"><ele>112.0</ele><time>2026-04-18T15:06:20.796Z</time></trkpt><trkpt lat="45.6195873" lon="10.8530741"><ele>108.66666666666667</ele><time>2026-04-18T15:06:21.714Z</time></trkpt><trkpt lat="45.6194048" lon="10.8529613"><ele>105.33333333333334</ele><time>2026-04-18T15:06:22.717Z</time></trkpt><trkpt lat="45.6192299" lon="10.8528563"><ele>102.0</ele><time>2026-04-18T15:06:23.712Z</time></trkpt><trkpt lat="45.6190439" lon="10.8527689"><ele>102.0</ele><time>2026-04-18T15:06:24.71Z</time></trkpt><trkpt lat="45.6188566" lon="10.852709"><ele>102.0</ele><time>2026-04-18T15:06:25.715Z</time></trkpt><trkpt lat="45.6186695" lon="10.8526729"><ele>102.0</ele><time>2026-04-18T15:06:26.715Z</time></trkpt><trkpt lat="45.6184937" lon="10.8526463"><ele>108.33333333333334</ele><time>2026-04-18T15:06:27.72Z</time></trkpt><trkpt lat="45.6183274" lon="10.8526105"><ele>114.66666666666667</ele><time>2026-04-18T15:06:28.722Z</time></trkpt><trkpt lat="45.6181699" lon="10.852573"><ele>121.0</ele><time>2026-04-18T15:06:29.721Z</time></trkpt><trkpt lat="45.6180188" lon="10.8525319"><ele>121.0</ele><time>2026-04-18T15:06:30.711Z</time></trkpt><trkpt lat="45.6178715" lon="10.8524852"><ele>121.0</ele><time>2026-04-18T15:06:31.711Z</time></trkpt><trkpt lat="45.6177291" lon="10.8524466"><ele>121.0</ele><time>2026-04-18T15:06:32.711Z</time></trkpt><trkpt lat="45.6175829" lon="10.8524087"><ele>121.0</ele><time>2026-04-18T15:06:33.722Z</time></trkpt><trkpt lat="45.6174332" lon="10.8523701"><ele>116.33333333333334</ele><time>2026-04-18T15:06:34.713Z</time></trkpt><trkpt lat="45.6172797" lon="10.8523278"><ele>111.66666666666666</ele><time>2026-04-18T15:06:35.714Z</time></trkpt><trkpt lat="45.617123" lon="10.8522853"><ele>107.0</ele><time>2026-04-18T15:06:36.721Z</time></trkpt><trkpt lat="45.6169669" lon="10.8522459"><ele>106.0</ele><time>2026-04-18T15:06:37.715Z</time></trkpt><trkpt lat="45.6168073" lon="10.8522106"><ele>105.0</ele><time>2026-04-18T15:06:38.712Z</time></trkpt><trkpt lat="45.6166448" lon="10.8521877"><ele>104.0</ele><time>2026-04-18T15:06:39.711Z</time></trkpt><trkpt lat="45.6164843" lon="10.8521719"><ele>104.0</ele><time>2026-04-18T15:06:40.711Z</time></trkpt><trkpt lat="45.6163357" lon="10.8521558"><ele>104.0</ele><time>2026-04-18T15:06:41.71Z</time></trkpt><trkpt lat="45.61619" lon="10.8521407"><ele>104.0</ele><time>2026-04-18T15:06:42.712Z</time></trkpt><trkpt lat="45.6160467" lon="10.8521228"><ele>104.0</ele><time>2026-04-18T15:06:43.728Z</time></trkpt><trkpt lat="45.6159014" lon="10.8521046"><ele>104.0</ele><time>2026-04-18T15:06:44.713Z</time></trkpt><trkpt lat="45.6155984" lon="10.8520444"><ele>104.0</ele><time>2026-04-18T15:06:46.71Z</time></trkpt><trkpt lat="45.6154408" lon="10.8520119"><ele>104.33333333333333</ele><time>2026-04-18T15:06:47.713Z</time></trkpt><trkpt lat="45.615288" lon="10.8519798"><ele>104.66666666666666</ele><time>2026-04-18T15:06:48.714Z</time></trkpt><trkpt lat="45.6151287" lon="10.8519401"><ele>105.0</ele><time>2026-04-18T15:06:49.724Z</time></trkpt><trkpt lat="45.6149789" lon="10.8518951"><ele>105.0</ele><time>2026-04-18T15:06:50.711Z</time></trkpt><trkpt lat="45.6148327" lon="10.8518582"><ele>105.0</ele><time>2026-04-18T15:06:51.71Z</time></trkpt><trkpt lat="45.6146892" lon="10.8518261"><ele>105.0</ele><time>2026-04-18T15:06:52.711Z</time></trkpt><trkpt lat="45.6145487" lon="10.8518055"><ele>105.0</ele><time>2026-04-18T15:06:53.709Z</time></trkpt><trkpt lat="45.6144047" lon="10.8517957"><ele>106.25</ele><time>2026-04-18T15:06:54.723Z</time></trkpt><trkpt lat="45.614261" lon="10.8517843"><ele>107.5</ele><time>2026-04-18T15:06:55.71Z</time></trkpt><trkpt lat="45.614123" lon="10.8517659"><ele>108.75</ele><time>2026-04-18T15:06:56.711Z</time></trkpt><trkpt lat="45.6139951" lon="10.8517395"><ele>110.0</ele><time>2026-04-18T15:06:57.713Z</time></trkpt><trkpt lat="45.6138668" lon="10.8517279"><ele>110.0</ele><time>2026-04-18T15:06:58.722Z</time></trkpt><trkpt lat="45.6137256" lon="10.8517494"><ele>110.0</ele><time>2026-04-18T15:06:59.721Z</time></trkpt><trkpt lat="45.6135786" lon="10.8517968"><ele>110.0</ele><time>2026-04-18T15:07:00.713Z</time></trkpt><trkpt lat="45.6134285" lon="10.8518625"><ele>107.33333333333333</ele><time>2026-04-18T15:07:01.72Z</time></trkpt><trkpt lat="45.6132561" lon="10.8519547"><ele>104.66666666666666</ele><time>2026-04-18T15:07:02.713Z</time></trkpt><trkpt lat="45.6130614" lon="10.8520396"><ele>102.0</ele><time>2026-04-18T15:07:03.712Z</time></trkpt><trkpt lat="45.6128503" lon="10.8521102"><ele>103.33333333333334</ele><time>2026-04-18T15:07:04.719Z</time></trkpt><trkpt lat="45.6126522" lon="10.8521898"><ele>104.66666666666667</ele><time>2026-04-18T15:07:05.712Z</time></trkpt><trkpt lat="45.6124648" lon="10.8522723"><ele>106.0</ele><time>2026-04-18T15:07:06.716Z</time></trkpt><trkpt lat="45.6122897" lon="10.8523496"><ele>106.0</ele><time>2026-04-18T15:07:07.711Z</time></trkpt><trkpt lat="45.6121271" lon="10.8524238"><ele>106.0</ele><time>2026-04-18T15:07:08.722Z</time></trkpt><trkpt lat="45.61197" lon="10.8524977"><ele>106.0</ele><time>2026-04-18T15:07:09.712Z</time></trkpt><trkpt lat="45.6118269" lon="10.8525397"><ele>106.66666666666667</ele><time>2026-04-18T15:07:10.712Z</time></trkpt><trkpt lat="45.6116764" lon="10.8525521"><ele>107.33333333333334</ele><time>2026-04-18T15:07:11.724Z</time></trkpt><trkpt lat="45.6115088" lon="10.8525299"><ele>108.0</ele><time>2026-04-18T15:07:12.711Z</time></trkpt><trkpt lat="45.6113295" lon="10.8524595"><ele>108.66666666666666</ele><time>2026-04-18T15:07:13.719Z</time></trkpt><trkpt lat="45.6111444" lon="10.8523351"><ele>109.33333333333333</ele><time>2026-04-18T15:07:14.711Z</time></trkpt><trkpt lat="45.6109542" lon="10.8521973"><ele>110.0</ele><time>2026-04-18T15:07:15.713Z</time></trkpt><trkpt lat="45.610769" lon="10.8520593"><ele>110.0</ele><time>2026-04-18T15:07:16.72Z</time></trkpt><trkpt lat="45.6105705" lon="10.8519176"><ele>110.0</ele><time>2026-04-18T15:07:17.712Z</time></trkpt><trkpt lat="45.6103618" lon="10.8517627"><ele>111.0</ele><time>2026-04-18T15:07:18.712Z</time></trkpt><trkpt lat="45.6101631" lon="10.8516119"><ele>112.0</ele><time>2026-04-18T15:07:19.711Z</time></trkpt><trkpt lat="45.6099621" lon="10.8514603"><ele>112.0</ele><time>2026-04-18T15:07:20.72Z</time></trkpt><trkpt lat="45.6097455" lon="10.8513114"><ele>112.0</ele><time>2026-04-18T15:07:21.724Z</time></trkpt><trkpt lat="45.6095101" lon="10.851172"><ele>112.5</ele><time>2026-04-18T15:07:22.716Z</time></trkpt><trkpt lat="45.6092532" lon="10.8510456"><ele>113.0</ele><time>2026-04-18T15:07:23.717Z</time></trkpt><trkpt lat="45.6089876" lon="10.8509183"><ele>112.5</ele><time>2026-04-18T15:07:24.712Z</time></trkpt><trkpt lat="45.6087296" lon="10.8507961"><ele>112.0</ele><time>2026-04-18T15:07:25.72Z</time></trkpt><trkpt lat="45.6084876" lon="10.850685"><ele>112.0</ele><time>2026-04-18T15:07:26.714Z</time></trkpt><trkpt lat="45.608258" lon="10.8505831"><ele>112.0</ele><time>2026-04-18T15:07:27.721Z</time></trkpt><trkpt lat="45.6080465" lon="10.8504859"><ele>112.0</ele><time>2026-04-18T15:07:28.715Z</time></trkpt><trkpt lat="45.607846" lon="10.850393"><ele>112.0</ele><time>2026-04-18T15:07:29.712Z</time></trkpt><trkpt lat="45.607654" lon="10.8503063"><ele>112.0</ele><time>2026-04-18T15:07:30.719Z</time></trkpt><trkpt lat="45.607452" lon="10.8502134"><ele>114.5</ele><time>2026-04-18T15:07:31.723Z</time></trkpt><trkpt lat="45.6072375" lon="10.8500931"><ele>117.0</ele><time>2026-04-18T15:07:32.716Z</time></trkpt><trkpt lat="45.6070169" lon="10.8499428"><ele>115.5</ele><time>2026-04-18T15:07:33.723Z</time></trkpt><trkpt lat="45.6067913" lon="10.8497668"><ele>114.0</ele><time>2026-04-18T15:07:34.713Z</time></trkpt><trkpt lat="45.6065633" lon="10.8495699"><ele>114.0</ele><time>2026-04-18T15:07:35.713Z</time></trkpt><trkpt lat="45.6063327" lon="10.8493649"><ele>114.0</ele><time>2026-04-18T15:07:36.713Z</time></trkpt><trkpt lat="45.6060996" lon="10.8491625"><ele>114.0</ele><time>2026-04-18T15:07:37.713Z</time></trkpt><trkpt lat="45.6058808" lon="10.8489728"><ele>114.0</ele><time>2026-04-18T15:07:38.714Z</time></trkpt><trkpt lat="45.6056621" lon="10.8487829"><ele>114.0</ele><time>2026-04-18T15:07:39.71Z</time></trkpt><trkpt lat="45.6054384" lon="10.8485858"><ele>114.0</ele><time>2026-04-18T15:07:40.72Z</time></trkpt><trkpt lat="45.605213" lon="10.8483873"><ele>115.0</ele><time>2026-04-18T15:07:41.714Z</time></trkpt><trkpt lat="45.6049858" lon="10.8481874"><ele>116.0</ele><time>2026-04-18T15:07:42.709Z</time></trkpt><trkpt lat="45.6047584" lon="10.8479875"><ele>116.0</ele><time>2026-04-18T15:07:43.711Z</time></trkpt><trkpt lat="45.6045295" lon="10.8477823"><ele>116.0</ele><time>2026-04-18T15:07:44.71Z</time></trkpt><trkpt lat="45.6043015" lon="10.8475814"><ele>116.5</ele><time>2026-04-18T15:07:45.716Z</time></trkpt><trkpt lat="45.6040717" lon="10.8473823"><ele>117.0</ele><time>2026-04-18T15:07:46.718Z</time></trkpt><trkpt lat="45.6038418" lon="10.8471814"><ele>116.5</ele><time>2026-04-18T15:07:47.724Z</time></trkpt><trkpt lat="45.6036144" lon="10.8469784"><ele>116.0</ele><time>2026-04-18T15:07:48.718Z</time></trkpt><trkpt lat="45.6033877" lon="10.8467736"><ele>116.0</ele><time>2026-04-18T15:07:49.712Z</time></trkpt><trkpt lat="45.6031598" lon="10.8465712"><ele>116.0</ele><time>2026-04-18T15:07:50.711Z</time></trkpt><trkpt lat="45.6029285" lon="10.8463723"><ele>117.0</ele><time>2026-04-18T15:07:51.723Z</time></trkpt><trkpt lat="45.6026992" lon="10.8461793"><ele>118.0</ele><time>2026-04-18T15:07:52.712Z</time></trkpt><trkpt lat="45.6024671" lon="10.845993"><ele>121.5</ele><time>2026-04-18T15:07:53.711Z</time></trkpt><trkpt lat="45.6022458" lon="10.845816"><ele>125.0</ele><time>2026-04-18T15:07:54.712Z</time></trkpt><trkpt lat="45.6020295" lon="10.8456457"><ele>122.0</ele><time>2026-04-18T15:07:55.713Z</time></trkpt><trkpt lat="45.6018237" lon="10.8454798"><ele>119.0</ele><time>2026-04-18T15:07:56.727Z</time></trkpt><trkpt lat="45.6016141" lon="10.8453163"><ele>119.0</ele><time>2026-04-18T15:07:57.715Z</time></trkpt><trkpt lat="45.6013981" lon="10.8451509"><ele>119.0</ele><time>2026-04-18T15:07:58.714Z</time></trkpt><trkpt lat="45.6011817" lon="10.8449718"><ele>118.5</ele><time>2026-04-18T15:07:59.721Z</time></trkpt><trkpt lat="45.6009867" lon="10.8447912"><ele>118.0</ele><time>2026-04-18T15:08:00.725Z</time></trkpt><trkpt lat="45.6008056" lon="10.844612"><ele>118.0</ele><time>2026-04-18T15:08:01.71Z</time></trkpt><trkpt lat="45.6006213" lon="10.8444359"><ele>118.0</ele><time>2026-04-18T15:08:02.713Z</time></trkpt><trkpt lat="45.6004242" lon="10.8442739"><ele>118.0</ele><time>2026-04-18T15:08:03.713Z</time></trkpt><trkpt lat="45.6002194" lon="10.8441282"><ele>119.33333333333334</ele><time>2026-04-18T15:08:04.713Z</time></trkpt><trkpt lat="45.6000259" lon="10.8439971"><ele>120.66666666666666</ele><time>2026-04-18T15:08:05.714Z</time></trkpt><trkpt lat="45.5998397" lon="10.843876"><ele>122.0</ele><time>2026-04-18T15:08:06.71Z</time></trkpt><trkpt lat="45.5996649" lon="10.8437575"><ele>122.0</ele><time>2026-04-18T15:08:07.713Z</time></trkpt><trkpt lat="45.5995025" lon="10.8436395"><ele>122.0</ele><time>2026-04-18T15:08:08.716Z</time></trkpt><trkpt lat="45.5993521" lon="10.8435304"><ele>122.0</ele><time>2026-04-18T15:08:09.714Z</time></trkpt><trkpt lat="45.5992101" lon="10.8434259"><ele>122.66666666666666</ele><time>2026-04-18T15:08:10.729Z</time></trkpt><trkpt lat="45.5990753" lon="10.843327"><ele>123.33333333333334</ele><time>2026-04-18T15:08:11.718Z</time></trkpt><trkpt lat="45.5989401" lon="10.8432359"><ele>124.0</ele><time>2026-04-18T15:08:12.715Z</time></trkpt><trkpt lat="45.5988023" lon="10.8431402"><ele>123.0</ele><time>2026-04-18T15:08:13.716Z</time></trkpt><trkpt lat="45.5986588" lon="10.843042"><ele>122.0</ele><time>2026-04-18T15:08:14.71Z</time></trkpt><trkpt lat="45.5985144" lon="10.8429439"><ele>121.0</ele><time>2026-04-18T15:08:15.712Z</time></trkpt><trkpt lat="45.5983687" lon="10.8428439"><ele>121.0</ele><time>2026-04-18T15:08:16.717Z</time></trkpt><trkpt lat="45.5982187" lon="10.8427388"><ele>121.0</ele><time>2026-04-18T15:08:17.719Z</time></trkpt><trkpt lat="45.5980728" lon="10.8426291"><ele>121.0</ele><time>2026-04-18T15:08:18.711Z</time></trkpt><trkpt lat="45.5979281" lon="10.8425056"><ele>122.0</ele><time>2026-04-18T15:08:19.724Z</time></trkpt><trkpt lat="45.5977925" lon="10.842366"><ele>123.0</ele><time>2026-04-18T15:08:20.801Z</time></trkpt><trkpt lat="45.597655" lon="10.8421964"><ele>124.0</ele><time>2026-04-18T15:08:21.723Z</time></trkpt><trkpt lat="45.5975174" lon="10.8419919"><ele>125.0</ele><time>2026-04-18T15:08:22.722Z</time></trkpt><trkpt lat="45.5973836" lon="10.8417726"><ele>126.0</ele><time>2026-04-18T15:08:23.712Z</time></trkpt><trkpt lat="45.5972537" lon="10.8415629"><ele>127.0</ele><time>2026-04-18T15:08:24.718Z</time></trkpt><trkpt lat="45.5971349" lon="10.8413606"><ele>127.0</ele><time>2026-04-18T15:08:25.719Z</time></trkpt><trkpt lat="45.5970191" lon="10.8411666"><ele>127.0</ele><time>2026-04-18T15:08:26.711Z</time></trkpt><trkpt lat="45.5968996" lon="10.8409745"><ele>127.0</ele><time>2026-04-18T15:08:27.71Z</time></trkpt><trkpt lat="45.5967632" lon="10.8407854"><ele>127.0</ele><time>2026-04-18T15:08:28.724Z</time></trkpt><trkpt lat="45.5966053" lon="10.8406094"><ele>127.0</ele><time>2026-04-18T15:08:29.719Z</time></trkpt><trkpt lat="45.5964306" lon="10.8404429"><ele>127.0</ele><time>2026-04-18T15:08:30.711Z</time></trkpt><trkpt lat="45.5962423" lon="10.8402766"><ele>127.5</ele><time>2026-04-18T15:08:31.713Z</time></trkpt><trkpt lat="45.5960436" lon="10.8401083"><ele>128.0</ele><time>2026-04-18T15:08:32.712Z</time></trkpt><trkpt lat="45.5958447" lon="10.8399453"><ele>128.0</ele><time>2026-04-18T15:08:33.715Z</time></trkpt><trkpt lat="45.5956482" lon="10.8397788"><ele>128.0</ele><time>2026-04-18T15:08:34.711Z</time></trkpt><trkpt lat="45.5954435" lon="10.8396203"><ele>128.0</ele><time>2026-04-18T15:08:35.712Z</time></trkpt><trkpt lat="45.595233" lon="10.8394726"><ele>128.0</ele><time>2026-04-18T15:08:36.711Z</time></trkpt><trkpt lat="45.5950233" lon="10.8393312"><ele>127.5</ele><time>2026-04-18T15:08:37.709Z</time></trkpt><trkpt lat="45.5948104" lon="10.8391929"><ele>127.0</ele><time>2026-04-18T15:08:38.709Z</time></trkpt><trkpt lat="45.5945992" lon="10.8390606"><ele>128.0</ele><time>2026-04-18T15:08:39.71Z</time></trkpt><trkpt lat="45.5943867" lon="10.8389287"><ele>129.0</ele><time>2026-04-18T15:08:40.711Z</time></trkpt><trkpt lat="45.5941704" lon="10.8387952"><ele>129.0</ele><time>2026-04-18T15:08:41.71Z</time></trkpt><trkpt lat="45.5939647" lon="10.8386677"><ele>129.0</ele><time>2026-04-18T15:08:42.709Z</time></trkpt><trkpt lat="45.5937693" lon="10.8385469"><ele>129.0</ele><time>2026-04-18T15:08:43.71Z</time></trkpt><trkpt lat="45.5935812" lon="10.8384295"><ele>128.0</ele><time>2026-04-18T15:08:44.71Z</time></trkpt><trkpt lat="45.593395" lon="10.8383156"><ele>127.0</ele><time>2026-04-18T15:08:45.71Z</time></trkpt><trkpt lat="45.5932082" lon="10.8382027"><ele>126.0</ele><time>2026-04-18T15:08:46.714Z</time></trkpt><trkpt lat="45.5930286" lon="10.8380938"><ele>126.0</ele><time>2026-04-18T15:08:47.71Z</time></trkpt><trkpt lat="45.5928549" lon="10.8379881"><ele>126.0</ele><time>2026-04-18T15:08:48.71Z</time></trkpt><trkpt lat="45.5926777" lon="10.8378787"><ele>126.0</ele><time>2026-04-18T15:08:49.714Z</time></trkpt><trkpt lat="45.59249" lon="10.8377614"><ele>126.33333333333334</ele><time>2026-04-18T15:08:50.719Z</time></trkpt><trkpt lat="45.5922946" lon="10.8376398"><ele>126.66666666666667</ele><time>2026-04-18T15:08:51.71Z</time></trkpt><trkpt lat="45.5920911" lon="10.8375197"><ele>127.0</ele><time>2026-04-18T15:08:52.711Z</time></trkpt><trkpt lat="45.5918762" lon="10.8374085"><ele>122.5</ele><time>2026-04-18T15:08:53.71Z</time></trkpt><trkpt lat="45.5916578" lon="10.837312"><ele>118.0</ele><time>2026-04-18T15:08:54.71Z</time></trkpt><trkpt lat="45.5914401" lon="10.8372276"><ele>118.0</ele><time>2026-04-18T15:08:55.713Z</time></trkpt><trkpt lat="45.5912233" lon="10.8371478"><ele>118.0</ele><time>2026-04-18T15:08:56.711Z</time></trkpt><trkpt lat="45.5910087" lon="10.8370674"><ele>118.0</ele><time>2026-04-18T15:08:57.709Z</time></trkpt><trkpt lat="45.5907956" lon="10.8369857"><ele>114.66666666666667</ele><time>2026-04-18T15:08:58.71Z</time></trkpt><trkpt lat="45.590586" lon="10.8369039"><ele>111.33333333333334</ele><time>2026-04-18T15:08:59.71Z</time></trkpt><trkpt lat="45.5903699" lon="10.8368239"><ele>108.0</ele><time>2026-04-18T15:09:00.709Z</time></trkpt><trkpt lat="45.5901474" lon="10.8367201"><ele>106.0</ele><time>2026-04-18T15:09:01.722Z</time></trkpt><trkpt lat="45.5899136" lon="10.8365853"><ele>104.0</ele><time>2026-04-18T15:09:02.709Z</time></trkpt><trkpt lat="45.5896747" lon="10.8364163"><ele>103.0</ele><time>2026-04-18T15:09:03.71Z</time></trkpt><trkpt lat="45.5894417" lon="10.8362313"><ele>102.0</ele><time>2026-04-18T15:09:04.723Z</time></trkpt><trkpt lat="45.5892191" lon="10.8360572"><ele>102.5</ele><time>2026-04-18T15:09:05.714Z</time></trkpt><trkpt lat="45.589013" lon="10.8358914"><ele>103.0</ele><time>2026-04-18T15:09:06.714Z</time></trkpt><trkpt lat="45.5888169" lon="10.8357337"><ele>102.66666666666667</ele><time>2026-04-18T15:09:07.714Z</time></trkpt><trkpt lat="45.5886325" lon="10.8355825"><ele>102.33333333333334</ele><time>2026-04-18T15:09:08.715Z</time></trkpt><trkpt lat="45.5884519" lon="10.8354381"><ele>102.0</ele><time>2026-04-18T15:09:09.711Z</time></trkpt><trkpt lat="45.5882739" lon="10.8352967"><ele>102.0</ele><time>2026-04-18T15:09:10.71Z</time></trkpt><trkpt lat="45.5880967" lon="10.8351531"><ele>102.0</ele><time>2026-04-18T15:09:11.715Z</time></trkpt><trkpt lat="45.5879163" lon="10.8350011"><ele>102.0</ele><time>2026-04-18T15:09:12.716Z</time></trkpt><trkpt lat="45.5877289" lon="10.8348243"><ele>102.0</ele><time>2026-04-18T15:09:13.715Z</time></trkpt><trkpt lat="45.5875414" lon="10.834628"><ele>102.0</ele><time>2026-04-18T15:09:14.724Z</time></trkpt><trkpt lat="45.5873463" lon="10.8344166"><ele>102.0</ele><time>2026-04-18T15:09:15.715Z</time></trkpt><trkpt lat="45.5871497" lon="10.8342026"><ele>102.0</ele><time>2026-04-18T15:09:16.711Z</time></trkpt><trkpt lat="45.5869436" lon="10.8339871"><ele>103.0</ele><time>2026-04-18T15:09:17.711Z</time></trkpt><trkpt lat="45.5867343" lon="10.8337657"><ele>104.0</ele><time>2026-04-18T15:09:18.712Z</time></trkpt><trkpt lat="45.5865241" lon="10.8335439"><ele>103.5</ele><time>2026-04-18T15:09:19.711Z</time></trkpt><trkpt lat="45.586316" lon="10.833319"><ele>103.0</ele><time>2026-04-18T15:09:20.71Z</time></trkpt><trkpt lat="45.5861152" lon="10.8331083"><ele>101.5</ele><time>2026-04-18T15:09:21.712Z</time></trkpt><trkpt lat="45.5859257" lon="10.8329085"><ele>100.0</ele><time>2026-04-18T15:09:22.711Z</time></trkpt><trkpt lat="45.5857468" lon="10.8327151"><ele>100.33333333333334</ele><time>2026-04-18T15:09:23.72Z</time></trkpt><trkpt lat="45.5855754" lon="10.8325331"><ele>100.66666666666666</ele><time>2026-04-18T15:09:24.711Z</time></trkpt><trkpt lat="45.5854027" lon="10.8323503"><ele>101.0</ele><time>2026-04-18T15:09:25.715Z</time></trkpt><trkpt lat="45.5852374" lon="10.8321731"><ele>101.0</ele><time>2026-04-18T15:09:26.71Z</time></trkpt><trkpt lat="45.5850799" lon="10.8320076"><ele>101.0</ele><time>2026-04-18T15:09:27.711Z</time></trkpt><trkpt lat="45.584936" lon="10.8318535"><ele>101.0</ele><time>2026-04-18T15:09:28.711Z</time></trkpt><trkpt lat="45.5848028" lon="10.8317091"><ele>101.25</ele><time>2026-04-18T15:09:29.715Z</time></trkpt><trkpt lat="45.5846868" lon="10.8315692"><ele>101.5</ele><time>2026-04-18T15:09:30.716Z</time></trkpt><trkpt lat="45.5845887" lon="10.8314176"><ele>101.75</ele><time>2026-04-18T15:09:31.719Z</time></trkpt><trkpt lat="45.5845106" lon="10.8312436"><ele>102.0</ele><time>2026-04-18T15:09:32.716Z</time></trkpt><trkpt lat="45.5844494" lon="10.8310376"><ele>100.66666666666666</ele><time>2026-04-18T15:09:33.717Z</time></trkpt><trkpt lat="45.584408" lon="10.8308069"><ele>99.33333333333333</ele><time>2026-04-18T15:09:34.71Z</time></trkpt><trkpt lat="45.5843976" lon="10.8305593"><ele>98.0</ele><time>2026-04-18T15:09:35.71Z</time></trkpt><trkpt lat="45.5844244" lon="10.8303094"><ele>98.33333333333333</ele><time>2026-04-18T15:09:36.71Z</time></trkpt><trkpt lat="45.5844879" lon="10.8300485"><ele>98.66666666666666</ele><time>2026-04-18T15:09:37.71Z</time></trkpt><trkpt lat="45.5845738" lon="10.8297845"><ele>99.0</ele><time>2026-04-18T15:09:38.711Z</time></trkpt><trkpt lat="45.584685" lon="10.8295004"><ele>99.5</ele><time>2026-04-18T15:09:39.712Z</time></trkpt><trkpt lat="45.5848093" lon="10.8292087"><ele>100.0</ele><time>2026-04-18T15:09:40.716Z</time></trkpt><trkpt lat="45.5849208" lon="10.8289393"><ele>100.0</ele><time>2026-04-18T15:09:41.715Z</time></trkpt><trkpt lat="45.5850263" lon="10.8286828"><ele>100.0</ele><time>2026-04-18T15:09:42.711Z</time></trkpt><trkpt lat="45.5851263" lon="10.82844"><ele>100.0</ele><time>2026-04-18T15:09:43.712Z</time></trkpt><trkpt lat="45.585217" lon="10.8282095"><ele>99.33333333333334</ele><time>2026-04-18T15:09:44.711Z</time></trkpt><trkpt lat="45.5853078" lon="10.82799"><ele>98.66666666666666</ele><time>2026-04-18T15:09:45.713Z</time></trkpt><trkpt lat="45.585388" lon="10.8277846"><ele>98.0</ele><time>2026-04-18T15:09:46.711Z</time></trkpt><trkpt lat="45.5854572" lon="10.8275667"><ele>104.66666666666666</ele><time>2026-04-18T15:09:47.716Z</time></trkpt><trkpt lat="45.5855107" lon="10.8273215"><ele>111.33333333333334</ele><time>2026-04-18T15:09:48.711Z</time></trkpt><trkpt lat="45.5855398" lon="10.8270607"><ele>118.0</ele><time>2026-04-18T15:09:49.715Z</time></trkpt><trkpt lat="45.5855348" lon="10.8267864"><ele>115.66666666666667</ele><time>2026-04-18T15:09:50.716Z</time></trkpt><trkpt lat="45.5854833" lon="10.8264953"><ele>113.33333333333334</ele><time>2026-04-18T15:09:51.713Z</time></trkpt><trkpt lat="45.5853958" lon="10.8261922"><ele>111.0</ele><time>2026-04-18T15:09:52.711Z</time></trkpt><trkpt lat="45.5852866" lon="10.825884"><ele>111.0</ele><time>2026-04-18T15:09:53.714Z</time></trkpt><trkpt lat="45.5851782" lon="10.8255816"><ele>111.0</ele><time>2026-04-18T15:09:54.712Z</time></trkpt><trkpt lat="45.5850818" lon="10.8253028"><ele>120.0</ele><time>2026-04-18T15:09:55.713Z</time></trkpt><trkpt lat="45.5849904" lon="10.8250402"><ele>129.0</ele><time>2026-04-18T15:09:56.71Z</time></trkpt><trkpt lat="45.5849062" lon="10.8247942"><ele>138.0</ele><time>2026-04-18T15:09:57.716Z</time></trkpt><trkpt lat="45.5848254" lon="10.8245615"><ele>138.0</ele><time>2026-04-18T15:09:58.71Z</time></trkpt><trkpt lat="45.5847563" lon="10.8243487"><ele>138.0</ele><time>2026-04-18T15:09:59.716Z</time></trkpt><trkpt lat="45.5846915" lon="10.8241579"><ele>138.0</ele><time>2026-04-18T15:10:00.717Z</time></trkpt><trkpt lat="45.5846195" lon="10.8239927"><ele>138.0</ele><time>2026-04-18T15:10:01.713Z</time></trkpt><trkpt lat="45.5845187" lon="10.823856"><ele>128.33333333333334</ele><time>2026-04-18T15:10:02.717Z</time></trkpt><trkpt lat="45.5843749" lon="10.8237614"><ele>118.66666666666667</ele><time>2026-04-18T15:10:03.712Z</time></trkpt><trkpt lat="45.5841983" lon="10.8236971"><ele>109.0</ele><time>2026-04-18T15:10:04.712Z</time></trkpt><trkpt lat="45.5840113" lon="10.8236378"><ele>109.0</ele><time>2026-04-18T15:10:05.725Z</time></trkpt><trkpt lat="45.5838382" lon="10.8236002"><ele>109.0</ele><time>2026-04-18T15:10:06.71Z</time></trkpt><trkpt lat="45.5836826" lon="10.8235633"><ele>109.0</ele><time>2026-04-18T15:10:07.709Z</time></trkpt><trkpt lat="45.5835438" lon="10.823521"><ele>111.75</ele><time>2026-04-18T15:10:08.709Z</time></trkpt><trkpt lat="45.5834257" lon="10.8234498"><ele>114.5</ele><time>2026-04-18T15:10:09.71Z</time></trkpt><trkpt lat="45.5833258" lon="10.823318"><ele>117.25</ele><time>2026-04-18T15:10:10.712Z</time></trkpt><trkpt lat="45.5832541" lon="10.8231345"><ele>120.0</ele><time>2026-04-18T15:10:11.713Z</time></trkpt><trkpt lat="45.5832107" lon="10.8228986"><ele>121.0</ele><time>2026-04-18T15:10:12.711Z</time></trkpt><trkpt lat="45.5831657" lon="10.8226307"><ele>122.0</ele><time>2026-04-18T15:10:13.718Z</time></trkpt><trkpt lat="45.5831102" lon="10.8223412"><ele>123.0</ele><time>2026-04-18T15:10:14.709Z</time></trkpt><trkpt lat="45.5830603" lon="10.8220883"><ele>123.0</ele><time>2026-04-18T15:10:15.71Z</time></trkpt><trkpt lat="45.5830218" lon="10.8218476"><ele>123.0</ele><time>2026-04-18T15:10:16.711Z</time></trkpt><trkpt lat="45.5829794" lon="10.8215941"><ele>123.0</ele><time>2026-04-18T15:10:17.716Z</time></trkpt><trkpt lat="45.5829302" lon="10.821352"><ele>125.0</ele><time>2026-04-18T15:10:18.711Z</time></trkpt><trkpt lat="45.5829006" lon="10.8211022"><ele>127.0</ele><time>2026-04-18T15:10:19.709Z</time></trkpt><trkpt lat="45.5828981" lon="10.8208782"><ele>129.0</ele><time>2026-04-18T15:10:20.712Z</time></trkpt><trkpt lat="45.5829067" lon="10.8206712"><ele>130.5</ele><time>2026-04-18T15:10:21.722Z</time></trkpt><trkpt lat="45.582928" lon="10.8204856"><ele>132.0</ele><time>2026-04-18T15:10:22.709Z</time></trkpt><trkpt lat="45.5829563" lon="10.8203266"><ele>133.5</ele><time>2026-04-18T15:10:23.713Z</time></trkpt><trkpt lat="45.5830087" lon="10.8201854"><ele>135.0</ele><time>2026-04-18T15:10:24.715Z</time></trkpt><trkpt lat="45.5830987" lon="10.8200451"><ele>136.0</ele><time>2026-04-18T15:10:25.709Z</time></trkpt><trkpt lat="45.5831925" lon="10.8199083"><ele>137.0</ele><time>2026-04-18T15:10:26.713Z</time></trkpt><trkpt lat="45.5832642" lon="10.8197644"><ele>138.0</ele><time>2026-04-18T15:10:27.715Z</time></trkpt><trkpt lat="45.5833082" lon="10.8196081"><ele>139.0</ele><time>2026-04-18T15:10:28.713Z</time></trkpt><trkpt lat="45.5833328" lon="10.8194559"><ele>140.16666666666669</ele><time>2026-04-18T15:10:29.711Z</time></trkpt><trkpt lat="45.5833424" lon="10.8193152"><ele>141.33333333333334</ele><time>2026-04-18T15:10:30.712Z</time></trkpt><trkpt lat="45.5833416" lon="10.8191808"><ele>142.5</ele><time>2026-04-18T15:10:31.717Z</time></trkpt><trkpt lat="45.5833265" lon="10.8190663"><ele>143.66666666666666</ele><time>2026-04-18T15:10:32.711Z</time></trkpt><trkpt lat="45.5833085" lon="10.8189577"><ele>144.83333333333331</ele><time>2026-04-18T15:10:33.724Z</time></trkpt><trkpt lat="45.5832955" lon="10.8188503"><ele>146.0</ele><time>2026-04-18T15:10:34.714Z</time></trkpt><trkpt lat="45.5832915" lon="10.8187413"><ele>146.0</ele><time>2026-04-18T15:10:35.711Z</time></trkpt><trkpt lat="45.5833138" lon="10.8186315"><ele>146.0</ele><time>2026-04-18T15:10:36.714Z</time></trkpt><trkpt lat="45.5833671" lon="10.8185503"><ele>146.0</ele><time>2026-04-18T15:10:37.715Z</time></trkpt><trkpt lat="45.5834428" lon="10.818523"><ele>146.0</ele><time>2026-04-18T15:10:38.71Z</time></trkpt><trkpt lat="45.5835157" lon="10.8185616"><ele>146.0</ele><time>2026-04-18T15:10:39.717Z</time></trkpt><trkpt lat="45.5835737" lon="10.8186619"><ele>146.0</ele><time>2026-04-18T15:10:40.712Z</time></trkpt><trkpt lat="45.5836114" lon="10.8188035"><ele>146.0</ele><time>2026-04-18T15:10:41.71Z</time></trkpt><trkpt lat="45.5836364" lon="10.8189606"><ele>146.0</ele><time>2026-04-18T15:10:42.715Z</time></trkpt><trkpt lat="45.5836567" lon="10.8191245"><ele>146.0</ele><time>2026-04-18T15:10:43.711Z</time></trkpt><trkpt lat="45.5836801" lon="10.8192931"><ele>146.0</ele><time>2026-04-18T15:10:44.718Z</time></trkpt><trkpt lat="45.5837083" lon="10.8194663"><ele>149.75</ele><time>2026-04-18T15:10:45.711Z</time></trkpt><trkpt lat="45.5837515" lon="10.8196465"><ele>153.5</ele><time>2026-04-18T15:10:46.723Z</time></trkpt><trkpt lat="45.5838112" lon="10.8198232"><ele>157.25</ele><time>2026-04-18T15:10:47.711Z</time></trkpt><trkpt lat="45.5838825" lon="10.8199894"><ele>161.0</ele><time>2026-04-18T15:10:48.718Z</time></trkpt><trkpt lat="45.5839506" lon="10.8201308"><ele>158.60000000000002</ele><time>2026-04-18T15:10:49.717Z</time></trkpt><trkpt lat="45.5840137" lon="10.8202515"><ele>156.20000000000002</ele><time>2026-04-18T15:10:50.783Z</time></trkpt><trkpt lat="45.5840893" lon="10.8203307"><ele>153.8</ele><time>2026-04-18T15:10:51.712Z</time></trkpt><trkpt lat="45.5841773" lon="10.8203584"><ele>151.4</ele><time>2026-04-18T15:10:52.715Z</time></trkpt><trkpt lat="45.5842589" lon="10.8203182"><ele>149.0</ele><time>2026-04-18T15:10:53.717Z</time></trkpt><trkpt lat="45.5843197" lon="10.8202225"><ele>151.4</ele><time>2026-04-18T15:10:54.72Z</time></trkpt><trkpt lat="45.5843369" lon="10.8200794"><ele>153.8</ele><time>2026-04-18T15:10:55.716Z</time></trkpt><trkpt lat="45.5843091" lon="10.8199162"><ele>156.20000000000002</ele><time>2026-04-18T15:10:56.721Z</time></trkpt><trkpt lat="45.5842745" lon="10.8197698"><ele>158.60000000000002</ele><time>2026-04-18T15:10:57.72Z</time></trkpt><trkpt lat="45.584246" lon="10.8196322"><ele>161.0</ele><time>2026-04-18T15:10:58.722Z</time></trkpt><trkpt lat="45.5842165" lon="10.8194897"><ele>161.0</ele><time>2026-04-18T15:10:59.722Z</time></trkpt><trkpt lat="45.5841865" lon="10.8193507"><ele>161.0</ele><time>2026-04-18T15:11:00.716Z</time></trkpt><trkpt lat="45.5841623" lon="10.8191942"><ele>161.0</ele><time>2026-04-18T15:11:01.716Z</time></trkpt><trkpt lat="45.5841426" lon="10.819018"><ele>161.0</ele><time>2026-04-18T15:11:02.713Z</time></trkpt><trkpt lat="45.5841396" lon="10.8188271"><ele>162.0</ele><time>2026-04-18T15:11:03.723Z</time></trkpt><trkpt lat="45.5841492" lon="10.8186323"><ele>163.0</ele><time>2026-04-18T15:11:04.71Z</time></trkpt><trkpt lat="45.5841635" lon="10.8184352"><ele>164.0</ele><time>2026-04-18T15:11:05.723Z</time></trkpt><trkpt lat="45.5841793" lon="10.8182398"><ele>165.0</ele><time>2026-04-18T15:11:06.721Z</time></trkpt><trkpt lat="45.5841947" lon="10.8180651"><ele>165.5</ele><time>2026-04-18T15:11:07.714Z</time></trkpt><trkpt lat="45.5842008" lon="10.8179129"><ele>166.0</ele><time>2026-04-18T15:11:08.724Z</time></trkpt><trkpt lat="45.5842032" lon="10.8177812"><ele>166.5</ele><time>2026-04-18T15:11:09.714Z</time></trkpt><trkpt lat="45.5842026" lon="10.8176594"><ele>167.0</ele><time>2026-04-18T15:11:10.717Z</time></trkpt><trkpt lat="45.584202" lon="10.8175441"><ele>167.5</ele><time>2026-04-18T15:11:11.715Z</time></trkpt><trkpt lat="45.5842022" lon="10.8174288"><ele>168.0</ele><time>2026-04-18T15:11:12.715Z</time></trkpt><trkpt lat="45.5842067" lon="10.8173025"><ele>169.0</ele><time>2026-04-18T15:11:13.713Z</time></trkpt><trkpt lat="45.5842249" lon="10.8171548"><ele>170.0</ele><time>2026-04-18T15:11:14.716Z</time></trkpt><trkpt lat="45.5842666" lon="10.8169882"><ele>171.0</ele><time>2026-04-18T15:11:15.716Z</time></trkpt><trkpt lat="45.5843425" lon="10.8168159"><ele>172.0</ele><time>2026-04-18T15:11:16.734Z</time></trkpt><trkpt lat="45.5844371" lon="10.8166404"><ele>175.5</ele><time>2026-04-18T15:11:17.721Z</time></trkpt><trkpt lat="45.5845295" lon="10.8164722"><ele>179.0</ele><time>2026-04-18T15:11:18.722Z</time></trkpt><trkpt lat="45.5846186" lon="10.8163224"><ele>182.5</ele><time>2026-04-18T15:11:19.72Z</time></trkpt><trkpt lat="45.5847003" lon="10.816186"><ele>186.0</ele><time>2026-04-18T15:11:20.716Z</time></trkpt><trkpt lat="45.5847775" lon="10.8160495"><ele>185.0</ele><time>2026-04-18T15:11:21.715Z</time></trkpt><trkpt lat="45.5848374" lon="10.8159052"><ele>184.0</ele><time>2026-04-18T15:11:22.714Z</time></trkpt><trkpt lat="45.5848819" lon="10.8157691"><ele>183.0</ele><time>2026-04-18T15:11:23.721Z</time></trkpt><trkpt lat="45.5849166" lon="10.8156346"><ele>182.0</ele><time>2026-04-18T15:11:24.717Z</time></trkpt><trkpt lat="45.5849415" lon="10.8154968"><ele>181.0</ele><time>2026-04-18T15:11:25.712Z</time></trkpt><trkpt lat="45.5849613" lon="10.8153626"><ele>181.0</ele><time>2026-04-18T15:11:26.717Z</time></trkpt><trkpt lat="45.5849804" lon="10.8152264"><ele>181.0</ele><time>2026-04-18T15:11:27.715Z</time></trkpt><trkpt lat="45.5850001" lon="10.815084"><ele>181.0</ele><time>2026-04-18T15:11:28.716Z</time></trkpt><trkpt lat="45.5850095" lon="10.8149303"><ele>181.0</ele><time>2026-04-18T15:11:29.712Z</time></trkpt><trkpt lat="45.5849996" lon="10.8147705"><ele>181.0</ele><time>2026-04-18T15:11:30.724Z</time></trkpt><trkpt lat="45.5849667" lon="10.8146079"><ele>181.0</ele><time>2026-04-18T15:11:31.72Z</time></trkpt><trkpt lat="45.5849298" lon="10.814462"><ele>181.0</ele><time>2026-04-18T15:11:32.71Z</time></trkpt><trkpt lat="45.5848932" lon="10.8143191"><ele>181.0</ele><time>2026-04-18T15:11:33.713Z</time></trkpt><trkpt lat="45.58485" lon="10.814173"><ele>181.0</ele><time>2026-04-18T15:11:34.711Z</time></trkpt><trkpt lat="45.5847999" lon="10.8140278"><ele>181.0</ele><time>2026-04-18T15:11:35.715Z</time></trkpt><trkpt lat="45.5847459" lon="10.8138709"><ele>182.0</ele><time>2026-04-18T15:11:36.711Z</time></trkpt><trkpt lat="45.5846871" lon="10.8136999"><ele>183.0</ele><time>2026-04-18T15:11:37.709Z</time></trkpt><trkpt lat="45.5846316" lon="10.8135181"><ele>184.0</ele><time>2026-04-18T15:11:38.709Z</time></trkpt><trkpt lat="45.5845741" lon="10.8133218"><ele>185.0</ele><time>2026-04-18T15:11:39.714Z</time></trkpt><trkpt lat="45.5845301" lon="10.813096"><ele>184.66666666666666</ele><time>2026-04-18T15:11:40.715Z</time></trkpt><trkpt lat="45.5845058" lon="10.8128463"><ele>184.33333333333334</ele><time>2026-04-18T15:11:41.714Z</time></trkpt><trkpt lat="45.584508" lon="10.8126044"><ele>184.0</ele><time>2026-04-18T15:11:42.709Z</time></trkpt><trkpt lat="45.5845267" lon="10.8123841"><ele>184.75</ele><time>2026-04-18T15:11:43.708Z</time></trkpt><trkpt lat="45.5845536" lon="10.8121797"><ele>185.5</ele><time>2026-04-18T15:11:44.713Z</time></trkpt><trkpt lat="45.5845821" lon="10.8119924"><ele>186.25</ele><time>2026-04-18T15:11:45.711Z</time></trkpt><trkpt lat="45.5846081" lon="10.8118148"><ele>187.0</ele><time>2026-04-18T15:11:46.714Z</time></trkpt><trkpt lat="45.584629" lon="10.8116449"><ele>187.25</ele><time>2026-04-18T15:11:47.709Z</time></trkpt><trkpt lat="45.5846504" lon="10.8114651"><ele>187.5</ele><time>2026-04-18T15:11:48.711Z</time></trkpt><trkpt lat="45.584666" lon="10.8112745"><ele>187.75</ele><time>2026-04-18T15:11:49.719Z</time></trkpt><trkpt lat="45.5846713" lon="10.8111045"><ele>188.0</ele><time>2026-04-18T15:11:50.716Z</time></trkpt><trkpt lat="45.5846747" lon="10.8109518"><ele>188.2</ele><time>2026-04-18T15:11:51.715Z</time></trkpt><trkpt lat="45.5846726" lon="10.8108071"><ele>188.4</ele><time>2026-04-18T15:11:52.712Z</time></trkpt><trkpt lat="45.5846699" lon="10.8106804"><ele>188.6</ele><time>2026-04-18T15:11:53.714Z</time></trkpt><trkpt lat="45.5846786" lon="10.8105713"><ele>188.79999999999998</ele><time>2026-04-18T15:11:54.71Z</time></trkpt><trkpt lat="45.5847332" lon="10.8104243"><ele>189.0</ele><time>2026-04-18T15:11:56.72Z</time></trkpt><trkpt lat="45.5848179" lon="10.8104212"><ele>189.0</ele><time>2026-04-18T15:11:58.708Z</time></trkpt><trkpt lat="45.5848676" lon="10.8104987"><ele>189.0</ele><time>2026-04-18T15:11:59.715Z</time></trkpt><trkpt lat="45.5849249" lon="10.8106078"><ele>189.0</ele><time>2026-04-18T15:12:00.71Z</time></trkpt><trkpt lat="45.5850083" lon="10.8107428"><ele>189.0</ele><time>2026-04-18T15:12:01.71Z</time></trkpt><trkpt lat="45.5851091" lon="10.8109013"><ele>189.0</ele><time>2026-04-18T15:12:02.708Z</time></trkpt><trkpt lat="45.5852212" lon="10.8110633"><ele>189.66666666666666</ele><time>2026-04-18T15:12:03.722Z</time></trkpt><trkpt lat="45.5853666" lon="10.8112249"><ele>190.33333333333331</ele><time>2026-04-18T15:12:04.708Z</time></trkpt><trkpt lat="45.5855128" lon="10.8113696"><ele>191.0</ele><time>2026-04-18T15:12:05.715Z</time></trkpt><trkpt lat="45.5856564" lon="10.8115196"><ele>191.0</ele><time>2026-04-18T15:12:06.712Z</time></trkpt><trkpt lat="45.5858067" lon="10.8116752"><ele>191.0</ele><time>2026-04-18T15:12:07.714Z</time></trkpt><trkpt lat="45.5859627" lon="10.8118257"><ele>191.0</ele><time>2026-04-18T15:12:08.708Z</time></trkpt><trkpt lat="45.5861227" lon="10.8119564"><ele>193.66666666666666</ele><time>2026-04-18T15:12:09.711Z</time></trkpt><trkpt lat="45.5862801" lon="10.8120529"><ele>196.33333333333331</ele><time>2026-04-18T15:12:10.71Z</time></trkpt><trkpt lat="45.586437" lon="10.8121269"><ele>199.0</ele><time>2026-04-18T15:12:11.71Z</time></trkpt><trkpt lat="45.5866" lon="10.8121951"><ele>199.0</ele><time>2026-04-18T15:12:12.714Z</time></trkpt><trkpt lat="45.5867652" lon="10.8122597"><ele>199.0</ele><time>2026-04-18T15:12:13.71Z</time></trkpt><trkpt lat="45.5869307" lon="10.8123234"><ele>199.0</ele><time>2026-04-18T15:12:14.709Z</time></trkpt><trkpt lat="45.5870902" lon="10.8123834"><ele>200.66666666666666</ele><time>2026-04-18T15:12:15.71Z</time></trkpt><trkpt lat="45.5872476" lon="10.812437"><ele>202.33333333333331</ele><time>2026-04-18T15:12:16.719Z</time></trkpt><trkpt lat="45.5873992" lon="10.8124908"><ele>204.0</ele><time>2026-04-18T15:12:17.708Z</time></trkpt><trkpt lat="45.5875386" lon="10.8125424"><ele>204.0</ele><time>2026-04-18T15:12:18.711Z</time></trkpt><trkpt lat="45.5876767" lon="10.8125958"><ele>204.0</ele><time>2026-04-18T15:12:19.709Z</time></trkpt><trkpt lat="45.5878137" lon="10.8126541"><ele>204.0</ele><time>2026-04-18T15:12:20.859Z</time></trkpt><trkpt lat="45.5879528" lon="10.8127188"><ele>204.0</ele><time>2026-04-18T15:12:21.718Z</time></trkpt><trkpt lat="45.5880953" lon="10.8127915"><ele>205.66666666666669</ele><time>2026-04-18T15:12:22.71Z</time></trkpt><trkpt lat="45.588243" lon="10.8128669"><ele>207.33333333333334</ele><time>2026-04-18T15:12:23.714Z</time></trkpt><trkpt lat="45.5883991" lon="10.8129495"><ele>209.0</ele><time>2026-04-18T15:12:24.715Z</time></trkpt><trkpt lat="45.5885595" lon="10.8130316"><ele>209.66666666666669</ele><time>2026-04-18T15:12:25.715Z</time></trkpt><trkpt lat="45.5887197" lon="10.8131147"><ele>210.33333333333331</ele><time>2026-04-18T15:12:26.721Z</time></trkpt><trkpt lat="45.588879" lon="10.8132019"><ele>211.0</ele><time>2026-04-18T15:12:27.708Z</time></trkpt><trkpt lat="45.5890355" lon="10.8132825"><ele>211.0</ele><time>2026-04-18T15:12:28.719Z</time></trkpt><trkpt lat="45.5891822" lon="10.8133623"><ele>211.0</ele><time>2026-04-18T15:12:29.71Z</time></trkpt><trkpt lat="45.5893307" lon="10.8134415"><ele>211.0</ele><time>2026-04-18T15:12:30.708Z</time></trkpt><trkpt lat="45.5894883" lon="10.8135234"><ele>211.0</ele><time>2026-04-18T15:12:31.717Z</time></trkpt><trkpt lat="45.5896525" lon="10.8136085"><ele>211.0</ele><time>2026-04-18T15:12:32.711Z</time></trkpt><trkpt lat="45.5898208" lon="10.8136982"><ele>211.0</ele><time>2026-04-18T15:12:33.715Z</time></trkpt><trkpt lat="45.5899914" lon="10.8137832"><ele>211.0</ele><time>2026-04-18T15:12:34.718Z</time></trkpt><trkpt lat="45.590171" lon="10.8138492"><ele>211.0</ele><time>2026-04-18T15:12:35.71Z</time></trkpt><trkpt lat="45.590346" lon="10.8138938"><ele>211.0</ele><time>2026-04-18T15:12:36.721Z</time></trkpt><trkpt lat="45.5905083" lon="10.8139253"><ele>212.5</ele><time>2026-04-18T15:12:37.711Z</time></trkpt><trkpt lat="45.5906611" lon="10.8139549"><ele>214.0</ele><time>2026-04-18T15:12:38.711Z</time></trkpt><trkpt lat="45.5908059" lon="10.8139793"><ele>215.5</ele><time>2026-04-18T15:12:39.711Z</time></trkpt><trkpt lat="45.5909455" lon="10.8140019"><ele>217.0</ele><time>2026-04-18T15:12:40.725Z</time></trkpt><trkpt lat="45.5910855" lon="10.8140254"><ele>218.33333333333331</ele><time>2026-04-18T15:12:41.71Z</time></trkpt><trkpt lat="45.5912301" lon="10.8140444"><ele>219.66666666666669</ele><time>2026-04-18T15:12:42.711Z</time></trkpt><trkpt lat="45.5913866" lon="10.814037"><ele>221.0</ele><time>2026-04-18T15:12:43.709Z</time></trkpt><trkpt lat="45.5915565" lon="10.8139664"><ele>221.0</ele><time>2026-04-18T15:12:44.712Z</time></trkpt><trkpt lat="45.5917272" lon="10.8138538"><ele>221.0</ele><time>2026-04-18T15:12:45.711Z</time></trkpt><trkpt lat="45.5918869" lon="10.8137489"><ele>221.0</ele><time>2026-04-18T15:12:46.711Z</time></trkpt><trkpt lat="45.5920331" lon="10.8136482"><ele>222.25</ele><time>2026-04-18T15:12:47.71Z</time></trkpt><trkpt lat="45.5921725" lon="10.8135479"><ele>223.5</ele><time>2026-04-18T15:12:48.712Z</time></trkpt><trkpt lat="45.5923057" lon="10.8134512"><ele>224.75</ele><time>2026-04-18T15:12:49.719Z</time></trkpt><trkpt lat="45.5924333" lon="10.8133582"><ele>226.0</ele><time>2026-04-18T15:12:50.709Z</time></trkpt><trkpt lat="45.5925561" lon="10.8132682"><ele>226.0</ele><time>2026-04-18T15:12:51.711Z</time></trkpt><trkpt lat="45.5926766" lon="10.8131838"><ele>226.0</ele><time>2026-04-18T15:12:52.71Z</time></trkpt><trkpt lat="45.5927981" lon="10.8131118"><ele>226.0</ele><time>2026-04-18T15:12:53.711Z</time></trkpt><trkpt lat="45.5929294" lon="10.8130666"><ele>226.0</ele><time>2026-04-18T15:12:54.722Z</time></trkpt><trkpt lat="45.5930701" lon="10.813058"><ele>228.5</ele><time>2026-04-18T15:12:55.712Z</time></trkpt><trkpt lat="45.5932095" lon="10.8130683"><ele>231.0</ele><time>2026-04-18T15:12:56.715Z</time></trkpt><trkpt lat="45.5933448" lon="10.8130982"><ele>233.5</ele><time>2026-04-18T15:12:57.711Z</time></trkpt><trkpt lat="45.5934774" lon="10.8131312"><ele>236.0</ele><time>2026-04-18T15:12:58.716Z</time></trkpt><trkpt lat="45.5936116" lon="10.8131692"><ele>237.75</ele><time>2026-04-18T15:12:59.713Z</time></trkpt><trkpt lat="45.5937515" lon="10.8132045"><ele>239.5</ele><time>2026-04-18T15:13:00.71Z</time></trkpt><trkpt lat="45.5938979" lon="10.8132435"><ele>241.25</ele><time>2026-04-18T15:13:01.712Z</time></trkpt><trkpt lat="45.5940489" lon="10.8132805"><ele>243.0</ele><time>2026-04-18T15:13:02.711Z</time></trkpt><trkpt lat="45.5941857" lon="10.8133169"><ele>243.0</ele><time>2026-04-18T15:13:03.719Z</time></trkpt><trkpt lat="45.5943095" lon="10.8133471"><ele>243.0</ele><time>2026-04-18T15:13:04.722Z</time></trkpt><trkpt lat="45.5944271" lon="10.8133752"><ele>243.0</ele><time>2026-04-18T15:13:05.714Z</time></trkpt><trkpt lat="45.5945407" lon="10.8134039"><ele>243.0</ele><time>2026-04-18T15:13:06.723Z</time></trkpt><trkpt lat="45.5946623" lon="10.8134482"><ele>245.75</ele><time>2026-04-18T15:13:07.712Z</time></trkpt><trkpt lat="45.5947896" lon="10.8135234"><ele>248.5</ele><time>2026-04-18T15:13:08.713Z</time></trkpt><trkpt lat="45.5949121" lon="10.813635"><ele>251.25</ele><time>2026-04-18T15:13:09.716Z</time></trkpt><trkpt lat="45.5950226" lon="10.813776"><ele>254.0</ele><time>2026-04-18T15:13:10.718Z</time></trkpt><trkpt lat="45.5951266" lon="10.8139301"><ele>254.0</ele><time>2026-04-18T15:13:11.715Z</time></trkpt><trkpt lat="45.5952228" lon="10.8140801"><ele>254.0</ele><time>2026-04-18T15:13:12.717Z</time></trkpt><trkpt lat="45.5953128" lon="10.8142251"><ele>254.0</ele><time>2026-04-18T15:13:13.723Z</time></trkpt><trkpt lat="45.5954023" lon="10.8143715"><ele>254.0</ele><time>2026-04-18T15:13:14.721Z</time></trkpt><trkpt lat="45.5954938" lon="10.8145209"><ele>257.5</ele><time>2026-04-18T15:13:15.712Z</time></trkpt><trkpt lat="45.5955756" lon="10.8146599"><ele>261.0</ele><time>2026-04-18T15:13:16.712Z</time></trkpt><trkpt lat="45.5956484" lon="10.8147838"><ele>264.5</ele><time>2026-04-18T15:13:17.714Z</time></trkpt><trkpt lat="45.595717" lon="10.8149051"><ele>268.0</ele><time>2026-04-18T15:13:18.712Z</time></trkpt><trkpt lat="45.595795" lon="10.8150196"><ele>268.0</ele><time>2026-04-18T15:13:19.721Z</time></trkpt><trkpt lat="45.5958954" lon="10.815122"><ele>268.0</ele><time>2026-04-18T15:13:20.712Z</time></trkpt><trkpt lat="45.5960273" lon="10.8151829"><ele>268.0</ele><time>2026-04-18T15:13:21.714Z</time></trkpt><trkpt lat="45.596179" lon="10.8151878"><ele>268.0</ele><time>2026-04-18T15:13:22.714Z</time></trkpt><trkpt lat="45.5963157" lon="10.8151561"><ele>269.5</ele><time>2026-04-18T15:13:23.716Z</time></trkpt><trkpt lat="45.5964456" lon="10.815129"><ele>271.0</ele><time>2026-04-18T15:13:24.715Z</time></trkpt><trkpt lat="45.5965813" lon="10.8151021"><ele>272.5</ele><time>2026-04-18T15:13:25.715Z</time></trkpt><trkpt lat="45.5967191" lon="10.815072"><ele>274.0</ele><time>2026-04-18T15:13:26.709Z</time></trkpt><trkpt lat="45.5968446" lon="10.8150393"><ele>274.0</ele><time>2026-04-18T15:13:27.712Z</time></trkpt><trkpt lat="45.5969675" lon="10.8150091"><ele>274.0</ele><time>2026-04-18T15:13:28.724Z</time></trkpt><trkpt lat="45.5970916" lon="10.8149837"><ele>274.0</ele><time>2026-04-18T15:13:29.715Z</time></trkpt><trkpt lat="45.5972063" lon="10.8149618"><ele>274.0</ele><time>2026-04-18T15:13:30.713Z</time></trkpt><trkpt lat="45.5973252" lon="10.8149306"><ele>273.75</ele><time>2026-04-18T15:13:31.711Z</time></trkpt><trkpt lat="45.5974491" lon="10.8149008"><ele>273.5</ele><time>2026-04-18T15:13:32.711Z</time></trkpt><trkpt lat="45.5975712" lon="10.8148695"><ele>273.25</ele><time>2026-04-18T15:13:33.709Z</time></trkpt><trkpt lat="45.5976847" lon="10.8148275"><ele>273.0</ele><time>2026-04-18T15:13:34.71Z</time></trkpt><trkpt lat="45.5977863" lon="10.8147715"><ele>272.3333333333333</ele><time>2026-04-18T15:13:35.71Z</time></trkpt><trkpt lat="45.5978749" lon="10.8147026"><ele>271.6666666666667</ele><time>2026-04-18T15:13:36.716Z</time></trkpt><trkpt lat="45.5979533" lon="10.8146311"><ele>271.0</ele><time>2026-04-18T15:13:37.711Z</time></trkpt><trkpt lat="45.5980257" lon="10.8145685"><ele>270.33333333333337</ele><time>2026-04-18T15:13:38.711Z</time></trkpt><trkpt lat="45.5980722" lon="10.8145053"><ele>269.6666666666667</ele><time>2026-04-18T15:13:39.71Z</time></trkpt><trkpt lat="45.598081" lon="10.814415"><ele>269.0</ele><time>2026-04-18T15:13:40.711Z</time></trkpt><trkpt lat="45.5980552" lon="10.814309"><ele>268.0</ele><time>2026-04-18T15:13:41.711Z</time></trkpt><trkpt lat="45.5980046" lon="10.8141578"><ele>267.0</ele><time>2026-04-18T15:13:42.711Z</time></trkpt><trkpt lat="45.5979527" lon="10.8139555"><ele>266.0</ele><time>2026-04-18T15:13:43.717Z</time></trkpt><trkpt lat="45.5979087" lon="10.8137477"><ele>265.0</ele><time>2026-04-18T15:13:44.719Z</time></trkpt><trkpt lat="45.5978699" lon="10.8135531"><ele>264.5</ele><time>2026-04-18T15:13:45.725Z</time></trkpt><trkpt lat="45.5978367" lon="10.8133587"><ele>264.0</ele><time>2026-04-18T15:13:46.712Z</time></trkpt><trkpt lat="45.5978235" lon="10.8131649"><ele>263.5</ele><time>2026-04-18T15:13:47.721Z</time></trkpt><trkpt lat="45.597843" lon="10.8129512"><ele>263.0</ele><time>2026-04-18T15:13:48.725Z</time></trkpt><trkpt lat="45.5979057" lon="10.8127158"><ele>263.6666666666667</ele><time>2026-04-18T15:13:49.712Z</time></trkpt><trkpt lat="45.5980084" lon="10.8124663"><ele>264.3333333333333</ele><time>2026-04-18T15:13:50.711Z</time></trkpt><trkpt lat="45.5981297" lon="10.8122049"><ele>265.0</ele><time>2026-04-18T15:13:51.713Z</time></trkpt><trkpt lat="45.5982409" lon="10.8119517"><ele>267.0</ele><time>2026-04-18T15:13:52.714Z</time></trkpt><trkpt lat="45.5983551" lon="10.8117006"><ele>269.0</ele><time>2026-04-18T15:13:53.713Z</time></trkpt><trkpt lat="45.5984622" lon="10.8114647"><ele>271.0</ele><time>2026-04-18T15:13:54.711Z</time></trkpt><trkpt lat="45.5985607" lon="10.8112376"><ele>271.0</ele><time>2026-04-18T15:13:55.711Z</time></trkpt><trkpt lat="45.5986528" lon="10.8110189"><ele>271.0</ele><time>2026-04-18T15:13:56.721Z</time></trkpt><trkpt lat="45.5987391" lon="10.8108187"><ele>271.0</ele><time>2026-04-18T15:13:57.716Z</time></trkpt><trkpt lat="45.5988328" lon="10.8106185"><ele>269.66666666666663</ele><time>2026-04-18T15:13:58.721Z</time></trkpt><trkpt lat="45.5989472" lon="10.8104171"><ele>268.3333333333333</ele><time>2026-04-18T15:13:59.72Z</time></trkpt><trkpt lat="45.5990962" lon="10.8102143"><ele>267.0</ele><time>2026-04-18T15:14:00.714Z</time></trkpt><trkpt lat="45.5992645" lon="10.8100302"><ele>267.0</ele><time>2026-04-18T15:14:01.714Z</time></trkpt><trkpt lat="45.5994187" lon="10.8098609"><ele>267.0</ele><time>2026-04-18T15:14:02.709Z</time></trkpt><trkpt lat="45.5995639" lon="10.8097032"><ele>267.0</ele><time>2026-04-18T15:14:03.722Z</time></trkpt><trkpt lat="45.5997011" lon="10.8095579"><ele>266.0</ele><time>2026-04-18T15:14:04.725Z</time></trkpt><trkpt lat="45.599829" lon="10.80942"><ele>265.0</ele><time>2026-04-18T15:14:05.716Z</time></trkpt><trkpt lat="45.599951" lon="10.8092849"><ele>264.0</ele><time>2026-04-18T15:14:06.719Z</time></trkpt><trkpt lat="45.6000654" lon="10.8091576"><ele>264.0</ele><time>2026-04-18T15:14:07.719Z</time></trkpt><trkpt lat="45.6001727" lon="10.8090344"><ele>264.0</ele><time>2026-04-18T15:14:08.721Z</time></trkpt><trkpt lat="45.600275" lon="10.808925"><ele>264.0</ele><time>2026-04-18T15:14:09.713Z</time></trkpt><trkpt lat="45.6003679" lon="10.8088183"><ele>264.0</ele><time>2026-04-18T15:14:10.711Z</time></trkpt><trkpt lat="45.6004526" lon="10.8087153"><ele>264.0</ele><time>2026-04-18T15:14:11.714Z</time></trkpt><trkpt lat="45.6005317" lon="10.8086036"><ele>264.0</ele><time>2026-04-18T15:14:12.715Z</time></trkpt><trkpt lat="45.6006041" lon="10.8084802"><ele>264.0</ele><time>2026-04-18T15:14:13.723Z</time></trkpt><trkpt lat="45.600667" lon="10.8083464"><ele>264.0</ele><time>2026-04-18T15:14:14.718Z</time></trkpt><trkpt lat="45.6007126" lon="10.8082085"><ele>264.0</ele><time>2026-04-18T15:14:15.713Z</time></trkpt><trkpt lat="45.6007472" lon="10.8080695"><ele>264.0</ele><time>2026-04-18T15:14:16.71Z</time></trkpt><trkpt lat="45.6007735" lon="10.8079209"><ele>264.0</ele><time>2026-04-18T15:14:17.709Z</time></trkpt><trkpt lat="45.6007885" lon="10.8077766"><ele>264.0</ele><time>2026-04-18T15:14:18.711Z</time></trkpt><trkpt lat="45.6007963" lon="10.8076398"><ele>264.0</ele><time>2026-04-18T15:14:19.711Z</time></trkpt><trkpt lat="45.6008036" lon="10.8075161"><ele>264.0</ele><time>2026-04-18T15:14:20.71Z</time></trkpt><trkpt lat="45.6008103" lon="10.807408"><ele>264.4</ele><time>2026-04-18T15:14:21.712Z</time></trkpt><trkpt lat="45.6008024" lon="10.8072673"><ele>264.79999999999995</ele><time>2026-04-18T15:14:23.709Z</time></trkpt><trkpt lat="45.6007114" lon="10.8072175"><ele>265.20000000000005</ele><time>2026-04-18T15:14:25.721Z</time></trkpt><trkpt lat="45.6006325" lon="10.8071748"><ele>265.6</ele><time>2026-04-18T15:14:26.711Z</time></trkpt><trkpt lat="45.6005413" lon="10.8070939"><ele>266.0</ele><time>2026-04-18T15:14:27.709Z</time></trkpt><trkpt lat="45.6004765" lon="10.8070262"><ele>266.0</ele><time>2026-04-18T15:14:28.711Z</time></trkpt><trkpt lat="45.600424" lon="10.8069601"><ele>266.0</ele><time>2026-04-18T15:14:29.721Z</time></trkpt><trkpt lat="45.6003752" lon="10.8068109"><ele>266.0</ele><time>2026-04-18T15:14:31.709Z</time></trkpt><trkpt lat="45.6003936" lon="10.8066929"><ele>266.0</ele><time>2026-04-18T15:14:32.709Z</time></trkpt><trkpt lat="45.6004173" lon="10.8065639"><ele>266.0</ele><time>2026-04-18T15:14:33.711Z</time></trkpt><trkpt lat="45.60044" lon="10.8064505"><ele>266.0</ele><time>2026-04-18T15:14:34.708Z</time></trkpt><trkpt lat="45.6004582" lon="10.8063416"><ele>266.0</ele><time>2026-04-18T15:14:35.71Z</time></trkpt><trkpt lat="45.6004853" lon="10.8062025"><ele>266.0</ele><time>2026-04-18T15:14:37.709Z</time></trkpt><trkpt lat="45.600426" lon="10.8061457"><ele>266.0</ele><time>2026-04-18T15:14:40.715Z</time></trkpt><trkpt lat="45.6003481" lon="10.8061294"><ele>266.0</ele><time>2026-04-18T15:14:42.708Z</time></trkpt><trkpt lat="45.6002837" lon="10.8061108"><ele>266.0</ele><time>2026-04-18T15:14:44.71Z</time></trkpt><trkpt lat="45.6002027" lon="10.8060505"><ele>266.0</ele><time>2026-04-18T15:14:46.717Z</time></trkpt><trkpt lat="45.600106" lon="10.8059516"><ele>265.6666666666667</ele><time>2026-04-18T15:14:48.71Z</time></trkpt><trkpt lat="45.6000098" lon="10.8058926"><ele>265.33333333333337</ele><time>2026-04-18T15:14:50.709Z</time></trkpt><trkpt lat="45.5999473" lon="10.8058772"><ele>265.0</ele><time>2026-04-18T15:14:51.708Z</time></trkpt><trkpt lat="45.5998746" lon="10.8058651"><ele>264.6666666666667</ele><time>2026-04-18T15:14:52.709Z</time></trkpt><trkpt lat="45.5997926" lon="10.8058561"><ele>264.3333333333333</ele><time>2026-04-18T15:14:53.71Z</time></trkpt><trkpt lat="45.5997169" lon="10.8058492"><ele>264.0</ele><time>2026-04-18T15:14:54.71Z</time></trkpt><trkpt lat="45.5996532" lon="10.8058455"><ele>264.0</ele><time>2026-04-18T15:14:55.721Z</time></trkpt><trkpt lat="45.5995426" lon="10.8058461"><ele>264.0</ele><time>2026-04-18T15:14:57.712Z</time></trkpt><trkpt lat="45.5994812" lon="10.8058223"><ele>264.0</ele><time>2026-04-18T15:14:58.715Z</time></trkpt><trkpt lat="45.599407" lon="10.8057668"><ele>264.0</ele><time>2026-04-18T15:14:59.712Z</time></trkpt><trkpt lat="45.5993253" lon="10.805693"><ele>264.0</ele><time>2026-04-18T15:15:00.712Z</time></trkpt><trkpt lat="45.5992198" lon="10.8056473"><ele>264.8</ele><time>2026-04-18T15:15:01.713Z</time></trkpt><trkpt lat="45.5990911" lon="10.8056126"><ele>265.59999999999997</ele><time>2026-04-18T15:15:02.71Z</time></trkpt><trkpt lat="45.598981" lon="10.8055879"><ele>266.4</ele><time>2026-04-18T15:15:03.71Z</time></trkpt><trkpt lat="45.598882" lon="10.8055654"><ele>267.2</ele><time>2026-04-18T15:15:04.71Z</time></trkpt><trkpt lat="45.5987919" lon="10.8055542"><ele>268.0</ele><time>2026-04-18T15:15:05.71Z</time></trkpt><trkpt lat="45.5987041" lon="10.8055705"><ele>268.8333333333333</ele><time>2026-04-18T15:15:06.712Z</time></trkpt><trkpt lat="45.5986237" lon="10.8055958"><ele>269.66666666666663</ele><time>2026-04-18T15:15:07.71Z</time></trkpt><trkpt lat="45.5985414" lon="10.8056523"><ele>270.5</ele><time>2026-04-18T15:15:08.711Z</time></trkpt><trkpt lat="45.5984798" lon="10.8057132"><ele>271.3333333333333</ele><time>2026-04-18T15:15:09.708Z</time></trkpt><trkpt lat="45.5984287" lon="10.805772"><ele>272.1666666666667</ele><time>2026-04-18T15:15:10.712Z</time></trkpt><trkpt lat="45.5983475" lon="10.8058431"><ele>273.0</ele><time>2026-04-18T15:15:12.711Z</time></trkpt><trkpt lat="45.5982181" lon="10.8058259"><ele>273.0</ele><time>2026-04-18T15:15:14.711Z</time></trkpt><trkpt lat="45.5981298" lon="10.8057893"><ele>273.0</ele><time>2026-04-18T15:15:15.712Z</time></trkpt><trkpt lat="45.5980496" lon="10.8057443"><ele>273.0</ele><time>2026-04-18T15:15:16.717Z</time></trkpt><trkpt lat="45.5979873" lon="10.8056963"><ele>273.0</ele><time>2026-04-18T15:15:17.715Z</time></trkpt><trkpt lat="45.5979032" lon="10.8055969"><ele>273.0</ele><time>2026-04-18T15:15:19.709Z</time></trkpt><trkpt lat="45.5977978" lon="10.8055321"><ele>275.5</ele><time>2026-04-18T15:15:21.723Z</time></trkpt><trkpt lat="45.5977132" lon="10.8054949"><ele>278.0</ele><time>2026-04-18T15:15:22.714Z</time></trkpt><trkpt lat="45.5976376" lon="10.8054641"><ele>280.5</ele><time>2026-04-18T15:15:23.713Z</time></trkpt><trkpt lat="45.5975697" lon="10.8054333"><ele>283.0</ele><time>2026-04-18T15:15:24.72Z</time></trkpt><trkpt lat="45.5974997" lon="10.8054084"><ele>285.5</ele><time>2026-04-18T15:15:25.708Z</time></trkpt><trkpt lat="45.5974275" lon="10.8053874"><ele>288.0</ele><time>2026-04-18T15:15:26.712Z</time></trkpt><trkpt lat="45.5973543" lon="10.8053732"><ele>288.00000000000006</ele><time>2026-04-18T15:15:28.71Z</time></trkpt><trkpt lat="45.5973123" lon="10.8052906"><ele>288.0</ele><time>2026-04-18T15:15:31.713Z</time></trkpt><trkpt lat="45.5973443" lon="10.8051909"><ele>288.0</ele><time>2026-04-18T15:15:34.71Z</time></trkpt><trkpt lat="45.5973923" lon="10.8051112"><ele>288.0</ele><time>2026-04-18T15:15:36.708Z</time></trkpt><trkpt lat="45.5974611" lon="10.8050418"><ele>288.0</ele><time>2026-04-18T15:15:38.722Z</time></trkpt><trkpt lat="45.5975056" lon="10.8049606"><ele>288.00000000000006</ele><time>2026-04-18T15:15:40.723Z</time></trkpt><trkpt lat="45.5975458" lon="10.8048898"><ele>288.0</ele><time>2026-04-18T15:15:42.708Z</time></trkpt><trkpt lat="45.5975455" lon="10.8047975"><ele>287.5714285714286</ele><time>2026-04-18T15:15:51.71Z</time></trkpt><trkpt lat="45.5975513" lon="10.8048888"><ele>287.14285714285717</ele><time>2026-04-18T15:17:15.704Z</time></trkpt><trkpt lat="45.5975252" lon="10.8049807"><ele>286.7142857142857</ele><time>2026-04-18T15:18:25.704Z</time></trkpt><trkpt lat="45.5975851" lon="10.8049266"><ele>286.28571428571433</ele><time>2026-04-18T15:18:54.704Z</time></trkpt><trkpt lat="45.5976516" lon="10.8049474"><ele>285.8571428571429</ele><time>2026-04-18T15:19:20.704Z</time></trkpt><trkpt lat="45.5977207" lon="10.804951"><ele>285.42857142857144</ele><time>2026-04-18T15:19:27.704Z</time></trkpt><trkpt lat="45.5977862" lon="10.8049436"><ele>285.0</ele><time>2026-04-18T15:19:33.704Z</time></trkpt><trkpt lat="45.5977635" lon="10.8048521"><ele>285.0</ele><time>2026-04-18T15:22:37.704Z</time></trkpt><trkpt lat="45.5977201" lon="10.8047859"><ele>285.0</ele><time>2026-04-18T15:22:46.704Z</time></trkpt><trkpt lat="45.5976529" lon="10.8047604"><ele>285.0</ele><time>2026-04-18T15:22:57.704Z</time></trkpt><trkpt lat="45.5975876" lon="10.8047684"><ele>285.0</ele><time>2026-04-18T15:23:05.704Z</time></trkpt><trkpt lat="45.5975569" lon="10.8048673"><ele>285.0</ele><time>2026-04-18T15:28:51.704Z</time></trkpt><trkpt lat="45.5975011" lon="10.8049254"><ele>285.0</ele><time>2026-04-18T15:28:57.704Z</time></trkpt><trkpt lat="45.5976239" lon="10.8048815"><ele>285.0</ele><time>2026-04-18T15:29:46.704Z</time></trkpt><trkpt lat="45.5975306" lon="10.8048718"><ele>285.0</ele><time>2026-04-18T15:29:51.704Z</time></trkpt><trkpt lat="45.5977426" lon="10.8049139"><ele>285.0</ele><time>2026-04-18T15:29:58.704Z</time></trkpt><trkpt lat="45.5975306" lon="10.8048718"><ele>285.0</ele><time>2026-04-18T15:30:00.704Z</time></trkpt><trkpt lat="45.5974202" lon="10.8053524"><ele>285.0</ele><time>2026-04-18T15:31:17.704Z</time></trkpt><trkpt lat="45.5975457" lon="10.8049223"><ele>285.0</ele><time>2026-04-18T15:31:51.704Z</time></trkpt><trkpt lat="45.5975777" lon="10.8048329"><ele>285.0</ele><time>2026-04-18T15:32:51.704Z</time></trkpt><trkpt lat="45.597627" lon="10.8048897"><ele>285.0</ele><time>2026-04-18T15:43:10.717Z</time></trkpt><trkpt lat="45.5975888" lon="10.8048161"><ele>285.0</ele><time>2026-04-18T15:43:52.717Z</time></trkpt><trkpt lat="45.5975139" lon="10.8048081"><ele>285.0</ele><time>2026-04-18T15:46:59.717Z</time></trkpt><trkpt lat="45.5975762" lon="10.8048239"><ele>285.0</ele><time>2026-04-18T15:47:32.717Z</time></trkpt><trkpt lat="45.5975351" lon="10.8049087"><ele>285.0</ele><time>2026-04-18T15:56:52.717Z</time></trkpt></trkseg></trk></gpx>